
Distance (Route):
Temperature : 0°C
Humidity : 0%
Pressure : 0hPa| Receiver | Frames | First received | Last received |
|---|---|---|---|
| PETON7-10 | 394 | 2026-09-01 11:32:34 | 2026-09-01 13:38:05 |
| ATIDSZ-14 | 225 | 2026-09-01 11:58:53 | 2026-09-01 13:38:56 |
| OM5KV | 215 | 2026-09-01 13:13:56 | 2026-09-01 13:38:32 |
| OE3OSB-13 | 212 | 2026-09-01 11:32:00 | 2026-09-01 13:38:51 |
| OE5MMP-10 | 211 | 2026-09-01 12:16:42 | 2026-09-01 13:10:27 |
| OE3JTB-15 | 136 | 2026-09-01 11:31:03 | 2026-09-01 13:24:24 |
| OE5DXL-15 | 79 | 2026-09-01 12:16:41 | 2026-09-01 13:19:29 |
| PG1ADW-2 | 57 | 2026-09-01 11:43:07 | 2026-09-01 12:51:05 |
| HA6NAB-11 | 15 | 2026-09-01 12:17:21 | 2026-09-01 13:19:06 |
| S52SK | 14 | 2026-09-01 11:41:11 | 2026-09-01 11:47:19 |
| OK1SLM-15 | 10 | 2026-09-01 12:51:10 | 2026-09-01 13:05:47 |
| SP9KGR-15 | 3 | 2026-09-01 12:57:45 | 2026-09-01 12:59:11 |
| Receiver | Date | Latitude | Longitude | Direction | Speed | Altitude | Climb | Temperature | Humidity | Pressure | Voltage | Killtimer | Uptime | BKT | XDATA |
|---|---|---|---|---|---|---|---|---|---|---|---|---|---|---|---|
| ATIDSZ-14 | 2026-09-01 13:38:56 | 48.29868 | 17.58484 | 144° | 29km/h | 896m | -9.7m/s | 0°C | 0% | 0hPa | 0V | 00:00:00 | 00:00:00 | 00:00:00 | |
| OE3OSB-13 | 2026-09-01 13:38:51 | 48.29961 | 17.58347 | 118° | 20km/h | 1075m | -6.3m/s | 17.4°C | 50.8% | 905.6hPa | 0V | 00:00:00 | 00:00:00 | 00:00:00 | |
| ATIDSZ-14 | 2026-09-01 13:38:32 | 48.29989 | 17.58310 | 138° | 18km/h | 1129m | -8.2m/s | 0°C | 0% | 0hPa | 0V | 00:00:00 | 00:00:00 | 00:00:00 | |
| OM5KV | 2026-09-01 13:38:32 | 48.29989 | 17.58310 | 138° | 18km/h | 1129m | -8.2m/s | 0°C | 0% | 0hPa | 0V | 00:00:00 | 00:00:00 | 00:00:00 | |
| OM5KV | 2026-09-01 13:38:26 | 48.30006 | 17.58270 | 125° | 18km/h | 1183m | -7.6m/s | 0°C | 0% | 0hPa | 0V | 00:00:00 | 00:00:00 | 00:00:00 | |
| OM5KV | 2026-09-01 13:38:21 | 48.30022 | 17.58241 | 123° | 24km/h | 1226m | -8.6m/s | 0°C | 0% | 0hPa | 0V | 00:00:00 | 00:00:00 | 00:00:00 | |
| OE3OSB-13 | 2026-09-01 13:38:20 | 48.30029 | 17.58229 | 132° | 16km/h | 1242m | -7.1m/s | 15.8°C | 53.0% | 887.4hPa | 0V | 00:00:00 | 00:00:00 | 00:00:00 | |
| OM5KV | 2026-09-01 13:38:16 | 48.30036 | 17.58210 | 122° | 15km/h | 1266m | -8.1m/s | 0°C | 0% | 0hPa | 0V | 00:00:00 | 00:00:00 | 00:00:00 | |
| OM5KV | 2026-09-01 13:38:14 | 48.30041 | 17.58198 | 131° | 22km/h | 1283m | -6.0m/s | 0°C | 0% | 0hPa | 0V | 00:00:00 | 00:00:00 | 00:00:00 | |
| ATIDSZ-14 | 2026-09-01 13:38:11 | 48.30050 | 17.58177 | 126° | 24km/h | 1309m | -7.1m/s | 0°C | 0% | 0hPa | 0V | 00:00:00 | 00:00:00 | 00:00:00 | |
| OM5KV | 2026-09-01 13:38:10 | 48.30053 | 17.58170 | 123° | 22km/h | 1317m | -8.4m/s | 0°C | 0% | 0hPa | 0V | 00:00:00 | 00:00:00 | 00:00:00 | |
| OM5KV | 2026-09-01 13:38:05 | 48.30064 | 17.58140 | 115° | 20km/h | 1359m | -6.1m/s | 0°C | 0% | 0hPa | 0V | 00:00:00 | 00:00:00 | 00:00:00 | |
| PETON7-10 | 2026-09-01 13:38:05 | 48.30064 | 17.58140 | 115° | 16km/h | 1359m | -6.1m/s | 0°C | 0% | 0hPa | 0V | 00:00:00 | 00:00:00 | 00:00:00 | |
| OM5KV | 2026-09-01 13:38:03 | 48.30069 | 17.58127 | 126° | 20km/h | 1375m | -8.9m/s | 0°C | 0% | 0hPa | 0V | 00:00:00 | 00:00:00 | 00:00:00 | |
| OE3OSB-13 | 2026-09-01 13:37:48 | 48.30097 | 17.58042 | 123° | 16km/h | 1519m | -7.8m/s | 13.2°C | 60.9% | 859.0hPa | 0V | 00:00:00 | 00:00:00 | 00:00:00 | |
| OM5KV | 2026-09-01 13:37:46 | 48.30102 | 17.58030 | 133° | 16km/h | 1539m | -8.5m/s | 0°C | 0% | 0hPa | 0V | 00:00:00 | 00:00:00 | 00:00:00 | |
| PETON7-10 | 2026-09-01 13:37:45 | 48.30105 | 17.58026 | 128° | 20km/h | 1548m | -7.6m/s | 0°C | 0% | 0hPa | 0V | 00:00:00 | 00:00:00 | 00:00:00 | |
| OM5KV | 2026-09-01 13:37:42 | 48.30113 | 17.58010 | 124° | 20km/h | 1575m | -10.5m/s | 0°C | 0% | 0hPa | 0V | 00:00:00 | 00:00:00 | 00:00:00 | |
| OM5KV | 2026-09-01 13:37:40 | 48.30120 | 17.57996 | 129° | 24km/h | 1591m | -7.4m/s | 0°C | 0% | 0hPa | 0V | 00:00:00 | 00:00:00 | 00:00:00 | |
| PETON7-10 | 2026-09-01 13:37:38 | 48.30126 | 17.57979 | 122° | 27km/h | 1609m | -8.3m/s | 0°C | 0% | 0hPa | 0V | 00:00:00 | 00:00:00 | 00:00:00 | |
| OM5KV | 2026-09-01 13:37:36 | 48.30133 | 17.57962 | 119° | 26km/h | 1629m | -6.5m/s | 0°C | 0% | 0hPa | 0V | 00:00:00 | 00:00:00 | 00:00:00 | |
| PETON7-10 | 2026-09-01 13:37:33 | 48.30143 | 17.57934 | 123° | 27km/h | 1653m | -6.9m/s | 0°C | 0% | 0hPa | 0V | 00:00:00 | 00:00:00 | 00:00:00 | |
| OM5KV | 2026-09-01 13:37:31 | 48.30150 | 17.57916 | 130° | 27km/h | 1670m | -9.2m/s | 0°C | 0% | 0hPa | 0V | 00:00:00 | 00:00:00 | 00:00:00 | |
| ATIDSZ-14 | 2026-09-01 13:37:30 | 48.30154 | 17.57907 | 127° | 27km/h | 1680m | -8.5m/s | 0°C | 0% | 0hPa | 0V | 00:00:00 | 00:00:00 | 00:00:00 | |
| PETON7-10 | 2026-09-01 13:37:28 | 48.30162 | 17.57889 | 129° | 31km/h | 1700m | -10.3m/s | 0°C | 0% | 0hPa | 0V | 00:00:00 | 00:00:00 | 00:00:00 | |
| OM5KV | 2026-09-01 13:37:25 | 48.30176 | 17.57862 | 126° | 27km/h | 1729m | -8.3m/s | 0°C | 0% | 0hPa | 0V | 00:00:00 | 00:00:00 | 00:00:00 | |
| OM5KV | 2026-09-01 13:37:23 | 48.30184 | 17.57845 | 129° | 27km/h | 1748m | -8.3m/s | 0°C | 0% | 0hPa | 0V | 00:00:00 | 00:00:00 | 00:00:00 | |
| OM5KV | 2026-09-01 13:37:19 | 48.30203 | 17.57808 | 125° | 31km/h | 1787m | -7.8m/s | 0°C | 0% | 0hPa | 0V | 00:00:00 | 00:00:00 | 00:00:00 | |
| PETON7-10 | 2026-09-01 13:37:17 | 48.30213 | 17.57789 | 133° | 31km/h | 1806m | -9.8m/s | 0°C | 0% | 0hPa | 0V | 00:00:00 | 00:00:00 | 00:00:00 | |
| OM5KV | 2026-09-01 13:37:13 | 48.30231 | 17.57751 | 128° | 27km/h | 1846m | -7.3m/s | 0°C | 0% | 0hPa | 0V | 00:00:00 | 00:00:00 | 00:00:00 | |
| OM5KV | 2026-09-01 13:37:12 | 48.30235 | 17.57742 | 120° | 31km/h | 1855m | -9.5m/s | 0°C | 0% | 0hPa | 0V | 00:00:00 | 00:00:00 | 00:00:00 | |
| ATIDSZ-14 | 2026-09-01 13:37:08 | 48.30254 | 17.57702 | 126° | 33km/h | 1891m | -8.9m/s | 0°C | 0% | 0hPa | 0V | 00:00:00 | 00:00:00 | 00:00:00 | |
| OM5KV | 2026-09-01 13:37:07 | 48.30258 | 17.57693 | 121° | 26km/h | 1900m | -6.4m/s | 0°C | 0% | 0hPa | 0V | 00:00:00 | 00:00:00 | 00:00:00 | |
| OM5KV | 2026-09-01 13:37:07 | 48.30258 | 17.57693 | 121° | 26km/h | 1900m | -6.4m/s | 0°C | 0% | 0hPa | 0V | 00:00:00 | 00:00:00 | 00:00:00 | |
| PETON7-10 | 2026-09-01 13:37:07 | 48.30259 | 17.57693 | 120° | 27km/h | 1900m | -6.3m/s | 0°C | 0% | 0hPa | 0V | 00:00:00 | 00:00:00 | 00:00:00 | |
| OM5KV | 2026-09-01 13:37:01 | 48.30282 | 17.57634 | 122° | 29km/h | 1949m | -8.1m/s | 0°C | 0% | 0hPa | 0V | 00:00:00 | 00:00:00 | 00:00:00 | |
| OE3OSB-13 | 2026-09-01 13:36:46 | 48.30326 | 17.57485 | 110° | 31km/h | 2071m | -8.8m/s | 8.0°C | 69.2% | 803.5hPa | 0V | 00:00:00 | 00:00:00 | 00:00:00 | |
| PETON7-10 | 2026-09-01 13:36:44 | 48.30330 | 17.57464 | 106° | 33km/h | 2088m | -7.8m/s | 0°C | 0% | 0hPa | 0V | 00:00:00 | 00:00:00 | 00:00:00 | |
| OM5KV | 2026-09-01 13:36:43 | 48.30332 | 17.57453 | 105° | 31km/h | 2097m | -8.4m/s | 0°C | 0% | 0hPa | 0V | 00:00:00 | 00:00:00 | 00:00:00 | |
| OM5KV | 2026-09-01 13:36:42 | 48.30334 | 17.57442 | 100° | 31km/h | 2106m | -8.7m/s | 0°C | 0% | 0hPa | 0V | 00:00:00 | 00:00:00 | 00:00:00 | |
| OM5KV | 2026-09-01 13:36:38 | 48.30343 | 17.57395 | 107° | 33km/h | 2144m | -6.9m/s | 0°C | 0% | 0hPa | 0V | 00:00:00 | 00:00:00 | 00:00:00 | |
| OM5KV | 2026-09-01 13:36:36 | 48.30349 | 17.57372 | 109° | 31km/h | 2162m | -9.2m/s | 0°C | 0% | 0hPa | 0V | 00:00:00 | 00:00:00 | 00:00:00 | |
| PETON7-10 | 2026-09-01 13:36:32 | 48.30359 | 17.57325 | 104° | 35km/h | 2194m | -8.5m/s | 0°C | 0% | 0hPa | 0V | 00:00:00 | 00:00:00 | 00:00:00 | |
| OM5KV | 2026-09-01 13:36:30 | 48.30364 | 17.57301 | 114° | 33km/h | 2211m | -7.7m/s | 0°C | 0% | 0hPa | 0V | 00:00:00 | 00:00:00 | 00:00:00 | |
| ATIDSZ-14 | 2026-09-01 13:36:26 | 48.30375 | 17.57252 | 110° | 37km/h | 2242m | -6.2m/s | 0°C | 0% | 0hPa | 0V | 00:00:00 | 00:00:00 | 00:00:00 | |
| OM5KV | 2026-09-01 13:36:23 | 48.30384 | 17.57214 | 115° | 35km/h | 2265m | -4.9m/s | 0°C | 0% | 0hPa | 0V | 00:00:00 | 00:00:00 | 00:00:00 | |
| OM5KV | 2026-09-01 13:36:22 | 48.30387 | 17.57201 | 111° | 38km/h | 2271m | -5.7m/s | 0°C | 0% | 0hPa | 0V | 00:00:00 | 00:00:00 | 00:00:00 | |
| OM5KV | 2026-09-01 13:36:18 | 48.30397 | 17.57146 | 103° | 38km/h | 2298m | -6.0m/s | 0°C | 0% | 0hPa | 0V | 00:00:00 | 00:00:00 | 00:00:00 | |
| PETON7-10 | 2026-09-01 13:36:17 | 48.30399 | 17.57131 | 107° | 40km/h | 2305m | -7.2m/s | 0°C | 0% | 0hPa | 0V | 00:00:00 | 00:00:00 | 00:00:00 | |
| OE3OSB-13 | 2026-09-01 13:36:15 | 48.30405 | 17.57103 | 106° | 38km/h | 2321m | -5.8m/s | 6.2°C | 66.0% | 779.2hPa | 0V | 00:00:00 | 00:00:00 | 00:00:00 | |
| OM5KV | 2026-09-01 13:36:12 | 48.30414 | 17.57058 | 112° | 40km/h | 2341m | -6.3m/s | 0°C | 0% | 0hPa | 0V | 00:00:00 | 00:00:00 | 00:00:00 | |
| ATIDSZ-14 | 2026-09-01 13:36:06 | 48.30433 | 17.56969 | 108° | 44km/h | 2387m | -4.7m/s | 0°C | 0% | 0hPa | 0V | 00:00:00 | 00:00:00 | 00:00:00 | |
| PETON7-10 | 2026-09-01 13:36:01 | 48.30450 | 17.56898 | 113° | 38km/h | 2419m | -5.5m/s | 0°C | 0% | 0hPa | 0V | 00:00:00 | 00:00:00 | 00:00:00 | |
| OM5KV | 2026-09-01 13:36:00 | 48.30453 | 17.56885 | 117° | 37km/h | 2426m | -7.7m/s | 0°C | 0% | 0hPa | 0V | 00:00:00 | 00:00:00 | 00:00:00 | |
| OM5KV | 2026-09-01 13:35:55 | 48.30471 | 17.56812 | 111° | 38km/h | 2461m | -8.3m/s | 0°C | 0% | 0hPa | 0V | 00:00:00 | 00:00:00 | 00:00:00 | |
| OM5KV | 2026-09-01 13:35:54 | 48.30474 | 17.56798 | 111° | 40km/h | 2470m | -8.4m/s | 0°C | 0% | 0hPa | 0V | 00:00:00 | 00:00:00 | 00:00:00 | |
| OM5KV | 2026-09-01 13:35:49 | 48.30492 | 17.56733 | 111° | 40km/h | 2514m | -9.1m/s | 0°C | 0% | 0hPa | 0V | 00:00:00 | 00:00:00 | 00:00:00 | |
| OM5KV | 2026-09-01 13:35:48 | 48.30496 | 17.56720 | 112° | 35km/h | 2524m | -9.8m/s | 0°C | 0% | 0hPa | 0V | 00:00:00 | 00:00:00 | 00:00:00 | |
| PETON7-10 | 2026-09-01 13:35:46 | 48.30502 | 17.56693 | 113° | 38km/h | 2543m | -7.4m/s | 0°C | 0% | 0hPa | 0V | 00:00:00 | 00:00:00 | 00:00:00 | |
| ATIDSZ-14 | 2026-09-01 13:35:45 | 48.30506 | 17.56680 | 118° | 37km/h | 2551m | -6.3m/s | 0°C | 0% | 0hPa | 0V | 00:00:00 | 00:00:00 | 00:00:00 | |
| OM5KV | 2026-09-01 13:35:44 | 48.30510 | 17.56668 | 117° | 38km/h | 2558m | -7.2m/s | 0°C | 0% | 0hPa | 0V | 00:00:00 | 00:00:00 | 00:00:00 | |
| OM5KV | 2026-09-01 13:35:42 | 48.30518 | 17.56641 | 114° | 38km/h | 2575m | -8.8m/s | 0°C | 0% | 0hPa | 0V | 00:00:00 | 00:00:00 | 00:00:00 | |
| OM5KV | 2026-09-01 13:35:38 | 48.30534 | 17.56586 | 115° | 38km/h | 2613m | -7.3m/s | 0°C | 0% | 0hPa | 0V | 00:00:00 | 00:00:00 | 00:00:00 | |
| OM5KV | 2026-09-01 13:35:36 | 48.30543 | 17.56560 | 121° | 38km/h | 2632m | -7.8m/s | 0°C | 0% | 0hPa | 0V | 00:00:00 | 00:00:00 | 00:00:00 | |
| OM5KV | 2026-09-01 13:35:32 | 48.30560 | 17.56508 | 116° | 38km/h | 2666m | -8.9m/s | 0°C | 0% | 0hPa | 0V | 00:00:00 | 00:00:00 | 00:00:00 | |
| OM5KV | 2026-09-01 13:35:31 | 48.30568 | 17.56482 | 112° | 37km/h | 2683m | -7.1m/s | 0°C | 0% | 0hPa | 0V | 00:00:00 | 00:00:00 | 00:00:00 | |
| PETON7-10 | 2026-09-01 13:35:30 | 48.30567 | 17.56482 | 111° | 38km/h | 2683m | -7.0m/s | 0°C | 0% | 0hPa | 0V | 00:00:00 | 00:00:00 | 00:00:00 | |
| ATIDSZ-14 | 2026-09-01 13:35:25 | 48.30588 | 17.56415 | 118° | 38km/h | 2726m | -4.6m/s | 0°C | 0% | 0hPa | 0V | 00:00:00 | 00:00:00 | 00:00:00 | |
| OM5KV | 2026-09-01 13:35:22 | 48.30601 | 17.56375 | 117° | 37km/h | 2749m | -8.8m/s | 0°C | 0% | 0hPa | 0V | 00:00:00 | 00:00:00 | 00:00:00 | |
| OM5KV | 2026-09-01 13:35:18 | 48.30616 | 17.56320 | 109° | 38km/h | 2784m | -8.7m/s | 0°C | 0% | 0hPa | 0V | 00:00:00 | 00:00:00 | 00:00:00 | |
| OM5KV | 2026-09-01 13:35:16 | 48.30624 | 17.56292 | 113° | 37km/h | 2802m | -8.2m/s | 0°C | 0% | 0hPa | 0V | 00:00:00 | 00:00:00 | 00:00:00 | |
| PETON7-10 | 2026-09-01 13:35:15 | 48.30628 | 17.56279 | 113° | 37km/h | 2812m | -8.9m/s | 0°C | 0% | 0hPa | 0V | 00:00:00 | 00:00:00 | 00:00:00 | |
| OM5KV | 2026-09-01 13:35:12 | 48.30638 | 17.56238 | 108° | 35km/h | 2841m | -6.4m/s | 0°C | 0% | 0hPa | 0V | 00:00:00 | 00:00:00 | 00:00:00 | |
| OM5KV | 2026-09-01 13:35:07 | 48.30655 | 17.56173 | 113° | 38km/h | 2877m | -5.7m/s | 0°C | 0% | 0hPa | 0V | 00:00:00 | 00:00:00 | 00:00:00 | |
| ATIDSZ-14 | 2026-09-01 13:35:05 | 48.30662 | 17.56147 | 111° | 38km/h | 2893m | -8.0m/s | 0°C | 0% | 0hPa | 0V | 00:00:00 | 00:00:00 | 00:00:00 | |
| OM5KV | 2026-09-01 13:35:01 | 48.30674 | 17.56094 | 107° | 35km/h | 2928m | -6.8m/s | 0°C | 0% | 0hPa | 0V | 00:00:00 | 00:00:00 | 00:00:00 | |
| PETON7-10 | 2026-09-01 13:35:00 | 48.30677 | 17.56081 | 115° | 38km/h | 2936m | -7.3m/s | 0°C | 0% | 0hPa | 0V | 00:00:00 | 00:00:00 | 00:00:00 | |
| OM5KV | 2026-09-01 13:34:59 | 48.30681 | 17.56067 | 110° | 35km/h | 2945m | -8.0m/s | 0°C | 0% | 0hPa | 0V | 00:00:00 | 00:00:00 | 00:00:00 | |
| OM5KV | 2026-09-01 13:34:56 | 48.30691 | 17.56029 | 110° | 37km/h | 2973m | -7.4m/s | 0°C | 0% | 0hPa | 0V | 00:00:00 | 00:00:00 | 00:00:00 | |
| OM5KV | 2026-09-01 13:34:54 | 48.30697 | 17.56002 | 107° | 37km/h | 2990m | -7.6m/s | 0°C | 0% | 0hPa | 0V | 00:00:00 | 00:00:00 | 00:00:00 | |
| OM5KV | 2026-09-01 13:34:50 | 48.30709 | 17.55946 | 103° | 40km/h | 3025m | -8.1m/s | 0°C | 0% | 0hPa | 0V | 00:00:00 | 00:00:00 | 00:00:00 | |
| OM5KV | 2026-09-01 13:34:48 | 48.30714 | 17.55918 | 101° | 38km/h | 3045m | -8.4m/s | 0°C | 0% | 0hPa | 0V | 00:00:00 | 00:00:00 | 00:00:00 | |
| OM5KV | 2026-09-01 13:34:42 | 48.30728 | 17.55823 | 94° | 42km/h | 3098m | -7.7m/s | 0°C | 0% | 0hPa | 0V | 00:00:00 | 00:00:00 | 00:00:00 | |
| PETON7-10 | 2026-09-01 13:34:29 | 48.30757 | 17.55630 | 109° | 40km/h | 3212m | -7.8m/s | 0°C | 0% | 0hPa | 0V | 00:00:00 | 00:00:00 | 00:00:00 | |
| ATIDSZ-14 | 2026-09-01 13:34:24 | 48.30773 | 17.55560 | 115° | 40km/h | 3253m | -7.0m/s | 0°C | 0% | 0hPa | 0V | 00:00:00 | 00:00:00 | 00:00:00 | |
| OM5KV | 2026-09-01 13:34:23 | 48.30777 | 17.55545 | 111° | 42km/h | 3261m | -7.4m/s | 0°C | 0% | 0hPa | 0V | 00:00:00 | 00:00:00 | 00:00:00 | |
| OM5KV | 2026-09-01 13:34:22 | 48.30782 | 17.55531 | 117° | 42km/h | 3269m | -7.1m/s | 0°C | 0% | 0hPa | 0V | 00:00:00 | 00:00:00 | 00:00:00 | |
| OM5KV | 2026-09-01 13:34:17 | 48.30804 | 17.55459 | 116° | 40km/h | 3313m | -7.6m/s | 0°C | 0% | 0hPa | 0V | 00:00:00 | 00:00:00 | 00:00:00 | |
| OM5KV | 2026-09-01 13:34:16 | 48.30808 | 17.55445 | 114° | 42km/h | 3323m | -8.9m/s | 0°C | 0% | 0hPa | 0V | 00:00:00 | 00:00:00 | 00:00:00 | |
| PETON7-10 | 2026-09-01 13:34:13 | 48.30821 | 17.55403 | 112° | 38km/h | 3349m | -7.8m/s | 0°C | 0% | 0hPa | 0V | 00:00:00 | 00:00:00 | 00:00:00 | |
| OE3OSB-13 | 2026-09-01 13:34:11 | 48.30834 | 17.55363 | 115° | 40km/h | 3374m | -7.8m/s | 0.4°C | 31.9% | 683.5hPa | 0V | 00:00:00 | 00:00:00 | 00:00:00 | |
| OM5KV | 2026-09-01 13:34:05 | 48.30853 | 17.55293 | 110° | 40km/h | 3416m | -6.2m/s | 0°C | 0% | 0hPa | 0V | 00:00:00 | 00:00:00 | 00:00:00 | |
| ATIDSZ-14 | 2026-09-01 13:34:02 | 48.30864 | 17.55251 | 115° | 42km/h | 3439m | -6.7m/s | 0°C | 0% | 0hPa | 0V | 00:00:00 | 00:00:00 | 00:00:00 | |
| OM5KV | 2026-09-01 13:33:59 | 48.30876 | 17.55207 | 113° | 40km/h | 3462m | -6.4m/s | 0°C | 0% | 0hPa | 0V | 00:00:00 | 00:00:00 | 00:00:00 | |
| PETON7-10 | 2026-09-01 13:33:58 | 48.30879 | 17.55192 | 111° | 42km/h | 3469m | -6.7m/s | 0°C | 0% | 0hPa | 0V | 00:00:00 | 00:00:00 | 00:00:00 | |
| OM5KV | 2026-09-01 13:33:53 | 48.30900 | 17.55119 | 116° | 44km/h | 3513m | -7.8m/s | 0°C | 0% | 0hPa | 0V | 00:00:00 | 00:00:00 | 00:00:00 | |
| OM5KV | 2026-09-01 13:33:47 | 48.30925 | 17.55030 | 110° | 46km/h | 3567m | -7.7m/s | 0°C | 0% | 0hPa | 0V | 00:00:00 | 00:00:00 | 00:00:00 | |
| PETON7-10 | 2026-09-01 13:33:43 | 48.30942 | 17.54967 | 115° | 40km/h | 3607m | -9.5m/s | 0°C | 0% | 0hPa | 0V | 00:00:00 | 00:00:00 | 00:00:00 | |
| OM5KV | 2026-09-01 13:33:42 | 48.30946 | 17.54951 | 110° | 46km/h | 3617m | -8.5m/s | 0°C | 0% | 0hPa | 0V | 00:00:00 | 00:00:00 | 00:00:00 | |
| ATIDSZ-14 | 2026-09-01 13:33:41 | 48.30950 | 17.54935 | 113° | 44km/h | 3626m | -8.4m/s | 0°C | 0% | 0hPa | 0V | 00:00:00 | 00:00:00 | 00:00:00 | |
| OE3OSB-13 | 2026-09-01 13:33:40 | 48.30959 | 17.54904 | 113° | 42km/h | 3645m | -8.1m/s | 0.1°C | 22.1% | 660.5hPa | 0V | 00:00:00 | 00:00:00 | 00:00:00 | |
| OM5KV | 2026-09-01 13:33:36 | 48.30970 | 17.54859 | 108° | 42km/h | 3673m | -9.0m/s | 0°C | 0% | 0hPa | 0V | 00:00:00 | 00:00:00 | 00:00:00 | |
| OM5KV | 2026-09-01 13:33:30 | 48.30991 | 17.54774 | 116° | 35km/h | 3725m | -9.6m/s | 0°C | 0% | 0hPa | 0V | 00:00:00 | 00:00:00 | 00:00:00 | |
| PETON7-10 | 2026-09-01 13:33:28 | 48.30998 | 17.54747 | 107° | 38km/h | 3744m | -9.0m/s | 0°C | 0% | 0hPa | 0V | 00:00:00 | 00:00:00 | 00:00:00 | |
| ATIDSZ-14 | 2026-09-01 13:33:20 | 48.31024 | 17.54635 | 111° | 37km/h | 3812m | -8.6m/s | 0°C | 0% | 0hPa | 0V | 00:00:00 | 00:00:00 | 00:00:00 | |
| OM5KV | 2026-09-01 13:33:19 | 48.31027 | 17.54622 | 110° | 37km/h | 3821m | -7.7m/s | 0°C | 0% | 0hPa | 0V | 00:00:00 | 00:00:00 | 00:00:00 | |
| OM5KV | 2026-09-01 13:33:14 | 48.31043 | 17.54553 | 111° | 38km/h | 3867m | -8.8m/s | 0°C | 0% | 0hPa | 0V | 00:00:00 | 00:00:00 | 00:00:00 | |
| OM5KV | 2026-09-01 13:33:13 | 48.31046 | 17.54539 | 108° | 38km/h | 3876m | -6.7m/s | 0°C | 0% | 0hPa | 0V | 00:00:00 | 00:00:00 | 00:00:00 | |
| PETON7-10 | 2026-09-01 13:33:11 | 48.31053 | 17.54512 | 110° | 38km/h | 3893m | -9.4m/s | 0°C | 0% | 0hPa | 0V | 00:00:00 | 00:00:00 | 00:00:00 | |
| OE3OSB-13 | 2026-09-01 13:33:09 | 48.31061 | 17.54470 | 103° | 37km/h | 3920m | -8.4m/s | -1.9°C | 20.3% | 637.7hPa | 0V | 00:00:00 | 00:00:00 | 00:00:00 | |
| OM5KV | 2026-09-01 13:33:03 | 48.31074 | 17.54401 | 110° | 37km/h | 3960m | -6.8m/s | 0°C | 0% | 0hPa | 0V | 00:00:00 | 00:00:00 | 00:00:00 | |
| ATIDSZ-14 | 2026-09-01 13:33:00 | 48.31082 | 17.54358 | 109° | 40km/h | 3986m | -7.6m/s | 0°C | 0% | 0hPa | 0V | 00:00:00 | 00:00:00 | 00:00:00 | |
| OM5KV | 2026-09-01 13:32:58 | 48.31088 | 17.54330 | 106° | 38km/h | 4006m | -8.4m/s | 0°C | 0% | 0hPa | 0V | 00:00:00 | 00:00:00 | 00:00:00 | |
| PETON7-10 | 2026-09-01 13:32:55 | 48.31097 | 17.54288 | 107° | 40km/h | 4038m | -9.6m/s | 0°C | 0% | 0hPa | 0V | 00:00:00 | 00:00:00 | 00:00:00 | |
| OM5KV | 2026-09-01 13:32:54 | 48.31099 | 17.54274 | 105° | 37km/h | 4048m | -9.3m/s | 0°C | 0% | 0hPa | 0V | 00:00:00 | 00:00:00 | 00:00:00 | |
| OM5KV | 2026-09-01 13:32:52 | 48.31105 | 17.54245 | 107° | 37km/h | 4068m | -8.8m/s | 0°C | 0% | 0hPa | 0V | 00:00:00 | 00:00:00 | 00:00:00 | |
| OM5KV | 2026-09-01 13:32:48 | 48.31114 | 17.54190 | 104° | 40km/h | 4105m | -6.5m/s | 0°C | 0% | 0hPa | 0V | 00:00:00 | 00:00:00 | 00:00:00 | |
| OM5KV | 2026-09-01 13:32:46 | 48.31119 | 17.54160 | 107° | 40km/h | 4122m | -8.1m/s | 0°C | 0% | 0hPa | 0V | 00:00:00 | 00:00:00 | 00:00:00 | |
| OM5KV | 2026-09-01 13:32:43 | 48.31123 | 17.54116 | 102° | 40km/h | 4150m | -6.9m/s | 0°C | 0% | 0hPa | 0V | 00:00:00 | 00:00:00 | 00:00:00 | |
| OE3OSB-13 | 2026-09-01 13:32:38 | 48.31132 | 17.54025 | 97° | 42km/h | 4201m | -7.5m/s | -3.2°C | 13.5% | 615.5hPa | 0V | 00:00:00 | 00:00:00 | 00:00:00 | |
| OM5KV | 2026-09-01 13:32:37 | 48.31132 | 17.54025 | 99° | 42km/h | 4201m | -7.5m/s | 0°C | 0% | 0hPa | 0V | 00:00:00 | 00:00:00 | 00:00:00 | |
| PETON7-10 | 2026-09-01 13:32:36 | 48.31133 | 17.54009 | 97° | 42km/h | 4208m | -5.2m/s | 0°C | 0% | 0hPa | 0V | 00:00:00 | 00:00:00 | 00:00:00 | |
| OM5KV | 2026-09-01 13:32:35 | 48.31134 | 17.53994 | 96° | 44km/h | 4216m | -8.9m/s | 0°C | 0% | 0hPa | 0V | 00:00:00 | 00:00:00 | 00:00:00 | |
| OM5KV | 2026-09-01 13:32:31 | 48.31138 | 17.53930 | 93° | 37km/h | 4252m | -8.2m/s | 0°C | 0% | 0hPa | 0V | 00:00:00 | 00:00:00 | 00:00:00 | |
| OM5KV | 2026-09-01 13:32:29 | 48.31139 | 17.53899 | 97° | 42km/h | 4271m | -10.0m/s | 0°C | 0% | 0hPa | 0V | 00:00:00 | 00:00:00 | 00:00:00 | |
| OM5KV | 2026-09-01 13:32:26 | 48.31140 | 17.53851 | 92° | 42km/h | 4299m | -8.2m/s | 0°C | 0% | 0hPa | 0V | 00:00:00 | 00:00:00 | 00:00:00 | |
| OM5KV | 2026-09-01 13:32:24 | 48.31141 | 17.53818 | 91° | 42km/h | 4317m | -7.5m/s | 0°C | 0% | 0hPa | 0V | 00:00:00 | 00:00:00 | 00:00:00 | |
| PETON7-10 | 2026-09-01 13:32:21 | 48.31142 | 17.53769 | 95° | 44km/h | 4345m | -10.8m/s | 0°C | 0% | 0hPa | 0V | 00:00:00 | 00:00:00 | 00:00:00 | |
| OM5KV | 2026-09-01 13:32:20 | 48.31142 | 17.53752 | 94° | 47km/h | 4356m | -9.4m/s | 0°C | 0% | 0hPa | 0V | 00:00:00 | 00:00:00 | 00:00:00 | |
| ATIDSZ-14 | 2026-09-01 13:32:19 | 48.31143 | 17.53734 | 93° | 46km/h | 4366m | -9.8m/s | 0°C | 0% | 0hPa | 0V | 00:00:00 | 00:00:00 | 00:00:00 | |
| OM5KV | 2026-09-01 13:32:18 | 48.31143 | 17.53718 | 92° | 42km/h | 4376m | -8.3m/s | 0°C | 0% | 0hPa | 0V | 00:00:00 | 00:00:00 | 00:00:00 | |
| OM5KV | 2026-09-01 13:32:14 | 48.31143 | 17.53651 | 92° | 44km/h | 4415m | -8.6m/s | 0°C | 0% | 0hPa | 0V | 00:00:00 | 00:00:00 | 00:00:00 | |
| OM5KV | 2026-09-01 13:32:12 | 48.31144 | 17.53617 | 98° | 44km/h | 4431m | -8.8m/s | 0°C | 0% | 0hPa | 0V | 00:00:00 | 00:00:00 | 00:00:00 | |
| OM5KV | 2026-09-01 13:32:08 | 48.31149 | 17.53547 | 100° | 46km/h | 4471m | -9.7m/s | 0°C | 0% | 0hPa | 0V | 00:00:00 | 00:00:00 | 00:00:00 | |
| OE3OSB-13 | 2026-09-01 13:32:07 | 48.31152 | 17.53512 | 104° | 44km/h | 4490m | -9.8m/s | -4.1°C | 5.2% | 592.9hPa | 0V | 00:00:00 | 00:00:00 | 00:00:00 | |
| PETON7-10 | 2026-09-01 13:32:06 | 48.31152 | 17.53512 | 105° | 46km/h | 4491m | -9.7m/s | 0°C | 0% | 0hPa | 0V | 00:00:00 | 00:00:00 | 00:00:00 | |
| OM5KV | 2026-09-01 13:32:02 | 48.31160 | 17.53441 | 102° | 47km/h | 4532m | -9.8m/s | 0°C | 0% | 0hPa | 0V | 00:00:00 | 00:00:00 | 00:00:00 | |
| OM5KV | 2026-09-01 13:32:01 | 48.31162 | 17.53424 | 103° | 44km/h | 4541m | -8.5m/s | 0°C | 0% | 0hPa | 0V | 00:00:00 | 00:00:00 | 00:00:00 | |
| ATIDSZ-14 | 2026-09-01 13:31:58 | 48.31169 | 17.53374 | 102° | 44km/h | 4572m | -9.5m/s | 0°C | 0% | 0hPa | 0V | 00:00:00 | 00:00:00 | 00:00:00 | |
| OM5KV | 2026-09-01 13:31:57 | 48.31171 | 17.53357 | 103° | 44km/h | 4583m | -10.5m/s | 0°C | 0% | 0hPa | 0V | 00:00:00 | 00:00:00 | 00:00:00 | |
| OM5KV | 2026-09-01 13:31:56 | 48.31173 | 17.53341 | 100° | 42km/h | 4594m | -10.4m/s | 0°C | 0% | 0hPa | 0V | 00:00:00 | 00:00:00 | 00:00:00 | |
| PETON7-10 | 2026-09-01 13:31:51 | 48.31185 | 17.53257 | 102° | 47km/h | 4647m | -10.4m/s | 0°C | 0% | 0hPa | 0V | 00:00:00 | 00:00:00 | 00:00:00 | |
| OM5KV | 2026-09-01 13:31:45 | 48.31201 | 17.53151 | 102° | 46km/h | 4711m | -11.0m/s | 0°C | 0% | 0hPa | 0V | 00:00:00 | 00:00:00 | 00:00:00 | |
| OM5KV | 2026-09-01 13:31:44 | 48.31203 | 17.53133 | 106° | 49km/h | 4722m | -10.6m/s | 0°C | 0% | 0hPa | 0V | 00:00:00 | 00:00:00 | 00:00:00 | |
| ATIDSZ-14 | 2026-09-01 13:31:38 | 48.31220 | 17.53029 | 106° | 47km/h | 4782m | -8.3m/s | 0°C | 0% | 0hPa | 0V | 00:00:00 | 00:00:00 | 00:00:00 | |
| OE3OSB-13 | 2026-09-01 13:31:36 | 48.31228 | 17.52977 | 99° | 46km/h | 4810m | -8.0m/s | -4.8°C | 4.5% | 569.2hPa | 0V | 00:00:00 | 00:00:00 | 00:00:00 | |
| OM5KV | 2026-09-01 13:31:34 | 48.31230 | 17.52960 | 103° | 46km/h | 4819m | -8.0m/s | 0°C | 0% | 0hPa | 0V | 00:00:00 | 00:00:00 | 00:00:00 | |
| OM5KV | 2026-09-01 13:31:28 | 48.31245 | 17.52857 | 111° | 47km/h | 4877m | -10.4m/s | 0°C | 0% | 0hPa | 0V | 00:00:00 | 00:00:00 | 00:00:00 | |
| OM5KV | 2026-09-01 13:31:25 | 48.31253 | 17.52806 | 107° | 47km/h | 4907m | -8.3m/s | 0°C | 0% | 0hPa | 0V | 00:00:00 | 00:00:00 | 00:00:00 | |
| PETON7-10 | 2026-09-01 13:31:21 | 48.31264 | 17.52734 | 100° | 49km/h | 4944m | -8.7m/s | 0°C | 0% | 0hPa | 0V | 00:00:00 | 00:00:00 | 00:00:00 | |
| OM5KV | 2026-09-01 13:31:19 | 48.31270 | 17.52697 | 102° | 47km/h | 4962m | -8.4m/s | 0°C | 0% | 0hPa | 0V | 00:00:00 | 00:00:00 | 00:00:00 | |
| ATIDSZ-14 | 2026-09-01 13:31:18 | 48.31273 | 17.52679 | 103° | 49km/h | 4971m | -8.3m/s | 0°C | 0% | 0hPa | 0V | 00:00:00 | 00:00:00 | 00:00:00 | |
| OM5KV | 2026-09-01 13:31:13 | 48.31284 | 17.52584 | 104° | 47km/h | 5019m | -9.6m/s | 0°C | 0% | 0hPa | 0V | 00:00:00 | 00:00:00 | 00:00:00 | |
| OM5KV | 2026-09-01 13:31:10 | 48.31293 | 17.52525 | 104° | 49km/h | 5053m | -11.4m/s | 0°C | 0% | 0hPa | 0V | 00:00:00 | 00:00:00 | 00:00:00 | |
| OM5KV | 2026-09-01 13:31:08 | 48.31298 | 17.52486 | 103° | 53km/h | 5073m | -9.1m/s | 0°C | 0% | 0hPa | 0V | 00:00:00 | 00:00:00 | 00:00:00 | |
| PETON7-10 | 2026-09-01 13:31:06 | 48.31303 | 17.52446 | 101° | 55km/h | 5094m | -9.9m/s | 0°C | 0% | 0hPa | 0V | 00:00:00 | 00:00:00 | 00:00:00 | |
| OE3OSB-13 | 2026-09-01 13:31:05 | 48.31308 | 17.52405 | 103° | 53km/h | 5113m | -9.4m/s | -7.1°C | 5.8% | 547.3hPa | 0V | 00:00:00 | 00:00:00 | 00:00:00 | |
| OM5KV | 2026-09-01 13:31:04 | 48.31308 | 17.52405 | 104° | 55km/h | 5114m | -9.4m/s | 0°C | 0% | 0hPa | 0V | 00:00:00 | 00:00:00 | 00:00:00 | |
| OM5KV | 2026-09-01 13:30:58 | 48.31325 | 17.52283 | 103° | 57km/h | 5174m | -10.2m/s | 0°C | 0% | 0hPa | 0V | 00:00:00 | 00:00:00 | 00:00:00 | |
| OM5KV | 2026-09-01 13:30:57 | 48.31329 | 17.52262 | 103° | 57km/h | 5184m | -8.8m/s | 0°C | 0% | 0hPa | 0V | 00:00:00 | 00:00:00 | 00:00:00 | |
| OM5KV | 2026-09-01 13:30:53 | 48.31340 | 17.52175 | 101° | 57km/h | 5224m | -9.8m/s | 0°C | 0% | 0hPa | 0V | 00:00:00 | 00:00:00 | 00:00:00 | |
| OM5KV | 2026-09-01 13:30:52 | 48.31343 | 17.52153 | 104° | 58km/h | 5234m | -10.8m/s | 0°C | 0% | 0hPa | 0V | 00:00:00 | 00:00:00 | 00:00:00 | |
| PETON7-10 | 2026-09-01 13:30:51 | 48.31345 | 17.52132 | 100° | 60km/h | 5245m | -9.3m/s | 0°C | 0% | 0hPa | 0V | 00:00:00 | 00:00:00 | 00:00:00 | |
| OM5KV | 2026-09-01 13:30:47 | 48.31357 | 17.52045 | 101° | 58km/h | 5289m | -8.6m/s | 0°C | 0% | 0hPa | 0V | 00:00:00 | 00:00:00 | 00:00:00 | |
| OM5KV | 2026-09-01 13:30:46 | 48.31360 | 17.52023 | 103° | 58km/h | 5299m | -10.2m/s | 0°C | 0% | 0hPa | 0V | 00:00:00 | 00:00:00 | 00:00:00 | |
| OM5KV | 2026-09-01 13:30:41 | 48.31373 | 17.51911 | 102° | 60km/h | 5350m | -8.1m/s | 0°C | 0% | 0hPa | 0V | 00:00:00 | 00:00:00 | 00:00:00 | |
| ATIDSZ-14 | 2026-09-01 13:30:37 | 48.31383 | 17.51820 | 100° | 60km/h | 5388m | -8.5m/s | 0°C | 0% | 0hPa | 0V | 00:00:00 | 00:00:00 | 00:00:00 | |
| OE3OSB-13 | 2026-09-01 13:30:34 | 48.31392 | 17.51724 | 99° | 64km/h | 5424m | -8.1m/s | -8.5°C | 20.9% | 525.7hPa | 0V | 00:00:00 | 00:00:00 | 00:00:00 | |
| PETON7-10 | 2026-09-01 13:30:33 | 48.31392 | 17.51724 | 100° | 68km/h | 5424m | -8.0m/s | 0°C | 0% | 0hPa | 0V | 00:00:00 | 00:00:00 | 00:00:00 | |
| OM5KV | 2026-09-01 13:30:28 | 48.31404 | 17.51601 | 102° | 66km/h | 5471m | -8.5m/s | 0°C | 0% | 0hPa | 0V | 00:00:00 | 00:00:00 | 00:00:00 | |
| OM5KV | 2026-09-01 13:30:22 | 48.31417 | 17.51450 | 100° | 66km/h | 5525m | -9.5m/s | 0°C | 0% | 0hPa | 0V | 00:00:00 | 00:00:00 | 00:00:00 | |
| OM5KV | 2026-09-01 13:30:17 | 48.31431 | 17.51294 | 97° | 66km/h | 5584m | -9.3m/s | 0°C | 0% | 0hPa | 0V | 00:00:00 | 00:00:00 | 00:00:00 | |
| OM5KV | 2026-09-01 13:30:10 | 48.31445 | 17.51136 | 100° | 73km/h | 5646m | -10.2m/s | 0°C | 0% | 0hPa | 0V | 00:00:00 | 00:00:00 | 00:00:00 | |
| PETON7-10 | 2026-09-01 13:30:02 | 48.31464 | 17.50924 | 97° | 73km/h | 5729m | -9.1m/s | 0°C | 0% | 0hPa | 0V | 00:00:00 | 00:00:00 | 00:00:00 | |
| OM5KV | 2026-09-01 13:29:57 | 48.31478 | 17.50790 | 97° | 71km/h | 5778m | -8.9m/s | 0°C | 0% | 0hPa | 0V | 00:00:00 | 00:00:00 | 00:00:00 | |
| ATIDSZ-14 | 2026-09-01 13:29:54 | 48.31484 | 17.50710 | 97° | 73km/h | 5806m | -8.8m/s | 0°C | 0% | 0hPa | 0V | 00:00:00 | 00:00:00 | 00:00:00 | |
| OM5KV | 2026-09-01 13:29:48 | 48.31497 | 17.50545 | 95° | 73km/h | 5863m | -7.9m/s | 0°C | 0% | 0hPa | 0V | 00:00:00 | 00:00:00 | 00:00:00 | |
| OM5KV | 2026-09-01 13:29:47 | 48.31499 | 17.50517 | 97° | 73km/h | 5872m | -8.4m/s | 0°C | 0% | 0hPa | 0V | 00:00:00 | 00:00:00 | 00:00:00 | |
| PETON7-10 | 2026-09-01 13:29:46 | 48.31517 | 17.50489 | 93° | 73km/h | 5881m | -8.9m/s | 0°C | 0% | 0hPa | 0V | 00:00:00 | 00:00:00 | 00:00:00 | |
| OM5KV | 2026-09-01 13:29:41 | 48.31506 | 17.50347 | 95° | 73km/h | 5930m | -9.1m/s | 0°C | 0% | 0hPa | 0V | 00:00:00 | 00:00:00 | 00:00:00 | |
| OM5KV | 2026-09-01 13:29:35 | 48.31510 | 17.50178 | 90° | 73km/h | 5985m | -7.7m/s | 0°C | 0% | 0hPa | 0V | 00:00:00 | 00:00:00 | 00:00:00 | |
| ATIDSZ-14 | 2026-09-01 13:29:32 | 48.31511 | 17.50094 | 91° | 77km/h | 6014m | -9.3m/s | 0°C | 0% | 0hPa | 0V | 00:00:00 | 00:00:00 | 00:00:00 | |
| OE3OSB-13 | 2026-09-01 13:29:31 | 48.31510 | 17.50066 | 88° | 73km/h | 6023m | -7.9m/s | -12.9°C | 23.9% | 486.0hPa | 0V | 00:00:00 | 00:00:00 | 00:00:00 | |
| OM5KV | 2026-09-01 13:29:29 | 48.31511 | 17.50009 | 92° | 75km/h | 6043m | -7.6m/s | 0°C | 0% | 0hPa | 0V | 00:00:00 | 00:00:00 | 00:00:00 | |
| PETON7-10 | 2026-09-01 13:29:28 | 48.31511 | 17.49980 | 90° | 75km/h | 6052m | -7.9m/s | 0°C | 0% | 0hPa | 0V | 00:00:00 | 00:00:00 | 00:00:00 | |
| OM5KV | 2026-09-01 13:29:23 | 48.31510 | 17.49838 | 89° | 75km/h | 6097m | -8.4m/s | 0°C | 0% | 0hPa | 0V | 00:00:00 | 00:00:00 | 00:00:00 | |
| OM5KV | 2026-09-01 13:29:17 | 48.31507 | 17.49669 | 88° | 75km/h | 6151m | -7.5m/s | 0°C | 0% | 0hPa | 0V | 00:00:00 | 00:00:00 | 00:00:00 | |
| PETON7-10 | 2026-09-01 13:29:13 | 48.31505 | 17.49556 | 90° | 73km/h | 6188m | -8.5m/s | 0°C | 0% | 0hPa | 0V | 00:00:00 | 00:00:00 | 00:00:00 | |
| OM5KV | 2026-09-01 13:29:12 | 48.31505 | 17.49528 | 89° | 75km/h | 6197m | -7.2m/s | 0°C | 0% | 0hPa | 0V | 00:00:00 | 00:00:00 | 00:00:00 | |
| ATIDSZ-14 | 2026-09-01 13:29:11 | 48.31504 | 17.49499 | 88° | 73km/h | 6206m | -7.8m/s | 0°C | 0% | 0hPa | 0V | 00:00:00 | 00:00:00 | 00:00:00 | |
| OM5KV | 2026-09-01 13:29:05 | 48.31501 | 17.49331 | 90° | 73km/h | 6262m | -7.9m/s | 0°C | 0% | 0hPa | 0V | 00:00:00 | 00:00:00 | 00:00:00 | |
| OE3OSB-13 | 2026-09-01 13:29:00 | 48.31501 | 17.49168 | 90° | 69km/h | 6318m | -7.2m/s | -14.9°C | 20.0% | 467.3hPa | 0V | 00:00:00 | 00:00:00 | 00:00:00 | |
| OM5KV | 2026-09-01 13:28:59 | 48.31501 | 17.49168 | 91° | 71km/h | 6319m | -7.2m/s | 0°C | 0% | 0hPa | 0V | 00:00:00 | 00:00:00 | 00:00:00 | |
| PETON7-10 | 2026-09-01 13:28:57 | 48.31501 | 17.49114 | 90° | 71km/h | 6336m | -7.8m/s | 0°C | 0% | 0hPa | 0V | 00:00:00 | 00:00:00 | 00:00:00 | |
| OM5KV | 2026-09-01 13:28:52 | 48.31502 | 17.48979 | 91° | 69km/h | 6382m | -8.5m/s | 0°C | 0% | 0hPa | 0V | 00:00:00 | 00:00:00 | 00:00:00 | |
| ATIDSZ-14 | 2026-09-01 13:28:49 | 48.31503 | 17.48897 | 93° | 71km/h | 6409m | -6.7m/s | 0°C | 0% | 0hPa | 0V | 00:00:00 | 00:00:00 | 00:00:00 | |
| OM5KV | 2026-09-01 13:28:46 | 48.31504 | 17.48817 | 95° | 73km/h | 6435m | -8.6m/s | 0°C | 0% | 0hPa | 0V | 00:00:00 | 00:00:00 | 00:00:00 | |
| PETON7-10 | 2026-09-01 13:28:41 | 48.31509 | 17.48680 | 94° | 75km/h | 6478m | -8.0m/s | 0°C | 0% | 0hPa | 0V | 00:00:00 | 00:00:00 | 00:00:00 | |
| OM5KV | 2026-09-01 13:28:40 | 48.31510 | 17.48653 | 94° | 73km/h | 6488m | -8.6m/s | 0°C | 0% | 0hPa | 0V | 00:00:00 | 00:00:00 | 00:00:00 | |
| OE3OSB-13 | 2026-09-01 13:28:29 | 48.31522 | 17.48346 | 91° | 75km/h | 6590m | -8.8m/s | -17.1°C | 28.5% | 450.6hPa | 0V | 00:00:00 | 00:00:00 | 00:00:00 | |
| OM5KV | 2026-09-01 13:28:28 | 48.31523 | 17.48317 | 95° | 77km/h | 6600m | -9.1m/s | 0°C | 0% | 0hPa | 0V | 00:00:00 | 00:00:00 | 00:00:00 | |
| OM5KV | 2026-09-01 13:28:24 | 48.31528 | 17.48170 | 94° | 78km/h | 6648m | -8.3m/s | 0°C | 0% | 0hPa | 0V | 00:00:00 | 00:00:00 | 00:00:00 | |
| PETON7-10 | 2026-09-01 13:28:23 | 48.31527 | 17.48170 | 93° | 80km/h | 6648m | -8.3m/s | 0°C | 0% | 0hPa | 0V | 00:00:00 | 00:00:00 | 00:00:00 | |
| OM5KV | 2026-09-01 13:28:17 | 48.31533 | 17.47991 | 93° | 80km/h | 6706m | -8.2m/s | 0°C | 0% | 0hPa | 0V | 00:00:00 | 00:00:00 | 00:00:00 | |
| OM5KV | 2026-09-01 13:28:12 | 48.31534 | 17.47838 | 93° | 80km/h | 6752m | -8.6m/s | 0°C | 0% | 0hPa | 0V | 00:00:00 | 00:00:00 | 00:00:00 | |
| ATIDSZ-14 | 2026-09-01 13:28:08 | 48.31535 | 17.47715 | 89° | 82km/h | 6790m | -8.6m/s | 0°C | 0% | 0hPa | 0V | 00:00:00 | 00:00:00 | 00:00:00 | |
| PETON7-10 | 2026-09-01 13:28:06 | 48.31534 | 17.47653 | 90° | 82km/h | 6809m | -8.3m/s | 0°C | 0% | 0hPa | 0V | 00:00:00 | 00:00:00 | 00:00:00 | |
| OM5KV | 2026-09-01 13:28:01 | 48.31531 | 17.47496 | 87° | 82km/h | 6854m | -8.0m/s | 0°C | 0% | 0hPa | 0V | 00:00:00 | 00:00:00 | 00:00:00 | |
| OE3OSB-13 | 2026-09-01 13:27:58 | 48.31526 | 17.47371 | 88° | 82km/h | 6892m | -8.5m/s | -19.2°C | 35.6% | 432.4hPa | 0V | 00:00:00 | 00:00:00 | 00:00:00 | |
| OM5KV | 2026-09-01 13:27:55 | 48.31524 | 17.47307 | 89° | 80km/h | 6913m | -9.8m/s | 0°C | 0% | 0hPa | 0V | 00:00:00 | 00:00:00 | 00:00:00 | |
| PETON7-10 | 2026-09-01 13:27:50 | 48.31518 | 17.47151 | 87° | 82km/h | 6960m | -8.5m/s | 0°C | 0% | 0hPa | 0V | 00:00:00 | 00:00:00 | 00:00:00 | |
| ATIDSZ-14 | 2026-09-01 13:27:47 | 48.31513 | 17.47057 | 85° | 80km/h | 6988m | -8.4m/s | 0°C | 0% | 0hPa | 0V | 00:00:00 | 00:00:00 | 00:00:00 | |
| PETON7-10 | 2026-09-01 13:27:35 | 48.31484 | 17.46687 | 84° | 78km/h | 7105m | -8.6m/s | 0°C | 0% | 0hPa | 0V | 00:00:00 | 00:00:00 | 00:00:00 | |
| ATIDSZ-14 | 2026-09-01 13:27:27 | 48.31465 | 17.46444 | 86° | 78km/h | 7176m | -8.8m/s | 0°C | 0% | 0hPa | 0V | 00:00:00 | 00:00:00 | 00:00:00 | |
| PETON7-10 | 2026-09-01 13:27:19 | 48.31449 | 17.46207 | 85° | 78km/h | 7249m | -8.8m/s | 0°C | 0% | 0hPa | 0V | 00:00:00 | 00:00:00 | 00:00:00 | |
| PETON7-10 | 2026-09-01 13:27:04 | 48.31422 | 17.45762 | 84° | 82km/h | 7404m | -8.5m/s | 0°C | 0% | 0hPa | 0V | 00:00:00 | 00:00:00 | 00:00:00 | |
| PETON7-10 | 2026-09-01 13:26:49 | 48.31387 | 17.45301 | 86° | 82km/h | 7552m | -10.0m/s | 0°C | 0% | 0hPa | 0V | 00:00:00 | 00:00:00 | 00:00:00 | |
| ATIDSZ-14 | 2026-09-01 13:26:44 | 48.31379 | 17.45146 | 88° | 84km/h | 7599m | -10.9m/s | 0°C | 0% | 0hPa | 0V | 00:00:00 | 00:00:00 | 00:00:00 | |
| PETON7-10 | 2026-09-01 13:26:34 | 48.31371 | 17.44836 | 90° | 84km/h | 7703m | -10.0m/s | 0°C | 0% | 0hPa | 0V | 00:00:00 | 00:00:00 | 00:00:00 | |
| OE3OSB-13 | 2026-09-01 13:26:25 | 48.31371 | 17.44518 | 91° | 84km/h | 7812m | -10.4m/s | -25.4°C | 11.6% | 380.6hPa | 0V | 00:00:00 | 00:00:00 | 00:00:00 | |
| ATIDSZ-14 | 2026-09-01 13:26:22 | 48.31371 | 17.44454 | 92° | 84km/h | 7834m | -11.2m/s | 0°C | 0% | 0hPa | 0V | 00:00:00 | 00:00:00 | 00:00:00 | |
| PETON7-10 | 2026-09-01 13:26:19 | 48.31372 | 17.44356 | 91° | 82km/h | 7867m | -9.6m/s | 0°C | 0% | 0hPa | 0V | 00:00:00 | 00:00:00 | 00:00:00 | |
| PETON7-10 | 2026-09-01 13:26:00 | 48.31366 | 17.43758 | 88° | 80km/h | 8070m | -10.8m/s | 0°C | 0% | 0hPa | 0V | 00:00:00 | 00:00:00 | 00:00:00 | |
| OE3OSB-13 | 2026-09-01 13:25:54 | 48.31364 | 17.43270 | 90° | 80km/h | 8247m | -9.2m/s | -29.1°C | 13.4% | 358.2hPa | 0V | 00:00:00 | 00:00:00 | 00:00:00 | |
| PETON7-10 | 2026-09-01 13:25:45 | 48.31364 | 17.43317 | 92° | 80km/h | 8237m | -10.1m/s | 0°C | 0% | 0hPa | 0V | 00:00:00 | 00:00:00 | 00:00:00 | |
| ATIDSZ-14 | 2026-09-01 13:25:40 | 48.31366 | 17.43148 | 92° | 82km/h | 8292m | -11.9m/s | 0°C | 0% | 0hPa | 0V | 00:00:00 | 00:00:00 | 00:00:00 | |
| PETON7-10 | 2026-09-01 13:25:30 | 48.31364 | 17.42846 | 88° | 78km/h | 8408m | -10.3m/s | 0°C | 0% | 0hPa | 0V | 00:00:00 | 00:00:00 | 00:00:00 | |
| OE3OSB-13 | 2026-09-01 13:25:23 | 48.31362 | 17.42605 | 87° | 78km/h | 8496m | -9.2m/s | -31.2°C | 14.0% | 345.6hPa | 0V | 00:00:00 | 00:00:00 | 00:00:00 | |
| ATIDSZ-14 | 2026-09-01 13:25:18 | 48.31361 | 17.42485 | 90° | 80km/h | 8543m | -11.8m/s | 0°C | 0% | 0hPa | 0V | 00:00:00 | 00:00:00 | 00:00:00 | |
| PETON7-10 | 2026-09-01 13:25:15 | 48.31360 | 17.42395 | 89° | 80km/h | 8578m | -10.8m/s | 0°C | 0% | 0hPa | 0V | 00:00:00 | 00:00:00 | 00:00:00 | |
| PETON7-10 | 2026-09-01 13:25:00 | 48.31351 | 17.41941 | 91° | 78km/h | 8762m | -12.3m/s | 0°C | 0% | 0hPa | 0V | 00:00:00 | 00:00:00 | 00:00:00 | |
| OE3OSB-13 | 2026-09-01 13:24:52 | 48.31345 | 17.41671 | 86° | 77km/h | 8875m | -10.8m/s | -34.3°C | 22.6% | 327.3hPa | 0V | 00:00:00 | 00:00:00 | 00:00:00 | |
| PETON7-10 | 2026-09-01 13:24:45 | 48.31340 | 17.41494 | 86° | 80km/h | 8948m | -12.4m/s | 0°C | 0% | 0hPa | 0V | 00:00:00 | 00:00:00 | 00:00:00 | |
| ATIDSZ-14 | 2026-09-01 13:24:36 | 48.31326 | 17.41223 | 83° | 80km/h | 9066m | -13.6m/s | 0°C | 0% | 0hPa | 0V | 00:00:00 | 00:00:00 | 00:00:00 | |
| PETON7-10 | 2026-09-01 13:24:30 | 48.31314 | 17.41040 | 84° | 80km/h | 9144m | -12.1m/s | 0°C | 0% | 0hPa | 0V | 00:00:00 | 00:00:00 | 00:00:00 | |
| OE3JTB-15 | 2026-09-01 13:24:24 | 48.31301 | 17.40858 | 85° | 82km/h | 9217m | -11.2m/s | 0°C | 0% | 0hPa | 0V | 00:00:00 | 00:00:00 | 00:00:00 | |
| OE3OSB-13 | 2026-09-01 13:24:21 | 48.31291 | 17.40737 | 83° | 78km/h | 9269m | -11.6m/s | -37.6°C | 32.1% | 309.0hPa | 0V | 00:00:00 | 00:00:00 | 00:00:00 | |
| ATIDSZ-14 | 2026-09-01 13:24:15 | 48.31279 | 17.40585 | 83° | 84km/h | 9333m | -14.6m/s | 0°C | 0% | 0hPa | 0V | 00:00:00 | 00:00:00 | 00:00:00 | |
| PETON7-10 | 2026-09-01 13:24:14 | 48.31276 | 17.40553 | 84° | 82km/h | 9347m | -12.6m/s | 0°C | 0% | 0hPa | 0V | 00:00:00 | 00:00:00 | 00:00:00 | |
| OE3OSB-13 | 2026-09-01 13:23:50 | 48.31192 | 17.39782 | 83° | 80km/h | 9675m | -12.1m/s | -40.6°C | 28.2% | 290.9hPa | 0V | 00:00:00 | 00:00:00 | 00:00:00 | |
| ATIDSZ-14 | 2026-09-01 13:23:34 | 48.31147 | 17.39332 | 82° | 80km/h | 9871m | -11.6m/s | 0°C | 0% | 0hPa | 0V | 00:00:00 | 00:00:00 | 00:00:00 | |
| PETON7-10 | 2026-09-01 13:23:27 | 48.31117 | 17.39118 | 78° | 82km/h | 9961m | -13.6m/s | 0°C | 0% | 0hPa | 0V | 00:00:00 | 00:00:00 | 00:00:00 | |
| OE3OSB-13 | 2026-09-01 13:23:19 | 48.31073 | 17.38846 | 76° | 82km/h | 10078m | -13.1m/s | -44.1°C | 33.7% | 273.8hPa | 0V | 00:00:00 | 00:00:00 | 00:00:00 | |
| ATIDSZ-14 | 2026-09-01 13:23:14 | 48.31057 | 17.38724 | 82° | 82km/h | 10134m | -11.8m/s | 0°C | 0% | 0hPa | 0V | 00:00:00 | 00:00:00 | 00:00:00 | |
| PETON7-10 | 2026-09-01 13:23:12 | 48.31047 | 17.38632 | 82° | 78km/h | 10174m | -12.5m/s | 0°C | 0% | 0hPa | 0V | 00:00:00 | 00:00:00 | 00:00:00 | |
| OE3OSB-13 | 2026-09-01 13:22:48 | 48.30980 | 17.37925 | 81° | 80km/h | 10501m | -12.6m/s | -47.4°C | 37.9% | 256.6hPa | 0V | 00:00:00 | 00:00:00 | 00:00:00 | |
| PETON7-10 | 2026-09-01 13:22:40 | 48.30965 | 17.37715 | 85° | 78km/h | 10598m | -12.6m/s | 0°C | 0% | 0hPa | 0V | 00:00:00 | 00:00:00 | 00:00:00 | |
| ATIDSZ-14 | 2026-09-01 13:22:33 | 48.30950 | 17.37508 | 87° | 78km/h | 10694m | -12.0m/s | 0°C | 0% | 0hPa | 0V | 00:00:00 | 00:00:00 | 00:00:00 | |
| PETON7-10 | 2026-09-01 13:22:23 | 48.30935 | 17.37212 | 84° | 77km/h | 10839m | -12.8m/s | 0°C | 0% | 0hPa | 0V | 00:00:00 | 00:00:00 | 00:00:00 | |
| OM5KV | 2026-09-01 13:22:21 | 48.30932 | 17.37154 | 88° | 77km/h | 10867m | -13.7m/s | 0°C | 0% | 0hPa | 0V | 00:00:00 | 00:00:00 | 00:00:00 | |
| OE3OSB-13 | 2026-09-01 13:22:17 | 48.30923 | 17.37008 | 84° | 75km/h | 10935m | -12.6m/s | -51.3°C | 32.6% | 239.8hPa | 0V | 00:00:00 | 00:00:00 | 00:00:00 | |
| OM5KV | 2026-09-01 13:22:15 | 48.30921 | 17.36979 | 85° | 77km/h | 10949m | -13.7m/s | 0°C | 0% | 0hPa | 0V | 00:00:00 | 00:00:00 | 00:00:00 | |
| ATIDSZ-14 | 2026-09-01 13:22:12 | 48.30915 | 17.36892 | 84° | 77km/h | 10993m | -13.1m/s | 0°C | 0% | 0hPa | 0V | 00:00:00 | 00:00:00 | 00:00:00 | |
| OM5KV | 2026-09-01 13:22:10 | 48.30910 | 17.36835 | 84° | 75km/h | 11020m | -12.9m/s | 0°C | 0% | 0hPa | 0V | 00:00:00 | 00:00:00 | 00:00:00 | |
| PETON7-10 | 2026-09-01 13:22:08 | 48.30905 | 17.36777 | 83° | 77km/h | 11049m | -13.6m/s | 0°C | 0% | 0hPa | 0V | 00:00:00 | 00:00:00 | 00:00:00 | |
| OM5KV | 2026-09-01 13:22:02 | 48.30889 | 17.36608 | 83° | 75km/h | 11136m | -12.8m/s | 0°C | 0% | 0hPa | 0V | 00:00:00 | 00:00:00 | 00:00:00 | |
| OE3JTB-15 | 2026-09-01 13:22:00 | 48.30882 | 17.36551 | 79° | 77km/h | 11164m | -13.8m/s | 0°C | 0% | 0hPa | 0V | 00:00:00 | 00:00:00 | 00:00:00 | |
| OE3OSB-13 | 2026-09-01 13:21:46 | 48.30838 | 17.36116 | 79° | 77km/h | 11377m | -12.7m/s | -55.2°C | 18.7% | 223.6hPa | 0V | 00:00:00 | 00:00:00 | 00:00:00 | |
| OM5KV | 2026-09-01 13:21:43 | 48.30832 | 17.36058 | 79° | 80km/h | 11406m | -14.7m/s | 0°C | 0% | 0hPa | 0V | 00:00:00 | 00:00:00 | 00:00:00 | |
| PETON7-10 | 2026-09-01 13:21:38 | 48.30812 | 17.35914 | 79° | 78km/h | 11474m | -13.0m/s | 0°C | 0% | 0hPa | 0V | 00:00:00 | 00:00:00 | 00:00:00 | |
| OM5KV | 2026-09-01 13:21:37 | 48.30808 | 17.35886 | 80° | 77km/h | 11487m | -12.6m/s | 0°C | 0% | 0hPa | 0V | 00:00:00 | 00:00:00 | 00:00:00 | |
| ATIDSZ-14 | 2026-09-01 13:21:31 | 48.30778 | 17.35714 | 77° | 78km/h | 11574m | -14.3m/s | 0°C | 0% | 0hPa | 0V | 00:00:00 | 00:00:00 | 00:00:00 | |
| OE3JTB-15 | 2026-09-01 13:21:25 | 48.30745 | 17.35539 | 71° | 82km/h | 11666m | -13.1m/s | 0°C | 0% | 0hPa | 0V | 00:00:00 | 00:00:00 | 00:00:00 | |
| PETON7-10 | 2026-09-01 13:21:23 | 48.30733 | 17.35482 | 72° | 82km/h | 11695m | -13.2m/s | 0°C | 0% | 0hPa | 0V | 00:00:00 | 00:00:00 | 00:00:00 | |
| OE3OSB-13 | 2026-09-01 13:21:15 | 48.30677 | 17.35217 | 72° | 82km/h | 11821m | -14.0m/s | -58.7°C | 8.1% | 208.1hPa | 0V | 00:00:00 | 00:00:00 | 00:00:00 | |
| ATIDSZ-14 | 2026-09-01 13:21:10 | 48.30652 | 17.35097 | 75° | 82km/h | 11878m | -13.7m/s | 0°C | 0% | 0hPa | 0V | 00:00:00 | 00:00:00 | 00:00:00 | |
| PETON7-10 | 2026-09-01 13:21:08 | 48.30640 | 17.35035 | 73° | 89km/h | 11907m | -13.6m/s | 0°C | 0% | 0hPa | 0V | 00:00:00 | 00:00:00 | 00:00:00 | |
| OM5KV | 2026-09-01 13:21:07 | 48.30633 | 17.35003 | 72° | 89km/h | 11921m | -13.3m/s | 0°C | 0% | 0hPa | 0V | 00:00:00 | 00:00:00 | 00:00:00 | |
| OM5KV | 2026-09-01 13:21:00 | 48.30582 | 17.34781 | 73° | 88km/h | 12025m | -14.1m/s | 0°C | 0% | 0hPa | 0V | 00:00:00 | 00:00:00 | 00:00:00 | |
| OE3JTB-15 | 2026-09-01 13:20:54 | 48.30545 | 17.34584 | 76° | 97km/h | 12111m | -14.9m/s | 0°C | 0% | 0hPa | 0V | 00:00:00 | 00:00:00 | 00:00:00 | |
| PETON7-10 | 2026-09-01 13:20:53 | 48.30540 | 17.34551 | 80° | 97km/h | 12126m | -12.7m/s | 0°C | 0% | 0hPa | 0V | 00:00:00 | 00:00:00 | 00:00:00 | |
| ATIDSZ-14 | 2026-09-01 13:20:50 | 48.30526 | 17.34449 | 78° | 95km/h | 12169m | -12.7m/s | 0°C | 0% | 0hPa | 0V | 00:00:00 | 00:00:00 | 00:00:00 | |
| OM5KV | 2026-09-01 13:20:49 | 48.30521 | 17.34413 | 80° | 97km/h | 12183m | -14.2m/s | 0°C | 0% | 0hPa | 0V | 00:00:00 | 00:00:00 | 00:00:00 | |
| OM5KV | 2026-09-01 13:20:43 | 48.30500 | 17.34194 | 86° | 100km/h | 12274m | -14.1m/s | 0°C | 0% | 0hPa | 0V | 00:00:00 | 00:00:00 | 00:00:00 | |
| PETON7-10 | 2026-09-01 13:20:38 | 48.30490 | 17.34001 | 87° | 106km/h | 12349m | -13.9m/s | 0°C | 0% | 0hPa | 0V | 00:00:00 | 00:00:00 | 00:00:00 | |
| OM5KV | 2026-09-01 13:20:37 | 48.30488 | 17.33962 | 87° | 104km/h | 12365m | -13.9m/s | 0°C | 0% | 0hPa | 0V | 00:00:00 | 00:00:00 | 00:00:00 | |
| ATIDSZ-14 | 2026-09-01 13:20:29 | 48.30479 | 17.33645 | 92° | 110km/h | 12474m | -11.8m/s | 0°C | 0% | 0hPa | 0V | 00:00:00 | 00:00:00 | 00:00:00 | |
| OM5KV | 2026-09-01 13:20:26 | 48.30481 | 17.33522 | 94° | 110km/h | 12510m | -12.3m/s | 0°C | 0% | 0hPa | 0V | 00:00:00 | 00:00:00 | 00:00:00 | |
| PETON7-10 | 2026-09-01 13:20:23 | 48.30486 | 17.33399 | 94° | 95km/h | 12550m | -13.2m/s | 0°C | 0% | 0hPa | 0V | 00:00:00 | 00:00:00 | 00:00:00 | |
| OM5KV | 2026-09-01 13:20:09 | 48.30513 | 17.32889 | 90° | 95km/h | 12750m | -12.9m/s | 0°C | 0% | 0hPa | 0V | 00:00:00 | 00:00:00 | 00:00:00 | |
| ATIDSZ-14 | 2026-09-01 13:20:07 | 48.30512 | 17.32817 | 90° | 95km/h | 12779m | -15.0m/s | 0°C | 0% | 0hPa | 0V | 00:00:00 | 00:00:00 | 00:00:00 | |
| PETON7-10 | 2026-09-01 13:20:04 | 48.30511 | 17.32709 | 90° | 95km/h | 12824m | -12.9m/s | 0°C | 0% | 0hPa | 0V | 00:00:00 | 00:00:00 | 00:00:00 | |
| OM5KV | 2026-09-01 13:20:02 | 48.30511 | 17.32637 | 89° | 93km/h | 12854m | -14.5m/s | 0°C | 0% | 0hPa | 0V | 00:00:00 | 00:00:00 | 00:00:00 | |
| OM5KV | 2026-09-01 13:19:55 | 48.30504 | 17.32388 | 89° | 95km/h | 12959m | -15.9m/s | 0°C | 0% | 0hPa | 0V | 00:00:00 | 00:00:00 | 00:00:00 | |
| PETON7-10 | 2026-09-01 13:19:48 | 48.30499 | 17.32131 | 91° | 89km/h | 13070m | -14.6m/s | 0°C | 0% | 0hPa | 0V | 00:00:00 | 00:00:00 | 00:00:00 | |
| ATIDSZ-14 | 2026-09-01 13:19:46 | 48.30499 | 17.32056 | 91° | 99km/h | 13102m | -15.5m/s | 0°C | 0% | 0hPa | 0V | 00:00:00 | 00:00:00 | 00:00:00 | |
| OM5KV | 2026-09-01 13:19:43 | 48.30500 | 17.31945 | 95° | 95km/h | 13150m | -13.1m/s | 0°C | 0% | 0hPa | 0V | 00:00:00 | 00:00:00 | 00:00:00 | |
| OE3OSB-13 | 2026-09-01 13:19:41 | 48.30503 | 17.31840 | 91° | 88km/h | 13189m | -12.1m/s | -53.7°C | 0.0% | 166.7hPa | 0V | 00:00:00 | 00:00:00 | 00:00:00 | |
| OE3JTB-15 | 2026-09-01 13:19:40 | 48.30503 | 17.31840 | 92° | 66km/h | 13189m | -12.0m/s | 0°C | 0% | 0hPa | 0V | 00:00:00 | 00:00:00 | 00:00:00 | |
| OM5KV | 2026-09-01 13:19:37 | 48.30506 | 17.31740 | 93° | 86km/h | 13230m | -12.0m/s | 0°C | 0% | 0hPa | 0V | 00:00:00 | 00:00:00 | 00:00:00 | |
| PETON7-10 | 2026-09-01 13:19:32 | 48.30511 | 17.31582 | 92° | 78km/h | 13306m | -14.2m/s | 0°C | 0% | 0hPa | 0V | 00:00:00 | 00:00:00 | 00:00:00 | |
| OM5KV | 2026-09-01 13:19:31 | 48.30512 | 17.31553 | 94° | 77km/h | 13322m | -14.4m/s | 0°C | 0% | 0hPa | 0V | 00:00:00 | 00:00:00 | 00:00:00 | |
| OE5DXL-15 | 2026-09-01 13:19:29 | 48.30514 | 17.31495 | 93° | 35km/h | 13353m | -13.8m/s | 0°C | 0% | 0hPa | 0V | 00:00:00 | 00:00:00 | 00:00:00 | |
| OM5KV | 2026-09-01 13:19:26 | 48.30514 | 17.31409 | 93° | 73km/h | 13397m | -14.2m/s | 0°C | 0% | 0hPa | 0V | 00:00:00 | 00:00:00 | 00:00:00 | |
| ATIDSZ-14 | 2026-09-01 13:19:25 | 48.30513 | 17.31381 | 86° | 73km/h | 13412m | -14.0m/s | 0°C | 0% | 0hPa | 0V | 00:00:00 | 00:00:00 | 00:00:00 | |
| OM5KV | 2026-09-01 13:19:20 | 48.30507 | 17.31233 | 86° | 84km/h | 13491m | -13.6m/s | 0°C | 0% | 0hPa | 0V | 00:00:00 | 00:00:00 | 00:00:00 | |
| PETON7-10 | 2026-09-01 13:19:17 | 48.30502 | 17.31139 | 87° | 84km/h | 13536m | -13.5m/s | 0°C | 0% | 0hPa | 0V | 00:00:00 | 00:00:00 | 00:00:00 | |
| OM5KV | 2026-09-01 13:19:14 | 48.30500 | 17.31042 | 89° | 88km/h | 13585m | -15.7m/s | 0°C | 0% | 0hPa | 0V | 00:00:00 | 00:00:00 | 00:00:00 | |
| OE3OSB-13 | 2026-09-01 13:19:10 | 48.30502 | 17.30884 | 95° | 82km/h | 13661m | -15.9m/s | -54.9°C | 0.0% | 154.4hPa | 0V | 00:00:00 | 00:00:00 | 00:00:00 | |
| OM5KV | 2026-09-01 13:19:08 | 48.30505 | 17.30822 | 96° | 80km/h | 13694m | -14.4m/s | 0°C | 0% | 0hPa | 0V | 00:00:00 | 00:00:00 | 00:00:00 | |
| HA6NAB-11 | 2026-09-01 13:19:06 | 48.30506 | 17.30791 | 95° | 82km/h | 13709m | -14.5m/s | 0°C | 0% | 0hPa | 0V | 00:00:00 | 00:00:00 | 00:00:00 | |
| ATIDSZ-14 | 2026-09-01 13:19:05 | 48.30507 | 17.30760 | 93° | 78km/h | 13724m | -14.6m/s | 0°C | 0% | 0hPa | 0V | 00:00:00 | 00:00:00 | 00:00:00 | |
| OM5KV | 2026-09-01 13:19:03 | 48.30510 | 17.30700 | 92° | 80km/h | 13754m | -14.7m/s | 0°C | 0% | 0hPa | 0V | 00:00:00 | 00:00:00 | 00:00:00 | |
| PETON7-10 | 2026-09-01 13:19:02 | 48.30510 | 17.30670 | 92° | 78km/h | 13770m | -16.4m/s | 0°C | 0% | 0hPa | 0V | 00:00:00 | 00:00:00 | 00:00:00 | |
| HA6NAB-11 | 2026-09-01 13:19:01 | 48.30510 | 17.30642 | 91° | 77km/h | 13786m | -13.2m/s | 0°C | 0% | 0hPa | 0V | 00:00:00 | 00:00:00 | 00:00:00 | |
| OM5KV | 2026-09-01 13:18:57 | 48.30507 | 17.30523 | 87° | 78km/h | 13847m | -15.5m/s | 0°C | 0% | 0hPa | 0V | 00:00:00 | 00:00:00 | 00:00:00 | |
| HA6NAB-11 | 2026-09-01 13:18:56 | 48.30506 | 17.30493 | 87° | 80km/h | 13864m | -15.2m/s | 0°C | 0% | 0hPa | 0V | 00:00:00 | 00:00:00 | 00:00:00 | |
| OM5KV | 2026-09-01 13:18:51 | 48.30497 | 17.30343 | 85° | 80km/h | 13942m | -14.1m/s | 0°C | 0% | 0hPa | 0V | 00:00:00 | 00:00:00 | 00:00:00 | |
| PETON7-10 | 2026-09-01 13:18:47 | 48.30488 | 17.30224 | 84° | 80km/h | 14007m | -14.1m/s | 0°C | 0% | 0hPa | 0V | 00:00:00 | 00:00:00 | 00:00:00 | |
| OM5KV | 2026-09-01 13:18:45 | 48.30482 | 17.30164 | 79° | 77km/h | 14038m | -13.4m/s | 0°C | 0% | 0hPa | 0V | 00:00:00 | 00:00:00 | 00:00:00 | |
| ATIDSZ-14 | 2026-09-01 13:18:44 | 48.30478 | 17.30135 | 80° | 78km/h | 14052m | -13.3m/s | 0°C | 0% | 0hPa | 0V | 00:00:00 | 00:00:00 | 00:00:00 | |
| OM5KV | 2026-09-01 13:18:39 | 48.30464 | 17.29987 | 82° | 80km/h | 14129m | -15.6m/s | 0°C | 0% | 0hPa | 0V | 00:00:00 | 00:00:00 | 00:00:00 | |
| OM5KV | 2026-09-01 13:18:38 | 48.30461 | 17.29957 | 84° | 78km/h | 14145m | -14.0m/s | 0°C | 0% | 0hPa | 0V | 00:00:00 | 00:00:00 | 00:00:00 | |
| OM5KV | 2026-09-01 13:18:33 | 48.30452 | 17.29801 | 83° | 86km/h | 14225m | -15.6m/s | 0°C | 0% | 0hPa | 0V | 00:00:00 | 00:00:00 | 00:00:00 | |
| PETON7-10 | 2026-09-01 13:18:32 | 48.30449 | 17.29769 | 81° | 86km/h | 14241m | -14.6m/s | 0°C | 0% | 0hPa | 0V | 00:00:00 | 00:00:00 | 00:00:00 | |
| OM5KV | 2026-09-01 13:18:27 | 48.30431 | 17.29609 | 82° | 86km/h | 14325m | -15.2m/s | 0°C | 0% | 0hPa | 0V | 00:00:00 | 00:00:00 | 00:00:00 | |
| ATIDSZ-14 | 2026-09-01 13:18:23 | 48.30417 | 17.29476 | 83° | 88km/h | 14391m | -14.2m/s | 0°C | 0% | 0hPa | 0V | 00:00:00 | 00:00:00 | 00:00:00 | |
| OM5KV | 2026-09-01 13:18:21 | 48.30412 | 17.29410 | 82° | 86km/h | 14423m | -13.3m/s | 0°C | 0% | 0hPa | 0V | 00:00:00 | 00:00:00 | 00:00:00 | |
| PETON7-10 | 2026-09-01 13:18:17 | 48.30403 | 17.29282 | 88° | 80km/h | 14487m | -16.3m/s | 0°C | 0% | 0hPa | 0V | 00:00:00 | 00:00:00 | 00:00:00 | |
| OM5KV | 2026-09-01 13:18:13 | 48.30401 | 17.29164 | 89° | 75km/h | 14556m | -15.9m/s | 0°C | 0% | 0hPa | 0V | 00:00:00 | 00:00:00 | 00:00:00 | |
| OM5KV | 2026-09-01 13:18:09 | 48.30401 | 17.29050 | 90° | 77km/h | 14626m | -16.7m/s | 0°C | 0% | 0hPa | 0V | 00:00:00 | 00:00:00 | 00:00:00 | |
| OE3OSB-13 | 2026-09-01 13:18:08 | 48.30400 | 17.28991 | 84° | 78km/h | 14662m | -17.1m/s | -55.2°C | 0.0% | 131.5hPa | 0V | 00:00:00 | 00:00:00 | 00:00:00 | |
| OM5KV | 2026-09-01 13:18:02 | 48.30392 | 17.28833 | 90° | 86km/h | 14749m | -17.5m/s | 0°C | 0% | 0hPa | 0V | 00:00:00 | 00:00:00 | 00:00:00 | |
| PETON7-10 | 2026-09-01 13:18:01 | 48.30392 | 17.28800 | 88° | 86km/h | 14767m | -15.6m/s | 0°C | 0% | 0hPa | 0V | 00:00:00 | 00:00:00 | 00:00:00 | |
| OM5KV | 2026-09-01 13:17:58 | 48.30390 | 17.28699 | 90° | 88km/h | 14819m | -16.6m/s | 0°C | 0% | 0hPa | 0V | 00:00:00 | 00:00:00 | 00:00:00 | |
| OM5KV | 2026-09-01 13:17:56 | 48.30389 | 17.28632 | 89° | 89km/h | 14856m | -17.5m/s | 0°C | 0% | 0hPa | 0V | 00:00:00 | 00:00:00 | 00:00:00 | |
| OM5KV | 2026-09-01 13:17:52 | 48.30391 | 17.28500 | 93° | 84km/h | 14926m | -15.6m/s | 0°C | 0% | 0hPa | 0V | 00:00:00 | 00:00:00 | 00:00:00 | |
| OM5KV | 2026-09-01 13:17:51 | 48.30392 | 17.28468 | 94° | 84km/h | 14943m | -15.4m/s | 0°C | 0% | 0hPa | 0V | 00:00:00 | 00:00:00 | 00:00:00 | |
| ATIDSZ-14 | 2026-09-01 13:17:50 | 48.30394 | 17.28436 | 93° | 82km/h | 14960m | -16.4m/s | 0°C | 0% | 0hPa | 0V | 00:00:00 | 00:00:00 | 00:00:00 | |
| PETON7-10 | 2026-09-01 13:17:46 | 48.30397 | 17.28313 | 93° | 75km/h | 15030m | -14.5m/s | 0°C | 0% | 0hPa | 0V | 00:00:00 | 00:00:00 | 00:00:00 | |
| OM5KV | 2026-09-01 13:17:45 | 48.30399 | 17.28283 | 96° | 80km/h | 15046m | -14.0m/s | 0°C | 0% | 0hPa | 0V | 00:00:00 | 00:00:00 | 00:00:00 | |
| OM5KV | 2026-09-01 13:17:38 | 48.30413 | 17.28084 | 98° | 69km/h | 15168m | -18.4m/s | 0°C | 0% | 0hPa | 0V | 00:00:00 | 00:00:00 | 00:00:00 | |
| OE3OSB-13 | 2026-09-01 13:17:37 | 48.30417 | 17.28031 | 93° | 69km/h | 15206m | -18.0m/s | -55.7°C | 0.0% | 120.3hPa | 0V | 00:00:00 | 00:00:00 | 00:00:00 | |
| OM5KV | 2026-09-01 13:17:34 | 48.30419 | 17.27978 | 95° | 69km/h | 15243m | -18.0m/s | 0°C | 0% | 0hPa | 0V | 00:00:00 | 00:00:00 | 00:00:00 | |
| OM5KV | 2026-09-01 13:17:32 | 48.30423 | 17.27925 | 97° | 73km/h | 15281m | -17.5m/s | 0°C | 0% | 0hPa | 0V | 00:00:00 | 00:00:00 | 00:00:00 | |
| OM5KV | 2026-09-01 13:17:28 | 48.30427 | 17.27816 | 93° | 71km/h | 15355m | -16.1m/s | 0°C | 0% | 0hPa | 0V | 00:00:00 | 00:00:00 | 00:00:00 | |
| ATIDSZ-14 | 2026-09-01 13:17:25 | 48.30431 | 17.27735 | 97° | 73km/h | 15409m | -17.7m/s | 0°C | 0% | 0hPa | 0V | 00:00:00 | 00:00:00 | 00:00:00 | |
| OM5KV | 2026-09-01 13:17:22 | 48.30436 | 17.27656 | 95° | 69km/h | 15463m | -16.1m/s | 0°C | 0% | 0hPa | 0V | 00:00:00 | 00:00:00 | 00:00:00 | |
| PETON7-10 | 2026-09-01 13:17:20 | 48.30438 | 17.27604 | 93° | 69km/h | 15496m | -18.8m/s | 0°C | 0% | 0hPa | 0V | 00:00:00 | 00:00:00 | 00:00:00 | |
| OM5KV | 2026-09-01 13:17:17 | 48.30438 | 17.27525 | 91° | 71km/h | 15550m | -16.0m/s | 0°C | 0% | 0hPa | 0V | 00:00:00 | 00:00:00 | 00:00:00 | |
| OM5KV | 2026-09-01 13:17:15 | 48.30437 | 17.27473 | 89° | 68km/h | 15584m | -16.4m/s | 0°C | 0% | 0hPa | 0V | 00:00:00 | 00:00:00 | 00:00:00 | |
| OM5KV | 2026-09-01 13:17:12 | 48.30435 | 17.27395 | 86° | 68km/h | 15639m | -17.5m/s | 0°C | 0% | 0hPa | 0V | 00:00:00 | 00:00:00 | 00:00:00 | |
| OE3OSB-13 | 2026-09-01 13:17:06 | 48.30430 | 17.27217 | 84° | 62km/h | 15779m | -16.9m/s | -53.9°C | 0.0% | 109.6hPa | 0V | 00:00:00 | 00:00:00 | 00:00:00 | |
| PETON7-10 | 2026-09-01 13:17:05 | 48.30430 | 17.27217 | 85° | 60km/h | 15779m | -16.9m/s | 0°C | 0% | 0hPa | 0V | 00:00:00 | 00:00:00 | 00:00:00 | |
| ATIDSZ-14 | 2026-09-01 13:17:03 | 48.30430 | 17.27169 | 88° | 66km/h | 15816m | -17.1m/s | 0°C | 0% | 0hPa | 0V | 00:00:00 | 00:00:00 | 00:00:00 | |
| OM5KV | 2026-09-01 13:17:02 | 48.30429 | 17.27144 | 87° | 64km/h | 15834m | -16.4m/s | 0°C | 0% | 0hPa | 0V | 00:00:00 | 00:00:00 | 00:00:00 | |
| OM5KV | 2026-09-01 13:16:56 | 48.30432 | 17.27000 | 92° | 62km/h | 15946m | -17.2m/s | 0°C | 0% | 0hPa | 0V | 00:00:00 | 00:00:00 | 00:00:00 | |
| PETON7-10 | 2026-09-01 13:16:50 | 48.30426 | 17.26869 | 81° | 60km/h | 16059m | -16.5m/s | 0°C | 0% | 0hPa | 0V | 00:00:00 | 00:00:00 | 00:00:00 | |
| OM5KV | 2026-09-01 13:16:45 | 48.30411 | 17.26763 | 76° | 57km/h | 16151m | -16.6m/s | 0°C | 0% | 0hPa | 0V | 00:00:00 | 00:00:00 | 00:00:00 | |
| OE3JTB-15 | 2026-09-01 13:16:41 | 48.30397 | 17.26673 | 77° | 38km/h | 16226m | -19.8m/s | 0°C | 0% | 0hPa | 0V | 00:00:00 | 00:00:00 | 00:00:00 | |
| OM5KV | 2026-09-01 13:16:40 | 48.30393 | 17.26649 | 78° | 64km/h | 16247m | -19.4m/s | 0°C | 0% | 0hPa | 0V | 00:00:00 | 00:00:00 | 00:00:00 | |
| OM5KV | 2026-09-01 13:16:39 | 48.30390 | 17.26625 | 78° | 66km/h | 16267m | -17.4m/s | 0°C | 0% | 0hPa | 0V | 00:00:00 | 00:00:00 | 00:00:00 | |
| OE3OSB-13 | 2026-09-01 13:16:36 | 48.30378 | 17.26509 | 85° | 57km/h | 16366m | -17.2m/s | -53.9°C | 0.0% | 99.7hPa | 0V | 00:00:00 | 00:00:00 | 00:00:00 | |
| PETON7-10 | 2026-09-01 13:16:32 | 48.30377 | 17.26466 | 90° | 37km/h | 16406m | -17.4m/s | 0°C | 0% | 0hPa | 0V | 00:00:00 | 00:00:00 | 00:00:00 | |
| OM5KV | 2026-09-01 13:16:30 | 48.30376 | 17.26407 | 88° | 46km/h | 16463m | -18.3m/s | 0°C | 0% | 0hPa | 0V | 00:00:00 | 00:00:00 | 00:00:00 | |
| OM5KV | 2026-09-01 13:16:27 | 48.30374 | 17.26374 | 83° | 38km/h | 16503m | -18.9m/s | 0°C | 0% | 0hPa | 0V | 00:00:00 | 00:00:00 | 00:00:00 | |
| OM5KV | 2026-09-01 13:16:18 | 48.30363 | 17.26264 | 81° | 29km/h | 16679m | -18.1m/s | 0°C | 0% | 0hPa | 0V | 00:00:00 | 00:00:00 | 00:00:00 | |
| OM5KV | 2026-09-01 13:16:16 | 48.30359 | 17.26244 | 71° | 29km/h | 16718m | -19.3m/s | 0°C | 0% | 0hPa | 0V | 00:00:00 | 00:00:00 | 00:00:00 | |
| PETON7-10 | 2026-09-01 13:16:15 | 48.30357 | 17.26233 | 74° | 37km/h | 16738m | -18.1m/s | 0°C | 0% | 0hPa | 0V | 00:00:00 | 00:00:00 | 00:00:00 | |
| OM5KV | 2026-09-01 13:16:12 | 48.30350 | 17.26203 | 71° | 29km/h | 16799m | -19.5m/s | 0°C | 0% | 0hPa | 0V | 00:00:00 | 00:00:00 | 00:00:00 | |
| OE3JTB-15 | 2026-09-01 13:16:11 | 48.30347 | 17.26192 | 67° | 44km/h | 16819m | -20.2m/s | 0°C | 0% | 0hPa | 0V | 00:00:00 | 00:00:00 | 00:00:00 | |
| OM5KV | 2026-09-01 13:16:10 | 48.30343 | 17.26182 | 61° | 31km/h | 16840m | -18.5m/s | 0°C | 0% | 0hPa | 0V | 00:00:00 | 00:00:00 | 00:00:00 | |
| OM5KV | 2026-09-01 13:16:05 | 48.30320 | 17.26123 | 63° | 37km/h | 16944m | -17.5m/s | 0°C | 0% | 0hPa | 0V | 00:00:00 | 00:00:00 | 00:00:00 | |
| OE3OSB-13 | 2026-09-01 13:16:04 | 48.30312 | 17.26098 | 63° | 37km/h | 16980m | -18.7m/s | -53.4°C | 0.0% | 90.1hPa | 0V | 00:00:00 | 00:00:00 | 00:00:00 | |
| OM5KV | 2026-09-01 13:15:59 | 48.30297 | 17.26044 | 70° | 38km/h | 17061m | -17.4m/s | 0°C | 0% | 0hPa | 0V | 00:00:00 | 00:00:00 | 00:00:00 | |
| OM5KV | 2026-09-01 13:15:58 | 48.30294 | 17.26030 | 75° | 40km/h | 17079m | -16.9m/s | 0°C | 0% | 0hPa | 0V | 00:00:00 | 00:00:00 | 00:00:00 | |
| PETON7-10 | 2026-09-01 13:15:55 | 48.30286 | 17.25984 | 75° | 49km/h | 17136m | -17.7m/s | 0°C | 0% | 0hPa | 0V | 00:00:00 | 00:00:00 | 00:00:00 | |
| OM5KV | 2026-09-01 13:15:54 | 48.30284 | 17.25969 | 81° | 42km/h | 17154m | -15.2m/s | 0°C | 0% | 0hPa | 0V | 00:00:00 | 00:00:00 | 00:00:00 | |
| OM5KV | 2026-09-01 13:15:52 | 48.30279 | 17.25935 | 80° | 47km/h | 17190m | -17.6m/s | 0°C | 0% | 0hPa | 0V | 00:00:00 | 00:00:00 | 00:00:00 | |
| ATIDSZ-14 | 2026-09-01 13:15:49 | 48.30273 | 17.25879 | 85° | 53km/h | 17248m | -18.8m/s | 0°C | 0% | 0hPa | 0V | 00:00:00 | 00:00:00 | 00:00:00 | |
| OM5KV | 2026-09-01 13:15:48 | 48.30271 | 17.25859 | 86° | 55km/h | 17266m | -17.1m/s | 0°C | 0% | 0hPa | 0V | 00:00:00 | 00:00:00 | 00:00:00 | |
| OM5KV | 2026-09-01 13:15:47 | 48.30269 | 17.25839 | 85° | 53km/h | 17286m | -17.8m/s | 0°C | 0% | 0hPa | 0V | 00:00:00 | 00:00:00 | 00:00:00 | |
| OE3JTB-15 | 2026-09-01 13:15:42 | 48.30268 | 17.25736 | 89° | 20km/h | 17386m | -18.9m/s | 0°C | 0% | 0hPa | 0V | 00:00:00 | 00:00:00 | 00:00:00 | |
| OM5KV | 2026-09-01 13:15:41 | 48.30268 | 17.25717 | 92° | 49km/h | 17406m | -17.4m/s | 0°C | 0% | 0hPa | 0V | 00:00:00 | 00:00:00 | 00:00:00 | |
| PETON7-10 | 2026-09-01 13:15:39 | 48.30269 | 17.25682 | 93° | 20km/h | 17442m | -18.2m/s | 0°C | 0% | 0hPa | 0V | 00:00:00 | 00:00:00 | 00:00:00 | |
| OM5KV | 2026-09-01 13:15:36 | 48.30273 | 17.25635 | 100° | 38km/h | 17503m | -18.9m/s | 0°C | 0% | 0hPa | 0V | 00:00:00 | 00:00:00 | 00:00:00 | |
| OM5KV | 2026-09-01 13:15:35 | 48.30275 | 17.25622 | 108° | 35km/h | 17524m | -19.8m/s | 0°C | 0% | 0hPa | 0V | 00:00:00 | 00:00:00 | 00:00:00 | |
| OE3OSB-13 | 2026-09-01 13:15:33 | 48.30282 | 17.25589 | 106° | 26km/h | 17583m | -19.0m/s | -51.9°C | 0.0% | 81.6hPa | 0V | 00:00:00 | 00:00:00 | 00:00:00 | |
| OM5KV | 2026-09-01 13:15:30 | 48.30287 | 17.25570 | 117° | 26km/h | 17624m | -17.9m/s | 0°C | 0% | 0hPa | 0V | 00:00:00 | 00:00:00 | 00:00:00 | |
| OM5KV | 2026-09-01 13:15:29 | 48.30290 | 17.25562 | 120° | 22km/h | 17642m | -18.3m/s | 0°C | 0% | 0hPa | 0V | 00:00:00 | 00:00:00 | 00:00:00 | |
| ATIDSZ-14 | 2026-09-01 13:15:26 | 48.30298 | 17.25542 | 119° | 18km/h | 17706m | -17.8m/s | 0°C | 0% | 0hPa | 0V | 00:00:00 | 00:00:00 | 00:00:00 | |
| OM5KV | 2026-09-01 13:15:24 | 48.30301 | 17.25530 | 106° | 15km/h | 17745m | -18.6m/s | 0°C | 0% | 0hPa | 0V | 00:00:00 | 00:00:00 | 00:00:00 | |
| OM5KV | 2026-09-01 13:15:23 | 48.30302 | 17.25525 | 100° | 13km/h | 17765m | -19.0m/s | 0°C | 0% | 0hPa | 0V | 00:00:00 | 00:00:00 | 00:00:00 | |
| OM5KV | 2026-09-01 13:15:18 | 48.30304 | 17.25503 | 89° | 7km/h | 17883m | -20.5m/s | 0°C | 0% | 0hPa | 0V | 00:00:00 | 00:00:00 | 00:00:00 | |
| PETON7-10 | 2026-09-01 13:15:17 | 48.30304 | 17.25503 | 88° | 13km/h | 17883m | -20.4m/s | 0°C | 0% | 0hPa | 0V | 00:00:00 | 00:00:00 | 00:00:00 | |
| OM5KV | 2026-09-01 13:15:14 | 48.30300 | 17.25490 | 46° | 13km/h | 17969m | -18.0m/s | 0°C | 0% | 0hPa | 0V | 00:00:00 | 00:00:00 | 00:00:00 | |
| OE3JTB-15 | 2026-09-01 13:15:11 | 48.30294 | 17.25482 | 41° | 26km/h | 18008m | -19.0m/s | 0°C | 0% | 0hPa | 0V | 00:00:00 | 00:00:00 | 00:00:00 | |
| OM5KV | 2026-09-01 13:15:07 | 48.30279 | 17.25467 | 36° | 18km/h | 18087m | -19.7m/s | 0°C | 0% | 0hPa | 0V | 00:00:00 | 00:00:00 | 00:00:00 | |
| OE3OSB-13 | 2026-09-01 13:15:02 | 48.30254 | 17.25444 | 32° | 22km/h | 18211m | -18.6m/s | -53.1°C | 0.0% | 73.6hPa | 0V | 00:00:00 | 00:00:00 | 00:00:00 | |
| PETON7-10 | 2026-09-01 13:15:01 | 48.30254 | 17.25444 | 33° | 29km/h | 18212m | -18.6m/s | 0°C | 0% | 0hPa | 0V | 00:00:00 | 00:00:00 | 00:00:00 | |
| ATIDSZ-14 | 2026-09-01 13:14:59 | 48.30244 | 17.25435 | 33° | 26km/h | 18255m | -20.4m/s | 0°C | 0% | 0hPa | 0V | 00:00:00 | 00:00:00 | 00:00:00 | |
| OM5KV | 2026-09-01 13:14:57 | 48.30232 | 17.25424 | 33° | 26km/h | 18297m | -19.7m/s | 0°C | 0% | 0hPa | 0V | 00:00:00 | 00:00:00 | 00:00:00 | |
| OM5KV | 2026-09-01 13:14:55 | 48.30221 | 17.25414 | 34° | 29km/h | 18339m | -19.8m/s | 0°C | 0% | 0hPa | 0V | 00:00:00 | 00:00:00 | 00:00:00 | |
| OM5KV | 2026-09-01 13:14:51 | 48.30193 | 17.25386 | 47° | 31km/h | 18419m | -20.7m/s | 0°C | 0% | 0hPa | 0V | 00:00:00 | 00:00:00 | 00:00:00 | |
| OM5KV | 2026-09-01 13:14:47 | 48.30173 | 17.25345 | 64° | 33km/h | 18511m | -21.4m/s | 0°C | 0% | 0hPa | 0V | 00:00:00 | 00:00:00 | 00:00:00 | |
| OM5KV | 2026-09-01 13:14:46 | 48.30169 | 17.25334 | 67° | 33km/h | 18533m | -20.2m/s | 0°C | 0% | 0hPa | 0V | 00:00:00 | 00:00:00 | 00:00:00 | |
| PETON7-10 | 2026-09-01 13:14:43 | 48.30160 | 17.25299 | 70° | 29km/h | 18604m | -21.8m/s | 0°C | 0% | 0hPa | 0V | 00:00:00 | 00:00:00 | 00:00:00 | |
| OE3JTB-15 | 2026-09-01 13:14:42 | 48.30157 | 17.25287 | 75° | 27km/h | 18627m | -21.7m/s | 0°C | 0% | 0hPa | 0V | 00:00:00 | 00:00:00 | 00:00:00 | |
| OM5KV | 2026-09-01 13:14:40 | 48.30153 | 17.25264 | 80° | 31km/h | 18671m | -21.2m/s | 0°C | 0% | 0hPa | 0V | 00:00:00 | 00:00:00 | 00:00:00 | |
| ATIDSZ-14 | 2026-09-01 13:14:38 | 48.30150 | 17.25241 | 81° | 31km/h | 18712m | -17.8m/s | 0°C | 0% | 0hPa | 0V | 00:00:00 | 00:00:00 | 00:00:00 | |
| OM5KV | 2026-09-01 13:14:34 | 48.30146 | 17.25198 | 82° | 27km/h | 18790m | -18.3m/s | 0°C | 0% | 0hPa | 0V | 00:00:00 | 00:00:00 | 00:00:00 | |
| OE3OSB-13 | 2026-09-01 13:14:30 | 48.30145 | 17.25160 | 87° | 22km/h | 18870m | -22.1m/s | -54.3°C | 0.0% | 66.0hPa | 0V | 00:00:00 | 00:00:00 | 00:00:00 | |
| OM5KV | 2026-09-01 13:14:28 | 48.30144 | 17.25140 | 89° | 27km/h | 18915m | -20.9m/s | 0°C | 0% | 0hPa | 0V | 00:00:00 | 00:00:00 | 00:00:00 | |
| OM5KV | 2026-09-01 13:14:23 | 48.30138 | 17.25093 | 76° | 24km/h | 19020m | -18.5m/s | 0°C | 0% | 0hPa | 0V | 00:00:00 | 00:00:00 | 00:00:00 | |
| ATIDSZ-14 | 2026-09-01 13:14:18 | 48.30126 | 17.25058 | 57° | 22km/h | 19124m | -20.0m/s | 0°C | 0% | 0hPa | 0V | 00:00:00 | 00:00:00 | 00:00:00 | |
| PETON7-10 | 2026-09-01 13:14:11 | 48.30101 | 17.24997 | 65° | 27km/h | 19263m | -17.7m/s | 0°C | 0% | 0hPa | 0V | 00:00:00 | 00:00:00 | 00:00:00 | |
| OE3JTB-15 | 2026-09-01 13:14:07 | 48.30097 | 17.24953 | 89° | 18km/h | 19340m | -17.0m/s | 0°C | 0% | 0hPa | 0V | 00:00:00 | 00:00:00 | 00:00:00 | |
| OE3OSB-13 | 2026-09-01 13:13:59 | 48.30107 | 17.24869 | 119° | 15km/h | 19522m | -16.8m/s | -52.7°C | 0.0% | 59.2hPa | 0V | 00:00:00 | 00:00:00 | 00:00:00 | |
| OM5KV | 2026-09-01 13:13:56 | 48.30110 | 17.24860 | 117° | 13km/h | 19558m | -17.2m/s | 0°C | 0% | 0hPa | 0V | 00:00:00 | 00:00:00 | 00:00:00 | |
| ATIDSZ-14 | 2026-09-01 13:13:55 | 48.30112 | 17.24857 | 124° | 9km/h | 19576m | -16.9m/s | 0°C | 0% | 0hPa | 0V | 00:00:00 | 00:00:00 | 00:00:00 | |
| OE3JTB-15 | 2026-09-01 13:13:38 | 48.30054 | 17.24830 | 15° | 27km/h | 19940m | -18.8m/s | 0°C | 0% | 0hPa | 0V | 00:00:00 | 00:00:00 | 00:00:00 | |
| ATIDSZ-14 | 2026-09-01 13:13:33 | 48.30011 | 17.24807 | 35° | 35km/h | 20048m | -21.2m/s | 0°C | 0% | 0hPa | 0V | 00:00:00 | 00:00:00 | 00:00:00 | |
| OE3OSB-13 | 2026-09-01 13:13:28 | 48.29980 | 17.24766 | 49° | 24km/h | 20180m | -19.1m/s | -53.2°C | 0.0% | 53.0hPa | 0V | 00:00:00 | 00:00:00 | 00:00:00 | |
| PETON7-10 | 2026-09-01 13:13:13 | 48.29920 | 17.24661 | 53° | 13km/h | 20474m | -21.1m/s | 0°C | 0% | 0hPa | 0V | 00:00:00 | 00:00:00 | 00:00:00 | |
| OE3JTB-15 | 2026-09-01 13:13:09 | 48.29920 | 17.24640 | 99° | 20km/h | 20570m | -19.4m/s | 0°C | 0% | 0hPa | 0V | 00:00:00 | 00:00:00 | 00:00:00 | |
| ATIDSZ-14 | 2026-09-01 13:12:57 | 48.29905 | 17.24617 | 32° | 11km/h | 20817m | -20.0m/s | 0°C | 0% | 0hPa | 0V | 00:00:00 | 00:00:00 | 00:00:00 | |
| PETON7-10 | 2026-09-01 13:12:55 | 48.29899 | 17.24612 | 35° | 27km/h | 20862m | -20.8m/s | 0°C | 0% | 0hPa | 0V | 00:00:00 | 00:00:00 | 00:00:00 | |
| OE3JTB-15 | 2026-09-01 13:12:38 | 48.29825 | 17.24479 | 67° | 20km/h | 21243m | -18.5m/s | 0°C | 0% | 0hPa | 0V | 00:00:00 | 00:00:00 | 00:00:00 | |
| PETON7-10 | 2026-09-01 13:12:35 | 48.29820 | 17.24450 | 84° | 22km/h | 21303m | -19.8m/s | 0°C | 0% | 0hPa | 0V | 00:00:00 | 00:00:00 | 00:00:00 | |
| ATIDSZ-14 | 2026-09-01 13:12:25 | 48.29818 | 17.24365 | 101° | 18km/h | 21532m | -23.8m/s | 0°C | 0% | 0hPa | 0V | 00:00:00 | 00:00:00 | 00:00:00 | |
| HA6NAB-11 | 2026-09-01 13:12:15 | 48.29803 | 17.24303 | 59° | 22km/h | 21776m | -25.7m/s | 0°C | 0% | 0hPa | 0V | 00:00:00 | 00:00:00 | 00:00:00 | |
| PETON7-10 | 2026-09-01 13:12:10 | 48.29797 | 17.24266 | 89° | 18km/h | 21899m | -25.3m/s | 0°C | 0% | 0hPa | 0V | 00:00:00 | 00:00:00 | 00:00:00 | |
| OE3JTB-15 | 2026-09-01 13:12:09 | 48.29797 | 17.24259 | 104° | 16km/h | 21923m | -23.2m/s | 0°C | 0% | 0hPa | 0V | 00:00:00 | 00:00:00 | 00:00:00 | |
| HA6NAB-11 | 2026-09-01 13:12:04 | 48.29796 | 17.24224 | 75° | 15km/h | 22039m | -21.8m/s | 0°C | 0% | 0hPa | 0V | 00:00:00 | 00:00:00 | 00:00:00 | |
| ATIDSZ-14 | 2026-09-01 13:12:03 | 48.29795 | 17.24218 | 67° | 18km/h | 22061m | -21.6m/s | 0°C | 0% | 0hPa | 0V | 00:00:00 | 00:00:00 | 00:00:00 | |
| OE3OSB-13 | 2026-09-01 13:11:55 | 48.29795 | 17.24153 | 100° | 11km/h | 22294m | -17.1m/s | -52.7°C | 0.0% | 36.9hPa | 0V | 00:00:00 | 00:00:00 | 00:00:00 | |
| PETON7-10 | 2026-09-01 13:11:54 | 48.29794 | 17.24157 | 128° | 11km/h | 22274m | -20.7m/s | 0°C | 0% | 0hPa | 0V | 00:00:00 | 00:00:00 | 00:00:00 | |
| HA6NAB-11 | 2026-09-01 13:11:53 | 48.29795 | 17.24153 | 102° | 11km/h | 22295m | -17.1m/s | 0°C | 0% | 0hPa | 0V | 00:00:00 | 00:00:00 | 00:00:00 | |
| HA6NAB-11 | 2026-09-01 13:11:47 | 48.29801 | 17.24143 | 185° | 7km/h | 22430m | -19.9m/s | 0°C | 0% | 0hPa | 0V | 00:00:00 | 00:00:00 | 00:00:00 | |
| OE3JTB-15 | 2026-09-01 13:11:40 | 48.29811 | 17.24168 | 277° | 9km/h | 22577m | -19.8m/s | 0°C | 0% | 0hPa | 0V | 00:00:00 | 00:00:00 | 00:00:00 | |
| ATIDSZ-14 | 2026-09-01 13:11:33 | 48.29806 | 17.24195 | 291° | 5km/h | 22739m | -21.4m/s | 0°C | 0% | 0hPa | 0V | 00:00:00 | 00:00:00 | 00:00:00 | |
| PETON7-10 | 2026-09-01 13:11:30 | 48.29805 | 17.24199 | 320° | 4km/h | 22802m | -20.2m/s | 0°C | 0% | 0hPa | 0V | 00:00:00 | 00:00:00 | 00:00:00 | |
| OE3OSB-13 | 2026-09-01 13:11:24 | 48.29803 | 17.24184 | 73° | 5km/h | 22969m | -22.8m/s | -51.4°C | 0% | 32.8hPa | 0V | 00:00:00 | 00:00:00 | 00:00:00 | |
| ATIDSZ-14 | 2026-09-01 13:11:12 | 48.29814 | 17.24212 | 258° | 7km/h | 23214m | -19.7m/s | 0°C | 0% | 0hPa | 0V | 00:00:00 | 00:00:00 | 00:00:00 | |
| OE3JTB-15 | 2026-09-01 13:11:11 | 48.29814 | 17.24215 | 263° | 9km/h | 23234m | -20.4m/s | 0°C | 0% | 0hPa | 0V | 00:00:00 | 00:00:00 | 00:00:00 | |
| PETON7-10 | 2026-09-01 13:11:10 | 48.29815 | 17.24219 | 262° | 11km/h | 23257m | -22.5m/s | 0°C | 0% | 0hPa | 0V | 00:00:00 | 00:00:00 | 00:00:00 | |
| OE3OSB-13 | 2026-09-01 13:10:53 | 48.29815 | 17.24278 | 214° | 4km/h | 23743m | -26.3m/s | -52.0°C | 0.0% | 28.6hPa | 0V | 00:00:00 | 00:00:00 | 00:00:00 | |
| PETON7-10 | 2026-09-01 13:10:31 | 48.29782 | 17.24325 | 1° | 9km/h | 24224m | -23.3m/s | 0°C | 0% | 0hPa | 0V | 00:00:00 | 00:00:00 | 00:00:00 | |
| OE5MMP-10 | 2026-09-01 13:10:27 | 48.29781 | 17.24329 | 254° | 4km/h | 24316m | -24.2m/s | 0°C | 0% | 0hPa | 0V | 00:00:00 | 00:00:00 | 00:00:00 | |
| OE3OSB-13 | 2026-09-01 13:10:22 | 48.29779 | 17.24328 | 94° | 4km/h | 24483m | -22.0m/s | -50.5°C | 0.0% | 25.0hPa | 0V | 00:00:00 | 00:00:00 | 00:00:00 | |
| ATIDSZ-14 | 2026-09-01 13:10:19 | 48.29780 | 17.24326 | 147° | 7km/h | 24505m | -21.2m/s | 0°C | 0% | 0hPa | 0V | 00:00:00 | 00:00:00 | 00:00:00 | |
| PETON7-10 | 2026-09-01 13:10:11 | 48.29792 | 17.24349 | 247° | 11km/h | 24690m | -23.8m/s | 0°C | 0% | 0hPa | 0V | 00:00:00 | 00:00:00 | 00:00:00 | |
| OE3JTB-15 | 2026-09-01 13:10:05 | 48.29792 | 17.24374 | 326° | 11km/h | 24829m | -19.4m/s | 0°C | 0% | 0hPa | 0V | 00:00:00 | 00:00:00 | 00:00:00 | |
| OE3OSB-13 | 2026-09-01 13:09:51 | 48.29772 | 17.24446 | 336° | 13km/h | 25303m | -26.1m/s | -49.9°C | 0.0% | 21.6hPa | 0V | 00:00:00 | 00:00:00 | 00:00:00 | |
| OE5MMP-10 | 2026-09-01 13:09:50 | 48.29777 | 17.24432 | 278° | 13km/h | 25200m | -28.0m/s | 0°C | 0% | 0hPa | 0V | 00:00:00 | 00:00:00 | 00:00:00 | |
| OE3JTB-15 | 2026-09-01 13:09:36 | 48.29740 | 17.24440 | 23° | 22km/h | 25556m | -26.9m/s | 0°C | 0% | 0hPa | 0V | 00:00:00 | 00:00:00 | 00:00:00 | |
| PETON7-10 | 2026-09-01 13:09:32 | 48.29719 | 17.24430 | 11° | 18km/h | 25670m | -28.7m/s | 0°C | 0% | 0hPa | 0V | 00:00:00 | 00:00:00 | 00:00:00 | |
| ATIDSZ-14 | 2026-09-01 13:09:25 | 48.29688 | 17.24418 | 28° | 20km/h | 25872m | -24.0m/s | 0°C | 0% | 0hPa | 0V | 00:00:00 | 00:00:00 | 00:00:00 | |
| OE5MMP-10 | 2026-09-01 13:09:24 | 48.29683 | 17.24414 | 33° | 26km/h | 25896m | -23.2m/s | 0°C | 0% | 0hPa | 0V | 00:00:00 | 00:00:00 | 00:00:00 | |
| OE3OSB-13 | 2026-09-01 13:09:20 | 48.29655 | 17.24389 | 49° | 13km/h | 26048m | -23.0m/s | -48.6°C | 0.0% | 18.7hPa | 0V | 00:00:00 | 00:00:00 | 00:00:00 | |
| PETON7-10 | 2026-09-01 13:09:15 | 48.29651 | 17.24373 | 93° | 16km/h | 26120m | -21.1m/s | 0°C | 0% | 0hPa | 0V | 00:00:00 | 00:00:00 | 00:00:00 | |
| OE3JTB-15 | 2026-09-01 13:09:07 | 48.29644 | 17.24295 | 86° | 11km/h | 26330m | -25.0m/s | 0°C | 0% | 0hPa | 0V | 00:00:00 | 00:00:00 | 00:00:00 | |
| OE5MMP-10 | 2026-09-01 13:09:05 | 48.29645 | 17.24279 | 104° | 22km/h | 26383m | -25.2m/s | 0°C | 0% | 0hPa | 0V | 00:00:00 | 00:00:00 | 00:00:00 | |
| OE3OSB-13 | 2026-09-01 13:08:49 | 48.29654 | 17.24209 | 43° | 5km/h | 26899m | -29.7m/s | -46.9°C | 0.0% | 15.9hPa | 0V | 00:00:00 | 00:00:00 | 00:00:00 | |
| PETON7-10 | 2026-09-01 13:08:40 | 48.29656 | 17.24180 | 117° | 11km/h | 27106m | -25.9m/s | 0°C | 0% | 0hPa | 0V | 00:00:00 | 00:00:00 | 00:00:00 | |
| OE5MMP-10 | 2026-09-01 13:08:39 | 48.29657 | 17.24178 | 132° | 5km/h | 27132m | -25.6m/s | 0°C | 0% | 0hPa | 0V | 00:00:00 | 00:00:00 | 00:00:00 | |
| OE3JTB-15 | 2026-09-01 13:08:37 | 48.29660 | 17.24176 | 192° | 11km/h | 27189m | -30.1m/s | 0°C | 0% | 0hPa | 0V | 00:00:00 | 00:00:00 | 00:00:00 | |
| OE3OSB-13 | 2026-09-01 13:08:17 | 48.29614 | 17.24229 | 25° | 11km/h | 27832m | -30.7m/s | -45.6°C | 0.0% | 13.2hPa | 0V | 00:00:00 | 00:00:00 | 00:00:00 | |
| OE5MMP-10 | 2026-09-01 13:08:15 | 48.29614 | 17.24229 | 26° | 13km/h | 27832m | -30.6m/s | 0°C | 0% | 0hPa | 0V | 00:00:00 | 00:00:00 | 00:00:00 | |
| ATIDSZ-14 | 2026-09-01 13:08:12 | 48.29608 | 17.24222 | 46° | 5km/h | 27920m | -30.0m/s | 0°C | 0% | 0hPa | 0V | 00:00:00 | 00:00:00 | 00:00:00 | |
| OE3JTB-15 | 2026-09-01 13:08:08 | 48.29606 | 17.24223 | 277° | 13km/h | 28016m | -18.7m/s | 0°C | 0% | 0hPa | 0V | 00:00:00 | 00:00:00 | 00:00:00 | |
| OE3OSB-13 | 2026-09-01 13:07:46 | 48.29559 | 17.24178 | 68° | 11km/h | 28696m | -27.0m/s | -45.2°C | 0.0% | 11.1hPa | 0V | 00:00:00 | 00:00:00 | 00:00:00 | |
| PETON7-10 | 2026-09-01 13:07:42 | 48.29552 | 17.24162 | 48° | 20km/h | 28818m | -26.7m/s | 0°C | 0% | 0hPa | 0V | 00:00:00 | 00:00:00 | 00:00:00 | |
| OE3JTB-15 | 2026-09-01 13:07:39 | 48.29542 | 17.24144 | 57° | 22km/h | 28904m | -28.8m/s | 0°C | 0% | 0hPa | 0V | 00:00:00 | 00:00:00 | 00:00:00 | |
| ATIDSZ-14 | 2026-09-01 13:07:16 | 48.29505 | 17.23970 | 83° | 26km/h | 29580m | -29.8m/s | 0°C | 0% | 0hPa | 0V | 00:00:00 | 00:00:00 | 00:00:00 | |
| OE3OSB-13 | 2026-09-01 13:07:15 | 48.29501 | 17.23933 | 88° | 9km/h | 29734m | -30.6m/s | -42.9°C | 0.0% | 8.8hPa | 0V | 00:00:00 | 00:00:00 | 00:00:00 | |
| OE3JTB-15 | 2026-09-01 13:07:10 | 48.29501 | 17.23930 | 114° | 20km/h | 29767m | -32.9m/s | 0°C | 0% | 0hPa | 0V | 00:00:00 | 00:00:00 | 00:00:00 | |
| PETON7-10 | 2026-09-01 13:07:00 | 48.29511 | 17.23843 | 95° | 26km/h | 30097m | -30.6m/s | 0°C | 0% | 0hPa | 0V | 00:00:00 | 00:00:00 | 00:00:00 | |
| OE3OSB-13 | 2026-09-01 13:06:44 | 48.29518 | 17.23719 | 91° | 11km/h | 30733m | -36.9m/s | -37.8°C | 0.0% | 7.0hPa | 0V | 00:00:00 | 00:00:00 | 00:00:00 | |
| OE3JTB-15 | 2026-09-01 13:06:41 | 48.29518 | 17.23708 | 90° | 16km/h | 30810m | -35.6m/s | 0°C | 0% | 0hPa | 0V | 00:00:00 | 00:00:00 | 00:00:00 | |
| ATIDSZ-14 | 2026-09-01 13:06:33 | 48.29527 | 17.23643 | 103° | 29km/h | 31110m | -39.2m/s | 0°C | 0% | 0hPa | 0V | 00:00:00 | 00:00:00 | 00:00:00 | |
| OE3JTB-15 | 2026-09-01 13:06:12 | 48.29543 | 17.23578 | 333° | 27km/h | 31956m | -38.3m/s | 0°C | 0% | 0hPa | 0V | 00:00:00 | 00:00:00 | 00:00:00 | |
| ATIDSZ-14 | 2026-09-01 13:06:10 | 48.29534 | 17.23588 | 316° | 27km/h | 32035m | -40.0m/s | 0°C | 0% | 0hPa | 0V | 00:00:00 | 00:00:00 | 00:00:00 | |
| OE5MMP-10 | 2026-09-01 13:06:05 | 48.29510 | 17.23602 | 37° | 26km/h | 32240m | -36.2m/s | 0°C | 0% | 0hPa | 0V | 00:00:00 | 00:00:00 | 00:00:00 | |
| OE5MMP-10 | 2026-09-01 13:05:54 | 48.29469 | 17.23595 | 358° | 29km/h | 32660m | -31.4m/s | 0°C | 0% | 0hPa | 0V | 00:00:00 | 00:00:00 | 00:00:00 | |
| PETON7-10 | 2026-09-01 13:05:53 | 48.29461 | 17.23595 | 5° | 29km/h | 32689m | -25.1m/s | 0°C | 0% | 0hPa | 0V | 00:00:00 | 00:00:00 | 00:00:00 | |
| OK1SLM-15 | 2026-09-01 13:05:47 | 48.29453 | 17.23552 | 87° | 11km/h | 32826m | -18.3m/s | 0°C | 0% | 0hPa | 0V | 00:00:00 | 00:00:00 | 00:00:00 | |
| OE5MMP-10 | 2026-09-01 13:05:42 | 48.29411 | 17.23574 | 352° | 35km/h | 32925m | -42.5m/s | 0°C | 0% | 0hPa | 0V | 00:00:00 | 00:00:00 | 00:00:00 | |
| ATIDSZ-14 | 2026-09-01 13:05:41 | 48.29402 | 17.23576 | 355° | 37km/h | 32965m | -36.5m/s | 0°C | 0% | 0hPa | 0V | 00:00:00 | 00:00:00 | 00:00:00 | |
| OK1SLM-15 | 2026-09-01 13:05:39 | 48.29386 | 17.23574 | 35° | 22km/h | 33024m | -14.7m/s | 0°C | 0% | 0hPa | 0V | 00:00:00 | 00:00:00 | 00:00:00 | |
| PETON7-10 | 2026-09-01 13:05:36 | 48.29383 | 17.23547 | 89° | 42km/h | 33029m | 12.7m/s | 0°C | 0% | 0hPa | 0V | 00:00:00 | 00:00:00 | 00:00:00 | |
| OK1SLM-15 | 2026-09-01 13:05:33 | 48.29372 | 17.23539 | 342° | 26km/h | 33008m | 10.3m/s | 0°C | 0% | 0hPa | 0V | 00:00:00 | 00:00:00 | 00:00:00 | |
| OE5MMP-10 | 2026-09-01 13:05:28 | 48.29331 | 17.23525 | 63° | 35km/h | 32975m | 11.0m/s | 0°C | 0% | 0hPa | 0V | 00:00:00 | 00:00:00 | 00:00:00 | |
| OK1SLM-15 | 2026-09-01 13:05:27 | 48.29327 | 17.23508 | 80° | 47km/h | 32968m | 4.3m/s | 0°C | 0% | 0hPa | 0V | 00:00:00 | 00:00:00 | 00:00:00 | |
| HA6NAB-11 | 2026-09-01 13:05:21 | 48.29302 | 17.23503 | 347° | 55km/h | 32931m | 3.2m/s | 0°C | 0% | 0hPa | 0V | 00:00:00 | 00:00:00 | 00:00:00 | |
| PETON7-10 | 2026-09-01 13:05:18 | 48.29269 | 17.23486 | 65° | 29km/h | 32913m | 7.4m/s | 0°C | 0% | 0hPa | 0V | 00:00:00 | 00:00:00 | 00:00:00 | |
| ATIDSZ-14 | 2026-09-01 13:05:17 | 48.29267 | 17.23471 | 92° | 40km/h | 32906m | 7.2m/s | 0°C | 0% | 0hPa | 0V | 00:00:00 | 00:00:00 | 00:00:00 | |
| HA6NAB-11 | 2026-09-01 13:05:16 | 48.29268 | 17.23459 | 108° | 29km/h | 32900m | 6.4m/s | 0°C | 0% | 0hPa | 0V | 00:00:00 | 00:00:00 | 00:00:00 | |
| OK1SLM-15 | 2026-09-01 13:05:15 | 48.29271 | 17.23452 | 135° | 13km/h | 32894m | 6.2m/s | 0°C | 0% | 0hPa | 0V | 00:00:00 | 00:00:00 | 00:00:00 | |
| OE3JTB-15 | 2026-09-01 13:05:13 | 48.29268 | 17.23453 | 332° | 26km/h | 32882m | 7.2m/s | 0°C | 0% | 0hPa | 0V | 00:00:00 | 00:00:00 | 00:00:00 | |
| HA6NAB-11 | 2026-09-01 13:05:12 | 48.29252 | 17.23457 | 5° | 44km/h | 32867m | 8.8m/s | 0°C | 0% | 0hPa | 0V | 00:00:00 | 00:00:00 | 00:00:00 | |
| HA6NAB-11 | 2026-09-01 13:05:07 | 48.29207 | 17.23437 | 339° | 15km/h | 32835m | 8.9m/s | 0°C | 0% | 0hPa | 0V | 00:00:00 | 00:00:00 | 00:00:00 | |
| OE5MMP-10 | 2026-09-01 13:05:02 | 48.29199 | 17.23436 | 41° | 33km/h | 32809m | 8.2m/s | 0°C | 0% | 0hPa | 0V | 00:00:00 | 00:00:00 | 00:00:00 | |
| HA6NAB-11 | 2026-09-01 13:05:00 | 48.29184 | 17.23421 | 29° | 40km/h | 32798m | 2.8m/s | 0°C | 0% | 0hPa | 0V | 00:00:00 | 00:00:00 | 00:00:00 | |
| PETON7-10 | 2026-09-01 13:04:59 | 48.29175 | 17.23416 | 9° | 26km/h | 32794m | 5.1m/s | 0°C | 0% | 0hPa | 0V | 00:00:00 | 00:00:00 | 00:00:00 | |
| ATIDSZ-14 | 2026-09-01 13:04:55 | 48.29152 | 17.23437 | 304° | 22km/h | 32768m | 5.1m/s | 0°C | 0% | 0hPa | 0V | 00:00:00 | 00:00:00 | 00:00:00 | |
| OE5MMP-10 | 2026-09-01 13:04:52 | 48.29140 | 17.23437 | 40° | 27km/h | 32746m | 7.8m/s | 0°C | 0% | 0hPa | 0V | 00:00:00 | 00:00:00 | 00:00:00 | |
| PETON7-10 | 2026-09-01 13:04:44 | 48.29097 | 17.23448 | 1° | 26km/h | 32693m | 5.8m/s | 0°C | 0% | 0hPa | 0V | 00:00:00 | 00:00:00 | 00:00:00 | |
| OE5MMP-10 | 2026-09-01 13:04:42 | 48.29088 | 17.23447 | 349° | 16km/h | 32681m | 7.8m/s | 0°C | 0% | 0hPa | 0V | 00:00:00 | 00:00:00 | 00:00:00 | |
| OE3OSB-13 | 2026-09-01 13:04:40 | 48.29087 | 17.23457 | 348° | 15km/h | 32657m | 8.2m/s | -36.3°C | 0.0% | 4.2hPa | 0V | 00:00:00 | 00:00:00 | 00:00:00 | |
| ATIDSZ-14 | 2026-09-01 13:04:34 | 48.29057 | 17.23455 | 347° | 27km/h | 32630m | 4.7m/s | 0°C | 0% | 0hPa | 0V | 00:00:00 | 00:00:00 | 00:00:00 | |
| OE5MMP-10 | 2026-09-01 13:04:32 | 48.29051 | 17.23464 | 238° | 20km/h | 32616m | 8.8m/s | 0°C | 0% | 0hPa | 0V | 00:00:00 | 00:00:00 | 00:00:00 | |
| PETON7-10 | 2026-09-01 13:04:29 | 48.29062 | 17.23471 | 146° | 22km/h | 32598m | 6.5m/s | 0°C | 0% | 0hPa | 0V | 00:00:00 | 00:00:00 | 00:00:00 | |
| OE5MMP-10 | 2026-09-01 13:04:22 | 48.29034 | 17.23465 | 238° | 22km/h | 32551m | 4.2m/s | 0°C | 0% | 0hPa | 0V | 00:00:00 | 00:00:00 | 00:00:00 | |
| PETON7-10 | 2026-09-01 13:04:14 | 48.29016 | 17.23445 | 345° | 18km/h | 32503m | 5.6m/s | 0°C | 0% | 0hPa | 0V | 00:00:00 | 00:00:00 | 00:00:00 | |
| ATIDSZ-14 | 2026-09-01 13:04:13 | 48.29014 | 17.23445 | 68° | 7km/h | 32497m | 8.1m/s | 0°C | 0% | 0hPa | 0V | 00:00:00 | 00:00:00 | 00:00:00 | |
| OE5MMP-10 | 2026-09-01 13:04:12 | 48.29014 | 17.23441 | 107° | 20km/h | 32489m | 7.7m/s | 0°C | 0% | 0hPa | 0V | 00:00:00 | 00:00:00 | 00:00:00 | |
| OE3OSB-13 | 2026-09-01 13:04:10 | 48.29004 | 17.23426 | 8° | 18km/h | 32457m | 6.2m/s | -37.1°C | 0.0% | 4.5hPa | 0V | 00:00:00 | 00:00:00 | 00:00:00 | |
| OE5MMP-10 | 2026-09-01 13:04:02 | 48.28983 | 17.23393 | 41° | 20km/h | 32422m | 7.2m/s | 0°C | 0% | 0hPa | 0V | 00:00:00 | 00:00:00 | 00:00:00 | |
| PETON7-10 | 2026-09-01 13:03:55 | 48.28956 | 17.23383 | 68° | 18km/h | 32371m | 4.6m/s | 0°C | 0% | 0hPa | 0V | 00:00:00 | 00:00:00 | 00:00:00 | |
| OE5MMP-10 | 2026-09-01 13:03:52 | 48.28943 | 17.23380 | 358° | 22km/h | 32349m | 6.3m/s | 0°C | 0% | 0hPa | 0V | 00:00:00 | 00:00:00 | 00:00:00 | |
| ATIDSZ-14 | 2026-09-01 13:03:51 | 48.28936 | 17.23380 | 5° | 31km/h | 32344m | 3.4m/s | 0°C | 0% | 0hPa | 0V | 00:00:00 | 00:00:00 | 00:00:00 | |
| OE3JTB-15 | 2026-09-01 13:03:46 | 48.28925 | 17.23367 | 247° | 18km/h | 32309m | 5.9m/s | 0°C | 0% | 0hPa | 0V | 00:00:00 | 00:00:00 | 00:00:00 | |
| OE5MMP-10 | 2026-09-01 13:03:42 | 48.28911 | 17.23383 | 1° | 18km/h | 32283m | 7.0m/s | 0°C | 0% | 0hPa | 0V | 00:00:00 | 00:00:00 | 00:00:00 | |
| PETON7-10 | 2026-09-01 13:03:40 | 48.28903 | 17.23378 | 49° | 22km/h | 32271m | 4.1m/s | 0°C | 0% | 0hPa | 0V | 00:00:00 | 00:00:00 | 00:00:00 | |
| OE3OSB-13 | 2026-09-01 13:03:39 | 48.28892 | 17.23382 | 319° | 27km/h | 32245m | 7.3m/s | -37.4°C | 0.0% | 4.7hPa | 0V | 00:00:00 | 00:00:00 | 00:00:00 | |
| OE5MMP-10 | 2026-09-01 13:03:32 | 48.28876 | 17.23392 | 44° | 18km/h | 32220m | 6.0m/s | 0°C | 0% | 0hPa | 0V | 00:00:00 | 00:00:00 | 00:00:00 | |
| ATIDSZ-14 | 2026-09-01 13:03:29 | 48.28867 | 17.23390 | 326° | 24km/h | 32200m | 8.7m/s | 0°C | 0% | 0hPa | 0V | 00:00:00 | 00:00:00 | 00:00:00 | |
| PETON7-10 | 2026-09-01 13:03:24 | 48.28847 | 17.23419 | 9° | 18km/h | 32164m | 7.5m/s | 0°C | 0% | 0hPa | 0V | 00:00:00 | 00:00:00 | 00:00:00 | |
| OE5MMP-10 | 2026-09-01 13:03:22 | 48.28835 | 17.23417 | 1° | 24km/h | 32149m | 8.6m/s | 0°C | 0% | 0hPa | 0V | 00:00:00 | 00:00:00 | 00:00:00 | |
| OE3JTB-15 | 2026-09-01 13:03:17 | 48.28810 | 17.23432 | 211° | 18km/h | 32110m | 4.9m/s | 0°C | 0% | 0hPa | 0V | 00:00:00 | 00:00:00 | 00:00:00 | |
| OE5MMP-10 | 2026-09-01 13:03:12 | 48.28799 | 17.23455 | 322° | 24km/h | 32082m | 6.0m/s | 0°C | 0% | 0hPa | 0V | 00:00:00 | 00:00:00 | 00:00:00 | |
| PETON7-10 | 2026-09-01 13:03:09 | 48.28783 | 17.23461 | 39° | 15km/h | 32060m | 7.9m/s | 0°C | 0% | 0hPa | 0V | 00:00:00 | 00:00:00 | 00:00:00 | |
| OE3OSB-13 | 2026-09-01 13:03:07 | 48.28776 | 17.23459 | 318° | 26km/h | 32034m | 9.2m/s | -37.0°C | 0.0% | 5.0hPa | 0V | 00:00:00 | 00:00:00 | 00:00:00 | |
| OE5MMP-10 | 2026-09-01 13:03:02 | 48.28763 | 17.23480 | 302° | 15km/h | 32018m | 9.9m/s | 0°C | 0% | 0hPa | 0V | 00:00:00 | 00:00:00 | 00:00:00 | |
| PETON7-10 | 2026-09-01 13:02:53 | 48.28736 | 17.23494 | 350° | 15km/h | 31959m | 3.7m/s | 0°C | 0% | 0hPa | 0V | 00:00:00 | 00:00:00 | 00:00:00 | |
| OE5MMP-10 | 2026-09-01 13:02:52 | 48.28733 | 17.23496 | 324° | 18km/h | 31955m | 6.4m/s | 0°C | 0% | 0hPa | 0V | 00:00:00 | 00:00:00 | 00:00:00 | |
| ATIDSZ-14 | 2026-09-01 13:02:49 | 48.28717 | 17.23516 | 314° | 31km/h | 31933m | 4.3m/s | 0°C | 0% | 0hPa | 0V | 00:00:00 | 00:00:00 | 00:00:00 | |
| OE3JTB-15 | 2026-09-01 13:02:48 | 48.28713 | 17.23532 | 173° | 18km/h | 31912m | 7.6m/s | 0°C | 0% | 0hPa | 0V | 00:00:00 | 00:00:00 | 00:00:00 | |
| OE5MMP-10 | 2026-09-01 13:02:42 | 48.28705 | 17.23521 | 355° | 16km/h | 31883m | 6.4m/s | 0°C | 0% | 0hPa | 0V | 00:00:00 | 00:00:00 | 00:00:00 | |
| OE3OSB-13 | 2026-09-01 13:02:36 | 48.28692 | 17.23546 | 38° | 7km/h | 31833m | 6.1m/s | -37.0°C | 0.0% | 5.3hPa | 0V | 00:00:00 | 00:00:00 | 00:00:00 | |
| PETON7-10 | 2026-09-01 13:02:34 | 48.28689 | 17.23534 | 74° | 18km/h | 31821m | 7.8m/s | 0°C | 0% | 0hPa | 0V | 00:00:00 | 00:00:00 | 00:00:00 | |
| OE5MMP-10 | 2026-09-01 13:02:33 | 48.28688 | 17.23527 | 98° | 22km/h | 31814m | 5.2m/s | 0°C | 0% | 0hPa | 0V | 00:00:00 | 00:00:00 | 00:00:00 | |
| ATIDSZ-14 | 2026-09-01 13:02:27 | 48.28677 | 17.23540 | 299° | 29km/h | 31784m | 2.9m/s | 0°C | 0% | 0hPa | 0V | 00:00:00 | 00:00:00 | 00:00:00 | |
| OE5MMP-10 | 2026-09-01 13:02:20 | 48.28692 | 17.23534 | 42° | 18km/h | 31736m | 8.5m/s | 0°C | 0% | 0hPa | 0V | 00:00:00 | 00:00:00 | 00:00:00 | |
| OE3JTB-15 | 2026-09-01 13:02:18 | 48.28690 | 17.23543 | 201° | 26km/h | 31702m | 5.2m/s | 0°C | 0% | 0hPa | 0V | 00:00:00 | 00:00:00 | 00:00:00 | |
| OE5MMP-10 | 2026-09-01 13:02:11 | 48.28705 | 17.23522 | 115° | 20km/h | 31667m | 8.4m/s | 0°C | 0% | 0hPa | 0V | 00:00:00 | 00:00:00 | 00:00:00 | |
| OE3OSB-13 | 2026-09-01 13:02:05 | 48.28716 | 17.23500 | 212° | 9km/h | 31628m | 4.7m/s | -36.9°C | 0.0% | 5.6hPa | 0V | 00:00:00 | 00:00:00 | 00:00:00 | |
| OE5MMP-10 | 2026-09-01 13:02:00 | 48.28744 | 17.23493 | 145° | 31km/h | 31600m | 5.3m/s | 0°C | 0% | 0hPa | 0V | 00:00:00 | 00:00:00 | 00:00:00 | |
| PETON7-10 | 2026-09-01 13:01:55 | 48.28754 | 17.23444 | 59° | 27km/h | 31570m | 5.6m/s | 0°C | 0% | 0hPa | 0V | 00:00:00 | 00:00:00 | 00:00:00 | |
| OE5MMP-10 | 2026-09-01 13:01:50 | 48.28788 | 17.23433 | 152° | 26km/h | 31537m | 8.3m/s | 0°C | 0% | 0hPa | 0V | 00:00:00 | 00:00:00 | 00:00:00 | |
| OE3JTB-15 | 2026-09-01 13:01:48 | 48.28803 | 17.23401 | 138° | 35km/h | 31509m | 7.8m/s | 0°C | 0% | 0hPa | 0V | 00:00:00 | 00:00:00 | 00:00:00 | |
| ATIDSZ-14 | 2026-09-01 13:01:44 | 48.28810 | 17.23395 | 160° | 18km/h | 31496m | 5.1m/s | 0°C | 0% | 0hPa | 0V | 00:00:00 | 00:00:00 | 00:00:00 | |
| OE5DXL-15 | 2026-09-01 13:01:41 | 48.28822 | 17.23378 | 126° | 35km/h | 31475m | 6.6m/s | 0°C | 0% | 0hPa | 0V | 00:00:00 | 00:00:00 | 00:00:00 | |
| OE5MMP-10 | 2026-09-01 13:01:40 | 48.28828 | 17.23366 | 131° | 38km/h | 31468m | 7.5m/s | 0°C | 0% | 0hPa | 0V | 00:00:00 | 00:00:00 | 00:00:00 | |
| PETON7-10 | 2026-09-01 13:01:39 | 48.28836 | 17.23352 | 137° | 37km/h | 31460m | 8.8m/s | 0°C | 0% | 0hPa | 0V | 00:00:00 | 00:00:00 | 00:00:00 | |
| OE3OSB-13 | 2026-09-01 13:01:34 | 48.28858 | 17.23290 | 47° | 20km/h | 31420m | 2.9m/s | -37.3°C | 0.0% | 5.9hPa | 0V | 00:00:00 | 00:00:00 | 00:00:00 | |
| ATIDSZ-14 | 2026-09-01 13:01:23 | 48.28898 | 17.23177 | 109° | 15km/h | 31358m | 6.1m/s | 0°C | 0% | 0hPa | 0V | 00:00:00 | 00:00:00 | 00:00:00 | |
| PETON7-10 | 2026-09-01 13:01:21 | 48.28901 | 17.23165 | 105° | 35km/h | 31346m | 9.2m/s | 0°C | 0% | 0hPa | 0V | 00:00:00 | 00:00:00 | 00:00:00 | |
| OE3JTB-15 | 2026-09-01 13:01:20 | 48.28912 | 17.23108 | 121° | 37km/h | 31318m | 8.6m/s | 0°C | 0% | 0hPa | 0V | 00:00:00 | 00:00:00 | 00:00:00 | |
| OE5MMP-10 | 2026-09-01 13:01:09 | 48.28926 | 17.23000 | 103° | 35km/h | 31267m | 6.8m/s | 0°C | 0% | 0hPa | 0V | 00:00:00 | 00:00:00 | 00:00:00 | |
| PETON7-10 | 2026-09-01 13:01:06 | 48.28938 | 17.22957 | 110° | 35km/h | 31249m | 8.7m/s | 0°C | 0% | 0hPa | 0V | 00:00:00 | 00:00:00 | 00:00:00 | |
| OE5DXL-15 | 2026-09-01 13:01:05 | 48.28942 | 17.22939 | 102° | 37km/h | 31241m | 6.8m/s | 0°C | 0% | 0hPa | 0V | 00:00:00 | 00:00:00 | 00:00:00 | |
| OE3OSB-13 | 2026-09-01 13:01:02 | 48.28944 | 17.22897 | 94° | 18km/h | 31218m | 7.8m/s | -38.2°C | 0.0% | 6.2hPa | 0V | 00:00:00 | 00:00:00 | 00:00:00 | |
| ATIDSZ-14 | 2026-09-01 13:01:01 | 48.28945 | 17.22890 | 116° | 22km/h | 31212m | 5.5m/s | 0°C | 0% | 0hPa | 0V | 00:00:00 | 00:00:00 | 00:00:00 | |
| OE5MMP-10 | 2026-09-01 13:00:58 | 48.28952 | 17.22857 | 102° | 38km/h | 31189m | 6.2m/s | 0°C | 0% | 0hPa | 0V | 00:00:00 | 00:00:00 | 00:00:00 | |
| PETON7-10 | 2026-09-01 13:00:50 | 48.28972 | 17.22742 | 69° | 31km/h | 31139m | 5.9m/s | 0°C | 0% | 0hPa | 0V | 00:00:00 | 00:00:00 | 00:00:00 | |
| OK1SLM-15 | 2026-09-01 13:00:49 | 48.28968 | 17.22732 | 52° | 29km/h | 31133m | 5.7m/s | 0°C | 0% | 0hPa | 0V | 00:00:00 | 00:00:00 | 00:00:00 | |
| OE5MMP-10 | 2026-09-01 13:00:48 | 48.28964 | 17.22726 | 30° | 40km/h | 31126m | 8.1m/s | 0°C | 0% | 0hPa | 0V | 00:00:00 | 00:00:00 | 00:00:00 | |
| OK1SLM-15 | 2026-09-01 13:00:43 | 48.28976 | 17.22687 | 105° | 51km/h | 31093m | 8.5m/s | 0°C | 0% | 0hPa | 0V | 00:00:00 | 00:00:00 | 00:00:00 | |
| ATIDSZ-14 | 2026-09-01 13:00:39 | 48.28981 | 17.22624 | 91° | 9km/h | 31064m | 6.6m/s | 0°C | 0% | 0hPa | 0V | 00:00:00 | 00:00:00 | 00:00:00 | |
| OE5DXL-15 | 2026-09-01 13:00:33 | 48.28988 | 17.22573 | 124° | 24km/h | 31023m | 4.9m/s | 0°C | 0% | 0hPa | 0V | 00:00:00 | 00:00:00 | 00:00:00 | |
| OE3OSB-13 | 2026-09-01 13:00:31 | 48.29001 | 17.22545 | 66° | 15km/h | 31005m | 6.4m/s | -37.4°C | 0.0% | 6.5hPa | 0V | 00:00:00 | 00:00:00 | 00:00:00 | |
| OE5MMP-10 | 2026-09-01 13:00:28 | 48.28994 | 17.22530 | 55° | 26km/h | 30988m | 12.3m/s | 0°C | 0% | 0hPa | 0V | 00:00:00 | 00:00:00 | 00:00:00 | |
| ATIDSZ-14 | 2026-09-01 13:00:19 | 48.29010 | 17.22459 | 99° | 27km/h | 30922m | 4.4m/s | 0°C | 0% | 0hPa | 0V | 00:00:00 | 00:00:00 | 00:00:00 | |
| OE5MMP-10 | 2026-09-01 13:00:18 | 48.29010 | 17.22449 | 89° | 15km/h | 30918m | 5.3m/s | 0°C | 0% | 0hPa | 0V | 00:00:00 | 00:00:00 | 00:00:00 | |
| PETON7-10 | 2026-09-01 13:00:15 | 48.29009 | 17.22434 | 106° | 13km/h | 30898m | 6.1m/s | 0°C | 0% | 0hPa | 0V | 00:00:00 | 00:00:00 | 00:00:00 | |
| OE5MMP-10 | 2026-09-01 13:00:06 | 48.29018 | 17.22387 | 92° | 16km/h | 30836m | 8.0m/s | 0°C | 0% | 0hPa | 0V | 00:00:00 | 00:00:00 | 00:00:00 | |
| OE5DXL-15 | 2026-09-01 13:00:03 | 48.29022 | 17.22362 | 106° | 16km/h | 30814m | 6.3m/s | 0°C | 0% | 0hPa | 0V | 00:00:00 | 00:00:00 | 00:00:00 | |
| OE3OSB-13 | 2026-09-01 13:00:00 | 48.29025 | 17.22351 | 161° | 4km/h | 30792m | 4.5m/s | -37.8°C | 0.0% | 6.9hPa | 0V | 00:00:00 | 00:00:00 | 00:00:00 | |
| ATIDSZ-14 | 2026-09-01 12:59:59 | 48.29025 | 17.22349 | 99° | 7km/h | 30787m | 7.8m/s | 0°C | 0% | 0hPa | 0V | 00:00:00 | 00:00:00 | 00:00:00 | |
| PETON7-10 | 2026-09-01 12:59:58 | 48.29025 | 17.22345 | 79° | 20km/h | 30777m | 10.0m/s | 0°C | 0% | 0hPa | 0V | 00:00:00 | 00:00:00 | 00:00:00 | |
| OE5MMP-10 | 2026-09-01 12:59:56 | 48.29023 | 17.22331 | 60° | 16km/h | 30765m | 5.0m/s | 0°C | 0% | 0hPa | 0V | 00:00:00 | 00:00:00 | 00:00:00 | |
| OE3JTB-15 | 2026-09-01 12:59:50 | 48.29036 | 17.22290 | 130° | 26km/h | 30702m | 7.6m/s | 0°C | 0% | 0hPa | 0V | 00:00:00 | 00:00:00 | 00:00:00 | |
| OE5MMP-10 | 2026-09-01 12:59:45 | 48.29033 | 17.22284 | 42° | 22km/h | 30689m | 7.5m/s | 0°C | 0% | 0hPa | 0V | 00:00:00 | 00:00:00 | 00:00:00 | |
| PETON7-10 | 2026-09-01 12:59:41 | 48.29023 | 17.22250 | 87° | 24km/h | 30663m | 7.4m/s | 0°C | 0% | 0hPa | 0V | 00:00:00 | 00:00:00 | 00:00:00 | |
| ATIDSZ-14 | 2026-09-01 12:59:38 | 48.29028 | 17.22237 | 160° | 15km/h | 30642m | 6.3m/s | 0°C | 0% | 0hPa | 0V | 00:00:00 | 00:00:00 | 00:00:00 | |
| OE5MMP-10 | 2026-09-01 12:59:35 | 48.29036 | 17.22215 | 99° | 26km/h | 30620m | 5.8m/s | 0°C | 0% | 0hPa | 0V | 00:00:00 | 00:00:00 | 00:00:00 | |
| OE5DXL-15 | 2026-09-01 12:59:33 | 48.29034 | 17.22197 | 51° | 26km/h | 30607m | 8.0m/s | 0°C | 0% | 0hPa | 0V | 00:00:00 | 00:00:00 | 00:00:00 | |
| OE3OSB-13 | 2026-09-01 12:59:31 | 48.29022 | 17.22175 | 108° | 31km/h | 30574m | 9.4m/s | -40.5°C | 0.0% | 7.3hPa | 0V | 00:00:00 | 00:00:00 | 00:00:00 | |
| OE5MMP-10 | 2026-09-01 12:59:27 | 48.29038 | 17.22140 | 138° | 24km/h | 30553m | 8.0m/s | 0°C | 0% | 0hPa | 0V | 00:00:00 | 00:00:00 | 00:00:00 | |
| OE3JTB-15 | 2026-09-01 12:59:21 | 48.29043 | 17.22080 | 86° | 26km/h | 30510m | 8.5m/s | 0°C | 0% | 0hPa | 0V | 00:00:00 | 00:00:00 | 00:00:00 | |
| ATIDSZ-14 | 2026-09-01 12:59:17 | 48.29043 | 17.22072 | 104° | 20km/h | 30503m | 6.4m/s | 0°C | 0% | 0hPa | 0V | 00:00:00 | 00:00:00 | 00:00:00 | |
| OE5MMP-10 | 2026-09-01 12:59:15 | 48.29047 | 17.22053 | 106° | 27km/h | 30490m | 8.9m/s | 0°C | 0% | 0hPa | 0V | 00:00:00 | 00:00:00 | 00:00:00 | |
| SP9KGR-15 | 2026-09-01 12:59:11 | 48.29059 | 17.22008 | 115° | 20km/h | 30464m | 8.3m/s | 0°C | 0% | 0hPa | 0V | 00:00:00 | 00:00:00 | 00:00:00 | |
| PETON7-10 | 2026-09-01 12:59:10 | 48.29060 | 17.22003 | 91° | 20km/h | 30457m | 6.3m/s | 0°C | 0% | 0hPa | 0V | 00:00:00 | 00:00:00 | 00:00:00 | |
| OE5MMP-10 | 2026-09-01 12:59:05 | 48.29053 | 17.21947 | 96° | 26km/h | 30424m | 2.4m/s | 0°C | 0% | 0hPa | 0V | 00:00:00 | 00:00:00 | 00:00:00 | |
| OE5DXL-15 | 2026-09-01 12:59:03 | 48.29056 | 17.21923 | 109° | 24km/h | 30411m | 8.7m/s | 0°C | 0% | 0hPa | 0V | 00:00:00 | 00:00:00 | 00:00:00 | |
| OE3OSB-13 | 2026-09-01 12:58:58 | 48.29069 | 17.21879 | 89° | 27km/h | 30375m | 4.8m/s | -42.2°C | 0.0% | 7.6hPa | 0V | 00:00:00 | 00:00:00 | 00:00:00 | |
| ATIDSZ-14 | 2026-09-01 12:58:57 | 48.29068 | 17.21869 | 89° | 22km/h | 30368m | 9.9m/s | 0°C | 0% | 0hPa | 0V | 00:00:00 | 00:00:00 | 00:00:00 | |
| OE5MMP-10 | 2026-09-01 12:58:56 | 48.29068 | 17.21863 | 90° | 24km/h | 30360m | 6.7m/s | 0°C | 0% | 0hPa | 0V | 00:00:00 | 00:00:00 | 00:00:00 | |
| OE3JTB-15 | 2026-09-01 12:58:51 | 48.29069 | 17.21816 | 56° | 29km/h | 30316m | 5.9m/s | 0°C | 0% | 0hPa | 0V | 00:00:00 | 00:00:00 | 00:00:00 | |
| PETON7-10 | 2026-09-01 12:58:48 | 48.29069 | 17.21816 | 56° | 27km/h | 30316m | 5.9m/s | 0°C | 0% | 0hPa | 0V | 00:00:00 | 00:00:00 | 00:00:00 | |
| OE5MMP-10 | 2026-09-01 12:58:42 | 48.29068 | 17.21757 | 115° | 31km/h | 30277m | 7.0m/s | 0°C | 0% | 0hPa | 0V | 00:00:00 | 00:00:00 | 00:00:00 | |
| ATIDSZ-14 | 2026-09-01 12:58:34 | 48.29068 | 17.21670 | 70° | 31km/h | 30226m | 8.4m/s | 0°C | 0% | 0hPa | 0V | 00:00:00 | 00:00:00 | 00:00:00 | |
| OE5DXL-15 | 2026-09-01 12:58:33 | 48.29066 | 17.21661 | 70° | 26km/h | 30219m | 6.8m/s | 0°C | 0% | 0hPa | 0V | 00:00:00 | 00:00:00 | 00:00:00 | |
| PETON7-10 | 2026-09-01 12:58:32 | 48.29065 | 17.21653 | 93° | 26km/h | 30212m | 7.6m/s | 0°C | 0% | 0hPa | 0V | 00:00:00 | 00:00:00 | 00:00:00 | |
| OE5MMP-10 | 2026-09-01 12:58:31 | 48.29066 | 17.21642 | 104° | 37km/h | 30205m | 7.2m/s | 0°C | 0% | 0hPa | 0V | 00:00:00 | 00:00:00 | 00:00:00 | |
| OE3OSB-13 | 2026-09-01 12:58:27 | 48.29072 | 17.21585 | 67° | 29km/h | 30175m | 5.7m/s | -43.0°C | 0.0% | 8.0hPa | 0V | 00:00:00 | 00:00:00 | 00:00:00 | |
| OE5MMP-10 | 2026-09-01 12:58:21 | 48.29065 | 17.21508 | 101° | 22km/h | 30146m | 4.3m/s | 0°C | 0% | 0hPa | 0V | 00:00:00 | 00:00:00 | 00:00:00 | |
| OE3JTB-15 | 2026-09-01 12:58:20 | 48.29071 | 17.21491 | 136° | 18km/h | 30117m | 5.7m/s | 0°C | 0% | 0hPa | 0V | 00:00:00 | 00:00:00 | 00:00:00 | |
| PETON7-10 | 2026-09-01 12:58:15 | 48.29075 | 17.21477 | 100° | 22km/h | 30104m | 7.4m/s | 0°C | 0% | 0hPa | 0V | 00:00:00 | 00:00:00 | 00:00:00 | |
| ATIDSZ-14 | 2026-09-01 12:58:12 | 48.29071 | 17.21434 | 74° | 33km/h | 30085m | 6.3m/s | 0°C | 0% | 0hPa | 0V | 00:00:00 | 00:00:00 | 00:00:00 | |
| OE5MMP-10 | 2026-09-01 12:58:11 | 48.29068 | 17.21424 | 64° | 22km/h | 30079m | 6.4m/s | 0°C | 0% | 0hPa | 0V | 00:00:00 | 00:00:00 | 00:00:00 | |
| SP9KGR-15 | 2026-09-01 12:58:05 | 48.29077 | 17.21383 | 90° | 18km/h | 30045m | 8.2m/s | 0°C | 0% | 0hPa | 0V | 00:00:00 | 00:00:00 | 00:00:00 | |
| OE5DXL-15 | 2026-09-01 12:58:03 | 48.29073 | 17.21372 | 38° | 20km/h | 30030m | 5.7m/s | 0°C | 0% | 0hPa | 0V | 00:00:00 | 00:00:00 | 00:00:00 | |
| OE5MMP-10 | 2026-09-01 12:58:01 | 48.29068 | 17.21362 | 76° | 16km/h | 30019m | 8.0m/s | 0°C | 0% | 0hPa | 0V | 00:00:00 | 00:00:00 | 00:00:00 | |
| OE3OSB-13 | 2026-09-01 12:57:56 | 48.29068 | 17.21328 | 7° | 7km/h | 29979m | 3.8m/s | -43.4°C | 0.0% | 8.3hPa | 0V | 00:00:00 | 00:00:00 | 00:00:00 | |
| OE5MMP-10 | 2026-09-01 12:57:52 | 48.29072 | 17.21310 | 109° | 22km/h | 29953m | 5.7m/s | 0°C | 0% | 0hPa | 0V | 00:00:00 | 00:00:00 | 00:00:00 | |
| OE3JTB-15 | 2026-09-01 12:57:51 | 48.29069 | 17.21286 | 60° | 20km/h | 29933m | 5.2m/s | 0°C | 0% | 0hPa | 0V | 00:00:00 | 00:00:00 | 00:00:00 | |
| SP9KGR-15 | 2026-09-01 12:57:45 | 48.29063 | 17.21256 | 90° | 29km/h | 29915m | 5.6m/s | 0°C | 0% | 0hPa | 0V | 00:00:00 | 00:00:00 | 00:00:00 | |
| OE5MMP-10 | 2026-09-01 12:57:41 | 48.29059 | 17.21233 | 39° | 20km/h | 29891m | 4.4m/s | 0°C | 0% | 0hPa | 0V | 00:00:00 | 00:00:00 | 00:00:00 | |
| PETON7-10 | 2026-09-01 12:57:40 | 48.29057 | 17.21228 | 67° | 22km/h | 29886m | 4.4m/s | 0°C | 0% | 0hPa | 0V | 00:00:00 | 00:00:00 | 00:00:00 | |
| OE5DXL-15 | 2026-09-01 12:57:33 | 48.29043 | 17.21167 | 5° | 20km/h | 29838m | 4.8m/s | 0°C | 0% | 0hPa | 0V | 00:00:00 | 00:00:00 | 00:00:00 | |
| ATIDSZ-14 | 2026-09-01 12:57:31 | 48.29042 | 17.21164 | 126° | 11km/h | 29825m | 8.0m/s | 0°C | 0% | 0hPa | 0V | 00:00:00 | 00:00:00 | 00:00:00 | |
| OE5MMP-10 | 2026-09-01 12:57:30 | 48.29044 | 17.21160 | 132° | 24km/h | 29819m | 3.1m/s | 0°C | 0% | 0hPa | 0V | 00:00:00 | 00:00:00 | 00:00:00 | |
| OE3OSB-13 | 2026-09-01 12:57:25 | 48.29032 | 17.21123 | 65° | 35km/h | 29780m | 9.2m/s | -44.2°C | 0.0% | 8.8hPa | 0V | 00:00:00 | 00:00:00 | 00:00:00 | |
| PETON7-10 | 2026-09-01 12:57:24 | 48.29032 | 17.21123 | 66° | 26km/h | 29781m | 9.1m/s | 0°C | 0% | 0hPa | 0V | 00:00:00 | 00:00:00 | 00:00:00 | |
| OE5MMP-10 | 2026-09-01 12:57:20 | 48.29016 | 17.21081 | 32° | 20km/h | 29755m | 7.2m/s | 0°C | 0% | 0hPa | 0V | 00:00:00 | 00:00:00 | 00:00:00 | |
| OE3JTB-15 | 2026-09-01 12:57:19 | 48.29013 | 17.21068 | 122° | 24km/h | 29729m | 5.0m/s | 0°C | 0% | 0hPa | 0V | 00:00:00 | 00:00:00 | 00:00:00 | |
| OE5MMP-10 | 2026-09-01 12:57:10 | 48.28996 | 17.21023 | 65° | 24km/h | 29691m | 7.3m/s | 0°C | 0% | 0hPa | 0V | 00:00:00 | 00:00:00 | 00:00:00 | |
| PETON7-10 | 2026-09-01 12:57:08 | 48.28995 | 17.21010 | 118° | 22km/h | 29678m | 5.7m/s | 0°C | 0% | 0hPa | 0V | 00:00:00 | 00:00:00 | 00:00:00 | |
| OE5DXL-15 | 2026-09-01 12:57:04 | 48.29004 | 17.21006 | 126° | 26km/h | 29645m | 8.8m/s | 0°C | 0% | 0hPa | 0V | 00:00:00 | 00:00:00 | 00:00:00 | |
| OE5MMP-10 | 2026-09-01 12:57:00 | 48.29003 | 17.20965 | 65° | 27km/h | 29625m | 7.8m/s | 0°C | 0% | 0hPa | 0V | 00:00:00 | 00:00:00 | 00:00:00 | |
| OE3OSB-13 | 2026-09-01 12:56:54 | 48.28998 | 17.20922 | 104° | 27km/h | 29579m | 5.4m/s | -44.7°C | 0.0% | 9.2hPa | 0V | 00:00:00 | 00:00:00 | 00:00:00 | |
| PETON7-10 | 2026-09-01 12:56:53 | 48.28997 | 17.20922 | 105° | 29km/h | 29579m | 5.3m/s | 0°C | 0% | 0hPa | 0V | 00:00:00 | 00:00:00 | 00:00:00 | |
| OE5MMP-10 | 2026-09-01 12:56:50 | 48.28992 | 17.20894 | 48° | 24km/h | 29555m | 5.8m/s | 0°C | 0% | 0hPa | 0V | 00:00:00 | 00:00:00 | 00:00:00 | |
| ATIDSZ-14 | 2026-09-01 12:56:47 | 48.28986 | 17.20871 | 88° | 18km/h | 29535m | 4.8m/s | 0°C | 0% | 0hPa | 0V | 00:00:00 | 00:00:00 | 00:00:00 | |
| OE5MMP-10 | 2026-09-01 12:56:40 | 48.28992 | 17.20807 | 94° | 31km/h | 29490m | 1.4m/s | 0°C | 0% | 0hPa | 0V | 00:00:00 | 00:00:00 | 00:00:00 | |
| PETON7-10 | 2026-09-01 12:56:34 | 48.28964 | 17.20762 | 87° | 26km/h | 29449m | 5.6m/s | 0°C | 0% | 0hPa | 0V | 00:00:00 | 00:00:00 | 00:00:00 | |
| OE5DXL-15 | 2026-09-01 12:56:33 | 48.28966 | 17.20758 | 118° | 29km/h | 29443m | 5.9m/s | 0°C | 0% | 0hPa | 0V | 00:00:00 | 00:00:00 | 00:00:00 | |
| OE5MMP-10 | 2026-09-01 12:56:30 | 48.28969 | 17.20723 | 77° | 27km/h | 29422m | 6.3m/s | 0°C | 0% | 0hPa | 0V | 00:00:00 | 00:00:00 | 00:00:00 | |
| ATIDSZ-14 | 2026-09-01 12:56:26 | 48.28960 | 17.20679 | 50° | 16km/h | 29393m | 7.1m/s | 0°C | 0% | 0hPa | 0V | 00:00:00 | 00:00:00 | 00:00:00 | |
| OE3OSB-13 | 2026-09-01 12:56:23 | 48.28944 | 17.20660 | 56° | 24km/h | 29364m | 5.2m/s | -44.2°C | 0.0% | 9.6hPa | 0V | 00:00:00 | 00:00:00 | 00:00:00 | |
| OE5MMP-10 | 2026-09-01 12:56:20 | 48.28942 | 17.20643 | 101° | 31km/h | 29350m | 6.5m/s | 0°C | 0% | 0hPa | 0V | 00:00:00 | 00:00:00 | 00:00:00 | |
| PETON7-10 | 2026-09-01 12:56:19 | 48.28943 | 17.20632 | 100° | 31km/h | 29344m | 4.4m/s | 0°C | 0% | 0hPa | 0V | 00:00:00 | 00:00:00 | 00:00:00 | |
| OE5MMP-10 | 2026-09-01 12:56:10 | 48.28902 | 17.20557 | 68° | 35km/h | 29285m | 8.6m/s | 0°C | 0% | 0hPa | 0V | 00:00:00 | 00:00:00 | 00:00:00 | |
| ATIDSZ-14 | 2026-09-01 12:56:05 | 48.28891 | 17.20497 | 45° | 15km/h | 29251m | 5.3m/s | 0°C | 0% | 0hPa | 0V | 00:00:00 | 00:00:00 | 00:00:00 | |
| PETON7-10 | 2026-09-01 12:56:04 | 48.28886 | 17.20495 | 11° | 31km/h | 29245m | 7.7m/s | 0°C | 0% | 0hPa | 0V | 00:00:00 | 00:00:00 | 00:00:00 | |
| OE5DXL-15 | 2026-09-01 12:56:02 | 48.28869 | 17.20488 | 20° | 26km/h | 29229m | 3.3m/s | 0°C | 0% | 0hPa | 0V | 00:00:00 | 00:00:00 | 00:00:00 | |
| OE5MMP-10 | 2026-09-01 12:56:00 | 48.28852 | 17.20469 | 53° | 29km/h | 29221m | 8.0m/s | 0°C | 0% | 0hPa | 0V | 00:00:00 | 00:00:00 | 00:00:00 | |
| OE3OSB-13 | 2026-09-01 12:55:52 | 48.28833 | 17.20409 | 1° | 26km/h | 29155m | 4.7m/s | -44.6°C | 0.0% | 10.0hPa | 0V | 00:00:00 | 00:00:00 | 00:00:00 | |
| OE5MMP-10 | 2026-09-01 12:55:48 | 48.28813 | 17.20396 | 47° | 20km/h | 29137m | 5.1m/s | 0°C | 0% | 0hPa | 0V | 00:00:00 | 00:00:00 | 00:00:00 | |
| PETON7-10 | 2026-09-01 12:55:47 | 48.28809 | 17.20388 | 60° | 20km/h | 29132m | 4.8m/s | 0°C | 0% | 0hPa | 0V | 00:00:00 | 00:00:00 | 00:00:00 | |
| ATIDSZ-14 | 2026-09-01 12:55:44 | 48.28807 | 17.20372 | 159° | 9km/h | 29110m | 4.4m/s | 0°C | 0% | 0hPa | 0V | 00:00:00 | 00:00:00 | 00:00:00 | |
| OE5MMP-10 | 2026-09-01 12:55:38 | 48.28788 | 17.20346 | 25° | 20km/h | 29067m | 5.1m/s | 0°C | 0% | 0hPa | 0V | 00:00:00 | 00:00:00 | 00:00:00 | |
| OE5DXL-15 | 2026-09-01 12:55:32 | 48.28766 | 17.20308 | 7° | 20km/h | 29030m | 10.7m/s | 0°C | 0% | 0hPa | 0V | 00:00:00 | 00:00:00 | 00:00:00 | |
| PETON7-10 | 2026-09-01 12:55:30 | 48.28759 | 17.20312 | 331° | 24km/h | 29015m | 5.1m/s | 0°C | 0% | 0hPa | 0V | 00:00:00 | 00:00:00 | 00:00:00 | |
| OE5MMP-10 | 2026-09-01 12:55:28 | 48.28752 | 17.20309 | 51° | 22km/h | 29001m | 9.4m/s | 0°C | 0% | 0hPa | 0V | 00:00:00 | 00:00:00 | 00:00:00 | |
| ATIDSZ-14 | 2026-09-01 12:55:23 | 48.28739 | 17.20266 | 25° | 16km/h | 28967m | 6.2m/s | 0°C | 0% | 0hPa | 0V | 00:00:00 | 00:00:00 | 00:00:00 | |
| OE3OSB-13 | 2026-09-01 12:55:21 | 48.28724 | 17.20256 | 26° | 24km/h | 28946m | 5.9m/s | -44.3°C | 0.0% | 10.5hPa | 0V | 00:00:00 | 00:00:00 | 00:00:00 | |
| OE5MMP-10 | 2026-09-01 12:55:19 | 48.28715 | 17.20248 | 20° | 22km/h | 28932m | 9.8m/s | 0°C | 0% | 0hPa | 0V | 00:00:00 | 00:00:00 | 00:00:00 | |
| PETON7-10 | 2026-09-01 12:55:13 | 48.28698 | 17.20221 | 48° | 15km/h | 28896m | 3.6m/s | 0°C | 0% | 0hPa | 0V | 00:00:00 | 00:00:00 | 00:00:00 | |
| OE5MMP-10 | 2026-09-01 12:55:08 | 48.28671 | 17.20211 | 7° | 18km/h | 28862m | 6.5m/s | 0°C | 0% | 0hPa | 0V | 00:00:00 | 00:00:00 | 00:00:00 | |
| OE5DXL-15 | 2026-09-01 12:55:02 | 48.28650 | 17.20190 | 16° | 15km/h | 28822m | 4.9m/s | 0°C | 0% | 0hPa | 0V | 00:00:00 | 00:00:00 | 00:00:00 | |
| OE3OSB-13 | 2026-09-01 12:54:50 | 48.28625 | 17.20146 | 347° | 7km/h | 28732m | 4.8m/s | -44.3°C | 0.0% | 11.0hPa | 0V | 00:00:00 | 00:00:00 | 00:00:00 | |
| OE5MMP-10 | 2026-09-01 12:54:45 | 48.28611 | 17.20130 | 63° | 15km/h | 28707m | 5.6m/s | 0°C | 0% | 0hPa | 0V | 00:00:00 | 00:00:00 | 00:00:00 | |
| ATIDSZ-14 | 2026-09-01 12:54:41 | 48.28607 | 17.20118 | 254° | 5km/h | 28680m | 4.5m/s | 0°C | 0% | 0hPa | 0V | 00:00:00 | 00:00:00 | 00:00:00 | |
| PETON7-10 | 2026-09-01 12:54:38 | 48.28600 | 17.20114 | 36° | 24km/h | 28660m | 6.6m/s | 0°C | 0% | 0hPa | 0V | 00:00:00 | 00:00:00 | 00:00:00 | |
| OE5MMP-10 | 2026-09-01 12:54:35 | 48.28580 | 17.20101 | 1° | 20km/h | 28640m | 8.0m/s | 0°C | 0% | 0hPa | 0V | 00:00:00 | 00:00:00 | 00:00:00 | |
| OE5DXL-15 | 2026-09-01 12:54:32 | 48.28571 | 17.20099 | 68° | 16km/h | 28619m | 9.0m/s | 0°C | 0% | 0hPa | 0V | 00:00:00 | 00:00:00 | 00:00:00 | |
| OE5MMP-10 | 2026-09-01 12:54:25 | 48.28538 | 17.20094 | 8° | 18km/h | 28578m | 7.5m/s | 0°C | 0% | 0hPa | 0V | 00:00:00 | 00:00:00 | 00:00:00 | |
| PETON7-10 | 2026-09-01 12:54:23 | 48.28525 | 17.20084 | 59° | 18km/h | 28565m | 6.8m/s | 0°C | 0% | 0hPa | 0V | 00:00:00 | 00:00:00 | 00:00:00 | |
| ATIDSZ-14 | 2026-09-01 12:54:20 | 48.28524 | 17.20072 | 236° | 7km/h | 28544m | 7.3m/s | 0°C | 0% | 0hPa | 0V | 00:00:00 | 00:00:00 | 00:00:00 | |
| OE3OSB-13 | 2026-09-01 12:54:19 | 48.28521 | 17.20077 | 336° | 13km/h | 28531m | 9.2m/s | -44.5°C | 0.0% | 11.5hPa | 0V | 00:00:00 | 00:00:00 | 00:00:00 | |
| OE5MMP-10 | 2026-09-01 12:54:15 | 48.28506 | 17.20072 | 15° | 16km/h | 28511m | 4.4m/s | 0°C | 0% | 0hPa | 0V | 00:00:00 | 00:00:00 | 00:00:00 | |
| PETON7-10 | 2026-09-01 12:54:08 | 48.28478 | 17.20064 | 37° | 15km/h | 28466m | 4.4m/s | 0°C | 0% | 0hPa | 0V | 00:00:00 | 00:00:00 | 00:00:00 | |
| OE5MMP-10 | 2026-09-01 12:54:05 | 48.28472 | 17.20062 | 283° | 13km/h | 28446m | 4.8m/s | 0°C | 0% | 0hPa | 0V | 00:00:00 | 00:00:00 | 00:00:00 | |
| OE5DXL-15 | 2026-09-01 12:54:02 | 48.28467 | 17.20053 | 53° | 18km/h | 28427m | 5.2m/s | 0°C | 0% | 0hPa | 0V | 00:00:00 | 00:00:00 | 00:00:00 | |
| OE3OSB-13 | 2026-09-01 12:53:48 | 48.28421 | 17.20024 | 19° | 18km/h | 28334m | 6.5m/s | -44.6°C | 0.0% | 11.9hPa | 0V | 00:00:00 | 00:00:00 | 00:00:00 | |
| OE5MMP-10 | 2026-09-01 12:53:45 | 48.28406 | 17.20029 | 337° | 18km/h | 28313m | 4.5m/s | 0°C | 0% | 0hPa | 0V | 00:00:00 | 00:00:00 | 00:00:00 | |
| ATIDSZ-14 | 2026-09-01 12:53:38 | 48.28389 | 17.20007 | 211° | 2km/h | 28279m | 5.9m/s | 0°C | 0% | 0hPa | 0V | 00:00:00 | 00:00:00 | 00:00:00 | |
| PETON7-10 | 2026-09-01 12:53:36 | 48.28386 | 17.20009 | 351° | 18km/h | 28269m | 5.5m/s | 0°C | 0% | 0hPa | 0V | 00:00:00 | 00:00:00 | 00:00:00 | |
| OE5MMP-10 | 2026-09-01 12:53:34 | 48.28376 | 17.20007 | 17° | 18km/h | 28256m | 6.9m/s | 0°C | 0% | 0hPa | 0V | 00:00:00 | 00:00:00 | 00:00:00 | |
| OE5DXL-15 | 2026-09-01 12:53:31 | 48.28361 | 17.19992 | 46° | 15km/h | 28239m | 8.1m/s | 0°C | 0% | 0hPa | 0V | 00:00:00 | 00:00:00 | 00:00:00 | |
| OE5MMP-10 | 2026-09-01 12:53:25 | 48.28342 | 17.19990 | 45° | 13km/h | 28191m | 6.7m/s | 0°C | 0% | 0hPa | 0V | 00:00:00 | 00:00:00 | 00:00:00 | |
| PETON7-10 | 2026-09-01 12:53:21 | 48.28334 | 17.19992 | 348° | 13km/h | 28170m | 7.9m/s | 0°C | 0% | 0hPa | 0V | 00:00:00 | 00:00:00 | 00:00:00 | |
| ATIDSZ-14 | 2026-09-01 12:53:18 | 48.28323 | 17.19992 | 322° | 5km/h | 28151m | 4.3m/s | 0°C | 0% | 0hPa | 0V | 00:00:00 | 00:00:00 | 00:00:00 | |
| OE3OSB-13 | 2026-09-01 12:53:17 | 48.28320 | 17.19998 | 300° | 16km/h | 28141m | 4.1m/s | -44.8°C | 0.0% | 12.4hPa | 0V | 00:00:00 | 00:00:00 | 00:00:00 | |
| OE5MMP-10 | 2026-09-01 12:53:15 | 48.28312 | 17.20005 | 347° | 11km/h | 28127m | 4.6m/s | 0°C | 0% | 0hPa | 0V | 00:00:00 | 00:00:00 | 00:00:00 | |
| OE5MMP-10 | 2026-09-01 12:53:03 | 48.28291 | 17.20027 | 302° | 11km/h | 28060m | 5.8m/s | 0°C | 0% | 0hPa | 0V | 00:00:00 | 00:00:00 | 00:00:00 | |
| OE5DXL-15 | 2026-09-01 12:53:01 | 48.28286 | 17.20031 | 360° | 11km/h | 28045m | 6.4m/s | 0°C | 0% | 0hPa | 0V | 00:00:00 | 00:00:00 | 00:00:00 | |
| OE3OSB-13 | 2026-09-01 12:52:45 | 48.28256 | 17.20033 | 90° | 0km/h | 27941m | 3.5m/s | -45.6°C | 0.0% | 13.0hPa | 0V | 00:00:00 | 00:00:00 | 00:00:00 | |
| OE5MMP-10 | 2026-09-01 12:52:43 | 48.28258 | 17.20031 | 120° | 13km/h | 27932m | 4.5m/s | 0°C | 0% | 0hPa | 0V | 00:00:00 | 00:00:00 | 00:00:00 | |
| ATIDSZ-14 | 2026-09-01 12:52:37 | 48.28242 | 17.20018 | 316° | 13km/h | 27891m | 6.5m/s | 0°C | 0% | 0hPa | 0V | 00:00:00 | 00:00:00 | 00:00:00 | |
| PETON7-10 | 2026-09-01 12:52:33 | 48.28236 | 17.20014 | 91° | 13km/h | 27868m | 3.5m/s | 0°C | 0% | 0hPa | 0V | 00:00:00 | 00:00:00 | 00:00:00 | |
| OE5DXL-15 | 2026-09-01 12:52:29 | 48.28232 | 17.20010 | 14° | 16km/h | 27843m | 7.6m/s | 0°C | 0% | 0hPa | 0V | 00:00:00 | 00:00:00 | 00:00:00 | |
| OE5MMP-10 | 2026-09-01 12:52:22 | 48.28214 | 17.20018 | 292° | 15km/h | 27797m | 7.4m/s | 0°C | 0% | 0hPa | 0V | 00:00:00 | 00:00:00 | 00:00:00 | |
| PETON7-10 | 2026-09-01 12:52:19 | 48.28201 | 17.20015 | 357° | 16km/h | 27771m | 7.1m/s | 0°C | 0% | 0hPa | 0V | 00:00:00 | 00:00:00 | 00:00:00 | |
| ATIDSZ-14 | 2026-09-01 12:52:16 | 48.28189 | 17.20019 | 340° | 24km/h | 27760m | 5.6m/s | 0°C | 0% | 0hPa | 0V | 00:00:00 | 00:00:00 | 00:00:00 | |
| OE3OSB-13 | 2026-09-01 12:52:15 | 48.28182 | 17.20024 | 313° | 9km/h | 27746m | 5.1m/s | -45.7°C | 0.0% | 13.4hPa | 0V | 00:00:00 | 00:00:00 | 00:00:00 | |
| OE5MMP-10 | 2026-09-01 12:52:12 | 48.28180 | 17.20032 | 279° | 24km/h | 27736m | 6.5m/s | 0°C | 0% | 0hPa | 0V | 00:00:00 | 00:00:00 | 00:00:00 | |
| PETON7-10 | 2026-09-01 12:52:04 | 48.28138 | 17.20066 | 282° | 20km/h | 27685m | 6.8m/s | 0°C | 0% | 0hPa | 0V | 00:00:00 | 00:00:00 | 00:00:00 | |
| OE5MMP-10 | 2026-09-01 12:52:02 | 48.28136 | 17.20078 | 275° | 20km/h | 27679m | 4.1m/s | 0°C | 0% | 0hPa | 0V | 00:00:00 | 00:00:00 | 00:00:00 | |
| OE3OSB-13 | 2026-09-01 12:51:43 | 48.28082 | 17.20156 | 301° | 18km/h | 27559m | 4.8m/s | -45.8°C | 0.0% | 14.0hPa | 0V | 00:00:00 | 00:00:00 | 00:00:00 | |
| OE5MMP-10 | 2026-09-01 12:51:41 | 48.28079 | 17.20164 | 284° | 16km/h | 27547m | 8.2m/s | 0°C | 0% | 0hPa | 0V | 00:00:00 | 00:00:00 | 00:00:00 | |
| ATIDSZ-14 | 2026-09-01 12:51:35 | 48.28081 | 17.20201 | 308° | 24km/h | 27512m | 6.8m/s | 0°C | 0% | 0hPa | 0V | 00:00:00 | 00:00:00 | 00:00:00 | |
| PETON7-10 | 2026-09-01 12:51:32 | 48.28065 | 17.20203 | 351° | 15km/h | 27489m | 6.0m/s | 0°C | 0% | 0hPa | 0V | 00:00:00 | 00:00:00 | 00:00:00 | |
| OK1SLM-15 | 2026-09-01 12:51:29 | 48.28067 | 17.20213 | 242° | 29km/h | 27474m | 7.9m/s | 0°C | 0% | 0hPa | 0V | 00:00:00 | 00:00:00 | 00:00:00 | |
| OE3JTB-15 | 2026-09-01 12:51:24 | 48.28073 | 17.20257 | 155° | 16km/h | 27426m | 4.4m/s | 0°C | 0% | 0hPa | 0V | 00:00:00 | 00:00:00 | 00:00:00 | |
| OE5MMP-10 | 2026-09-01 12:51:21 | 48.28073 | 17.20257 | 155° | 16km/h | 27426m | 4.4m/s | 0°C | 0% | 0hPa | 0V | 00:00:00 | 00:00:00 | 00:00:00 | |
| OK1SLM-15 | 2026-09-01 12:51:18 | 48.28073 | 17.20257 | 259° | 9km/h | 27409m | 2.9m/s | 0°C | 0% | 0hPa | 0V | 00:00:00 | 00:00:00 | 00:00:00 | |
| PETON7-10 | 2026-09-01 12:51:16 | 48.28078 | 17.20267 | 220° | 18km/h | 27395m | 9.4m/s | 0°C | 0% | 0hPa | 0V | 00:00:00 | 00:00:00 | 00:00:00 | |
| ATIDSZ-14 | 2026-09-01 12:51:14 | 48.28090 | 17.20277 | 202° | 22km/h | 27384m | 4.1m/s | 0°C | 0% | 0hPa | 0V | 00:00:00 | 00:00:00 | 00:00:00 | |
| OE3OSB-13 | 2026-09-01 12:51:13 | 48.28094 | 17.20276 | 50° | 15km/h | 27363m | 7.8m/s | -46.4°C | 0.0% | 14.5hPa | 0V | 00:00:00 | 00:00:00 | 00:00:00 | |
| OE5MMP-10 | 2026-09-01 12:51:11 | 48.28094 | 17.20275 | 51° | 18km/h | 27363m | 7.7m/s | 0°C | 0% | 0hPa | 0V | 00:00:00 | 00:00:00 | 00:00:00 | |
| OK1SLM-15 | 2026-09-01 12:51:10 | 48.28091 | 17.20271 | 64° | 16km/h | 27356m | 6.5m/s | 0°C | 0% | 0hPa | 0V | 00:00:00 | 00:00:00 | 00:00:00 | |
| PG1ADW-2 | 2026-09-01 12:51:05 | 48.28100 | 17.20266 | 239° | 18km/h | 27326m | 6.2m/s | 0°C | 0% | 0hPa | 0V | 00:00:00 | 00:00:00 | 00:00:00 | |
| OE5MMP-10 | 2026-09-01 12:51:00 | 48.28120 | 17.20286 | 120° | 22km/h | 27299m | 5.0m/s | 0°C | 0% | 0hPa | 0V | 00:00:00 | 00:00:00 | 00:00:00 | |
| PETON7-10 | 2026-09-01 12:50:57 | 48.28113 | 17.20269 | 46° | 16km/h | 27277m | 3.1m/s | 0°C | 0% | 0hPa | 0V | 00:00:00 | 00:00:00 | 00:00:00 | |
| OE3JTB-15 | 2026-09-01 12:50:54 | 48.28128 | 17.20265 | 230° | 15km/h | 27242m | 6.8m/s | 0°C | 0% | 0hPa | 0V | 00:00:00 | 00:00:00 | 00:00:00 | |
| OE5MMP-10 | 2026-09-01 12:50:49 | 48.28131 | 17.20267 | 112° | 16km/h | 27230m | 7.7m/s | 0°C | 0% | 0hPa | 0V | 00:00:00 | 00:00:00 | 00:00:00 | |
| OE3OSB-13 | 2026-09-01 12:50:42 | 48.28148 | 17.20237 | 151° | 20km/h | 27179m | 5.1m/s | -46.5°C | 0.0% | 15.1hPa | 0V | 00:00:00 | 00:00:00 | 00:00:00 | |
| OE5MMP-10 | 2026-09-01 12:50:39 | 48.28154 | 17.20228 | 108° | 15km/h | 27170m | 7.1m/s | 0°C | 0% | 0hPa | 0V | 00:00:00 | 00:00:00 | 00:00:00 | |
| ATIDSZ-14 | 2026-09-01 12:50:33 | 48.28152 | 17.20201 | 151° | 22km/h | 27132m | 5.8m/s | 0°C | 0% | 0hPa | 0V | 00:00:00 | 00:00:00 | 00:00:00 | |
| OE5MMP-10 | 2026-09-01 12:50:29 | 48.28155 | 17.20195 | 37° | 13km/h | 27105m | 6.3m/s | 0°C | 0% | 0hPa | 0V | 00:00:00 | 00:00:00 | 00:00:00 | |
| PETON7-10 | 2026-09-01 12:50:27 | 48.28150 | 17.20183 | 61° | 15km/h | 27092m | 3.6m/s | 0°C | 0% | 0hPa | 0V | 00:00:00 | 00:00:00 | 00:00:00 | |
| OE3JTB-15 | 2026-09-01 12:50:24 | 48.28148 | 17.20167 | 122° | 13km/h | 27052m | 6.7m/s | 0°C | 0% | 0hPa | 0V | 00:00:00 | 00:00:00 | 00:00:00 | |
| OE5MMP-10 | 2026-09-01 12:50:19 | 48.28149 | 17.20158 | 65° | 13km/h | 27041m | 7.4m/s | 0°C | 0% | 0hPa | 0V | 00:00:00 | 00:00:00 | 00:00:00 | |
| PETON7-10 | 2026-09-01 12:50:12 | 48.28142 | 17.20133 | 225° | 9km/h | 26999m | 8.9m/s | 0°C | 0% | 0hPa | 0V | 00:00:00 | 00:00:00 | 00:00:00 | |
| OE3OSB-13 | 2026-09-01 12:50:10 | 48.28139 | 17.20142 | 342° | 4km/h | 26978m | 6.6m/s | -47.9°C | 0.0% | 15.7hPa | 0V | 00:00:00 | 00:00:00 | 00:00:00 | |
| OE5MMP-10 | 2026-09-01 12:50:09 | 48.28139 | 17.20142 | 343° | 7km/h | 26979m | 6.5m/s | 0°C | 0% | 0hPa | 0V | 00:00:00 | 00:00:00 | 00:00:00 | |
| OE5MMP-10 | 2026-09-01 12:49:59 | 48.28154 | 17.20122 | 88° | 16km/h | 26917m | 8.2m/s | 0°C | 0% | 0hPa | 0V | 00:00:00 | 00:00:00 | 00:00:00 | |
| PETON7-10 | 2026-09-01 12:49:57 | 48.28150 | 17.20113 | 64° | 13km/h | 26904m | 3.0m/s | 0°C | 0% | 0hPa | 0V | 00:00:00 | 00:00:00 | 00:00:00 | |
| OE3JTB-15 | 2026-09-01 12:49:55 | 48.28152 | 17.20080 | 103° | 13km/h | 26882m | 3.9m/s | 0°C | 0% | 0hPa | 0V | 00:00:00 | 00:00:00 | 00:00:00 | |
| ATIDSZ-14 | 2026-09-01 12:49:51 | 48.28152 | 17.20068 | 63° | 9km/h | 26865m | 8.8m/s | 0°C | 0% | 0hPa | 0V | 00:00:00 | 00:00:00 | 00:00:00 | |
| OE5MMP-10 | 2026-09-01 12:49:49 | 48.28149 | 17.20063 | 51° | 9km/h | 26854m | 6.9m/s | 0°C | 0% | 0hPa | 0V | 00:00:00 | 00:00:00 | 00:00:00 | |
| PETON7-10 | 2026-09-01 12:49:40 | 48.28152 | 17.20046 | 115° | 13km/h | 26801m | 4.8m/s | 0°C | 0% | 0hPa | 0V | 00:00:00 | 00:00:00 | 00:00:00 | |
| OE5MMP-10 | 2026-09-01 12:49:39 | 48.28153 | 17.20039 | 92° | 11km/h | 26795m | 8.0m/s | 0°C | 0% | 0hPa | 0V | 00:00:00 | 00:00:00 | 00:00:00 | |
| ATIDSZ-14 | 2026-09-01 12:49:31 | 48.28152 | 17.20029 | 151° | 4km/h | 26741m | 6.9m/s | 0°C | 0% | 0hPa | 0V | 00:00:00 | 00:00:00 | 00:00:00 | |
| OE5MMP-10 | 2026-09-01 12:49:29 | 48.28153 | 17.20022 | 102° | 15km/h | 26729m | 7.1m/s | 0°C | 0% | 0hPa | 0V | 00:00:00 | 00:00:00 | 00:00:00 | |
| PETON7-10 | 2026-09-01 12:49:25 | 48.28156 | 17.19993 | 57° | 13km/h | 26704m | 8.2m/s | 0°C | 0% | 0hPa | 0V | 00:00:00 | 00:00:00 | 00:00:00 | |
| OE5MMP-10 | 2026-09-01 12:49:19 | 48.28164 | 17.19980 | 150° | 15km/h | 26667m | 7.5m/s | 0°C | 0% | 0hPa | 0V | 00:00:00 | 00:00:00 | 00:00:00 | |
| ATIDSZ-14 | 2026-09-01 12:49:10 | 48.28171 | 17.19936 | 127° | 4km/h | 26611m | 3.6m/s | 0°C | 0% | 0hPa | 0V | 00:00:00 | 00:00:00 | 00:00:00 | |
| OE5MMP-10 | 2026-09-01 12:49:09 | 48.28172 | 17.19934 | 130° | 18km/h | 26605m | 10.0m/s | 0°C | 0% | 0hPa | 0V | 00:00:00 | 00:00:00 | 00:00:00 | |
| OE3OSB-13 | 2026-09-01 12:49:08 | 48.28179 | 17.19921 | 125° | 27km/h | 26590m | 3.1m/s | -48.6°C | 0.0% | 16.9hPa | 0V | 00:00:00 | 00:00:00 | 00:00:00 | |
| PETON7-10 | 2026-09-01 12:49:06 | 48.28183 | 17.19912 | 112° | 27km/h | 26586m | 6.1m/s | 0°C | 0% | 0hPa | 0V | 00:00:00 | 00:00:00 | 00:00:00 | |
| OE5MMP-10 | 2026-09-01 12:48:59 | 48.28186 | 17.19866 | 152° | 24km/h | 26544m | 7.8m/s | 0°C | 0% | 0hPa | 0V | 00:00:00 | 00:00:00 | 00:00:00 | |
| ATIDSZ-14 | 2026-09-01 12:48:50 | 48.28190 | 17.19798 | 72° | 22km/h | 26489m | 4.6m/s | 0°C | 0% | 0hPa | 0V | 00:00:00 | 00:00:00 | 00:00:00 | |
| OE5MMP-10 | 2026-09-01 12:48:48 | 48.28191 | 17.19783 | 121° | 24km/h | 26476m | 5.8m/s | 0°C | 0% | 0hPa | 0V | 00:00:00 | 00:00:00 | 00:00:00 | |
| PETON7-10 | 2026-09-01 12:48:42 | 48.28198 | 17.19748 | 95° | 26km/h | 26435m | 9.8m/s | 0°C | 0% | 0hPa | 0V | 00:00:00 | 00:00:00 | 00:00:00 | |
| OE5MMP-10 | 2026-09-01 12:48:39 | 48.28197 | 17.19703 | 84° | 24km/h | 26410m | 7.6m/s | 0°C | 0% | 0hPa | 0V | 00:00:00 | 00:00:00 | 00:00:00 | |
| OE3OSB-13 | 2026-09-01 12:48:37 | 48.28200 | 17.19699 | 172° | 13km/h | 26396m | 8.4m/s | -48.4°C | 0.0% | 17.5hPa | 0V | 00:00:00 | 00:00:00 | 00:00:00 | |
| OE5MMP-10 | 2026-09-01 12:48:29 | 48.28199 | 17.19622 | 82° | 33km/h | 26346m | 6.7m/s | 0°C | 0% | 0hPa | 0V | 00:00:00 | 00:00:00 | 00:00:00 | |
| OE3JTB-15 | 2026-09-01 12:48:27 | 48.28200 | 17.19587 | 71° | 22km/h | 26320m | 3.9m/s | 0°C | 0% | 0hPa | 0V | 00:00:00 | 00:00:00 | 00:00:00 | |
| PETON7-10 | 2026-09-01 12:48:23 | 48.28199 | 17.19580 | 69° | 27km/h | 26316m | 4.7m/s | 0°C | 0% | 0hPa | 0V | 00:00:00 | 00:00:00 | 00:00:00 | |
| OE5MMP-10 | 2026-09-01 12:48:20 | 48.28187 | 17.19514 | 60° | 20km/h | 26283m | 11.1m/s | 0°C | 0% | 0hPa | 0V | 00:00:00 | 00:00:00 | 00:00:00 | |
| OE5MMP-10 | 2026-09-01 12:48:08 | 48.28173 | 17.19447 | 76° | 18km/h | 26217m | 7.5m/s | 0°C | 0% | 0hPa | 0V | 00:00:00 | 00:00:00 | 00:00:00 | |
| ATIDSZ-14 | 2026-09-01 12:48:07 | 48.28171 | 17.19438 | 80° | 29km/h | 26211m | 2.6m/s | 0°C | 0% | 0hPa | 0V | 00:00:00 | 00:00:00 | 00:00:00 | |
| OE3OSB-13 | 2026-09-01 12:48:06 | 48.28169 | 17.19416 | 71° | 26km/h | 26204m | 8.2m/s | -48.2°C | 0.0% | 18.2hPa | 0V | 00:00:00 | 00:00:00 | 00:00:00 | |
| PETON7-10 | 2026-09-01 12:48:05 | 48.28169 | 17.19416 | 72° | 16km/h | 26204m | 8.1m/s | 0°C | 0% | 0hPa | 0V | 00:00:00 | 00:00:00 | 00:00:00 | |
| OE5MMP-10 | 2026-09-01 12:47:57 | 48.28154 | 17.19373 | 100° | 16km/h | 26154m | 5.6m/s | 0°C | 0% | 0hPa | 0V | 00:00:00 | 00:00:00 | 00:00:00 | |
| OE5DXL-15 | 2026-09-01 12:47:53 | 48.28151 | 17.19345 | 58° | 24km/h | 26131m | 5.1m/s | 0°C | 0% | 0hPa | 0V | 00:00:00 | 00:00:00 | 00:00:00 | |
| PETON7-10 | 2026-09-01 12:47:50 | 48.28138 | 17.19331 | 54° | 20km/h | 26103m | 7.9m/s | 0°C | 0% | 0hPa | 0V | 00:00:00 | 00:00:00 | 00:00:00 | |
| OE5MMP-10 | 2026-09-01 12:47:47 | 48.28137 | 17.19322 | 93° | 22km/h | 26089m | 5.8m/s | 0°C | 0% | 0hPa | 0V | 00:00:00 | 00:00:00 | 00:00:00 | |
| OE5MMP-10 | 2026-09-01 12:47:36 | 48.28092 | 17.19274 | 56° | 24km/h | 26019m | 7.9m/s | 0°C | 0% | 0hPa | 0V | 00:00:00 | 00:00:00 | 00:00:00 | |
| OE3OSB-13 | 2026-09-01 12:47:35 | 48.28084 | 17.19256 | 42° | 27km/h | 26007m | 4.8m/s | -49.1°C | 0.0% | 18.9hPa | 0V | 00:00:00 | 00:00:00 | 00:00:00 | |
| PETON7-10 | 2026-09-01 12:47:29 | 48.28054 | 17.19250 | 25° | 24km/h | 25976m | 6.4m/s | 0°C | 0% | 0hPa | 0V | 00:00:00 | 00:00:00 | 00:00:00 | |
| ATIDSZ-14 | 2026-09-01 12:47:27 | 48.28045 | 17.19242 | 34° | 18km/h | 25966m | 4.2m/s | 0°C | 0% | 0hPa | 0V | 00:00:00 | 00:00:00 | 00:00:00 | |
| OE5MMP-10 | 2026-09-01 12:47:25 | 48.28036 | 17.19238 | 357° | 20km/h | 25952m | 5.1m/s | 0°C | 0% | 0hPa | 0V | 00:00:00 | 00:00:00 | 00:00:00 | |
| OE5DXL-15 | 2026-09-01 12:47:21 | 48.28012 | 17.19231 | 17° | 16km/h | 25933m | 4.5m/s | 0°C | 0% | 0hPa | 0V | 00:00:00 | 00:00:00 | 00:00:00 | |
| OE5MMP-10 | 2026-09-01 12:47:14 | 48.27981 | 17.19231 | 18° | 15km/h | 25887m | 6.3m/s | 0°C | 0% | 0hPa | 0V | 00:00:00 | 00:00:00 | 00:00:00 | |
| PETON7-10 | 2026-09-01 12:47:09 | 48.27956 | 17.19237 | 17° | 15km/h | 25855m | 6.4m/s | 0°C | 0% | 0hPa | 0V | 00:00:00 | 00:00:00 | 00:00:00 | |
| ATIDSZ-14 | 2026-09-01 12:47:07 | 48.27952 | 17.19234 | 358° | 5km/h | 25846m | 6.0m/s | 0°C | 0% | 0hPa | 0V | 00:00:00 | 00:00:00 | 00:00:00 | |
| OE3OSB-13 | 2026-09-01 12:47:04 | 48.27944 | 17.19248 | 330° | 11km/h | 25818m | 8.2m/s | -49.4°C | 0.0% | 19.6hPa | 0V | 00:00:00 | 00:00:00 | 00:00:00 | |
| OE3JTB-15 | 2026-09-01 12:47:00 | 48.27911 | 17.19240 | 9° | 24km/h | 25782m | 6.4m/s | 0°C | 0% | 0hPa | 0V | 00:00:00 | 00:00:00 | 00:00:00 | |
| OE5MMP-10 | 2026-09-01 12:46:54 | 48.27903 | 17.19235 | 348° | 22km/h | 25762m | 5.4m/s | 0°C | 0% | 0hPa | 0V | 00:00:00 | 00:00:00 | 00:00:00 | |
| OE5DXL-15 | 2026-09-01 12:46:51 | 48.27891 | 17.19244 | 342° | 22km/h | 25746m | 4.3m/s | 0°C | 0% | 0hPa | 0V | 00:00:00 | 00:00:00 | 00:00:00 | |
| PETON7-10 | 2026-09-01 12:46:50 | 48.27886 | 17.19245 | 2° | 24km/h | 25740m | 8.2m/s | 0°C | 0% | 0hPa | 0V | 00:00:00 | 00:00:00 | 00:00:00 | |
| ATIDSZ-14 | 2026-09-01 12:46:46 | 48.27861 | 17.19232 | 3° | 29km/h | 25714m | 6.8m/s | 0°C | 0% | 0hPa | 0V | 00:00:00 | 00:00:00 | 00:00:00 | |
| OE5MMP-10 | 2026-09-01 12:46:44 | 48.27849 | 17.19233 | 359° | 24km/h | 25703m | 5.5m/s | 0°C | 0% | 0hPa | 0V | 00:00:00 | 00:00:00 | 00:00:00 | |
| OE5MMP-10 | 2026-09-01 12:46:34 | 48.27791 | 17.19207 | 50° | 26km/h | 25649m | 4.6m/s | 0°C | 0% | 0hPa | 0V | 00:00:00 | 00:00:00 | 00:00:00 | |
| OE3OSB-13 | 2026-09-01 12:46:33 | 48.27777 | 17.19194 | 9° | 33km/h | 25637m | 7.1m/s | -49.4°C | 0.0% | 20.2hPa | 0V | 00:00:00 | 00:00:00 | 00:00:00 | |
| OE3JTB-15 | 2026-09-01 12:46:31 | 48.27769 | 17.19194 | 349° | 20km/h | 25630m | 6.4m/s | 0°C | 0% | 0hPa | 0V | 00:00:00 | 00:00:00 | 00:00:00 | |
| ATIDSZ-14 | 2026-09-01 12:46:26 | 48.27750 | 17.19199 | 34° | 22km/h | 25601m | 6.8m/s | 0°C | 0% | 0hPa | 0V | 00:00:00 | 00:00:00 | 00:00:00 | |
| OE5MMP-10 | 2026-09-01 12:46:25 | 48.27740 | 17.19189 | 35° | 16km/h | 25590m | 4.3m/s | 0°C | 0% | 0hPa | 0V | 00:00:00 | 00:00:00 | 00:00:00 | |
| PETON7-10 | 2026-09-01 12:46:19 | 48.27723 | 17.19164 | 12° | 22km/h | 25559m | 7.3m/s | 0°C | 0% | 0hPa | 0V | 00:00:00 | 00:00:00 | 00:00:00 | |
| OE5DXL-15 | 2026-09-01 12:46:18 | 48.27718 | 17.19163 | 358° | 20km/h | 25553m | 4.3m/s | 0°C | 0% | 0hPa | 0V | 00:00:00 | 00:00:00 | 00:00:00 | |
| OE5MMP-10 | 2026-09-01 12:46:14 | 48.27704 | 17.19165 | 17° | 22km/h | 25529m | 5.2m/s | 0°C | 0% | 0hPa | 0V | 00:00:00 | 00:00:00 | 00:00:00 | |
| ATIDSZ-14 | 2026-09-01 12:46:06 | 48.27657 | 17.19141 | 358° | 27km/h | 25475m | 5.4m/s | 0°C | 0% | 0hPa | 0V | 00:00:00 | 00:00:00 | 00:00:00 | |
| PETON7-10 | 2026-09-01 12:46:05 | 48.27650 | 17.19142 | 356° | 20km/h | 25468m | 7.3m/s | 0°C | 0% | 0hPa | 0V | 00:00:00 | 00:00:00 | 00:00:00 | |
| OE3JTB-15 | 2026-09-01 12:46:03 | 48.27641 | 17.19140 | 13° | 18km/h | 25454m | 3.4m/s | 0°C | 0% | 0hPa | 0V | 00:00:00 | 00:00:00 | 00:00:00 | |
| OE3OSB-13 | 2026-09-01 12:46:02 | 48.27637 | 17.19139 | 20° | 18km/h | 25449m | 7.2m/s | -49.7°C | 0.0% | 21.0hPa | 0V | 00:00:00 | 00:00:00 | 00:00:00 | |
| OE5MMP-10 | 2026-09-01 12:45:54 | 48.27601 | 17.19150 | 342° | 15km/h | 25405m | 7.4m/s | 0°C | 0% | 0hPa | 0V | 00:00:00 | 00:00:00 | 00:00:00 | |
| OE5DXL-15 | 2026-09-01 12:45:48 | 48.27582 | 17.19156 | 339° | 18km/h | 25370m | 8.2m/s | 0°C | 0% | 0hPa | 0V | 00:00:00 | 00:00:00 | 00:00:00 | |
| OE5MMP-10 | 2026-09-01 12:45:44 | 48.27562 | 17.19167 | 323° | 16km/h | 25340m | 8.6m/s | 0°C | 0% | 0hPa | 0V | 00:00:00 | 00:00:00 | 00:00:00 | |
| ATIDSZ-14 | 2026-09-01 12:45:43 | 48.27558 | 17.19173 | 306° | 26km/h | 25333m | 5.8m/s | 0°C | 0% | 0hPa | 0V | 00:00:00 | 00:00:00 | 00:00:00 | |
| OE5MMP-10 | 2026-09-01 12:45:33 | 48.27529 | 17.19205 | 352° | 22km/h | 25271m | 4.2m/s | 0°C | 0% | 0hPa | 0V | 00:00:00 | 00:00:00 | 00:00:00 | |
| OE3OSB-13 | 2026-09-01 12:45:30 | 48.27517 | 17.19220 | 281° | 18km/h | 25253m | 5.5m/s | -49.5°C | 0.0% | 21.8hPa | 0V | 00:00:00 | 00:00:00 | 00:00:00 | |
| ATIDSZ-14 | 2026-09-01 12:45:22 | 48.27494 | 17.19264 | 346° | 15km/h | 25203m | 7.6m/s | 0°C | 0% | 0hPa | 0V | 00:00:00 | 00:00:00 | 00:00:00 | |
| OE5MMP-10 | 2026-09-01 12:45:21 | 48.27490 | 17.19266 | 351° | 22km/h | 25197m | 4.9m/s | 0°C | 0% | 0hPa | 0V | 00:00:00 | 00:00:00 | 00:00:00 | |
| OE5DXL-15 | 2026-09-01 12:45:18 | 48.27478 | 17.19282 | 295° | 15km/h | 25178m | 6.0m/s | 0°C | 0% | 0hPa | 0V | 00:00:00 | 00:00:00 | 00:00:00 | |
| OE5MMP-10 | 2026-09-01 12:45:11 | 48.27471 | 17.19321 | 240° | 18km/h | 25140m | 5.7m/s | 0°C | 0% | 0hPa | 0V | 00:00:00 | 00:00:00 | 00:00:00 | |
| OE3JTB-15 | 2026-09-01 12:45:04 | 48.27460 | 17.19377 | 316° | 13km/h | 25085m | 7.6m/s | 0°C | 0% | 0hPa | 0V | 00:00:00 | 00:00:00 | 00:00:00 | |
| OE5MMP-10 | 2026-09-01 12:45:01 | 48.27456 | 17.19380 | 350° | 9km/h | 25078m | 5.4m/s | 0°C | 0% | 0hPa | 0V | 00:00:00 | 00:00:00 | 00:00:00 | |
| OE3OSB-13 | 2026-09-01 12:44:59 | 48.27450 | 17.19386 | 271° | 7km/h | 25059m | 6.0m/s | -50.0°C | 0.0% | 22.6hPa | 0V | 00:00:00 | 00:00:00 | 00:00:00 | |
| OE5MMP-10 | 2026-09-01 12:44:52 | 48.27441 | 17.19403 | 304° | 16km/h | 25020m | 3.4m/s | 0°C | 0% | 0hPa | 0V | 00:00:00 | 00:00:00 | 00:00:00 | |
| OE5DXL-15 | 2026-09-01 12:44:48 | 48.27429 | 17.19412 | 16° | 13km/h | 25004m | 3.2m/s | 0°C | 0% | 0hPa | 0V | 00:00:00 | 00:00:00 | 00:00:00 | |
| PETON7-10 | 2026-09-01 12:44:45 | 48.27425 | 17.19411 | 252° | 11km/h | 24985m | 5.0m/s | 0°C | 0% | 0hPa | 0V | 00:00:00 | 00:00:00 | 00:00:00 | |
| OE5MMP-10 | 2026-09-01 12:44:41 | 48.27417 | 17.19429 | 331° | 11km/h | 24962m | 5.6m/s | 0°C | 0% | 0hPa | 0V | 00:00:00 | 00:00:00 | 00:00:00 | |
| ATIDSZ-14 | 2026-09-01 12:44:40 | 48.27415 | 17.19432 | 320° | 11km/h | 24956m | 8.0m/s | 0°C | 0% | 0hPa | 0V | 00:00:00 | 00:00:00 | 00:00:00 | |
| OE3JTB-15 | 2026-09-01 12:44:35 | 48.27402 | 17.19438 | 270° | 15km/h | 24908m | 6.4m/s | 0°C | 0% | 0hPa | 0V | 00:00:00 | 00:00:00 | 00:00:00 | |
| OE5MMP-10 | 2026-09-01 12:44:30 | 48.27398 | 17.19448 | 26° | 13km/h | 24891m | 2.4m/s | 0°C | 0% | 0hPa | 0V | 00:00:00 | 00:00:00 | 00:00:00 | |
| PETON7-10 | 2026-09-01 12:44:29 | 48.27396 | 17.19447 | 30° | 15km/h | 24889m | 2.1m/s | 0°C | 0% | 0hPa | 0V | 00:00:00 | 00:00:00 | 00:00:00 | |
| OE3OSB-13 | 2026-09-01 12:44:28 | 48.27394 | 17.19446 | 7° | 5km/h | 24883m | 9.2m/s | -50.3°C | 0.0% | 23.3hPa | 0V | 00:00:00 | 00:00:00 | 00:00:00 | |
| ATIDSZ-14 | 2026-09-01 12:44:20 | 48.27380 | 17.19474 | 228° | 18km/h | 24832m | 3.8m/s | 0°C | 0% | 0hPa | 0V | 00:00:00 | 00:00:00 | 00:00:00 | |
| OE5DXL-15 | 2026-09-01 12:44:18 | 48.27386 | 17.19481 | 213° | 13km/h | 24820m | 9.1m/s | 0°C | 0% | 0hPa | 0V | 00:00:00 | 00:00:00 | 00:00:00 | |
| PETON7-10 | 2026-09-01 12:44:13 | 48.27381 | 17.19506 | 277° | 15km/h | 24788m | 5.8m/s | 0°C | 0% | 0hPa | 0V | 00:00:00 | 00:00:00 | 00:00:00 | |
| OE5MMP-10 | 2026-09-01 12:44:07 | 48.27398 | 17.19525 | 227° | 13km/h | 24749m | 6.4m/s | 0°C | 0% | 0hPa | 0V | 00:00:00 | 00:00:00 | 00:00:00 | |
| OE3JTB-15 | 2026-09-01 12:44:05 | 48.27399 | 17.19531 | 315° | 11km/h | 24735m | 5.8m/s | 0°C | 0% | 0hPa | 0V | 00:00:00 | 00:00:00 | 00:00:00 | |
| ATIDSZ-14 | 2026-09-01 12:43:59 | 48.27399 | 17.19544 | 147° | 18km/h | 24702m | 6.5m/s | 0°C | 0% | 0hPa | 0V | 00:00:00 | 00:00:00 | 00:00:00 | |
| PETON7-10 | 2026-09-01 12:43:51 | 48.27407 | 17.19546 | 46° | 11km/h | 24656m | 4.1m/s | 0°C | 0% | 0hPa | 0V | 00:00:00 | 00:00:00 | 00:00:00 | |
| OE5DXL-15 | 2026-09-01 12:43:48 | 48.27408 | 17.19544 | 170° | 9km/h | 24629m | 8.6m/s | 0°C | 0% | 0hPa | 0V | 00:00:00 | 00:00:00 | 00:00:00 | |
| ATIDSZ-14 | 2026-09-01 12:43:38 | 48.27416 | 17.19518 | 15° | 7km/h | 24572m | 7.0m/s | 0°C | 0% | 0hPa | 0V | 00:00:00 | 00:00:00 | 00:00:00 | |
| OE5MMP-10 | 2026-09-01 12:43:37 | 48.27412 | 17.19521 | 293° | 7km/h | 24560m | 3.9m/s | 0°C | 0% | 0hPa | 0V | 00:00:00 | 00:00:00 | 00:00:00 | |
| OE3JTB-15 | 2026-09-01 12:43:36 | 48.27412 | 17.19523 | 120° | 11km/h | 24548m | 6.8m/s | 0°C | 0% | 0hPa | 0V | 00:00:00 | 00:00:00 | 00:00:00 | |
| OE5MMP-10 | 2026-09-01 12:43:26 | 48.27406 | 17.19516 | 24° | 13km/h | 24500m | 6.1m/s | 0°C | 0% | 0hPa | 0V | 00:00:00 | 00:00:00 | 00:00:00 | |
| PETON7-10 | 2026-09-01 12:43:21 | 48.27404 | 17.19521 | 161° | 11km/h | 24469m | 5.1m/s | 0°C | 0% | 0hPa | 0V | 00:00:00 | 00:00:00 | 00:00:00 | |
| ATIDSZ-14 | 2026-09-01 12:43:18 | 48.27414 | 17.19525 | 226° | 18km/h | 24452m | 4.5m/s | 0°C | 0% | 0hPa | 0V | 00:00:00 | 00:00:00 | 00:00:00 | |
| OE5DXL-15 | 2026-09-01 12:43:17 | 48.27416 | 17.19530 | 237° | 11km/h | 24448m | 4.6m/s | 0°C | 0% | 0hPa | 0V | 00:00:00 | 00:00:00 | 00:00:00 | |
| OE5MMP-10 | 2026-09-01 12:43:16 | 48.27418 | 17.19534 | 237° | 13km/h | 24442m | 7.5m/s | 0°C | 0% | 0hPa | 0V | 00:00:00 | 00:00:00 | 00:00:00 | |
| OE5MMP-10 | 2026-09-01 12:43:06 | 48.27423 | 17.19541 | 229° | 11km/h | 24383m | 4.5m/s | 0°C | 0% | 0hPa | 0V | 00:00:00 | 00:00:00 | 00:00:00 | |
| PETON7-10 | 2026-09-01 12:43:03 | 48.27426 | 17.19549 | 50° | 4km/h | 24367m | 8.5m/s | 0°C | 0% | 0hPa | 0V | 00:00:00 | 00:00:00 | 00:00:00 | |
| OE3OSB-13 | 2026-09-01 12:42:55 | 48.27424 | 17.19553 | 204° | 9km/h | 24310m | 4.9m/s | -51.6°C | 0.0% | 25.9hPa | 0V | 00:00:00 | 00:00:00 | 00:00:00 | |
| OE5DXL-15 | 2026-09-01 12:42:47 | 48.27414 | 17.19537 | 281° | 16km/h | 24270m | 6.2m/s | 0°C | 0% | 0hPa | 0V | 00:00:00 | 00:00:00 | 00:00:00 | |
| OE5MMP-10 | 2026-09-01 12:42:46 | 48.27415 | 17.19543 | 247° | 16km/h | 24264m | 5.5m/s | 0°C | 0% | 0hPa | 0V | 00:00:00 | 00:00:00 | 00:00:00 | |
| PETON7-10 | 2026-09-01 12:42:45 | 48.27417 | 17.19548 | 219° | 15km/h | 24258m | 5.9m/s | 0°C | 0% | 0hPa | 0V | 00:00:00 | 00:00:00 | 00:00:00 | |
| OE3JTB-15 | 2026-09-01 12:42:38 | 48.27401 | 17.19534 | 322° | 16km/h | 24209m | 8.1m/s | 0°C | 0% | 0hPa | 0V | 00:00:00 | 00:00:00 | 00:00:00 | |
| ATIDSZ-14 | 2026-09-01 12:42:36 | 48.27401 | 17.19534 | 323° | 16km/h | 24209m | 8.1m/s | 0°C | 0% | 0hPa | 0V | 00:00:00 | 00:00:00 | 00:00:00 | |
| OE5MMP-10 | 2026-09-01 12:42:32 | 48.27391 | 17.19567 | 56° | 20km/h | 24186m | 6.2m/s | 0°C | 0% | 0hPa | 0V | 00:00:00 | 00:00:00 | 00:00:00 | |
| PETON7-10 | 2026-09-01 12:42:29 | 48.27383 | 17.19542 | 7° | 18km/h | 24168m | 4.9m/s | 0°C | 0% | 0hPa | 0V | 00:00:00 | 00:00:00 | 00:00:00 | |
| OE3OSB-13 | 2026-09-01 12:42:24 | 48.27349 | 17.19550 | 326° | 31km/h | 24133m | 3.2m/s | -52.1°C | 0.0% | 26.7hPa | 0V | 00:00:00 | 00:00:00 | 00:00:00 | |
| OE5MMP-10 | 2026-09-01 12:42:22 | 48.27343 | 17.19558 | 312° | 16km/h | 24129m | 5.6m/s | 0°C | 0% | 0hPa | 0V | 00:00:00 | 00:00:00 | 00:00:00 | |
| OE5DXL-15 | 2026-09-01 12:42:17 | 48.27329 | 17.19567 | 3° | 18km/h | 24102m | 5.3m/s | 0°C | 0% | 0hPa | 0V | 00:00:00 | 00:00:00 | 00:00:00 | |
| ATIDSZ-14 | 2026-09-01 12:42:15 | 48.27323 | 17.19571 | 285° | 15km/h | 24087m | 7.4m/s | 0°C | 0% | 0hPa | 0V | 00:00:00 | 00:00:00 | 00:00:00 | |
| OE5MMP-10 | 2026-09-01 12:42:12 | 48.27316 | 17.19589 | 312° | 20km/h | 24065m | 5.7m/s | 0°C | 0% | 0hPa | 0V | 00:00:00 | 00:00:00 | 00:00:00 | |
| PETON7-10 | 2026-09-01 12:42:10 | 48.27309 | 17.19601 | 305° | 15km/h | 24051m | 9.4m/s | 0°C | 0% | 0hPa | 0V | 00:00:00 | 00:00:00 | 00:00:00 | |
| OE3JTB-15 | 2026-09-01 12:42:09 | 48.27298 | 17.19625 | 321° | 15km/h | 24025m | 4.0m/s | 0°C | 0% | 0hPa | 0V | 00:00:00 | 00:00:00 | 00:00:00 | |
| OE5MMP-10 | 2026-09-01 12:42:02 | 48.27295 | 17.19648 | 223° | 13km/h | 24003m | 4.4m/s | 0°C | 0% | 0hPa | 0V | 00:00:00 | 00:00:00 | 00:00:00 | |
| OE3OSB-13 | 2026-09-01 12:41:53 | 48.27294 | 17.19698 | 243° | 15km/h | 23938m | 8.2m/s | -51.7°C | 0.0% | 27.7hPa | 0V | 00:00:00 | 00:00:00 | 00:00:00 | |
| OE5MMP-10 | 2026-09-01 12:41:51 | 48.27297 | 17.19703 | 219° | 16km/h | 23931m | 4.7m/s | 0°C | 0% | 0hPa | 0V | 00:00:00 | 00:00:00 | 00:00:00 | |
| OE5DXL-15 | 2026-09-01 12:41:47 | 48.27311 | 17.19720 | 237° | 11km/h | 23908m | 6.6m/s | 0°C | 0% | 0hPa | 0V | 00:00:00 | 00:00:00 | 00:00:00 | |
| OE3JTB-15 | 2026-09-01 12:41:39 | 48.27328 | 17.19770 | 256° | 7km/h | 23845m | 6.8m/s | 0°C | 0% | 0hPa | 0V | 00:00:00 | 00:00:00 | 00:00:00 | |
| ATIDSZ-14 | 2026-09-01 12:41:34 | 48.27331 | 17.19778 | 246° | 15km/h | 23833m | 3.7m/s | 0°C | 0% | 0hPa | 0V | 00:00:00 | 00:00:00 | 00:00:00 | |
| OE5MMP-10 | 2026-09-01 12:41:30 | 48.27331 | 17.19787 | 229° | 9km/h | 23810m | 7.9m/s | 0°C | 0% | 0hPa | 0V | 00:00:00 | 00:00:00 | 00:00:00 | |
| PETON7-10 | 2026-09-01 12:41:24 | 48.27346 | 17.19789 | 213° | 9km/h | 23776m | 7.7m/s | 0°C | 0% | 0hPa | 0V | 00:00:00 | 00:00:00 | 00:00:00 | |
| OE3OSB-13 | 2026-09-01 12:41:22 | 48.27350 | 17.19795 | 186° | 2km/h | 23759m | 7.7m/s | -51.8°C | 0.0% | 28.6hPa | 0V | 00:00:00 | 00:00:00 | 00:00:00 | |
| OE5MMP-10 | 2026-09-01 12:41:20 | 48.27351 | 17.19794 | 110° | 7km/h | 23753m | 5.8m/s | 0°C | 0% | 0hPa | 0V | 00:00:00 | 00:00:00 | 00:00:00 | |
| OE5DXL-15 | 2026-09-01 12:41:17 | 48.27356 | 17.19790 | 203° | 11km/h | 23736m | 5.5m/s | 0°C | 0% | 0hPa | 0V | 00:00:00 | 00:00:00 | 00:00:00 | |
| ATIDSZ-14 | 2026-09-01 12:41:14 | 48.27360 | 17.19794 | 51° | 5km/h | 23720m | 6.8m/s | 0°C | 0% | 0hPa | 0V | 00:00:00 | 00:00:00 | 00:00:00 | |
| OE3JTB-15 | 2026-09-01 12:41:09 | 48.27363 | 17.19786 | 341° | 13km/h | 23675m | 4.4m/s | 0°C | 0% | 0hPa | 0V | 00:00:00 | 00:00:00 | 00:00:00 | |
| PETON7-10 | 2026-09-01 12:41:00 | 48.27348 | 17.19808 | 76° | 9km/h | 23641m | 4.2m/s | 0°C | 0% | 0hPa | 0V | 00:00:00 | 00:00:00 | 00:00:00 | |
| OE3OSB-13 | 2026-09-01 12:40:51 | 48.27343 | 17.19844 | 177° | 0km/h | 23580m | 7.7m/s | -52.2°C | 0.0% | 29.5hPa | 0V | 00:00:00 | 00:00:00 | 00:00:00 | |
| OE5MMP-10 | 2026-09-01 12:40:49 | 48.27344 | 17.19843 | 135° | 13km/h | 23574m | 5.1m/s | 0°C | 0% | 0hPa | 0V | 00:00:00 | 00:00:00 | 00:00:00 | |
| OE5DXL-15 | 2026-09-01 12:40:47 | 48.27349 | 17.19844 | 216° | 11km/h | 23561m | 9.0m/s | 0°C | 0% | 0hPa | 0V | 00:00:00 | 00:00:00 | 00:00:00 | |
| PETON7-10 | 2026-09-01 12:40:41 | 48.27350 | 17.19873 | 251° | 7km/h | 23526m | 9.7m/s | 0°C | 0% | 0hPa | 0V | 00:00:00 | 00:00:00 | 00:00:00 | |
| OE3JTB-15 | 2026-09-01 12:40:39 | 48.27351 | 17.19892 | 279° | 11km/h | 23492m | 7.1m/s | 0°C | 0% | 0hPa | 0V | 00:00:00 | 00:00:00 | 00:00:00 | |
| ATIDSZ-14 | 2026-09-01 12:40:33 | 48.27352 | 17.19917 | 263° | 9km/h | 23466m | 6.8m/s | 0°C | 0% | 0hPa | 0V | 00:00:00 | 00:00:00 | 00:00:00 | |
| OE5MMP-10 | 2026-09-01 12:40:27 | 48.27361 | 17.19929 | 208° | 11km/h | 23436m | 7.9m/s | 0°C | 0% | 0hPa | 0V | 00:00:00 | 00:00:00 | 00:00:00 | |
| PETON7-10 | 2026-09-01 12:40:26 | 48.27363 | 17.19930 | 212° | 13km/h | 23429m | 5.5m/s | 0°C | 0% | 0hPa | 0V | 00:00:00 | 00:00:00 | 00:00:00 | |
| OE3OSB-13 | 2026-09-01 12:40:21 | 48.27363 | 17.19962 | 274° | 11km/h | 23376m | 6.2m/s | -51.6°C | 0.0% | 30.6hPa | 0V | 00:00:00 | 00:00:00 | 00:00:00 | |
| OE5DXL-15 | 2026-09-01 12:40:16 | 48.27362 | 17.19967 | 308° | 9km/h | 23371m | 3.7m/s | 0°C | 0% | 0hPa | 0V | 00:00:00 | 00:00:00 | 00:00:00 | |
| ATIDSZ-14 | 2026-09-01 12:40:12 | 48.27352 | 17.19973 | 308° | 7km/h | 23347m | 10.0m/s | 0°C | 0% | 0hPa | 0V | 00:00:00 | 00:00:00 | 00:00:00 | |
| PETON7-10 | 2026-09-01 12:40:08 | 48.27364 | 17.19983 | 183° | 9km/h | 23323m | 4.7m/s | 0°C | 0% | 0hPa | 0V | 00:00:00 | 00:00:00 | 00:00:00 | |
| OE5MMP-10 | 2026-09-01 12:40:06 | 48.27366 | 17.19985 | 292° | 7km/h | 23310m | 9.2m/s | 0°C | 0% | 0hPa | 0V | 00:00:00 | 00:00:00 | 00:00:00 | |
| OE3OSB-13 | 2026-09-01 12:39:49 | 48.27365 | 17.20027 | 253° | 9km/h | 23201m | 4.6m/s | -51.8°C | 0.0% | 31.6hPa | 0V | 00:00:00 | 00:00:00 | 00:00:00 | |
| OE5DXL-15 | 2026-09-01 12:39:46 | 48.27367 | 17.20029 | 137° | 9km/h | 23188m | 7.6m/s | 0°C | 0% | 0hPa | 0V | 00:00:00 | 00:00:00 | 00:00:00 | |
| OE5MMP-10 | 2026-09-01 12:39:44 | 48.27372 | 17.20025 | 192° | 11km/h | 23176m | 6.9m/s | 0°C | 0% | 0hPa | 0V | 00:00:00 | 00:00:00 | 00:00:00 | |
| PETON7-10 | 2026-09-01 12:39:37 | 48.27384 | 17.20052 | 272° | 7km/h | 23133m | 5.5m/s | 0°C | 0% | 0hPa | 0V | 00:00:00 | 00:00:00 | 00:00:00 | |
| OE5MMP-10 | 2026-09-01 12:39:34 | 48.27383 | 17.20056 | 84° | 5km/h | 23115m | 6.8m/s | 0°C | 0% | 0hPa | 0V | 00:00:00 | 00:00:00 | 00:00:00 | |
| ATIDSZ-14 | 2026-09-01 12:39:32 | 48.27382 | 17.20053 | 0° | 0km/h | 23104m | 7.6m/s | 0°C | 0% | 0hPa | 0V | 00:00:00 | 00:00:00 | 00:00:00 | |
| OE5MMP-10 | 2026-09-01 12:39:24 | 48.27388 | 17.20067 | 61° | 9km/h | 23060m | 5.5m/s | 0°C | 0% | 0hPa | 0V | 00:00:00 | 00:00:00 | 00:00:00 | |
| PETON7-10 | 2026-09-01 12:39:22 | 48.27389 | 17.20060 | 111° | 9km/h | 23047m | 5.6m/s | 0°C | 0% | 0hPa | 0V | 00:00:00 | 00:00:00 | 00:00:00 | |
| OE3OSB-13 | 2026-09-01 12:39:18 | 48.27401 | 17.20055 | 148° | 5km/h | 23018m | 7.8m/s | -51.2°C | 0.0% | 32.6hPa | 0V | 00:00:00 | 00:00:00 | 00:00:00 | |
| OE5DXL-15 | 2026-09-01 12:39:16 | 48.27402 | 17.20053 | 112° | 9km/h | 23011m | 6.0m/s | 0°C | 0% | 0hPa | 0V | 00:00:00 | 00:00:00 | 00:00:00 | |
| OE5MMP-10 | 2026-09-01 12:39:12 | 48.27398 | 17.20050 | 17° | 9km/h | 22989m | 3.9m/s | 0°C | 0% | 0hPa | 0V | 00:00:00 | 00:00:00 | 00:00:00 | |
| OE3JTB-15 | 2026-09-01 12:39:11 | 48.27394 | 17.20028 | 128° | 9km/h | 22960m | 6.6m/s | 0°C | 0% | 0hPa | 0V | 00:00:00 | 00:00:00 | 00:00:00 | |
| PETON7-10 | 2026-09-01 12:39:06 | 48.27396 | 17.20026 | 164° | 9km/h | 22954m | 4.9m/s | 0°C | 0% | 0hPa | 0V | 00:00:00 | 00:00:00 | 00:00:00 | |
| OE5MMP-10 | 2026-09-01 12:39:00 | 48.27397 | 17.20000 | 49° | 7km/h | 22922m | 8.7m/s | 0°C | 0% | 0hPa | 0V | 00:00:00 | 00:00:00 | 00:00:00 | |
| PETON7-10 | 2026-09-01 12:38:51 | 48.27388 | 17.19983 | 95° | 7km/h | 22864m | 6.0m/s | 0°C | 0% | 0hPa | 0V | 00:00:00 | 00:00:00 | 00:00:00 | |
| OE5MMP-10 | 2026-09-01 12:38:50 | 48.27388 | 17.19982 | 142° | 5km/h | 22860m | 2.3m/s | 0°C | 0% | 0hPa | 0V | 00:00:00 | 00:00:00 | 00:00:00 | |
| OE5DXL-15 | 2026-09-01 12:38:45 | 48.27380 | 17.19991 | 264° | 11km/h | 22829m | 6.7m/s | 0°C | 0% | 0hPa | 0V | 00:00:00 | 00:00:00 | 00:00:00 | |
| OE5MMP-10 | 2026-09-01 12:38:40 | 48.27379 | 17.19998 | 175° | 9km/h | 22797m | 10.1m/s | 0°C | 0% | 0hPa | 0V | 00:00:00 | 00:00:00 | 00:00:00 | |
| PETON7-10 | 2026-09-01 12:38:36 | 48.27377 | 17.20009 | 326° | 9km/h | 22774m | 4.0m/s | 0°C | 0% | 0hPa | 0V | 00:00:00 | 00:00:00 | 00:00:00 | |
| ATIDSZ-14 | 2026-09-01 12:38:31 | 48.27372 | 17.20021 | 24° | 2km/h | 22744m | 8.9m/s | 0°C | 0% | 0hPa | 0V | 00:00:00 | 00:00:00 | 00:00:00 | |
| OE5MMP-10 | 2026-09-01 12:38:30 | 48.27371 | 17.20021 | 352° | 11km/h | 22737m | 3.8m/s | 0°C | 0% | 0hPa | 0V | 00:00:00 | 00:00:00 | 00:00:00 | |
| PETON7-10 | 2026-09-01 12:38:21 | 48.27363 | 17.20057 | 273° | 20km/h | 22683m | 4.8m/s | 0°C | 0% | 0hPa | 0V | 00:00:00 | 00:00:00 | 00:00:00 | |
| OE5MMP-10 | 2026-09-01 12:38:20 | 48.27363 | 17.20062 | 273° | 20km/h | 22677m | 6.8m/s | 0°C | 0% | 0hPa | 0V | 00:00:00 | 00:00:00 | 00:00:00 | |
| OE5DXL-15 | 2026-09-01 12:38:16 | 48.27368 | 17.20092 | 268° | 16km/h | 22650m | 7.4m/s | 0°C | 0% | 0hPa | 0V | 00:00:00 | 00:00:00 | 00:00:00 | |
| ATIDSZ-14 | 2026-09-01 12:38:11 | 48.27362 | 17.20122 | 268° | 26km/h | 22627m | 6.5m/s | 0°C | 0% | 0hPa | 0V | 00:00:00 | 00:00:00 | 00:00:00 | |
| OE5MMP-10 | 2026-09-01 12:38:08 | 48.27364 | 17.20149 | 276° | 18km/h | 22611m | 5.5m/s | 0°C | 0% | 0hPa | 0V | 00:00:00 | 00:00:00 | 00:00:00 | |
| PETON7-10 | 2026-09-01 12:38:01 | 48.27362 | 17.20199 | 296° | 13km/h | 22574m | 4.9m/s | 0°C | 0% | 0hPa | 0V | 00:00:00 | 00:00:00 | 00:00:00 | |
| OE3OSB-13 | 2026-09-01 12:37:44 | 48.27378 | 17.20267 | 255° | 18km/h | 22482m | 6.0m/s | -52.6°C | 0.0% | 35.8hPa | 0V | 00:00:00 | 00:00:00 | 00:00:00 | |
| OE5MMP-10 | 2026-09-01 12:37:43 | 48.27379 | 17.20274 | 251° | 13km/h | 22476m | 6.2m/s | 0°C | 0% | 0hPa | 0V | 00:00:00 | 00:00:00 | 00:00:00 | |
| OE3JTB-15 | 2026-09-01 12:37:42 | 48.27380 | 17.20299 | 304° | 7km/h | 22456m | 5.1m/s | 0°C | 0% | 0hPa | 0V | 00:00:00 | 00:00:00 | 00:00:00 | |
| OE5MMP-10 | 2026-09-01 12:37:33 | 48.27380 | 17.20290 | 88° | 5km/h | 22420m | 6.9m/s | 0°C | 0% | 0hPa | 0V | 00:00:00 | 00:00:00 | 00:00:00 | |
| PETON7-10 | 2026-09-01 12:37:31 | 48.27381 | 17.20285 | 116° | 11km/h | 22409m | 3.4m/s | 0°C | 0% | 0hPa | 0V | 00:00:00 | 00:00:00 | 00:00:00 | |
| ATIDSZ-14 | 2026-09-01 12:37:30 | 48.27381 | 17.20280 | 65° | 5km/h | 22397m | 6.7m/s | 0°C | 0% | 0hPa | 0V | 00:00:00 | 00:00:00 | 00:00:00 | |
| OE5MMP-10 | 2026-09-01 12:37:22 | 48.27382 | 17.20277 | 59° | 11km/h | 22361m | 2.8m/s | 0°C | 0% | 0hPa | 0V | 00:00:00 | 00:00:00 | 00:00:00 | |
| OE5DXL-15 | 2026-09-01 12:37:15 | 48.27380 | 17.20244 | 99° | 18km/h | 22322m | 7.1m/s | 0°C | 0% | 0hPa | 0V | 00:00:00 | 00:00:00 | 00:00:00 | |
| OE3JTB-15 | 2026-09-01 12:37:13 | 48.27384 | 17.20229 | 84° | 26km/h | 22293m | 5.1m/s | 0°C | 0% | 0hPa | 0V | 00:00:00 | 00:00:00 | 00:00:00 | |
| ATIDSZ-14 | 2026-09-01 12:37:09 | 48.27384 | 17.20223 | 91° | 18km/h | 22288m | 6.2m/s | 0°C | 0% | 0hPa | 0V | 00:00:00 | 00:00:00 | 00:00:00 | |
| PETON7-10 | 2026-09-01 12:37:00 | 48.27383 | 17.20168 | 84° | 22km/h | 22236m | 6.7m/s | 0°C | 0% | 0hPa | 0V | 00:00:00 | 00:00:00 | 00:00:00 | |
| OE5MMP-10 | 2026-09-01 12:36:59 | 48.27381 | 17.20163 | 62° | 24km/h | 22232m | 0.5m/s | 0°C | 0% | 0hPa | 0V | 00:00:00 | 00:00:00 | 00:00:00 | |
| PG1ADW-2 | 2026-09-01 12:36:53 | 48.27367 | 17.20111 | 48° | 24km/h | 22198m | 1.8m/s | 0°C | 0% | 0hPa | 0V | 00:00:00 | 00:00:00 | 00:00:00 | |
| ATIDSZ-14 | 2026-09-01 12:36:49 | 48.27360 | 17.20083 | 78° | 18km/h | 22175m | 7.2m/s | 0°C | 0% | 0hPa | 0V | 00:00:00 | 00:00:00 | 00:00:00 | |
| OE5MMP-10 | 2026-09-01 12:36:48 | 48.27358 | 17.20076 | 56° | 18km/h | 22169m | 4.6m/s | 0°C | 0% | 0hPa | 0V | 00:00:00 | 00:00:00 | 00:00:00 | |
| OE5DXL-15 | 2026-09-01 12:36:45 | 48.27349 | 17.20047 | 68° | 20km/h | 22154m | 2.7m/s | 0°C | 0% | 0hPa | 0V | 00:00:00 | 00:00:00 | 00:00:00 | |
| OE3OSB-13 | 2026-09-01 12:36:42 | 48.27336 | 17.20024 | 45° | 9km/h | 22133m | 7.0m/s | -52.9°C | 0.0% | 38.1hPa | 0V | 00:00:00 | 00:00:00 | 00:00:00 | |
| OE5MMP-10 | 2026-09-01 12:36:36 | 48.27322 | 17.19996 | 51° | 20km/h | 22104m | 5.0m/s | 0°C | 0% | 0hPa | 0V | 00:00:00 | 00:00:00 | 00:00:00 | |
| OE3JTB-15 | 2026-09-01 12:36:35 | 48.27301 | 17.19956 | 26° | 16km/h | 22076m | 5.0m/s | 0°C | 0% | 0hPa | 0V | 00:00:00 | 00:00:00 | 00:00:00 | |
| PG1ADW-2 | 2026-09-01 12:36:31 | 48.27301 | 17.19956 | 26° | 9km/h | 22076m | 5.0m/s | 0°C | 0% | 0hPa | 0V | 00:00:00 | 00:00:00 | 00:00:00 | |
| PETON7-10 | 2026-09-01 12:36:30 | 48.27300 | 17.19954 | 65° | 16km/h | 22071m | 6.1m/s | 0°C | 0% | 0hPa | 0V | 00:00:00 | 00:00:00 | 00:00:00 | |
| ATIDSZ-14 | 2026-09-01 12:36:28 | 48.27301 | 17.19945 | 104° | 18km/h | 22061m | 4.1m/s | 0°C | 0% | 0hPa | 0V | 00:00:00 | 00:00:00 | 00:00:00 | |
| OE5MMP-10 | 2026-09-01 12:36:26 | 48.27317 | 17.19930 | 66° | 15km/h | 22050m | 6.6m/s | 0°C | 0% | 0hPa | 0V | 00:00:00 | 00:00:00 | 00:00:00 | |
| OE5MMP-10 | 2026-09-01 12:36:13 | 48.27290 | 17.19851 | 75° | 22km/h | 21979m | 6.3m/s | 0°C | 0% | 0hPa | 0V | 00:00:00 | 00:00:00 | 00:00:00 | |
| OE3OSB-13 | 2026-09-01 12:36:11 | 48.27283 | 17.19826 | 71° | 26km/h | 21962m | 5.7m/s | -52.6°C | 0.0% | 39.2hPa | 0V | 00:00:00 | 00:00:00 | 00:00:00 | |
| PG1ADW-2 | 2026-09-01 12:36:10 | 48.27283 | 17.19826 | 72° | 26km/h | 21963m | 5.6m/s | 0°C | 0% | 0hPa | 0V | 00:00:00 | 00:00:00 | 00:00:00 | |
| ATIDSZ-14 | 2026-09-01 12:36:07 | 48.27278 | 17.19801 | 80° | 11km/h | 21946m | 4.2m/s | 0°C | 0% | 0hPa | 0V | 00:00:00 | 00:00:00 | 00:00:00 | |
| OE3JTB-15 | 2026-09-01 12:36:06 | 48.27281 | 17.19779 | 76° | 24km/h | 21923m | 8.5m/s | 0°C | 0% | 0hPa | 0V | 00:00:00 | 00:00:00 | 00:00:00 | |
| OE5MMP-10 | 2026-09-01 12:36:01 | 48.27273 | 17.19762 | 48° | 24km/h | 21908m | 6.5m/s | 0°C | 0% | 0hPa | 0V | 00:00:00 | 00:00:00 | 00:00:00 | |
| PETON7-10 | 2026-09-01 12:36:00 | 48.27268 | 17.19753 | 55° | 24km/h | 21902m | 6.9m/s | 0°C | 0% | 0hPa | 0V | 00:00:00 | 00:00:00 | 00:00:00 | |
| OE5MMP-10 | 2026-09-01 12:35:51 | 48.27251 | 17.19691 | 54° | 26km/h | 21842m | 4.6m/s | 0°C | 0% | 0hPa | 0V | 00:00:00 | 00:00:00 | 00:00:00 | |
| OE5DXL-15 | 2026-09-01 12:35:45 | 48.27218 | 17.19648 | 43° | 22km/h | 21805m | 7.3m/s | 0°C | 0% | 0hPa | 0V | 00:00:00 | 00:00:00 | 00:00:00 | |
| PG1ADW-2 | 2026-09-01 12:35:42 | 48.27206 | 17.19626 | 45° | 22km/h | 21785m | 7.0m/s | 0°C | 0% | 0hPa | 0V | 00:00:00 | 00:00:00 | 00:00:00 | |
| OE5MMP-10 | 2026-09-01 12:35:41 | 48.27202 | 17.19621 | 33° | 27km/h | 21780m | 2.8m/s | 0°C | 0% | 0hPa | 0V | 00:00:00 | 00:00:00 | 00:00:00 | |
| OE3OSB-13 | 2026-09-01 12:35:40 | 48.27191 | 17.19607 | 45° | 33km/h | 21769m | 5.5m/s | -52.7°C | 0.0% | 40.5hPa | 0V | 00:00:00 | 00:00:00 | 00:00:00 | |
| OE3JTB-15 | 2026-09-01 12:35:36 | 48.27163 | 17.19567 | 66° | 18km/h | 21736m | 5.2m/s | 0°C | 0% | 0hPa | 0V | 00:00:00 | 00:00:00 | 00:00:00 | |
| OE5MMP-10 | 2026-09-01 12:35:30 | 48.27155 | 17.19547 | 40° | 20km/h | 21719m | 6.1m/s | 0°C | 0% | 0hPa | 0V | 00:00:00 | 00:00:00 | 00:00:00 | |
| ATIDSZ-14 | 2026-09-01 12:35:25 | 48.27133 | 17.19510 | 49° | 22km/h | 21692m | 7.6m/s | 0°C | 0% | 0hPa | 0V | 00:00:00 | 00:00:00 | 00:00:00 | |
| OE5MMP-10 | 2026-09-01 12:35:18 | 48.27120 | 17.19468 | 85° | 18km/h | 21655m | 6.8m/s | 0°C | 0% | 0hPa | 0V | 00:00:00 | 00:00:00 | 00:00:00 | |
| OE5DXL-15 | 2026-09-01 12:35:15 | 48.27118 | 17.19450 | 74° | 16km/h | 21639m | 4.5m/s | 0°C | 0% | 0hPa | 0V | 00:00:00 | 00:00:00 | 00:00:00 | |
| PG1ADW-2 | 2026-09-01 12:35:10 | 48.27106 | 17.19413 | 97° | 20km/h | 21605m | 5.3m/s | 0°C | 0% | 0hPa | 0V | 00:00:00 | 00:00:00 | 00:00:00 | |
| OE3OSB-13 | 2026-09-01 12:35:09 | 48.27107 | 17.19407 | 108° | 16km/h | 21600m | 5.6m/s | -52.4°C | 0.0% | 41.7hPa | 0V | 00:00:00 | 00:00:00 | 00:00:00 | |
| OE3JTB-15 | 2026-09-01 12:35:07 | 48.27107 | 17.19390 | 86° | 16km/h | 21576m | 7.2m/s | 0°C | 0% | 0hPa | 0V | 00:00:00 | 00:00:00 | 00:00:00 | |
| ATIDSZ-14 | 2026-09-01 12:35:04 | 48.27107 | 17.19390 | 86° | 16km/h | 21576m | 7.2m/s | 0°C | 0% | 0hPa | 0V | 00:00:00 | 00:00:00 | 00:00:00 | |
| PETON7-10 | 2026-09-01 12:34:58 | 48.27106 | 17.19359 | 81° | 20km/h | 21544m | 4.6m/s | 0°C | 0% | 0hPa | 0V | 00:00:00 | 00:00:00 | 00:00:00 | |
| OE5MMP-10 | 2026-09-01 12:34:57 | 48.27107 | 17.19355 | 102° | 20km/h | 21538m | 6.8m/s | 0°C | 0% | 0hPa | 0V | 00:00:00 | 00:00:00 | 00:00:00 | |
| OE5DXL-15 | 2026-09-01 12:34:45 | 48.27091 | 17.19267 | 86° | 22km/h | 21468m | 5.8m/s | 0°C | 0% | 0hPa | 0V | 00:00:00 | 00:00:00 | 00:00:00 | |
| ATIDSZ-14 | 2026-09-01 12:34:44 | 48.27091 | 17.19258 | 88° | 27km/h | 21464m | 2.8m/s | 0°C | 0% | 0hPa | 0V | 00:00:00 | 00:00:00 | 00:00:00 | |
| OE5MMP-10 | 2026-09-01 12:34:43 | 48.27090 | 17.19248 | 84° | 22km/h | 21459m | 6.0m/s | 0°C | 0% | 0hPa | 0V | 00:00:00 | 00:00:00 | 00:00:00 | |
| PETON7-10 | 2026-09-01 12:34:41 | 48.27086 | 17.19231 | 59° | 27km/h | 21448m | 4.0m/s | 0°C | 0% | 0hPa | 0V | 00:00:00 | 00:00:00 | 00:00:00 | |
| OE3OSB-13 | 2026-09-01 12:34:38 | 48.27079 | 17.19202 | 81° | 13km/h | 21427m | 6.9m/s | -52.4°C | 0.0% | 43.0hPa | 0V | 00:00:00 | 00:00:00 | 00:00:00 | |
| OE3JTB-15 | 2026-09-01 12:34:35 | 48.27078 | 17.19167 | 86° | 26km/h | 21400m | 3.6m/s | 0°C | 0% | 0hPa | 0V | 00:00:00 | 00:00:00 | 00:00:00 | |
| OE5MMP-10 | 2026-09-01 12:34:32 | 48.27078 | 17.19167 | 86° | 22km/h | 21400m | 3.6m/s | 0°C | 0% | 0hPa | 0V | 00:00:00 | 00:00:00 | 00:00:00 | |
| ATIDSZ-14 | 2026-09-01 12:34:23 | 48.27069 | 17.19102 | 74° | 22km/h | 21349m | 6.8m/s | 0°C | 0% | 0hPa | 0V | 00:00:00 | 00:00:00 | 00:00:00 | |
| PETON7-10 | 2026-09-01 12:34:21 | 48.27068 | 17.19082 | 87° | 26km/h | 21338m | 4.0m/s | 0°C | 0% | 0hPa | 0V | 00:00:00 | 00:00:00 | 00:00:00 | |
| OE5DXL-15 | 2026-09-01 12:34:15 | 48.27060 | 17.19034 | 64° | 31km/h | 21303m | 6.5m/s | 0°C | 0% | 0hPa | 0V | 00:00:00 | 00:00:00 | 00:00:00 | |
| OE5MMP-10 | 2026-09-01 12:34:11 | 48.27047 | 17.19005 | 79° | 29km/h | 21279m | 6.5m/s | 0°C | 0% | 0hPa | 0V | 00:00:00 | 00:00:00 | 00:00:00 | |
| OE3JTB-15 | 2026-09-01 12:34:07 | 48.27032 | 17.18937 | 61° | 31km/h | 21238m | 4.6m/s | 0°C | 0% | 0hPa | 0V | 00:00:00 | 00:00:00 | 00:00:00 | |
| PG1ADW-2 | 2026-09-01 12:34:04 | 48.27032 | 17.18937 | 61° | 33km/h | 21238m | 4.6m/s | 0°C | 0% | 0hPa | 0V | 00:00:00 | 00:00:00 | 00:00:00 | |
| ATIDSZ-14 | 2026-09-01 12:34:02 | 48.27021 | 17.18916 | 49° | 33km/h | 21227m | 5.4m/s | 0°C | 0% | 0hPa | 0V | 00:00:00 | 00:00:00 | 00:00:00 | |
| OE5MMP-10 | 2026-09-01 12:34:01 | 48.27016 | 17.18906 | 57° | 33km/h | 21222m | 4.2m/s | 0°C | 0% | 0hPa | 0V | 00:00:00 | 00:00:00 | 00:00:00 | |
| PETON7-10 | 2026-09-01 12:33:58 | 48.27007 | 17.18873 | 73° | 35km/h | 21205m | 5.6m/s | 0°C | 0% | 0hPa | 0V | 00:00:00 | 00:00:00 | 00:00:00 | |
| OE5MMP-10 | 2026-09-01 12:33:50 | 48.26965 | 17.18801 | 34° | 33km/h | 21163m | 4.0m/s | 0°C | 0% | 0hPa | 0V | 00:00:00 | 00:00:00 | 00:00:00 | |
| OE5DXL-15 | 2026-09-01 12:33:45 | 48.26933 | 17.18755 | 43° | 29km/h | 21132m | 5.2m/s | 0°C | 0% | 0hPa | 0V | 00:00:00 | 00:00:00 | 00:00:00 | |
| ATIDSZ-14 | 2026-09-01 12:33:42 | 48.26917 | 17.18728 | 47° | 31km/h | 21113m | 5.0m/s | 0°C | 0% | 0hPa | 0V | 00:00:00 | 00:00:00 | 00:00:00 | |
| PETON7-10 | 2026-09-01 12:33:40 | 48.26905 | 17.18713 | 34° | 24km/h | 21103m | 3.3m/s | 0°C | 0% | 0hPa | 0V | 00:00:00 | 00:00:00 | 00:00:00 | |
| OE3OSB-13 | 2026-09-01 12:33:36 | 48.26871 | 17.18673 | 22° | 26km/h | 21074m | 6.0m/s | -53.3°C | 0.0% | 45.6hPa | 0V | 00:00:00 | 00:00:00 | 00:00:00 | |
| OE5MMP-10 | 2026-09-01 12:33:29 | 48.26834 | 17.18637 | 38° | 27km/h | 21042m | 3.2m/s | 0°C | 0% | 0hPa | 0V | 00:00:00 | 00:00:00 | 00:00:00 | |
| ATIDSZ-14 | 2026-09-01 12:33:22 | 48.26797 | 17.18603 | 9° | 20km/h | 21007m | 6.8m/s | 0°C | 0% | 0hPa | 0V | 00:00:00 | 00:00:00 | 00:00:00 | |
| OE5MMP-10 | 2026-09-01 12:33:19 | 48.26780 | 17.18590 | 34° | 24km/h | 20991m | 5.5m/s | 0°C | 0% | 0hPa | 0V | 00:00:00 | 00:00:00 | 00:00:00 | |
| PG1ADW-2 | 2026-09-01 12:33:17 | 48.26771 | 17.18576 | 55° | 15km/h | 20982m | 6.5m/s | 0°C | 0% | 0hPa | 0V | 00:00:00 | 00:00:00 | 00:00:00 | |
| OE5DXL-15 | 2026-09-01 12:33:15 | 48.26765 | 17.18559 | 60° | 16km/h | 20970m | 3.6m/s | 0°C | 0% | 0hPa | 0V | 00:00:00 | 00:00:00 | 00:00:00 | |
| OE5MMP-10 | 2026-09-01 12:33:09 | 48.26735 | 17.18538 | 14° | 16km/h | 20937m | 5.5m/s | 0°C | 0% | 0hPa | 0V | 00:00:00 | 00:00:00 | 00:00:00 | |
| OE3JTB-15 | 2026-09-01 12:33:07 | 48.26719 | 17.18516 | 80° | 15km/h | 20907m | 4.7m/s | 0°C | 0% | 0hPa | 0V | 00:00:00 | 00:00:00 | 00:00:00 | |
| OE3OSB-13 | 2026-09-01 12:33:05 | 48.26719 | 17.18516 | 79° | 13km/h | 20907m | 4.7m/s | -52.4°C | 0.0% | 47.0hPa | 0V | 00:00:00 | 00:00:00 | 00:00:00 | |
| ATIDSZ-14 | 2026-09-01 12:33:00 | 48.26706 | 17.18508 | 354° | 16km/h | 20885m | 6.9m/s | 0°C | 0% | 0hPa | 0V | 00:00:00 | 00:00:00 | 00:00:00 | |
| OE5MMP-10 | 2026-09-01 12:32:59 | 48.26702 | 17.18508 | 7° | 13km/h | 20878m | 5.4m/s | 0°C | 0% | 0hPa | 0V | 00:00:00 | 00:00:00 | 00:00:00 | |
| PETON7-10 | 2026-09-01 12:32:52 | 48.26689 | 17.18479 | 89° | 9km/h | 20846m | 2.9m/s | 0°C | 0% | 0hPa | 0V | 00:00:00 | 00:00:00 | 00:00:00 | |
| OE5MMP-10 | 2026-09-01 12:32:48 | 48.26676 | 17.18474 | 350° | 11km/h | 20823m | 6.3m/s | 0°C | 0% | 0hPa | 0V | 00:00:00 | 00:00:00 | 00:00:00 | |
| PG1ADW-2 | 2026-09-01 12:32:47 | 48.26673 | 17.18475 | 358° | 7km/h | 20817m | 4.6m/s | 0°C | 0% | 0hPa | 0V | 00:00:00 | 00:00:00 | 00:00:00 | |
| OE5DXL-15 | 2026-09-01 12:32:45 | 48.26670 | 17.18472 | 69° | 7km/h | 20808m | 5.8m/s | 0°C | 0% | 0hPa | 0V | 00:00:00 | 00:00:00 | 00:00:00 | |
| ATIDSZ-14 | 2026-09-01 12:32:41 | 48.26664 | 17.18470 | 293° | 11km/h | 20785m | 3.0m/s | 0°C | 0% | 0hPa | 0V | 00:00:00 | 00:00:00 | 00:00:00 | |
| OE5MMP-10 | 2026-09-01 12:32:37 | 48.26659 | 17.18474 | 9° | 7km/h | 20772m | 4.4m/s | 0°C | 0% | 0hPa | 0V | 00:00:00 | 00:00:00 | 00:00:00 | |
| OE3JTB-15 | 2026-09-01 12:32:36 | 48.26651 | 17.18477 | 359° | 7km/h | 20749m | 6.4m/s | 0°C | 0% | 0hPa | 0V | 00:00:00 | 00:00:00 | 00:00:00 | |
| OE3OSB-13 | 2026-09-01 12:32:34 | 48.26651 | 17.18477 | 358° | 13km/h | 20749m | 6.4m/s | -52.0°C | 0.0% | 48.2hPa | 0V | 00:00:00 | 00:00:00 | 00:00:00 | |
| OE5MMP-10 | 2026-09-01 12:32:26 | 48.26644 | 17.18477 | 63° | 7km/h | 20714m | 4.9m/s | 0°C | 0% | 0hPa | 0V | 00:00:00 | 00:00:00 | 00:00:00 | |
| PETON7-10 | 2026-09-01 12:32:22 | 48.26640 | 17.18476 | 31° | 7km/h | 20691m | 5.4m/s | 0°C | 0% | 0hPa | 0V | 00:00:00 | 00:00:00 | 00:00:00 | |
| ATIDSZ-14 | 2026-09-01 12:32:20 | 48.26634 | 17.18469 | 81° | 4km/h | 20673m | 4.5m/s | 0°C | 0% | 0hPa | 0V | 00:00:00 | 00:00:00 | 00:00:00 | |
| OE5MMP-10 | 2026-09-01 12:32:16 | 48.26632 | 17.18460 | 70° | 5km/h | 20658m | 3.1m/s | 0°C | 0% | 0hPa | 0V | 00:00:00 | 00:00:00 | 00:00:00 | |
| OE5DXL-15 | 2026-09-01 12:32:15 | 48.26632 | 17.18457 | 88° | 11km/h | 20654m | 6.1m/s | 0°C | 0% | 0hPa | 0V | 00:00:00 | 00:00:00 | 00:00:00 | |
| PG1ADW-2 | 2026-09-01 12:32:11 | 48.26632 | 17.18451 | 49° | 18km/h | 20630m | 5.5m/s | 0°C | 0% | 0hPa | 0V | 00:00:00 | 00:00:00 | 00:00:00 | |
| PETON7-10 | 2026-09-01 12:32:07 | 48.26632 | 17.18446 | 131° | 11km/h | 20608m | 5.4m/s | 0°C | 0% | 0hPa | 0V | 00:00:00 | 00:00:00 | 00:00:00 | |
| OE5MMP-10 | 2026-09-01 12:32:06 | 48.26631 | 17.18442 | 57° | 11km/h | 20599m | 3.0m/s | 0°C | 0% | 0hPa | 0V | 00:00:00 | 00:00:00 | 00:00:00 | |
| OE3OSB-13 | 2026-09-01 12:32:03 | 48.26633 | 17.18430 | 129° | 13km/h | 20583m | 4.3m/s | -51.6°C | 0.0% | 49.6hPa | 0V | 00:00:00 | 00:00:00 | 00:00:00 | |
| ATIDSZ-14 | 2026-09-01 12:31:59 | 48.26633 | 17.18416 | 65° | 15km/h | 20568m | 4.6m/s | 0°C | 0% | 0hPa | 0V | 00:00:00 | 00:00:00 | 00:00:00 | |
| OE5MMP-10 | 2026-09-01 12:31:54 | 48.26632 | 17.18395 | 81° | 16km/h | 20540m | 5.7m/s | 0°C | 0% | 0hPa | 0V | 00:00:00 | 00:00:00 | 00:00:00 | |
| PETON7-10 | 2026-09-01 12:31:52 | 48.26632 | 17.18383 | 97° | 20km/h | 20530m | 6.6m/s | 0°C | 0% | 0hPa | 0V | 00:00:00 | 00:00:00 | 00:00:00 | |
| OE5DXL-15 | 2026-09-01 12:31:45 | 48.26626 | 17.18344 | 72° | 26km/h | 20491m | 3.8m/s | 0°C | 0% | 0hPa | 0V | 00:00:00 | 00:00:00 | 00:00:00 | |
| OE5MMP-10 | 2026-09-01 12:31:43 | 48.26623 | 17.18328 | 72° | 26km/h | 20481m | 6.2m/s | 0°C | 0% | 0hPa | 0V | 00:00:00 | 00:00:00 | 00:00:00 | |
| ATIDSZ-14 | 2026-09-01 12:31:39 | 48.26617 | 17.18290 | 79° | 16km/h | 20460m | 4.3m/s | 0°C | 0% | 0hPa | 0V | 00:00:00 | 00:00:00 | 00:00:00 | |
| PETON7-10 | 2026-09-01 12:31:37 | 48.26613 | 17.18277 | 65° | 24km/h | 20450m | 4.3m/s | 0°C | 0% | 0hPa | 0V | 00:00:00 | 00:00:00 | 00:00:00 | |
| OE3OSB-13 | 2026-09-01 12:31:32 | 48.26595 | 17.18229 | 55° | 33km/h | 20418m | 5.1m/s | -52.0°C | 0.0% | 51.0hPa | 0V | 00:00:00 | 00:00:00 | 00:00:00 | |
| OE5MMP-10 | 2026-09-01 12:31:31 | 48.26595 | 17.18229 | 56° | 26km/h | 20418m | 5.0m/s | 0°C | 0% | 0hPa | 0V | 00:00:00 | 00:00:00 | 00:00:00 | |
| PETON7-10 | 2026-09-01 12:31:22 | 48.26565 | 17.18168 | 56° | 31km/h | 20368m | 5.7m/s | 0°C | 0% | 0hPa | 0V | 00:00:00 | 00:00:00 | 00:00:00 | |
| OE5MMP-10 | 2026-09-01 12:31:21 | 48.26560 | 17.18158 | 54° | 31km/h | 20363m | 4.0m/s | 0°C | 0% | 0hPa | 0V | 00:00:00 | 00:00:00 | 00:00:00 | |
| ATIDSZ-14 | 2026-09-01 12:31:19 | 48.26549 | 17.18136 | 54° | 33km/h | 20353m | 7.4m/s | 0°C | 0% | 0hPa | 0V | 00:00:00 | 00:00:00 | 00:00:00 | |
| OE5DXL-15 | 2026-09-01 12:31:16 | 48.26527 | 17.18106 | 35° | 26km/h | 20331m | 4.2m/s | 0°C | 0% | 0hPa | 0V | 00:00:00 | 00:00:00 | 00:00:00 | |
| OE5MMP-10 | 2026-09-01 12:31:10 | 48.26498 | 17.18077 | 36° | 27km/h | 20302m | 3.1m/s | 0°C | 0% | 0hPa | 0V | 00:00:00 | 00:00:00 | 00:00:00 | |
| PETON7-10 | 2026-09-01 12:31:07 | 48.26478 | 17.18054 | 40° | 24km/h | 20287m | 5.0m/s | 0°C | 0% | 0hPa | 0V | 00:00:00 | 00:00:00 | 00:00:00 | |
| OE3OSB-13 | 2026-09-01 12:31:01 | 48.26442 | 17.18025 | 19° | 24km/h | 20252m | 6.2m/s | -52.4°C | 0.0% | 52.5hPa | 0V | 00:00:00 | 00:00:00 | 00:00:00 | |
| ATIDSZ-14 | 2026-09-01 12:31:00 | 48.26436 | 17.18020 | 33° | 29km/h | 20247m | 5.2m/s | 0°C | 0% | 0hPa | 0V | 00:00:00 | 00:00:00 | 00:00:00 | |
| OE5MMP-10 | 2026-09-01 12:30:56 | 48.26420 | 17.17995 | 59° | 20km/h | 20230m | 6.4m/s | 0°C | 0% | 0hPa | 0V | 00:00:00 | 00:00:00 | 00:00:00 | |
| PETON7-10 | 2026-09-01 12:30:52 | 48.26408 | 17.17973 | 32° | 18km/h | 20209m | 4.0m/s | 0°C | 0% | 0hPa | 0V | 00:00:00 | 00:00:00 | 00:00:00 | |
| OE5MMP-10 | 2026-09-01 12:30:46 | 48.26388 | 17.17936 | 63° | 24km/h | 20177m | 6.5m/s | 0°C | 0% | 0hPa | 0V | 00:00:00 | 00:00:00 | 00:00:00 | |
| OE5DXL-15 | 2026-09-01 12:30:45 | 48.26387 | 17.17930 | 85° | 26km/h | 20170m | 7.4m/s | 0°C | 0% | 0hPa | 0V | 00:00:00 | 00:00:00 | 00:00:00 | |
| PG1ADW-2 | 2026-09-01 12:30:40 | 48.26383 | 17.17901 | 74° | 27km/h | 20141m | 5.8m/s | 0°C | 0% | 0hPa | 0V | 00:00:00 | 00:00:00 | 00:00:00 | |
| ATIDSZ-14 | 2026-09-01 12:30:38 | 48.26377 | 17.17883 | 58° | 31km/h | 20132m | 7.0m/s | 0°C | 0% | 0hPa | 0V | 00:00:00 | 00:00:00 | 00:00:00 | |
| PETON7-10 | 2026-09-01 12:30:37 | 48.26372 | 17.17872 | 52° | 24km/h | 20126m | 5.2m/s | 0°C | 0% | 0hPa | 0V | 00:00:00 | 00:00:00 | 00:00:00 | |
| OE5MMP-10 | 2026-09-01 12:30:36 | 48.26367 | 17.17862 | 50° | 26km/h | 20121m | 3.2m/s | 0°C | 0% | 0hPa | 0V | 00:00:00 | 00:00:00 | 00:00:00 | |
| OE3OSB-13 | 2026-09-01 12:30:30 | 48.26343 | 17.17829 | 29° | 20km/h | 20082m | 4.7m/s | -53.2°C | 0.0% | 54.0hPa | 0V | 00:00:00 | 00:00:00 | 00:00:00 | |
| OE5MMP-10 | 2026-09-01 12:30:26 | 48.26326 | 17.17803 | 51° | 29km/h | 20066m | 5.8m/s | 0°C | 0% | 0hPa | 0V | 00:00:00 | 00:00:00 | 00:00:00 | |
| PG1ADW-2 | 2026-09-01 12:30:20 | 48.26290 | 17.17776 | 357° | 18km/h | 20033m | 3.7m/s | 0°C | 0% | 0hPa | 0V | 00:00:00 | 00:00:00 | 00:00:00 | |
| ATIDSZ-14 | 2026-09-01 12:30:19 | 48.26265 | 17.17777 | 7° | 37km/h | 20017m | 6.0m/s | 0°C | 0% | 0hPa | 0V | 00:00:00 | 00:00:00 | 00:00:00 | |
| OE5MMP-10 | 2026-09-01 12:30:17 | 48.26246 | 17.17771 | 22° | 27km/h | 20004m | 5.3m/s | 0°C | 0% | 0hPa | 0V | 00:00:00 | 00:00:00 | 00:00:00 | |
| OE5DXL-15 | 2026-09-01 12:30:15 | 48.26246 | 17.17771 | 22° | 20km/h | 20004m | 5.3m/s | 0°C | 0% | 0hPa | 0V | 00:00:00 | 00:00:00 | 00:00:00 | |
| OE3JTB-15 | 2026-09-01 12:30:09 | 48.26187 | 17.17745 | 10° | 15km/h | 19947m | 6.3m/s | 0°C | 0% | 0hPa | 0V | 00:00:00 | 00:00:00 | 00:00:00 | |
| OE5MMP-10 | 2026-09-01 12:30:05 | 48.26187 | 17.17745 | 10° | 18km/h | 19947m | 6.3m/s | 0°C | 0% | 0hPa | 0V | 00:00:00 | 00:00:00 | 00:00:00 | |
| PETON7-10 | 2026-09-01 12:30:00 | 48.26161 | 17.17740 | 11° | 15km/h | 19919m | 7.1m/s | 0°C | 0% | 0hPa | 0V | 00:00:00 | 00:00:00 | 00:00:00 | |
| ATIDSZ-14 | 2026-09-01 12:29:56 | 48.26148 | 17.17734 | 40° | 13km/h | 19898m | 2.7m/s | 0°C | 0% | 0hPa | 0V | 00:00:00 | 00:00:00 | 00:00:00 | |
| OE5DXL-15 | 2026-09-01 12:29:45 | 48.26119 | 17.17714 | 117° | 11km/h | 19837m | 3.3m/s | 0°C | 0% | 0hPa | 0V | 00:00:00 | 00:00:00 | 00:00:00 | |
| OE3JTB-15 | 2026-09-01 12:29:36 | 48.26109 | 17.17686 | 104° | 16km/h | 19762m | 5.2m/s | 0°C | 0% | 0hPa | 0V | 00:00:00 | 00:00:00 | 00:00:00 | |
| OE5MMP-10 | 2026-09-01 12:29:30 | 48.26109 | 17.17681 | 73° | 9km/h | 19750m | 3.8m/s | 0°C | 0% | 0hPa | 0V | 00:00:00 | 00:00:00 | 00:00:00 | |
| OE3OSB-13 | 2026-09-01 12:29:27 | 48.26115 | 17.17674 | 141° | 7km/h | 19729m | 7.2m/s | -53.8°C | 0.0% | 57.3hPa | 0V | 00:00:00 | 00:00:00 | 00:00:00 | |
| OE5MMP-10 | 2026-09-01 12:29:18 | 48.26130 | 17.17640 | 148° | 20km/h | 19687m | 6.6m/s | 0°C | 0% | 0hPa | 0V | 00:00:00 | 00:00:00 | 00:00:00 | |
| OE5DXL-15 | 2026-09-01 12:29:15 | 48.26136 | 17.17631 | 111° | 26km/h | 19673m | 7.3m/s | 0°C | 0% | 0hPa | 0V | 00:00:00 | 00:00:00 | 00:00:00 | |
| PETON7-10 | 2026-09-01 12:29:13 | 48.26138 | 17.17616 | 109° | 27km/h | 19660m | 6.6m/s | 0°C | 0% | 0hPa | 0V | 00:00:00 | 00:00:00 | 00:00:00 | |
| OE5MMP-10 | 2026-09-01 12:29:09 | 48.26153 | 17.17569 | 104° | 29km/h | 19633m | 5.3m/s | 0°C | 0% | 0hPa | 0V | 00:00:00 | 00:00:00 | 00:00:00 | |
| OE3JTB-15 | 2026-09-01 12:29:06 | 48.26164 | 17.17516 | 109° | 26km/h | 19600m | 5.6m/s | 0°C | 0% | 0hPa | 0V | 00:00:00 | 00:00:00 | 00:00:00 | |
| PETON7-10 | 2026-09-01 12:28:56 | 48.26174 | 17.17451 | 102° | 22km/h | 19567m | 4.9m/s | 0°C | 0% | 0hPa | 0V | 00:00:00 | 00:00:00 | 00:00:00 | |
| ATIDSZ-14 | 2026-09-01 12:28:52 | 48.26179 | 17.17410 | 99° | 33km/h | 19548m | 3.5m/s | 0°C | 0% | 0hPa | 0V | 00:00:00 | 00:00:00 | 00:00:00 | |
| OE5MMP-10 | 2026-09-01 12:28:46 | 48.26185 | 17.17351 | 87° | 22km/h | 19516m | 5.8m/s | 0°C | 0% | 0hPa | 0V | 00:00:00 | 00:00:00 | 00:00:00 | |
| OE5DXL-15 | 2026-09-01 12:28:45 | 48.26185 | 17.17343 | 94° | 24km/h | 19511m | 4.5m/s | 0°C | 0% | 0hPa | 0V | 00:00:00 | 00:00:00 | 00:00:00 | |
| PETON7-10 | 2026-09-01 12:28:40 | 48.26184 | 17.17308 | 96° | 24km/h | 19484m | 5.8m/s | 0°C | 0% | 0hPa | 0V | 00:00:00 | 00:00:00 | 00:00:00 | |
| OE5MMP-10 | 2026-09-01 12:28:34 | 48.26184 | 17.17246 | 83° | 24km/h | 19454m | 6.7m/s | 0°C | 0% | 0hPa | 0V | 00:00:00 | 00:00:00 | 00:00:00 | |
| ATIDSZ-14 | 2026-09-01 12:28:32 | 48.26179 | 17.17230 | 50° | 20km/h | 19437m | 6.4m/s | 0°C | 0% | 0hPa | 0V | 00:00:00 | 00:00:00 | 00:00:00 | |
| PETON7-10 | 2026-09-01 12:28:25 | 48.26168 | 17.17169 | 74° | 22km/h | 19405m | 4.1m/s | 0°C | 0% | 0hPa | 0V | 00:00:00 | 00:00:00 | 00:00:00 | |
| OE5MMP-10 | 2026-09-01 12:28:23 | 48.26164 | 17.17147 | 80° | 24km/h | 19395m | 3.9m/s | 0°C | 0% | 0hPa | 0V | 00:00:00 | 00:00:00 | 00:00:00 | |
| OE5DXL-15 | 2026-09-01 12:28:15 | 48.26150 | 17.17077 | 72° | 16km/h | 19351m | 3.5m/s | 0°C | 0% | 0hPa | 0V | 00:00:00 | 00:00:00 | 00:00:00 | |
| OE5MMP-10 | 2026-09-01 12:28:13 | 48.26146 | 17.17058 | 77° | 18km/h | 19341m | 4.8m/s | 0°C | 0% | 0hPa | 0V | 00:00:00 | 00:00:00 | 00:00:00 | |
| ATIDSZ-14 | 2026-09-01 12:28:11 | 48.26142 | 17.17047 | 49° | 18km/h | 19330m | 6.7m/s | 0°C | 0% | 0hPa | 0V | 00:00:00 | 00:00:00 | 00:00:00 | |
| PETON7-10 | 2026-09-01 12:28:06 | 48.26134 | 17.17017 | 78° | 16km/h | 19301m | 6.6m/s | 0°C | 0% | 0hPa | 0V | 00:00:00 | 00:00:00 | 00:00:00 | |
| OE5MMP-10 | 2026-09-01 12:28:01 | 48.26123 | 17.16990 | 12° | 16km/h | 19276m | 6.5m/s | 0°C | 0% | 0hPa | 0V | 00:00:00 | 00:00:00 | 00:00:00 | |
| OE3OSB-13 | 2026-09-01 12:27:55 | 48.26100 | 17.16962 | 40° | 13km/h | 19233m | 6.3m/s | -54.0°C | 0.0% | 62.2hPa | 0V | 00:00:00 | 00:00:00 | 00:00:00 | |
| ATIDSZ-14 | 2026-09-01 12:27:51 | 48.26094 | 17.16958 | 20° | 15km/h | 19222m | 5.2m/s | 0°C | 0% | 0hPa | 0V | 00:00:00 | 00:00:00 | 00:00:00 | |
| PETON7-10 | 2026-09-01 12:27:50 | 48.26090 | 17.16956 | 14° | 9km/h | 19216m | 6.7m/s | 0°C | 0% | 0hPa | 0V | 00:00:00 | 00:00:00 | 00:00:00 | |
| OE5DXL-15 | 2026-09-01 12:27:45 | 48.26076 | 17.16947 | 33° | 9km/h | 19190m | 7.3m/s | 0°C | 0% | 0hPa | 0V | 00:00:00 | 00:00:00 | 00:00:00 | |
| OE5MMP-10 | 2026-09-01 12:27:41 | 48.26067 | 17.16942 | 28° | 5km/h | 19167m | 4.0m/s | 0°C | 0% | 0hPa | 0V | 00:00:00 | 00:00:00 | 00:00:00 | |
| PETON7-10 | 2026-09-01 12:27:33 | 48.26054 | 17.16940 | 345° | 11km/h | 19123m | 6.2m/s | 0°C | 0% | 0hPa | 0V | 00:00:00 | 00:00:00 | 00:00:00 | |
| OE5MMP-10 | 2026-09-01 12:27:31 | 48.26050 | 17.16942 | 334° | 9km/h | 19112m | 4.6m/s | 0°C | 0% | 0hPa | 0V | 00:00:00 | 00:00:00 | 00:00:00 | |
| ATIDSZ-14 | 2026-09-01 12:27:29 | 48.26046 | 17.16946 | 317° | 11km/h | 19100m | 5.5m/s | 0°C | 0% | 0hPa | 0V | 00:00:00 | 00:00:00 | 00:00:00 | |
| OE3OSB-13 | 2026-09-01 12:27:23 | 48.26040 | 17.16961 | 334° | 9km/h | 19060m | 6.5m/s | -52.8°C | 0.0% | 64.0hPa | 0V | 00:00:00 | 00:00:00 | 00:00:00 | |
| OE5MMP-10 | 2026-09-01 12:27:19 | 48.26030 | 17.16966 | 333° | 13km/h | 19043m | 5.0m/s | 0°C | 0% | 0hPa | 0V | 00:00:00 | 00:00:00 | 00:00:00 | |
| PETON7-10 | 2026-09-01 12:27:18 | 48.26028 | 17.16968 | 329° | 9km/h | 19037m | 6.8m/s | 0°C | 0% | 0hPa | 0V | 00:00:00 | 00:00:00 | 00:00:00 | |
| OE5DXL-15 | 2026-09-01 12:27:15 | 48.26027 | 17.16972 | 298° | 9km/h | 19023m | 5.5m/s | 0°C | 0% | 0hPa | 0V | 00:00:00 | 00:00:00 | 00:00:00 | |
| OE5MMP-10 | 2026-09-01 12:27:09 | 48.26007 | 17.16985 | 338° | 9km/h | 18990m | 6.2m/s | 0°C | 0% | 0hPa | 0V | 00:00:00 | 00:00:00 | 00:00:00 | |
| OE3OSB-13 | 2026-09-01 12:26:52 | 48.25997 | 17.17008 | 294° | 2km/h | 18892m | 4.5m/s | -52.3°C | 0.0% | 65.9hPa | 0V | 00:00:00 | 00:00:00 | 00:00:00 | |
| PETON7-10 | 2026-09-01 12:26:50 | 48.25997 | 17.17009 | 238° | 13km/h | 18887m | 6.4m/s | 0°C | 0% | 0hPa | 0V | 00:00:00 | 00:00:00 | 00:00:00 | |
| OE5MMP-10 | 2026-09-01 12:26:49 | 48.25998 | 17.17010 | 219° | 16km/h | 18881m | 4.7m/s | 0°C | 0% | 0hPa | 0V | 00:00:00 | 00:00:00 | 00:00:00 | |
| OE5DXL-15 | 2026-09-01 12:26:45 | 48.25997 | 17.17012 | 70° | 20km/h | 18859m | 4.0m/s | 0°C | 0% | 0hPa | 0V | 00:00:00 | 00:00:00 | 00:00:00 | |
| OE5MMP-10 | 2026-09-01 12:26:38 | 48.26023 | 17.16998 | 30° | 15km/h | 18818m | 8.6m/s | 0°C | 0% | 0hPa | 0V | 00:00:00 | 00:00:00 | 00:00:00 | |
| PETON7-10 | 2026-09-01 12:26:35 | 48.26011 | 17.16980 | 52° | 18km/h | 18797m | 5.9m/s | 0°C | 0% | 0hPa | 0V | 00:00:00 | 00:00:00 | 00:00:00 | |
| OE3JTB-15 | 2026-09-01 12:26:32 | 48.26017 | 17.16946 | 88° | 20km/h | 18759m | 5.6m/s | 0°C | 0% | 0hPa | 0V | 00:00:00 | 00:00:00 | 00:00:00 | |
| ATIDSZ-14 | 2026-09-01 12:26:28 | 48.26016 | 17.16938 | 68° | 24km/h | 18753m | 6.2m/s | 0°C | 0% | 0hPa | 0V | 00:00:00 | 00:00:00 | 00:00:00 | |
| OE5MMP-10 | 2026-09-01 12:26:26 | 48.26010 | 17.16926 | 39° | 20km/h | 18741m | 4.1m/s | 0°C | 0% | 0hPa | 0V | 00:00:00 | 00:00:00 | 00:00:00 | |
| OE3OSB-13 | 2026-09-01 12:26:21 | 48.26013 | 17.16885 | 71° | 20km/h | 18705m | 6.2m/s | -51.1°C | 0.0% | 68.0hPa | 0V | 00:00:00 | 00:00:00 | 00:00:00 | |
| OE5MMP-10 | 2026-09-01 12:26:16 | 48.26006 | 17.16866 | 89° | 24km/h | 18682m | 6.5m/s | 0°C | 0% | 0hPa | 0V | 00:00:00 | 00:00:00 | 00:00:00 | |
| OE5DXL-15 | 2026-09-01 12:26:14 | 48.26007 | 17.16850 | 94° | 24km/h | 18672m | 5.3m/s | 0°C | 0% | 0hPa | 0V | 00:00:00 | 00:00:00 | 00:00:00 | |
| ATIDSZ-14 | 2026-09-01 12:26:07 | 48.25991 | 17.16793 | 53° | 35km/h | 18634m | 4.0m/s | 0°C | 0% | 0hPa | 0V | 00:00:00 | 00:00:00 | 00:00:00 | |
| OE5MMP-10 | 2026-09-01 12:26:05 | 48.25985 | 17.16773 | 82° | 26km/h | 18623m | 6.1m/s | 0°C | 0% | 0hPa | 0V | 00:00:00 | 00:00:00 | 00:00:00 | |
| OE3JTB-15 | 2026-09-01 12:26:03 | 48.25986 | 17.16740 | 93° | 31km/h | 18596m | 5.6m/s | 0°C | 0% | 0hPa | 0V | 00:00:00 | 00:00:00 | 00:00:00 | |
| OE3OSB-13 | 2026-09-01 12:25:50 | 48.25965 | 17.16634 | 87° | 29km/h | 18537m | 4.7m/s | -51.3°C | 0.0% | 69.8hPa | 0V | 00:00:00 | 00:00:00 | 00:00:00 | |
| ATIDSZ-14 | 2026-09-01 12:25:47 | 48.25962 | 17.16612 | 70° | 29km/h | 18527m | 5.7m/s | 0°C | 0% | 0hPa | 0V | 00:00:00 | 00:00:00 | 00:00:00 | |
| OE5MMP-10 | 2026-09-01 12:25:45 | 48.25956 | 17.16590 | 72° | 33km/h | 18516m | 6.7m/s | 0°C | 0% | 0hPa | 0V | 00:00:00 | 00:00:00 | 00:00:00 | |
| OE5DXL-15 | 2026-09-01 12:25:44 | 48.25954 | 17.16578 | 76° | 37km/h | 18511m | 4.9m/s | 0°C | 0% | 0hPa | 0V | 00:00:00 | 00:00:00 | 00:00:00 | |
| PETON7-10 | 2026-09-01 12:25:40 | 48.25940 | 17.16536 | 65° | 38km/h | 18489m | 7.3m/s | 0°C | 0% | 0hPa | 0V | 00:00:00 | 00:00:00 | 00:00:00 | |
| OE5MMP-10 | 2026-09-01 12:25:35 | 48.25928 | 17.16472 | 73° | 40km/h | 18462m | 6.9m/s | 0°C | 0% | 0hPa | 0V | 00:00:00 | 00:00:00 | 00:00:00 | |
| ATIDSZ-14 | 2026-09-01 12:25:27 | 48.25903 | 17.16352 | 69° | 38km/h | 18415m | 4.2m/s | 0°C | 0% | 0hPa | 0V | 00:00:00 | 00:00:00 | 00:00:00 | |
| PG1ADW-2 | 2026-09-01 12:25:25 | 48.25896 | 17.16323 | 74° | 44km/h | 18404m | 3.5m/s | 0°C | 0% | 0hPa | 0V | 00:00:00 | 00:00:00 | 00:00:00 | |
| OE5MMP-10 | 2026-09-01 12:25:22 | 48.25891 | 17.16295 | 72° | 42km/h | 18394m | 5.1m/s | 0°C | 0% | 0hPa | 0V | 00:00:00 | 00:00:00 | 00:00:00 | |
| OE3OSB-13 | 2026-09-01 12:25:19 | 48.25875 | 17.16221 | 73° | 42km/h | 18368m | 5.2m/s | -52.5°C | 0.0% | 71.8hPa | 0V | 00:00:00 | 00:00:00 | 00:00:00 | |
| OE5DXL-15 | 2026-09-01 12:25:14 | 48.25864 | 17.16176 | 67° | 40km/h | 18353m | 6.1m/s | 0°C | 0% | 0hPa | 0V | 00:00:00 | 00:00:00 | 00:00:00 | |
| ATIDSZ-14 | 2026-09-01 12:25:05 | 48.25817 | 17.16056 | 55° | 47km/h | 18305m | 6.9m/s | 0°C | 0% | 0hPa | 0V | 00:00:00 | 00:00:00 | 00:00:00 | |
| PETON7-10 | 2026-09-01 12:25:03 | 48.25802 | 17.16026 | 49° | 40km/h | 18293m | 5.6m/s | 0°C | 0% | 0hPa | 0V | 00:00:00 | 00:00:00 | 00:00:00 | |
| PG1ADW-2 | 2026-09-01 12:25:02 | 48.25794 | 17.16014 | 44° | 44km/h | 18287m | 6.1m/s | 0°C | 0% | 0hPa | 0V | 00:00:00 | 00:00:00 | 00:00:00 | |
| OE3OSB-13 | 2026-09-01 12:24:48 | 48.25690 | 17.15842 | 53° | 33km/h | 18207m | 4.4m/s | -52.4°C | 0.0% | 73.7hPa | 0V | 00:00:00 | 00:00:00 | 00:00:00 | |
| ATIDSZ-14 | 2026-09-01 12:24:46 | 48.25680 | 17.15820 | 59° | 40km/h | 18199m | 6.1m/s | 0°C | 0% | 0hPa | 0V | 00:00:00 | 00:00:00 | 00:00:00 | |
| OE5DXL-15 | 2026-09-01 12:24:44 | 48.25673 | 17.15807 | 53° | 37km/h | 18193m | 6.4m/s | 0°C | 0% | 0hPa | 0V | 00:00:00 | 00:00:00 | 00:00:00 | |
| PG1ADW-2 | 2026-09-01 12:24:41 | 48.25650 | 17.15771 | 41° | 37km/h | 18180m | 5.5m/s | 0°C | 0% | 0hPa | 0V | 00:00:00 | 00:00:00 | 00:00:00 | |
| OE3JTB-15 | 2026-09-01 12:24:36 | 48.25610 | 17.15684 | 54° | 37km/h | 18134m | 4.7m/s | 0°C | 0% | 0hPa | 0V | 00:00:00 | 00:00:00 | 00:00:00 | |
| PETON7-10 | 2026-09-01 12:24:31 | 48.25598 | 17.15660 | 50° | 35km/h | 18125m | 3.4m/s | 0°C | 0% | 0hPa | 0V | 00:00:00 | 00:00:00 | 00:00:00 | |
| ATIDSZ-14 | 2026-09-01 12:24:25 | 48.25574 | 17.15601 | 52° | 29km/h | 18097m | 5.0m/s | 0°C | 0% | 0hPa | 0V | 00:00:00 | 00:00:00 | 00:00:00 | |
| PG1ADW-2 | 2026-09-01 12:24:18 | 48.25530 | 17.15525 | 57° | 46km/h | 18059m | 6.8m/s | 0°C | 0% | 0hPa | 0V | 00:00:00 | 00:00:00 | 00:00:00 | |
| OE3OSB-13 | 2026-09-01 12:24:17 | 48.25521 | 17.15502 | 63° | 29km/h | 18048m | 6.5m/s | -53.9°C | 0.0% | 75.7hPa | 0V | 00:00:00 | 00:00:00 | 00:00:00 | |
| PETON7-10 | 2026-09-01 12:24:16 | 48.25521 | 17.15502 | 64° | 38km/h | 18048m | 6.5m/s | 0°C | 0% | 0hPa | 0V | 00:00:00 | 00:00:00 | 00:00:00 | |
| OE5DXL-15 | 2026-09-01 12:24:14 | 48.25515 | 17.15481 | 72° | 35km/h | 18037m | 2.7m/s | 0°C | 0% | 0hPa | 0V | 00:00:00 | 00:00:00 | 00:00:00 | |
| ATIDSZ-14 | 2026-09-01 12:24:04 | 48.25491 | 17.15353 | 85° | 38km/h | 17986m | 6.3m/s | 0°C | 0% | 0hPa | 0V | 00:00:00 | 00:00:00 | 00:00:00 | |
| PETON7-10 | 2026-09-01 12:24:01 | 48.25486 | 17.15318 | 89° | 33km/h | 17971m | 4.9m/s | 0°C | 0% | 0hPa | 0V | 00:00:00 | 00:00:00 | 00:00:00 | |
| OE3OSB-13 | 2026-09-01 12:23:47 | 48.25504 | 17.15105 | 104° | 40km/h | 17886m | 6.4m/s | -54.3°C | 0.0% | 77.7hPa | 0V | 00:00:00 | 00:00:00 | 00:00:00 | |
| OE5DXL-15 | 2026-09-01 12:23:44 | 48.25506 | 17.15089 | 100° | 40km/h | 17879m | 6.1m/s | 0°C | 0% | 0hPa | 0V | 00:00:00 | 00:00:00 | 00:00:00 | |
| ATIDSZ-14 | 2026-09-01 12:23:43 | 48.25508 | 17.15075 | 98° | 38km/h | 17873m | 5.5m/s | 0°C | 0% | 0hPa | 0V | 00:00:00 | 00:00:00 | 00:00:00 | |
| OE3JTB-15 | 2026-09-01 12:23:35 | 48.25524 | 17.14916 | 98° | 46km/h | 17816m | 5.5m/s | 0°C | 0% | 0hPa | 0V | 00:00:00 | 00:00:00 | 00:00:00 | |
| PETON7-10 | 2026-09-01 12:23:30 | 48.25526 | 17.14884 | 97° | 40km/h | 17807m | 6.3m/s | 0°C | 0% | 0hPa | 0V | 00:00:00 | 00:00:00 | 00:00:00 | |
| ATIDSZ-14 | 2026-09-01 12:23:22 | 48.25544 | 17.14768 | 100° | 46km/h | 17766m | 6.3m/s | 0°C | 0% | 0hPa | 0V | 00:00:00 | 00:00:00 | 00:00:00 | |
| OE5DXL-15 | 2026-09-01 12:23:15 | 48.25562 | 17.14644 | 106° | 53km/h | 17726m | 5.7m/s | 0°C | 0% | 0hPa | 0V | 00:00:00 | 00:00:00 | 00:00:00 | |
| OE3JTB-15 | 2026-09-01 12:23:05 | 48.25581 | 17.14412 | 97° | 51km/h | 17663m | 7.1m/s | 0°C | 0% | 0hPa | 0V | 00:00:00 | 00:00:00 | 00:00:00 | |
| ATIDSZ-14 | 2026-09-01 12:23:02 | 48.25581 | 17.14412 | 98° | 57km/h | 17663m | 7.2m/s | 0°C | 0% | 0hPa | 0V | 00:00:00 | 00:00:00 | 00:00:00 | |
| OE3OSB-13 | 2026-09-01 12:22:44 | 48.25570 | 17.14042 | 79° | 53km/h | 17561m | 8.8m/s | -56.4°C | 0.0% | 82.0hPa | 0V | 00:00:00 | 00:00:00 | 00:00:00 | |
| ATIDSZ-14 | 2026-09-01 12:22:43 | 48.25568 | 17.14021 | 81° | 58km/h | 17555m | 3.3m/s | 0°C | 0% | 0hPa | 0V | 00:00:00 | 00:00:00 | 00:00:00 | |
| OE3JTB-15 | 2026-09-01 12:22:34 | 48.25531 | 17.13851 | 79° | 35km/h | 17493m | 3.8m/s | 0°C | 0% | 0hPa | 0V | 00:00:00 | 00:00:00 | 00:00:00 | |
| PETON7-10 | 2026-09-01 12:22:30 | 48.25525 | 17.13823 | 61° | 33km/h | 17482m | 5.4m/s | 0°C | 0% | 0hPa | 0V | 00:00:00 | 00:00:00 | 00:00:00 | |
| PG1ADW-2 | 2026-09-01 12:22:24 | 48.25497 | 17.13761 | 65° | 33km/h | 17449m | 3.2m/s | 0°C | 0% | 0hPa | 0V | 00:00:00 | 00:00:00 | 00:00:00 | |
| ATIDSZ-14 | 2026-09-01 12:22:23 | 48.25493 | 17.13748 | 71° | 40km/h | 17444m | 6.7m/s | 0°C | 0% | 0hPa | 0V | 00:00:00 | 00:00:00 | 00:00:00 | |
| OE3OSB-13 | 2026-09-01 12:22:14 | 48.25454 | 17.13629 | 65° | 40km/h | 17394m | 5.3m/s | -55.9°C | 0.0% | 84.4hPa | 0V | 00:00:00 | 00:00:00 | 00:00:00 | |
| PG1ADW-2 | 2026-09-01 12:22:03 | 48.25413 | 17.13530 | 57° | 33km/h | 17349m | 6.4m/s | 0°C | 0% | 0hPa | 0V | 00:00:00 | 00:00:00 | 00:00:00 | |
| ATIDSZ-14 | 2026-09-01 12:22:01 | 48.25404 | 17.13509 | 59° | 33km/h | 17339m | 4.8m/s | 0°C | 0% | 0hPa | 0V | 00:00:00 | 00:00:00 | 00:00:00 | |
| PETON7-10 | 2026-09-01 12:21:59 | 48.25395 | 17.13486 | 64° | 31km/h | 17330m | 3.9m/s | 0°C | 0% | 0hPa | 0V | 00:00:00 | 00:00:00 | 00:00:00 | |
| OE5DXL-15 | 2026-09-01 12:21:44 | 48.25324 | 17.13331 | 54° | 24km/h | 17258m | 7.4m/s | 0°C | 0% | 0hPa | 0V | 00:00:00 | 00:00:00 | 00:00:00 | |
| OE3OSB-13 | 2026-09-01 12:21:42 | 48.25309 | 17.13311 | 44° | 24km/h | 17243m | 6.4m/s | -55.8°C | 0.0% | 86.5hPa | 0V | 00:00:00 | 00:00:00 | 00:00:00 | |
| PETON7-10 | 2026-09-01 12:21:41 | 48.25309 | 17.13311 | 45° | 26km/h | 17243m | 6.4m/s | 0°C | 0% | 0hPa | 0V | 00:00:00 | 00:00:00 | 00:00:00 | |
| OE3JTB-15 | 2026-09-01 12:21:32 | 48.25259 | 17.13223 | 48° | 15km/h | 17185m | 5.9m/s | 0°C | 0% | 0hPa | 0V | 00:00:00 | 00:00:00 | 00:00:00 | |
| PETON7-10 | 2026-09-01 12:21:25 | 48.25241 | 17.13188 | 78° | 13km/h | 17163m | 6.6m/s | 0°C | 0% | 0hPa | 0V | 00:00:00 | 00:00:00 | 00:00:00 | |
| ATIDSZ-14 | 2026-09-01 12:21:21 | 48.25235 | 17.13172 | 35° | 15km/h | 17140m | 4.5m/s | 0°C | 0% | 0hPa | 0V | 00:00:00 | 00:00:00 | 00:00:00 | |
| OE5DXL-15 | 2026-09-01 12:21:14 | 48.25218 | 17.13148 | 56° | 11km/h | 17104m | 2.9m/s | 0°C | 0% | 0hPa | 0V | 00:00:00 | 00:00:00 | 00:00:00 | |
| OE3OSB-13 | 2026-09-01 12:21:10 | 48.25212 | 17.13134 | 66° | 13km/h | 17079m | 6.1m/s | -55.4°C | 0.0% | 88.9hPa | 0V | 00:00:00 | 00:00:00 | 00:00:00 | |
| PETON7-10 | 2026-09-01 12:21:07 | 48.25207 | 17.13125 | 51° | 13km/h | 17070m | 2.3m/s | 0°C | 0% | 0hPa | 0V | 00:00:00 | 00:00:00 | 00:00:00 | |
| ATIDSZ-14 | 2026-09-01 12:21:01 | 48.25200 | 17.13102 | 69° | 11km/h | 17039m | 7.6m/s | 0°C | 0% | 0hPa | 0V | 00:00:00 | 00:00:00 | 00:00:00 | |
| OE3JTB-15 | 2026-09-01 12:21:00 | 48.25197 | 17.13085 | 68° | 13km/h | 17012m | 6.7m/s | 0°C | 0% | 0hPa | 0V | 00:00:00 | 00:00:00 | 00:00:00 | |
| PETON7-10 | 2026-09-01 12:20:51 | 48.25191 | 17.13067 | 81° | 13km/h | 16986m | 7.0m/s | 0°C | 0% | 0hPa | 0V | 00:00:00 | 00:00:00 | 00:00:00 | |
| OE5DXL-15 | 2026-09-01 12:20:44 | 48.25188 | 17.13034 | 39° | 11km/h | 16949m | 5.6m/s | 0°C | 0% | 0hPa | 0V | 00:00:00 | 00:00:00 | 00:00:00 | |
| OE3OSB-13 | 2026-09-01 12:20:40 | 48.25183 | 17.13011 | 85° | 11km/h | 16920m | 5.5m/s | -54.3°C | 0.0% | 91.2hPa | 0V | 00:00:00 | 00:00:00 | 00:00:00 | |
| PG1ADW-2 | 2026-09-01 12:20:34 | 48.25184 | 17.12995 | 114° | 13km/h | 16901m | 4.6m/s | 0°C | 0% | 0hPa | 0V | 00:00:00 | 00:00:00 | 00:00:00 | |
| OE3JTB-15 | 2026-09-01 12:20:31 | 48.25183 | 17.12970 | 81° | 9km/h | 16869m | 6.5m/s | 0°C | 0% | 0hPa | 0V | 00:00:00 | 00:00:00 | 00:00:00 | |
| ATIDSZ-14 | 2026-09-01 12:20:19 | 48.25180 | 17.12937 | 104° | 11km/h | 16824m | 5.7m/s | 0°C | 0% | 0hPa | 0V | 00:00:00 | 00:00:00 | 00:00:00 | |
| OE5DXL-15 | 2026-09-01 12:20:13 | 48.25176 | 17.12913 | 74° | 15km/h | 16790m | 7.3m/s | 0°C | 0% | 0hPa | 0V | 00:00:00 | 00:00:00 | 00:00:00 | |
| PG1ADW-2 | 2026-09-01 12:20:12 | 48.25175 | 17.12909 | 79° | 13km/h | 16785m | 2.9m/s | 0°C | 0% | 0hPa | 0V | 00:00:00 | 00:00:00 | 00:00:00 | |
| OE3JTB-15 | 2026-09-01 12:20:02 | 48.25174 | 17.12858 | 104° | 15km/h | 16715m | 5.9m/s | 0°C | 0% | 0hPa | 0V | 00:00:00 | 00:00:00 | 00:00:00 | |
| ATIDSZ-14 | 2026-09-01 12:19:59 | 48.25173 | 17.12858 | 105° | 22km/h | 16715m | 5.9m/s | 0°C | 0% | 0hPa | 0V | 00:00:00 | 00:00:00 | 00:00:00 | |
| PETON7-10 | 2026-09-01 12:19:56 | 48.25173 | 17.12839 | 86° | 11km/h | 16700m | 6.8m/s | 0°C | 0% | 0hPa | 0V | 00:00:00 | 00:00:00 | 00:00:00 | |
| OE5DXL-15 | 2026-09-01 12:19:43 | 48.25182 | 17.12775 | 129° | 18km/h | 16630m | 7.1m/s | 0°C | 0% | 0hPa | 0V | 00:00:00 | 00:00:00 | 00:00:00 | |
| PG1ADW-2 | 2026-09-01 12:19:41 | 48.25183 | 17.12772 | 94° | 20km/h | 16619m | 6.1m/s | 0°C | 0% | 0hPa | 0V | 00:00:00 | 00:00:00 | 00:00:00 | |
| PETON7-10 | 2026-09-01 12:19:40 | 48.25184 | 17.12768 | 117° | 20km/h | 16613m | 5.2m/s | 0°C | 0% | 0hPa | 0V | 00:00:00 | 00:00:00 | 00:00:00 | |
| ATIDSZ-14 | 2026-09-01 12:19:39 | 48.25186 | 17.12761 | 117° | 26km/h | 16608m | 4.3m/s | 0°C | 0% | 0hPa | 0V | 00:00:00 | 00:00:00 | 00:00:00 | |
| OE3OSB-13 | 2026-09-01 12:19:38 | 48.25189 | 17.12731 | 91° | 20km/h | 16594m | 5.1m/s | -52.1°C | 0.0% | 96.2hPa | 0V | 00:00:00 | 00:00:00 | 00:00:00 | |
| OE3JTB-15 | 2026-09-01 12:19:33 | 48.25197 | 17.12703 | 115° | 20km/h | 16559m | 6.0m/s | 0°C | 0% | 0hPa | 0V | 00:00:00 | 00:00:00 | 00:00:00 | |
| PETON7-10 | 2026-09-01 12:19:25 | 48.25201 | 17.12669 | 96° | 18km/h | 16540m | 6.2m/s | 0°C | 0% | 0hPa | 0V | 00:00:00 | 00:00:00 | 00:00:00 | |
| ATIDSZ-14 | 2026-09-01 12:19:19 | 48.25203 | 17.12638 | 89° | 18km/h | 16506m | 6.0m/s | 0°C | 0% | 0hPa | 0V | 00:00:00 | 00:00:00 | 00:00:00 | |
| OE5DXL-15 | 2026-09-01 12:19:13 | 48.25209 | 17.12593 | 84° | 29km/h | 16471m | 6.7m/s | 0°C | 0% | 0hPa | 0V | 00:00:00 | 00:00:00 | 00:00:00 | |
| PETON7-10 | 2026-09-01 12:19:07 | 48.25204 | 17.12556 | 117° | 27km/h | 16437m | 3.8m/s | 0°C | 0% | 0hPa | 0V | 00:00:00 | 00:00:00 | 00:00:00 | |
| PG1ADW-2 | 2026-09-01 12:19:06 | 48.25206 | 17.12551 | 117° | 51km/h | 16431m | 6.4m/s | 0°C | 0% | 0hPa | 0V | 00:00:00 | 00:00:00 | 00:00:00 | |
| OE3JTB-15 | 2026-09-01 12:19:04 | 48.25202 | 17.12498 | 60° | 33km/h | 16394m | 6.6m/s | 0°C | 0% | 0hPa | 0V | 00:00:00 | 00:00:00 | 00:00:00 | |
| ATIDSZ-14 | 2026-09-01 12:18:58 | 48.25196 | 17.12480 | 72° | 26km/h | 16383m | 8.2m/s | 0°C | 0% | 0hPa | 0V | 00:00:00 | 00:00:00 | 00:00:00 | |
| PETON7-10 | 2026-09-01 12:18:50 | 48.25200 | 17.12394 | 96° | 40km/h | 16333m | 3.4m/s | 0°C | 0% | 0hPa | 0V | 00:00:00 | 00:00:00 | 00:00:00 | |
| OE5DXL-15 | 2026-09-01 12:18:41 | 48.25204 | 17.12269 | 89° | 58km/h | 16275m | 7.7m/s | 0°C | 0% | 0hPa | 0V | 00:00:00 | 00:00:00 | 00:00:00 | |
| OE3OSB-13 | 2026-09-01 12:18:37 | 48.25198 | 17.12140 | 72° | 53km/h | 16223m | 4.6m/s | -52.0°C | 0.0% | 102.2hPa | 0V | 00:00:00 | 00:00:00 | 00:00:00 | |
| PETON7-10 | 2026-09-01 12:18:33 | 48.25194 | 17.12121 | 80° | 55km/h | 16217m | 9.0m/s | 0°C | 0% | 0hPa | 0V | 00:00:00 | 00:00:00 | 00:00:00 | |
| ATIDSZ-14 | 2026-09-01 12:18:17 | 48.25191 | 17.11739 | 81° | 62km/h | 16118m | 5.5m/s | 0°C | 0% | 0hPa | 0V | 00:00:00 | 00:00:00 | 00:00:00 | |
| PETON7-10 | 2026-09-01 12:18:16 | 48.25188 | 17.11716 | 77° | 64km/h | 16114m | 3.7m/s | 0°C | 0% | 0hPa | 0V | 00:00:00 | 00:00:00 | 00:00:00 | |
| OE5DXL-15 | 2026-09-01 12:18:11 | 48.25174 | 17.11598 | 77° | 62km/h | 16088m | 6.8m/s | 0°C | 0% | 0hPa | 0V | 00:00:00 | 00:00:00 | 00:00:00 | |
| OE3JTB-15 | 2026-09-01 12:18:06 | 48.25140 | 17.11407 | 81° | 62km/h | 16044m | 3.2m/s | 0°C | 0% | 0hPa | 0V | 00:00:00 | 00:00:00 | 00:00:00 | |
| OE3OSB-13 | 2026-09-01 12:18:04 | 48.25140 | 17.11407 | 80° | 64km/h | 16044m | 3.2m/s | -53.2°C | 0.0% | 105.2hPa | 0V | 00:00:00 | 00:00:00 | 00:00:00 | |
| PETON7-10 | 2026-09-01 12:18:01 | 48.25132 | 17.11360 | 72° | 62km/h | 16034m | 7.1m/s | 0°C | 0% | 0hPa | 0V | 00:00:00 | 00:00:00 | 00:00:00 | |
| OE5MMP-10 | 2026-09-01 12:17:57 | 48.25121 | 17.11267 | 89° | 60km/h | 16011m | 3.2m/s | 0°C | 0% | 0hPa | 0V | 00:00:00 | 00:00:00 | 00:00:00 | |
| OE5MMP-10 | 2026-09-01 12:17:47 | 48.25092 | 17.11039 | 93° | 60km/h | 15961m | 5.9m/s | 0°C | 0% | 0hPa | 0V | 00:00:00 | 00:00:00 | 00:00:00 | |
| PETON7-10 | 2026-09-01 12:17:45 | 48.25096 | 17.10994 | 99° | 64km/h | 15949m | 5.5m/s | 0°C | 0% | 0hPa | 0V | 00:00:00 | 00:00:00 | 00:00:00 | |
| HA6NAB-11 | 2026-09-01 12:17:42 | 48.25097 | 17.10924 | 87° | 66km/h | 15937m | 5.0m/s | 0°C | 0% | 0hPa | 0V | 00:00:00 | 00:00:00 | 00:00:00 | |
| OE5DXL-15 | 2026-09-01 12:17:41 | 48.25095 | 17.10899 | 82° | 68km/h | 15932m | 6.4m/s | 0°C | 0% | 0hPa | 0V | 00:00:00 | 00:00:00 | 00:00:00 | |
| OE3JTB-15 | 2026-09-01 12:17:37 | 48.25092 | 17.10730 | 100° | 78km/h | 15891m | 4.4m/s | 0°C | 0% | 0hPa | 0V | 00:00:00 | 00:00:00 | 00:00:00 | |
| OE3OSB-13 | 2026-09-01 12:17:34 | 48.25095 | 17.10680 | 90° | 66km/h | 15880m | 6.1m/s | -53.3°C | 0.0% | 108.0hPa | 0V | 00:00:00 | 00:00:00 | 00:00:00 | |
| HA6NAB-11 | 2026-09-01 12:17:33 | 48.25095 | 17.10680 | 91° | 66km/h | 15880m | 6.1m/s | 0°C | 0% | 0hPa | 0V | 00:00:00 | 00:00:00 | 00:00:00 | |
| PETON7-10 | 2026-09-01 12:17:30 | 48.25093 | 17.10600 | 92° | 71km/h | 15865m | 5.3m/s | 0°C | 0% | 0hPa | 0V | 00:00:00 | 00:00:00 | 00:00:00 | |
| OE5MMP-10 | 2026-09-01 12:17:27 | 48.25095 | 17.10518 | 90° | 69km/h | 15850m | 5.1m/s | 0°C | 0% | 0hPa | 0V | 00:00:00 | 00:00:00 | 00:00:00 | |
| HA6NAB-11 | 2026-09-01 12:17:21 | 48.25097 | 17.10386 | 97° | 73km/h | 15826m | 5.3m/s | 0°C | 0% | 0hPa | 0V | 00:00:00 | 00:00:00 | 00:00:00 | |
| ATIDSZ-14 | 2026-09-01 12:17:18 | 48.25093 | 17.10259 | 84° | 77km/h | 15801m | 4.4m/s | 0°C | 0% | 0hPa | 0V | 00:00:00 | 00:00:00 | 00:00:00 | |
| PETON7-10 | 2026-09-01 12:17:16 | 48.25087 | 17.10206 | 80° | 69km/h | 15791m | 5.2m/s | 0°C | 0% | 0hPa | 0V | 00:00:00 | 00:00:00 | 00:00:00 | |
| OE5DXL-15 | 2026-09-01 12:17:11 | 48.25081 | 17.10134 | 90° | 73km/h | 15776m | 5.0m/s | 0°C | 0% | 0hPa | 0V | 00:00:00 | 00:00:00 | 00:00:00 | |
| OE5MMP-10 | 2026-09-01 12:17:04 | 48.25069 | 17.09944 | 81° | 71km/h | 15741m | 6.4m/s | 0°C | 0% | 0hPa | 0V | 00:00:00 | 00:00:00 | 00:00:00 | |
| OE3OSB-13 | 2026-09-01 12:17:02 | 48.25063 | 17.09864 | 87° | 73km/h | 15726m | 5.1m/s | -53.6°C | 0.0% | 110.7hPa | 0V | 00:00:00 | 00:00:00 | 00:00:00 | |
| PETON7-10 | 2026-09-01 12:16:59 | 48.25060 | 17.09812 | 85° | 75km/h | 15717m | 5.3m/s | 0°C | 0% | 0hPa | 0V | 00:00:00 | 00:00:00 | 00:00:00 | |
| ATIDSZ-14 | 2026-09-01 12:16:56 | 48.25056 | 17.09705 | 87° | 77km/h | 15697m | 3.9m/s | 0°C | 0% | 0hPa | 0V | 00:00:00 | 00:00:00 | 00:00:00 | |
| OE5MMP-10 | 2026-09-01 12:16:53 | 48.25051 | 17.09648 | 80° | 75km/h | 15687m | 3.4m/s | 0°C | 0% | 0hPa | 0V | 00:00:00 | 00:00:00 | 00:00:00 | |
| PETON7-10 | 2026-09-01 12:16:44 | 48.25034 | 17.09390 | 77° | 75km/h | 15642m | 5.3m/s | 0°C | 0% | 0hPa | 0V | 00:00:00 | 00:00:00 | 00:00:00 | |
| OE5MMP-10 | 2026-09-01 12:16:42 | 48.25026 | 17.09332 | 81° | 78km/h | 15631m | 8.1m/s | 0°C | 0% | 0hPa | 0V | 00:00:00 | 00:00:00 | 00:00:00 | |
| OE5DXL-15 | 2026-09-01 12:16:41 | 48.25022 | 17.09303 | 78° | 73km/h | 15625m | 5.0m/s | 0°C | 0% | 0hPa | 0V | 00:00:00 | 00:00:00 | 00:00:00 | |
| ATIDSZ-14 | 2026-09-01 12:16:35 | 48.25003 | 17.09138 | 85° | 71km/h | 15595m | 5.9m/s | 0°C | 0% | 0hPa | 0V | 00:00:00 | 00:00:00 | 00:00:00 | |
| OE3OSB-13 | 2026-09-01 12:16:31 | 48.24986 | 17.08996 | 75° | 69km/h | 15568m | 4.6m/s | -54.3°C | 0.0% | 113.5hPa | 0V | 00:00:00 | 00:00:00 | 00:00:00 | |
| PETON7-10 | 2026-09-01 12:16:27 | 48.24978 | 17.08916 | 87° | 77km/h | 15554m | 5.5m/s | 0°C | 0% | 0hPa | 0V | 00:00:00 | 00:00:00 | 00:00:00 | |
| ATIDSZ-14 | 2026-09-01 12:16:14 | 48.24966 | 17.08540 | 87° | 77km/h | 15491m | 4.6m/s | 0°C | 0% | 0hPa | 0V | 00:00:00 | 00:00:00 | 00:00:00 | |
| PETON7-10 | 2026-09-01 12:16:12 | 48.24963 | 17.08478 | 89° | 86km/h | 15482m | 4.4m/s | 0°C | 0% | 0hPa | 0V | 00:00:00 | 00:00:00 | 00:00:00 | |
| OE3OSB-13 | 2026-09-01 12:16:00 | 48.24951 | 17.08056 | 84° | 89km/h | 15417m | 6.7m/s | -55.3°C | 0.0% | 116.3hPa | 0V | 00:00:00 | 00:00:00 | 00:00:00 | |
| PETON7-10 | 2026-09-01 12:15:57 | 48.24945 | 17.07989 | 79° | 88km/h | 15406m | 3.7m/s | 0°C | 0% | 0hPa | 0V | 00:00:00 | 00:00:00 | 00:00:00 | |
| ATIDSZ-14 | 2026-09-01 12:15:54 | 48.24935 | 17.07895 | 81° | 78km/h | 15392m | 5.7m/s | 0°C | 0% | 0hPa | 0V | 00:00:00 | 00:00:00 | 00:00:00 | |
| PETON7-10 | 2026-09-01 12:15:42 | 48.24914 | 17.07497 | 88° | 84km/h | 15334m | 5.9m/s | 0°C | 0% | 0hPa | 0V | 00:00:00 | 00:00:00 | 00:00:00 | |
| ATIDSZ-14 | 2026-09-01 12:15:33 | 48.24896 | 17.07203 | 85° | 86km/h | 15293m | 4.3m/s | 0°C | 0% | 0hPa | 0V | 00:00:00 | 00:00:00 | 00:00:00 | |
| OE3OSB-13 | 2026-09-01 12:15:29 | 48.24891 | 17.07051 | 90° | 80km/h | 15270m | 4.8m/s | -56.1°C | 0.0% | 119.1hPa | 0V | 00:00:00 | 00:00:00 | 00:00:00 | |
| PETON7-10 | 2026-09-01 12:15:26 | 48.24892 | 17.06990 | 93° | 82km/h | 15261m | 4.3m/s | 0°C | 0% | 0hPa | 0V | 00:00:00 | 00:00:00 | 00:00:00 | |
| ATIDSZ-14 | 2026-09-01 12:15:12 | 48.24874 | 17.06553 | 90° | 80km/h | 15201m | 4.9m/s | 0°C | 0% | 0hPa | 0V | 00:00:00 | 00:00:00 | 00:00:00 | |
| PETON7-10 | 2026-09-01 12:15:11 | 48.24873 | 17.06523 | 90° | 84km/h | 15197m | 3.2m/s | 0°C | 0% | 0hPa | 0V | 00:00:00 | 00:00:00 | 00:00:00 | |
| OE3OSB-13 | 2026-09-01 12:14:59 | 48.24860 | 17.06079 | 89° | 88km/h | 15134m | 3.1m/s | -55.9°C | 0.0% | 121.9hPa | 0V | 00:00:00 | 00:00:00 | 00:00:00 | |
| PETON7-10 | 2026-09-01 12:14:56 | 48.24859 | 17.06045 | 88° | 91km/h | 15131m | 5.8m/s | 0°C | 0% | 0hPa | 0V | 00:00:00 | 00:00:00 | 00:00:00 | |
| ATIDSZ-14 | 2026-09-01 12:14:51 | 48.24853 | 17.05872 | 93° | 91km/h | 15107m | 2.1m/s | 0°C | 0% | 0hPa | 0V | 00:00:00 | 00:00:00 | 00:00:00 | |
| PETON7-10 | 2026-09-01 12:14:41 | 48.24831 | 17.05527 | 86° | 84km/h | 15063m | 3.4m/s | 0°C | 0% | 0hPa | 0V | 00:00:00 | 00:00:00 | 00:00:00 | |
| ATIDSZ-14 | 2026-09-01 12:14:30 | 48.24811 | 17.05184 | 86° | 88km/h | 15014m | 5.8m/s | 0°C | 0% | 0hPa | 0V | 00:00:00 | 00:00:00 | 00:00:00 | |
| PETON7-10 | 2026-09-01 12:14:26 | 48.24800 | 17.05049 | 81° | 91km/h | 14996m | 2.4m/s | 0°C | 0% | 0hPa | 0V | 00:00:00 | 00:00:00 | 00:00:00 | |
| PETON7-10 | 2026-09-01 12:14:11 | 48.24768 | 17.04531 | 84° | 93km/h | 14929m | 4.9m/s | 0°C | 0% | 0hPa | 0V | 00:00:00 | 00:00:00 | 00:00:00 | |
| ATIDSZ-14 | 2026-09-01 12:14:09 | 48.24761 | 17.04458 | 85° | 97km/h | 14921m | 4.2m/s | 0°C | 0% | 0hPa | 0V | 00:00:00 | 00:00:00 | 00:00:00 | |
| OE3OSB-13 | 2026-09-01 12:13:55 | 48.24729 | 17.03939 | 84° | 95km/h | 14850m | 7.1m/s | -56.1°C | 0.0% | 127.7hPa | 0V | 00:00:00 | 00:00:00 | 00:00:00 | |
| PG1ADW-2 | 2026-09-01 12:13:51 | 48.24721 | 17.03832 | 85° | 93km/h | 14837m | 6.3m/s | 0°C | 0% | 0hPa | 0V | 00:00:00 | 00:00:00 | 00:00:00 | |
| ATIDSZ-14 | 2026-09-01 12:13:49 | 48.24718 | 17.03756 | 88° | 99km/h | 14826m | 6.4m/s | 0°C | 0% | 0hPa | 0V | 00:00:00 | 00:00:00 | 00:00:00 | |
| OE3JTB-15 | 2026-09-01 12:13:44 | 48.24694 | 17.03467 | 79° | 89km/h | 14785m | 5.1m/s | 0°C | 0% | 0hPa | 0V | 00:00:00 | 00:00:00 | 00:00:00 | |
| PETON7-10 | 2026-09-01 12:13:41 | 48.24694 | 17.03467 | 79° | 95km/h | 14785m | 5.1m/s | 0°C | 0% | 0hPa | 0V | 00:00:00 | 00:00:00 | 00:00:00 | |
| ATIDSZ-14 | 2026-09-01 12:13:29 | 48.24653 | 17.03048 | 90° | 89km/h | 14721m | 5.9m/s | 0°C | 0% | 0hPa | 0V | 00:00:00 | 00:00:00 | 00:00:00 | |
| PETON7-10 | 2026-09-01 12:13:27 | 48.24646 | 17.02943 | 82° | 88km/h | 14706m | 6.0m/s | 0°C | 0% | 0hPa | 0V | 00:00:00 | 00:00:00 | 00:00:00 | |
| OE3OSB-13 | 2026-09-01 12:13:24 | 48.24633 | 17.02845 | 79° | 89km/h | 14690m | 5.2m/s | -55.8°C | 0.0% | 131.0hPa | 0V | 00:00:00 | 00:00:00 | 00:00:00 | |
| OE3JTB-15 | 2026-09-01 12:13:14 | 48.24609 | 17.02456 | 83° | 84km/h | 14626m | 5.5m/s | 0°C | 0% | 0hPa | 0V | 00:00:00 | 00:00:00 | 00:00:00 | |
| PETON7-10 | 2026-09-01 12:13:12 | 48.24609 | 17.02456 | 83° | 82km/h | 14626m | 5.5m/s | 0°C | 0% | 0hPa | 0V | 00:00:00 | 00:00:00 | 00:00:00 | |
| ATIDSZ-14 | 2026-09-01 12:13:08 | 48.24609 | 17.02360 | 97° | 91km/h | 14611m | 5.7m/s | 0°C | 0% | 0hPa | 0V | 00:00:00 | 00:00:00 | 00:00:00 | |
| OE3OSB-13 | 2026-09-01 12:12:54 | 48.24623 | 17.01863 | 94° | 78km/h | 14528m | 5.5m/s | -55.3°C | 0.0% | 134.5hPa | 0V | 00:00:00 | 00:00:00 | 00:00:00 | |
| PETON7-10 | 2026-09-01 12:12:52 | 48.24623 | 17.01863 | 95° | 86km/h | 14528m | 5.5m/s | 0°C | 0% | 0hPa | 0V | 00:00:00 | 00:00:00 | 00:00:00 | |
| ATIDSZ-14 | 2026-09-01 12:12:48 | 48.24620 | 17.01739 | 91° | 86km/h | 14506m | 6.0m/s | 0°C | 0% | 0hPa | 0V | 00:00:00 | 00:00:00 | 00:00:00 | |
| OE3JTB-15 | 2026-09-01 12:12:44 | 48.24619 | 17.01512 | 90° | 91km/h | 14468m | 6.6m/s | 0°C | 0% | 0hPa | 0V | 00:00:00 | 00:00:00 | 00:00:00 | |
| PETON7-10 | 2026-09-01 12:12:37 | 48.24613 | 17.01383 | 84° | 91km/h | 14449m | 3.0m/s | 0°C | 0% | 0hPa | 0V | 00:00:00 | 00:00:00 | 00:00:00 | |
| ATIDSZ-14 | 2026-09-01 12:12:29 | 48.24591 | 17.01076 | 82° | 89km/h | 14398m | 7.2m/s | 0°C | 0% | 0hPa | 0V | 00:00:00 | 00:00:00 | 00:00:00 | |
| OE3OSB-13 | 2026-09-01 12:12:22 | 48.24567 | 17.00831 | 81° | 100km/h | 14361m | 5.5m/s | -55.2°C | 0.0% | 138.3hPa | 0V | 00:00:00 | 00:00:00 | 00:00:00 | |
| PETON7-10 | 2026-09-01 12:12:21 | 48.24567 | 17.00831 | 82° | 89km/h | 14361m | 5.5m/s | 0°C | 0% | 0hPa | 0V | 00:00:00 | 00:00:00 | 00:00:00 | |
| OE3JTB-15 | 2026-09-01 12:12:15 | 48.24530 | 17.00525 | 78° | 88km/h | 14312m | 5.4m/s | 0°C | 0% | 0hPa | 0V | 00:00:00 | 00:00:00 | 00:00:00 | |
| ATIDSZ-14 | 2026-09-01 12:12:08 | 48.24511 | 17.00390 | 80° | 89km/h | 14292m | 6.2m/s | 0°C | 0% | 0hPa | 0V | 00:00:00 | 00:00:00 | 00:00:00 | |
| PETON7-10 | 2026-09-01 12:12:05 | 48.24500 | 17.00295 | 83° | 86km/h | 14277m | 6.3m/s | 0°C | 0% | 0hPa | 0V | 00:00:00 | 00:00:00 | 00:00:00 | |
| OE3OSB-13 | 2026-09-01 12:11:51 | 48.24456 | 16.99806 | 82° | 82km/h | 14197m | 6.9m/s | -54.2°C | 0.0% | 141.9hPa | 0V | 00:00:00 | 00:00:00 | 00:00:00 | |
| PETON7-10 | 2026-09-01 12:11:50 | 48.24456 | 16.99806 | 83° | 82km/h | 14197m | 6.9m/s | 0°C | 0% | 0hPa | 0V | 00:00:00 | 00:00:00 | 00:00:00 | |
| ATIDSZ-14 | 2026-09-01 12:11:48 | 48.24453 | 16.99739 | 87° | 91km/h | 14187m | 4.2m/s | 0°C | 0% | 0hPa | 0V | 00:00:00 | 00:00:00 | 00:00:00 | |
| OE3JTB-15 | 2026-09-01 12:11:45 | 48.24444 | 16.99577 | 87° | 82km/h | 14160m | 5.1m/s | 0°C | 0% | 0hPa | 0V | 00:00:00 | 00:00:00 | 00:00:00 | |
| PETON7-10 | 2026-09-01 12:11:35 | 48.24437 | 16.99333 | 91° | 82km/h | 14123m | 5.7m/s | 0°C | 0% | 0hPa | 0V | 00:00:00 | 00:00:00 | 00:00:00 | |
| PG1ADW-2 | 2026-09-01 12:11:23 | 48.24412 | 16.98963 | 89° | 84km/h | 14060m | 5.8m/s | 0°C | 0% | 0hPa | 0V | 00:00:00 | 00:00:00 | 00:00:00 | |
| OE3OSB-13 | 2026-09-01 12:11:20 | 48.24396 | 16.98831 | 75° | 86km/h | 14041m | 6.6m/s | -54.6°C | 0.0% | 145.6hPa | 0V | 00:00:00 | 00:00:00 | 00:00:00 | |
| PETON7-10 | 2026-09-01 12:11:19 | 48.24396 | 16.98831 | 76° | 82km/h | 14041m | 6.5m/s | 0°C | 0% | 0hPa | 0V | 00:00:00 | 00:00:00 | 00:00:00 | |
| OE3JTB-15 | 2026-09-01 12:11:16 | 48.24377 | 16.98712 | 78° | 82km/h | 14020m | 5.2m/s | 0°C | 0% | 0hPa | 0V | 00:00:00 | 00:00:00 | 00:00:00 | |
| ATIDSZ-14 | 2026-09-01 12:11:07 | 48.24348 | 16.98470 | 83° | 86km/h | 13988m | 4.8m/s | 0°C | 0% | 0hPa | 0V | 00:00:00 | 00:00:00 | 00:00:00 | |
| PETON7-10 | 2026-09-01 12:11:01 | 48.24331 | 16.98280 | 76° | 80km/h | 13957m | 5.1m/s | 0°C | 0% | 0hPa | 0V | 00:00:00 | 00:00:00 | 00:00:00 | |
| OE3OSB-13 | 2026-09-01 12:10:49 | 48.24288 | 16.97889 | 83° | 80km/h | 13891m | 6.3m/s | -54.5°C | 0.4% | 149.2hPa | 0V | 00:00:00 | 00:00:00 | 00:00:00 | |
| OE3JTB-15 | 2026-09-01 12:10:47 | 48.24285 | 16.97859 | 83° | 77km/h | 13887m | 4.1m/s | 0°C | 0% | 0hPa | 0V | 00:00:00 | 00:00:00 | 00:00:00 | |
| PETON7-10 | 2026-09-01 12:10:46 | 48.24282 | 16.97829 | 81° | 77km/h | 13881m | 6.9m/s | 0°C | 0% | 0hPa | 0V | 00:00:00 | 00:00:00 | 00:00:00 | |
| ATIDSZ-14 | 2026-09-01 12:10:45 | 48.24279 | 16.97800 | 81° | 75km/h | 13875m | 3.7m/s | 0°C | 0% | 0hPa | 0V | 00:00:00 | 00:00:00 | 00:00:00 | |
| PETON7-10 | 2026-09-01 12:10:30 | 48.24249 | 16.97368 | 91° | 80km/h | 13803m | 5.5m/s | 0°C | 0% | 0hPa | 0V | 00:00:00 | 00:00:00 | 00:00:00 | |
| ATIDSZ-14 | 2026-09-01 12:10:26 | 48.24248 | 16.97222 | 93° | 77km/h | 13780m | 3.8m/s | 0°C | 0% | 0hPa | 0V | 00:00:00 | 00:00:00 | 00:00:00 | |
| OE3OSB-13 | 2026-09-01 12:10:18 | 48.24247 | 16.96976 | 90° | 86km/h | 13745m | 4.2m/s | -54.2°C | 0.9% | 152.7hPa | 0V | 00:00:00 | 00:00:00 | 00:00:00 | |
| PETON7-10 | 2026-09-01 12:10:15 | 48.24248 | 16.96912 | 91° | 86km/h | 13737m | 3.7m/s | 0°C | 0% | 0hPa | 0V | 00:00:00 | 00:00:00 | 00:00:00 | |
| PG1ADW-2 | 2026-09-01 12:10:05 | 48.24259 | 16.96587 | 96° | 82km/h | 13692m | 5.4m/s | 0°C | 0% | 0hPa | 0V | 00:00:00 | 00:00:00 | 00:00:00 | |
| PETON7-10 | 2026-09-01 12:10:00 | 48.24266 | 16.96420 | 97° | 86km/h | 13669m | 5.1m/s | 0°C | 0% | 0hPa | 0V | 00:00:00 | 00:00:00 | 00:00:00 | |
| OE3OSB-13 | 2026-09-01 12:09:47 | 48.24292 | 16.95957 | 95° | 82km/h | 13605m | 3.9m/s | -54.3°C | 1.4% | 156.2hPa | 0V | 00:00:00 | 00:00:00 | 00:00:00 | |
| ATIDSZ-14 | 2026-09-01 12:09:45 | 48.24293 | 16.95926 | 96° | 82km/h | 13602m | 3.7m/s | 0°C | 0% | 0hPa | 0V | 00:00:00 | 00:00:00 | 00:00:00 | |
| PETON7-10 | 2026-09-01 12:09:43 | 48.24292 | 16.95861 | 85° | 86km/h | 13593m | 3.1m/s | 0°C | 0% | 0hPa | 0V | 00:00:00 | 00:00:00 | 00:00:00 | |
| PETON7-10 | 2026-09-01 12:09:28 | 48.24288 | 16.95382 | 93° | 77km/h | 13524m | 6.2m/s | 0°C | 0% | 0hPa | 0V | 00:00:00 | 00:00:00 | 00:00:00 | |
| ATIDSZ-14 | 2026-09-01 12:09:25 | 48.24293 | 16.95288 | 91° | 80km/h | 13510m | 4.1m/s | 0°C | 0% | 0hPa | 0V | 00:00:00 | 00:00:00 | 00:00:00 | |
| OE3JTB-15 | 2026-09-01 12:09:20 | 48.24284 | 16.95149 | 85° | 78km/h | 13486m | 4.9m/s | 0°C | 0% | 0hPa | 0V | 00:00:00 | 00:00:00 | 00:00:00 | |
| OE3OSB-13 | 2026-09-01 12:09:16 | 48.24285 | 16.95011 | 92° | 69km/h | 13463m | 3.8m/s | -54.8°C | 2.5% | 159.8hPa | 0V | 00:00:00 | 00:00:00 | 00:00:00 | |
| PETON7-10 | 2026-09-01 12:09:13 | 48.24287 | 16.94960 | 91° | 78km/h | 13454m | 5.6m/s | 0°C | 0% | 0hPa | 0V | 00:00:00 | 00:00:00 | 00:00:00 | |
| PG1ADW-2 | 2026-09-01 12:09:09 | 48.24290 | 16.94849 | 93° | 84km/h | 13434m | 5.6m/s | 0°C | 0% | 0hPa | 0V | 00:00:00 | 00:00:00 | 00:00:00 | |
| ATIDSZ-14 | 2026-09-01 12:09:04 | 48.24299 | 16.94698 | 98° | 82km/h | 13409m | 3.1m/s | 0°C | 0% | 0hPa | 0V | 00:00:00 | 00:00:00 | 00:00:00 | |
| OE3OSB-13 | 2026-09-01 12:08:45 | 48.24342 | 16.94055 | 93° | 93km/h | 13315m | 3.3m/s | -54.3°C | 3.9% | 163.6hPa | 0V | 00:00:00 | 00:00:00 | 00:00:00 | |
| ATIDSZ-14 | 2026-09-01 12:08:43 | 48.24343 | 16.94020 | 93° | 91km/h | 13310m | 7.1m/s | 0°C | 0% | 0hPa | 0V | 00:00:00 | 00:00:00 | 00:00:00 | |
| PETON7-10 | 2026-09-01 12:08:42 | 48.24344 | 16.93988 | 95° | 91km/h | 13305m | 4.5m/s | 0°C | 0% | 0hPa | 0V | 00:00:00 | 00:00:00 | 00:00:00 | |
| PETON7-10 | 2026-09-01 12:08:27 | 48.24374 | 16.93466 | 95° | 102km/h | 13234m | 5.5m/s | 0°C | 0% | 0hPa | 0V | 00:00:00 | 00:00:00 | 00:00:00 | |
| OE3JTB-15 | 2026-09-01 12:08:23 | 48.24386 | 16.93278 | 91° | 102km/h | 13209m | 6.9m/s | 0°C | 0% | 0hPa | 0V | 00:00:00 | 00:00:00 | 00:00:00 | |
| OE3OSB-13 | 2026-09-01 12:08:14 | 48.24393 | 16.92926 | 93° | 95km/h | 13166m | 5.4m/s | -54.2°C | 6.1% | 167.6hPa | 0V | 00:00:00 | 00:00:00 | 00:00:00 | |
| PETON7-10 | 2026-09-01 12:08:11 | 48.24392 | 16.92850 | 90° | 102km/h | 13159m | 5.2m/s | 0°C | 0% | 0hPa | 0V | 00:00:00 | 00:00:00 | 00:00:00 | |
| OE3OSB-13 | 2026-09-01 12:07:43 | 48.24399 | 16.91762 | 91° | 91km/h | 13016m | 2.5m/s | -54.7°C | 9.2% | 171.6hPa | 0V | 00:00:00 | 00:00:00 | 00:00:00 | |
| ATIDSZ-14 | 2026-09-01 12:07:42 | 48.24399 | 16.91762 | 93° | 93km/h | 13016m | 2.5m/s | 0°C | 0% | 0hPa | 0V | 00:00:00 | 00:00:00 | 00:00:00 | |
| PETON7-10 | 2026-09-01 12:07:41 | 48.24398 | 16.91727 | 87° | 95km/h | 13011m | 6.6m/s | 0°C | 0% | 0hPa | 0V | 00:00:00 | 00:00:00 | 00:00:00 | |
| PETON7-10 | 2026-09-01 12:07:24 | 48.24370 | 16.91125 | 89° | 95km/h | 12926m | 4.4m/s | 0°C | 0% | 0hPa | 0V | 00:00:00 | 00:00:00 | 00:00:00 | |
| ATIDSZ-14 | 2026-09-01 12:07:21 | 48.24369 | 16.91019 | 92° | 97km/h | 12912m | 4.1m/s | 0°C | 0% | 0hPa | 0V | 00:00:00 | 00:00:00 | 00:00:00 | |
| OE3OSB-13 | 2026-09-01 12:07:12 | 48.24358 | 16.90653 | 86° | 97km/h | 12862m | 7.2m/s | -55.5°C | 13.1% | 175.9hPa | 0V | 00:00:00 | 00:00:00 | 00:00:00 | |
| PETON7-10 | 2026-09-01 12:07:09 | 48.24358 | 16.90580 | 91° | 100km/h | 12851m | 5.9m/s | 0°C | 0% | 0hPa | 0V | 00:00:00 | 00:00:00 | 00:00:00 | |
| PG1ADW-2 | 2026-09-01 12:07:07 | 48.24357 | 16.90505 | 91° | 100km/h | 12842m | 4.4m/s | 0°C | 0% | 0hPa | 0V | 00:00:00 | 00:00:00 | 00:00:00 | |
| ATIDSZ-14 | 2026-09-01 12:07:01 | 48.24360 | 16.90274 | 91° | 108km/h | 12811m | 7.4m/s | 0°C | 0% | 0hPa | 0V | 00:00:00 | 00:00:00 | 00:00:00 | |
| OE3JTB-15 | 2026-09-01 12:06:56 | 48.24368 | 16.90009 | 92° | 108km/h | 12774m | 5.1m/s | 0°C | 0% | 0hPa | 0V | 00:00:00 | 00:00:00 | 00:00:00 | |
| PETON7-10 | 2026-09-01 12:06:52 | 48.24369 | 16.89931 | 93° | 106km/h | 12763m | 6.1m/s | 0°C | 0% | 0hPa | 0V | 00:00:00 | 00:00:00 | 00:00:00 | |
| PG1ADW-2 | 2026-09-01 12:06:47 | 48.24373 | 16.89738 | 94° | 113km/h | 12736m | 5.6m/s | 0°C | 0% | 0hPa | 0V | 00:00:00 | 00:00:00 | 00:00:00 | |
| ATIDSZ-14 | 2026-09-01 12:06:40 | 48.24394 | 16.89457 | 90° | 110km/h | 12702m | 6.4m/s | 0°C | 0% | 0hPa | 0V | 00:00:00 | 00:00:00 | 00:00:00 | |
| PETON7-10 | 2026-09-01 12:06:37 | 48.24390 | 16.89337 | 88° | 111km/h | 12688m | 5.3m/s | 0°C | 0% | 0hPa | 0V | 00:00:00 | 00:00:00 | 00:00:00 | |
| OE3JTB-15 | 2026-09-01 12:06:26 | 48.24409 | 16.88783 | 91° | 119km/h | 12619m | 3.7m/s | 0°C | 0% | 0hPa | 0V | 00:00:00 | 00:00:00 | 00:00:00 | |
| PETON7-10 | 2026-09-01 12:06:22 | 48.24411 | 16.88697 | 96° | 120km/h | 12606m | 4.7m/s | 0°C | 0% | 0hPa | 0V | 00:00:00 | 00:00:00 | 00:00:00 | |
| OE3OSB-13 | 2026-09-01 12:06:09 | 48.24412 | 16.88101 | 83° | 122km/h | 12533m | 4.7m/s | -58.9°C | 20.5% | 185.6hPa | 0V | 00:00:00 | 00:00:00 | 00:00:00 | |
| PETON7-10 | 2026-09-01 12:06:07 | 48.24406 | 16.88014 | 85° | 117km/h | 12521m | 2.2m/s | 0°C | 0% | 0hPa | 0V | 00:00:00 | 00:00:00 | 00:00:00 | |
| ATIDSZ-14 | 2026-09-01 12:06:00 | 48.24386 | 16.87693 | 87° | 113km/h | 12484m | 1.9m/s | 0°C | 0% | 0hPa | 0V | 00:00:00 | 00:00:00 | 00:00:00 | |
| OE3JTB-15 | 2026-09-01 12:05:57 | 48.24366 | 16.87474 | 81° | 111km/h | 12457m | 7.1m/s | 0°C | 0% | 0hPa | 0V | 00:00:00 | 00:00:00 | 00:00:00 | |
| PG1ADW-2 | 2026-09-01 12:05:53 | 48.24358 | 16.87387 | 83° | 102km/h | 12447m | 2.4m/s | 0°C | 0% | 0hPa | 0V | 00:00:00 | 00:00:00 | 00:00:00 | |
| PETON7-10 | 2026-09-01 12:05:52 | 48.24354 | 16.87345 | 83° | 113km/h | 12443m | 5.6m/s | 0°C | 0% | 0hPa | 0V | 00:00:00 | 00:00:00 | 00:00:00 | |
| ATIDSZ-14 | 2026-09-01 12:05:40 | 48.24293 | 16.86801 | 83° | 122km/h | 12377m | 6.0m/s | 0°C | 0% | 0hPa | 0V | 00:00:00 | 00:00:00 | 00:00:00 | |
| OE3OSB-13 | 2026-09-01 12:05:39 | 48.24288 | 16.86755 | 81° | 120km/h | 12372m | 3.5m/s | -59.2°C | 22.5% | 190.5hPa | 0V | 00:00:00 | 00:00:00 | 00:00:00 | |
| PETON7-10 | 2026-09-01 12:05:37 | 48.24284 | 16.86710 | 84° | 108km/h | 12369m | 2.0m/s | 0°C | 0% | 0hPa | 0V | 00:00:00 | 00:00:00 | 00:00:00 | |
| OE3JTB-15 | 2026-09-01 12:05:28 | 48.24226 | 16.86236 | 84° | 100km/h | 12302m | 4.7m/s | 0°C | 0% | 0hPa | 0V | 00:00:00 | 00:00:00 | 00:00:00 | |
| PETON7-10 | 2026-09-01 12:05:22 | 48.24212 | 16.86117 | 79° | 99km/h | 12289m | 5.5m/s | 0°C | 0% | 0hPa | 0V | 00:00:00 | 00:00:00 | 00:00:00 | |
| ATIDSZ-14 | 2026-09-01 12:05:19 | 48.24195 | 16.86003 | 79° | 111km/h | 12275m | 3.1m/s | 0°C | 0% | 0hPa | 0V | 00:00:00 | 00:00:00 | 00:00:00 | |
| OE3OSB-13 | 2026-09-01 12:05:07 | 48.24118 | 16.85560 | 73° | 99km/h | 12217m | 5.3m/s | -59.4°C | 23.2% | 195.6hPa | 0V | 00:00:00 | 00:00:00 | 00:00:00 | |
| PETON7-10 | 2026-09-01 12:05:04 | 48.24094 | 16.85453 | 73° | 95km/h | 12205m | 3.7m/s | 0°C | 0% | 0hPa | 0V | 00:00:00 | 00:00:00 | 00:00:00 | |
| ATIDSZ-14 | 2026-09-01 12:04:59 | 48.24071 | 16.85275 | 75° | 97km/h | 12182m | 5.9m/s | 0°C | 0% | 0hPa | 0V | 00:00:00 | 00:00:00 | 00:00:00 | |
| OE3JTB-15 | 2026-09-01 12:04:58 | 48.24034 | 16.85097 | 79° | 95km/h | 12160m | 5.4m/s | 0°C | 0% | 0hPa | 0V | 00:00:00 | 00:00:00 | 00:00:00 | |
| PETON7-10 | 2026-09-01 12:04:49 | 48.24014 | 16.84923 | 75° | 97km/h | 12136m | 4.7m/s | 0°C | 0% | 0hPa | 0V | 00:00:00 | 00:00:00 | 00:00:00 | |
| ATIDSZ-14 | 2026-09-01 12:04:39 | 48.23944 | 16.84580 | 79° | 95km/h | 12083m | 5.8m/s | 0°C | 0% | 0hPa | 0V | 00:00:00 | 00:00:00 | 00:00:00 | |
| OE3OSB-13 | 2026-09-01 12:04:36 | 48.23905 | 16.84444 | 66° | 99km/h | 12056m | 7.3m/s | -59.6°C | 23.2% | 200.7hPa | 0V | 00:00:00 | 00:00:00 | 00:00:00 | |
| PETON7-10 | 2026-09-01 12:04:34 | 48.23896 | 16.84409 | 73° | 97km/h | 12050m | 5.4m/s | 0°C | 0% | 0hPa | 0V | 00:00:00 | 00:00:00 | 00:00:00 | |
| OE3JTB-15 | 2026-09-01 12:04:28 | 48.23817 | 16.84113 | 75° | 93km/h | 12010m | 4.0m/s | 0°C | 0% | 0hPa | 0V | 00:00:00 | 00:00:00 | 00:00:00 | |
| PETON7-10 | 2026-09-01 12:04:19 | 48.23763 | 16.83906 | 70° | 93km/h | 11979m | 3.6m/s | 0°C | 0% | 0hPa | 0V | 00:00:00 | 00:00:00 | 00:00:00 | |
| ATIDSZ-14 | 2026-09-01 12:04:17 | 48.23747 | 16.83843 | 74° | 84km/h | 11970m | 10.1m/s | 0°C | 0% | 0hPa | 0V | 00:00:00 | 00:00:00 | 00:00:00 | |
| OE3OSB-13 | 2026-09-01 12:04:05 | 48.23648 | 16.83419 | 74° | 80km/h | 11891m | 9.0m/s | -58.9°C | 23.4% | 206.1hPa | 0V | 00:00:00 | 00:00:00 | 00:00:00 | |
| PETON7-10 | 2026-09-01 12:04:00 | 48.23625 | 16.83288 | 70° | 97km/h | 11866m | 3.9m/s | 0°C | 0% | 0hPa | 0V | 00:00:00 | 00:00:00 | 00:00:00 | |
| ATIDSZ-14 | 2026-09-01 12:03:57 | 48.23597 | 16.83187 | 69° | 93km/h | 11849m | 3.9m/s | 0°C | 0% | 0hPa | 0V | 00:00:00 | 00:00:00 | 00:00:00 | |
| PETON7-10 | 2026-09-01 12:03:45 | 48.23502 | 16.82786 | 78° | 88km/h | 11779m | 5.1m/s | 0°C | 0% | 0hPa | 0V | 00:00:00 | 00:00:00 | 00:00:00 | |
| ATIDSZ-14 | 2026-09-01 12:03:35 | 48.23426 | 16.82479 | 70° | 84km/h | 11730m | 3.7m/s | 0°C | 0% | 0hPa | 0V | 00:00:00 | 00:00:00 | 00:00:00 | |
| OE3OSB-13 | 2026-09-01 12:03:34 | 48.23410 | 16.82418 | 68° | 91km/h | 11722m | 3.4m/s | -57.4°C | 22.9% | 212.0hPa | 0V | 00:00:00 | 00:00:00 | 00:00:00 | |
| PETON7-10 | 2026-09-01 12:03:30 | 48.23381 | 16.82322 | 65° | 86km/h | 11704m | 7.0m/s | 0°C | 0% | 0hPa | 0V | 00:00:00 | 00:00:00 | 00:00:00 | |
| OE3JTB-15 | 2026-09-01 12:03:27 | 48.23335 | 16.82142 | 74° | 88km/h | 11665m | 6.8m/s | 0°C | 0% | 0hPa | 0V | 00:00:00 | 00:00:00 | 00:00:00 | |
| PETON7-10 | 2026-09-01 12:03:16 | 48.23267 | 16.81872 | 75° | 88km/h | 11605m | 4.1m/s | 0°C | 0% | 0hPa | 0V | 00:00:00 | 00:00:00 | 00:00:00 | |
| ATIDSZ-14 | 2026-09-01 12:03:14 | 48.23262 | 16.81844 | 74° | 77km/h | 11600m | 5.0m/s | 0°C | 0% | 0hPa | 0V | 00:00:00 | 00:00:00 | 00:00:00 | |
| PG1ADW-2 | 2026-09-01 12:03:11 | 48.23232 | 16.81749 | 63° | 88km/h | 11579m | 4.1m/s | 0°C | 0% | 0hPa | 0V | 00:00:00 | 00:00:00 | 00:00:00 | |
| OE3OSB-13 | 2026-09-01 12:03:03 | 48.23173 | 16.81466 | 72° | 77km/h | 11515m | 7.4m/s | -55.6°C | 21.3% | 219.1hPa | 0V | 00:00:00 | 00:00:00 | 00:00:00 | |
| PETON7-10 | 2026-09-01 12:02:58 | 48.23135 | 16.81361 | 56° | 84km/h | 11489m | 3.9m/s | 0°C | 0% | 0hPa | 0V | 00:00:00 | 00:00:00 | 00:00:00 | |
| ATIDSZ-14 | 2026-09-01 12:02:51 | 48.23094 | 16.81153 | 78° | 97km/h | 11447m | 4.3m/s | 0°C | 0% | 0hPa | 0V | 00:00:00 | 00:00:00 | 00:00:00 | |
| PG1ADW-2 | 2026-09-01 12:02:48 | 48.23080 | 16.81060 | 77° | 88km/h | 11432m | 6.8m/s | 0°C | 0% | 0hPa | 0V | 00:00:00 | 00:00:00 | 00:00:00 | |
| PETON7-10 | 2026-09-01 12:02:43 | 48.23062 | 16.80894 | 85° | 86km/h | 11401m | 4.8m/s | 0°C | 0% | 0hPa | 0V | 00:00:00 | 00:00:00 | 00:00:00 | |
| OE3OSB-13 | 2026-09-01 12:02:32 | 48.22988 | 16.80517 | 69° | 73km/h | 11315m | 10.1m/s | -54.2°C | 22.6% | 226.3hPa | 0V | 00:00:00 | 00:00:00 | 00:00:00 | |
| ATIDSZ-14 | 2026-09-01 12:02:30 | 48.22983 | 16.80491 | 78° | 71km/h | 11307m | 6.6m/s | 0°C | 0% | 0hPa | 0V | 00:00:00 | 00:00:00 | 00:00:00 | |
| PETON7-10 | 2026-09-01 12:02:28 | 48.22975 | 16.80433 | 80° | 86km/h | 11296m | 5.6m/s | 0°C | 0% | 0hPa | 0V | 00:00:00 | 00:00:00 | 00:00:00 | |
| PG1ADW-2 | 2026-09-01 12:02:26 | 48.22968 | 16.80368 | 79° | 86km/h | 11284m | 9.7m/s | 0°C | 0% | 0hPa | 0V | 00:00:00 | 00:00:00 | 00:00:00 | |
| ATIDSZ-14 | 2026-09-01 12:02:09 | 48.22905 | 16.79800 | 81° | 91km/h | 11171m | 3.0m/s | 0°C | 0% | 0hPa | 0V | 00:00:00 | 00:00:00 | 00:00:00 | |
| PG1ADW-2 | 2026-09-01 12:02:06 | 48.22897 | 16.79732 | 86° | 86km/h | 11160m | 7.4m/s | 0°C | 0% | 0hPa | 0V | 00:00:00 | 00:00:00 | 00:00:00 | |
| OE3OSB-13 | 2026-09-01 12:02:01 | 48.22882 | 16.79545 | 81° | 88km/h | 11125m | 4.9m/s | -52.7°C | 26.2% | 233.3hPa | 0V | 00:00:00 | 00:00:00 | 00:00:00 | |
| PETON7-10 | 2026-09-01 12:01:58 | 48.22875 | 16.79474 | 84° | 86km/h | 11113m | 8.3m/s | 0°C | 0% | 0hPa | 0V | 00:00:00 | 00:00:00 | 00:00:00 | |
| PG1ADW-2 | 2026-09-01 12:01:45 | 48.22843 | 16.79050 | 87° | 91km/h | 11040m | 7.6m/s | 0°C | 0% | 0hPa | 0V | 00:00:00 | 00:00:00 | 00:00:00 | |
| PETON7-10 | 2026-09-01 12:01:43 | 48.22840 | 16.78978 | 87° | 88km/h | 11028m | 3.1m/s | 0°C | 0% | 0hPa | 0V | 00:00:00 | 00:00:00 | 00:00:00 | |
| OE3JTB-15 | 2026-09-01 12:01:34 | 48.22814 | 16.78541 | 88° | 86km/h | 10951m | 4.7m/s | 0°C | 0% | 0hPa | 0V | 00:00:00 | 00:00:00 | 00:00:00 | |
| OE3OSB-13 | 2026-09-01 12:01:30 | 48.22813 | 16.78509 | 88° | 84km/h | 10944m | 7.4m/s | -51.4°C | 27.4% | 240.0hPa | 0V | 00:00:00 | 00:00:00 | 00:00:00 | |
| PETON7-10 | 2026-09-01 12:01:26 | 48.22804 | 16.78367 | 87° | 89km/h | 10919m | 6.4m/s | 0°C | 0% | 0hPa | 0V | 00:00:00 | 00:00:00 | 00:00:00 | |
| ATIDSZ-14 | 2026-09-01 12:01:24 | 48.22802 | 16.78334 | 87° | 84km/h | 10915m | 3.0m/s | 0°C | 0% | 0hPa | 0V | 00:00:00 | 00:00:00 | 00:00:00 | |
| PETON7-10 | 2026-09-01 12:01:09 | 48.22771 | 16.77832 | 87° | 88km/h | 10822m | 6.5m/s | 0°C | 0% | 0hPa | 0V | 00:00:00 | 00:00:00 | 00:00:00 | |
| PG1ADW-2 | 2026-09-01 12:01:05 | 48.22763 | 16.77700 | 81° | 88km/h | 10799m | 7.5m/s | 0°C | 0% | 0hPa | 0V | 00:00:00 | 00:00:00 | 00:00:00 | |
| ATIDSZ-14 | 2026-09-01 12:01:04 | 48.22762 | 16.77636 | 90° | 91km/h | 10788m | 2.8m/s | 0°C | 0% | 0hPa | 0V | 00:00:00 | 00:00:00 | 00:00:00 | |
| OE3OSB-13 | 2026-09-01 12:00:59 | 48.22750 | 16.77409 | 81° | 80km/h | 10744m | 8.7m/s | -49.5°C | 26.3% | 247.6hPa | 0V | 00:00:00 | 00:00:00 | 00:00:00 | |
| PETON7-10 | 2026-09-01 12:00:54 | 48.22742 | 16.77350 | 75° | 84km/h | 10728m | 8.8m/s | 0°C | 0% | 0hPa | 0V | 00:00:00 | 00:00:00 | 00:00:00 | |
| ATIDSZ-14 | 2026-09-01 12:00:41 | 48.22719 | 16.76934 | 88° | 99km/h | 10656m | 3.9m/s | 0°C | 0% | 0hPa | 0V | 00:00:00 | 00:00:00 | 00:00:00 | |
| PETON7-10 | 2026-09-01 12:00:37 | 48.22713 | 16.76802 | 88° | 88km/h | 10633m | 9.7m/s | 0°C | 0% | 0hPa | 0V | 00:00:00 | 00:00:00 | 00:00:00 | |
| OE3OSB-13 | 2026-09-01 12:00:28 | 48.22689 | 16.76484 | 91° | 91km/h | 10561m | 8.7m/s | -47.8°C | 26.5% | 254.5hPa | 0V | 00:00:00 | 00:00:00 | 00:00:00 | |
| PG1ADW-2 | 2026-09-01 12:00:27 | 48.22690 | 16.76447 | 92° | 97km/h | 10554m | 5.8m/s | 0°C | 0% | 0hPa | 0V | 00:00:00 | 00:00:00 | 00:00:00 | |
| PETON7-10 | 2026-09-01 12:00:22 | 48.22686 | 16.76317 | 84° | 97km/h | 10532m | 5.2m/s | 0°C | 0% | 0hPa | 0V | 00:00:00 | 00:00:00 | 00:00:00 | |
| ATIDSZ-14 | 2026-09-01 12:00:19 | 48.22684 | 16.76183 | 96° | 115km/h | 10507m | 3.9m/s | 0°C | 0% | 0hPa | 0V | 00:00:00 | 00:00:00 | 00:00:00 | |
| PETON7-10 | 2026-09-01 12:00:07 | 48.22693 | 16.75770 | 101° | 84km/h | 10433m | 3.4m/s | 0°C | 0% | 0hPa | 0V | 00:00:00 | 00:00:00 | 00:00:00 | |
| PG1ADW-2 | 2026-09-01 12:00:06 | 48.22696 | 16.75731 | 98° | 86km/h | 10430m | 3.6m/s | 0°C | 0% | 0hPa | 0V | 00:00:00 | 00:00:00 | 00:00:00 | |
| OE3OSB-13 | 2026-09-01 11:59:57 | 48.22695 | 16.75418 | 90° | 86km/h | 10359m | 6.7m/s | -45.8°C | 28.0% | 262.8hPa | 0V | 00:00:00 | 00:00:00 | 00:00:00 | |
| ATIDSZ-14 | 2026-09-01 11:59:55 | 48.22697 | 16.75351 | 98° | 93km/h | 10349m | 5.2m/s | 0°C | 0% | 0hPa | 0V | 00:00:00 | 00:00:00 | 00:00:00 | |
| PETON7-10 | 2026-09-01 11:59:50 | 48.22701 | 16.75193 | 98° | 88km/h | 10320m | 6.6m/s | 0°C | 0% | 0hPa | 0V | 00:00:00 | 00:00:00 | 00:00:00 | |
| PG1ADW-2 | 2026-09-01 11:59:46 | 48.22709 | 16.75098 | 99° | 89km/h | 10297m | 5.7m/s | 0°C | 0% | 0hPa | 0V | 00:00:00 | 00:00:00 | 00:00:00 | |
| PETON7-10 | 2026-09-01 11:59:34 | 48.22727 | 16.74696 | 88° | 86km/h | 10236m | 3.1m/s | 0°C | 0% | 0hPa | 0V | 00:00:00 | 00:00:00 | 00:00:00 | |
| OE3OSB-13 | 2026-09-01 11:59:26 | 48.22736 | 16.74390 | 94° | 82km/h | 10189m | 7.0m/s | -44.6°C | 27.3% | 269.8hPa | 0V | 00:00:00 | 00:00:00 | 00:00:00 | |
| PETON7-10 | 2026-09-01 11:59:19 | 48.22734 | 16.74203 | 92° | 86km/h | 10157m | 6.6m/s | 0°C | 0% | 0hPa | 0V | 00:00:00 | 00:00:00 | 00:00:00 | |
| ATIDSZ-14 | 2026-09-01 11:59:15 | 48.22736 | 16.74022 | 88° | 84km/h | 10131m | 5.2m/s | 0°C | 0% | 0hPa | 0V | 00:00:00 | 00:00:00 | 00:00:00 | |
| PG1ADW-2 | 2026-09-01 11:59:06 | 48.22736 | 16.73757 | 83° | 91km/h | 10080m | 4.3m/s | 0°C | 0% | 0hPa | 0V | 00:00:00 | 00:00:00 | 00:00:00 | |
| PETON7-10 | 2026-09-01 11:59:02 | 48.22732 | 16.73625 | 93° | 91km/h | 10059m | 6.5m/s | 0°C | 0% | 0hPa | 0V | 00:00:00 | 00:00:00 | 00:00:00 | |
| OE3OSB-13 | 2026-09-01 11:58:55 | 48.22722 | 16.73345 | 84° | 89km/h | 10017m | 7.3m/s | -43.3°C | 26.4% | 277.0hPa | 0V | 00:00:00 | 00:00:00 | 00:00:00 | |
| ATIDSZ-14 | 2026-09-01 11:58:53 | 48.22720 | 16.73313 | 87° | 80km/h | 10010m | 9.4m/s | 0°C | 0% | 0hPa | 0V | 00:00:00 | 00:00:00 | 00:00:00 | |
| PETON7-10 | 2026-09-01 11:58:47 | 48.22715 | 16.73107 | 93° | 91km/h | 9972m | 9.0m/s | 0°C | 0% | 0hPa | 0V | 00:00:00 | 00:00:00 | 00:00:00 | |
| PG1ADW-2 | 2026-09-01 11:58:46 | 48.22716 | 16.73072 | 90° | 93km/h | 9966m | 4.1m/s | 0°C | 0% | 0hPa | 0V | 00:00:00 | 00:00:00 | 00:00:00 | |
| PETON7-10 | 2026-09-01 11:58:32 | 48.22698 | 16.72595 | 83° | 88km/h | 9879m | 6.1m/s | 0°C | 0% | 0hPa | 0V | 00:00:00 | 00:00:00 | 00:00:00 | |
| OE3OSB-13 | 2026-09-01 11:58:24 | 48.22689 | 16.72284 | 86° | 82km/h | 9823m | 3.0m/s | -41.7°C | 21.9% | 285.0hPa | 0V | 00:00:00 | 00:00:00 | 00:00:00 | |
| OE3JTB-15 | 2026-09-01 11:58:19 | 48.22689 | 16.72051 | 93° | 93km/h | 9780m | 6.1m/s | 0°C | 0% | 0hPa | 0V | 00:00:00 | 00:00:00 | 00:00:00 | |
| PETON7-10 | 2026-09-01 11:58:17 | 48.22689 | 16.72051 | 93° | 89km/h | 9780m | 6.1m/s | 0°C | 0% | 0hPa | 0V | 00:00:00 | 00:00:00 | 00:00:00 | |
| PG1ADW-2 | 2026-09-01 11:58:03 | 48.22693 | 16.71609 | 89° | 95km/h | 9697m | 6.0m/s | 0°C | 0% | 0hPa | 0V | 00:00:00 | 00:00:00 | 00:00:00 | |
| PETON7-10 | 2026-09-01 11:58:01 | 48.22692 | 16.71538 | 88° | 95km/h | 9687m | 6.6m/s | 0°C | 0% | 0hPa | 0V | 00:00:00 | 00:00:00 | 00:00:00 | |
| OE3OSB-13 | 2026-09-01 11:57:53 | 48.22695 | 16.71206 | 95° | 88km/h | 9632m | 9.6m/s | -40.3°C | 31.4% | 293.3hPa | 0V | 00:00:00 | 00:00:00 | 00:00:00 | |
| PETON7-10 | 2026-09-01 11:57:46 | 48.22700 | 16.70999 | 86° | 93km/h | 9590m | 2.2m/s | 0°C | 0% | 0hPa | 0V | 00:00:00 | 00:00:00 | 00:00:00 | |
| PG1ADW-2 | 2026-09-01 11:57:42 | 48.22699 | 16.70850 | 94° | 89km/h | 9570m | 3.9m/s | 0°C | 0% | 0hPa | 0V | 00:00:00 | 00:00:00 | 00:00:00 | |
| PETON7-10 | 2026-09-01 11:57:31 | 48.22714 | 16.70472 | 92° | 91km/h | 9506m | 3.1m/s | 0°C | 0% | 0hPa | 0V | 00:00:00 | 00:00:00 | 00:00:00 | |
| OE3OSB-13 | 2026-09-01 11:57:22 | 48.22723 | 16.70134 | 86° | 82km/h | 9445m | 3.8m/s | -38.8°C | 34.0% | 301.7hPa | 0V | 00:00:00 | 00:00:00 | 00:00:00 | |
| PETON7-10 | 2026-09-01 11:57:15 | 48.22723 | 16.69924 | 88° | 89km/h | 9409m | 8.2m/s | 0°C | 0% | 0hPa | 0V | 00:00:00 | 00:00:00 | 00:00:00 | |
| PG1ADW-2 | 2026-09-01 11:57:14 | 48.22722 | 16.69889 | 91° | 88km/h | 9402m | 5.9m/s | 0°C | 0% | 0hPa | 0V | 00:00:00 | 00:00:00 | 00:00:00 | |
| PETON7-10 | 2026-09-01 11:57:00 | 48.22745 | 16.69424 | 92° | 84km/h | 9309m | 5.0m/s | 0°C | 0% | 0hPa | 0V | 00:00:00 | 00:00:00 | 00:00:00 | |
| OE3OSB-13 | 2026-09-01 11:56:51 | 48.22759 | 16.69100 | 95° | 88km/h | 9240m | 5.1m/s | -37.4°C | 33.1% | 310.9hPa | 0V | 00:00:00 | 00:00:00 | 00:00:00 | |
| PETON7-10 | 2026-09-01 11:56:44 | 48.22765 | 16.68918 | 102° | 84km/h | 9202m | 7.3m/s | 0°C | 0% | 0hPa | 0V | 00:00:00 | 00:00:00 | 00:00:00 | |
| PG1ADW-2 | 2026-09-01 11:56:33 | 48.22793 | 16.68562 | 101° | 82km/h | 9137m | 6.4m/s | 0°C | 0% | 0hPa | 0V | 00:00:00 | 00:00:00 | 00:00:00 | |
| PETON7-10 | 2026-09-01 11:56:27 | 48.22812 | 16.68373 | 97° | 84km/h | 9096m | 4.0m/s | 0°C | 0% | 0hPa | 0V | 00:00:00 | 00:00:00 | 00:00:00 | |
| OE3OSB-13 | 2026-09-01 11:56:20 | 48.22838 | 16.68131 | 97° | 93km/h | 9039m | 8.3m/s | -35.8°C | 24.3% | 320.1hPa | 0V | 00:00:00 | 00:00:00 | 00:00:00 | |
| PETON7-10 | 2026-09-01 11:56:10 | 48.22867 | 16.67844 | 98° | 84km/h | 8982m | 7.2m/s | 0°C | 0% | 0hPa | 0V | 00:00:00 | 00:00:00 | 00:00:00 | |
| OE3OSB-13 | 2026-09-01 11:55:49 | 48.22927 | 16.67129 | 95° | 86km/h | 8840m | 6.0m/s | -34.0°C | 18.2% | 329.6hPa | 0V | 00:00:00 | 00:00:00 | 00:00:00 | |
| PETON7-10 | 2026-09-01 11:55:38 | 48.22945 | 16.66824 | 93° | 89km/h | 8773m | 6.0m/s | 0°C | 0% | 0hPa | 0V | 00:00:00 | 00:00:00 | 00:00:00 | |
| PG1ADW-2 | 2026-09-01 11:55:28 | 48.22943 | 16.66496 | 92° | 93km/h | 8711m | 4.4m/s | 0°C | 0% | 0hPa | 0V | 00:00:00 | 00:00:00 | 00:00:00 | |
| OE3JTB-15 | 2026-09-01 11:55:23 | 48.22954 | 16.66233 | 89° | 91km/h | 8659m | 6.7m/s | 0°C | 0% | 0hPa | 0V | 00:00:00 | 00:00:00 | 00:00:00 | |
| OE3OSB-13 | 2026-09-01 11:55:17 | 48.22958 | 16.66096 | 98° | 80km/h | 8631m | 7.6m/s | -32.6°C | 12.5% | 339.6hPa | 0V | 00:00:00 | 00:00:00 | 00:00:00 | |
| PETON7-10 | 2026-09-01 11:55:06 | 48.22966 | 16.65753 | 98° | 89km/h | 8569m | 4.6m/s | 0°C | 0% | 0hPa | 0V | 00:00:00 | 00:00:00 | 00:00:00 | |
| OE3OSB-13 | 2026-09-01 11:54:46 | 48.23003 | 16.65066 | 99° | 100km/h | 8431m | 6.2m/s | -30.8°C | 11.7% | 349.5hPa | 0V | 00:00:00 | 00:00:00 | 00:00:00 | |
| PETON7-10 | 2026-09-01 11:54:35 | 48.23026 | 16.64736 | 93° | 84km/h | 8365m | 5.7m/s | 0°C | 0% | 0hPa | 0V | 00:00:00 | 00:00:00 | 00:00:00 | |
| PETON7-10 | 2026-09-01 11:54:21 | 48.23058 | 16.64245 | 97° | 86km/h | 8284m | 4.5m/s | 0°C | 0% | 0hPa | 0V | 00:00:00 | 00:00:00 | 00:00:00 | |
| OE3OSB-13 | 2026-09-01 11:54:16 | 48.23069 | 16.64053 | 90° | 86km/h | 8238m | 7.1m/s | -29.0°C | 13.4% | 359.5hPa | 0V | 00:00:00 | 00:00:00 | 00:00:00 | |
| PETON7-10 | 2026-09-01 11:54:05 | 48.23089 | 16.63763 | 94° | 88km/h | 8183m | 5.8m/s | 0°C | 0% | 0hPa | 0V | 00:00:00 | 00:00:00 | 00:00:00 | |
| OE3OSB-13 | 2026-09-01 11:53:44 | 48.23115 | 16.63061 | 96° | 91km/h | 8049m | 7.8m/s | -27.3°C | 13.2% | 369.1hPa | 0V | 00:00:00 | 00:00:00 | 00:00:00 | |
| OE3JTB-15 | 2026-09-01 11:53:37 | 48.23128 | 16.62806 | 91° | 88km/h | 7995m | 6.3m/s | 0°C | 0% | 0hPa | 0V | 00:00:00 | 00:00:00 | 00:00:00 | |
| PETON7-10 | 2026-09-01 11:53:35 | 48.23128 | 16.62806 | 91° | 88km/h | 7995m | 6.3m/s | 0°C | 0% | 0hPa | 0V | 00:00:00 | 00:00:00 | 00:00:00 | |
| PG1ADW-2 | 2026-09-01 11:53:21 | 48.23154 | 16.62349 | 85° | 86km/h | 7909m | 6.8m/s | 0°C | 0% | 0hPa | 0V | 00:00:00 | 00:00:00 | 00:00:00 | |
| PETON7-10 | 2026-09-01 11:53:20 | 48.23153 | 16.62319 | 90° | 89km/h | 7902m | 6.6m/s | 0°C | 0% | 0hPa | 0V | 00:00:00 | 00:00:00 | 00:00:00 | |
| OE3OSB-13 | 2026-09-01 11:53:13 | 48.23157 | 16.62064 | 87° | 93km/h | 7855m | 6.9m/s | -25.9°C | 18.7% | 379.2hPa | 0V | 00:00:00 | 00:00:00 | 00:00:00 | |
| OE3JTB-15 | 2026-09-01 11:53:08 | 48.23154 | 16.61815 | 90° | 88km/h | 7812m | 3.4m/s | 0°C | 0% | 0hPa | 0V | 00:00:00 | 00:00:00 | 00:00:00 | |
| PETON7-10 | 2026-09-01 11:53:05 | 48.23154 | 16.61815 | 90° | 84km/h | 7812m | 3.4m/s | 0°C | 0% | 0hPa | 0V | 00:00:00 | 00:00:00 | 00:00:00 | |
| PETON7-10 | 2026-09-01 11:52:50 | 48.23133 | 16.61341 | 82° | 89km/h | 7724m | 1.6m/s | 0°C | 0% | 0hPa | 0V | 00:00:00 | 00:00:00 | 00:00:00 | |
| OE3OSB-13 | 2026-09-01 11:52:42 | 48.23111 | 16.61040 | 83° | 95km/h | 7663m | 7.8m/s | -24.7°C | 25.4% | 389.5hPa | 0V | 00:00:00 | 00:00:00 | 00:00:00 | |
| PETON7-10 | 2026-09-01 11:52:35 | 48.23099 | 16.60849 | 83° | 91km/h | 7631m | 5.1m/s | 0°C | 0% | 0hPa | 0V | 00:00:00 | 00:00:00 | 00:00:00 | |
| PETON7-10 | 2026-09-01 11:52:20 | 48.23052 | 16.60332 | 80° | 88km/h | 7547m | 7.4m/s | 0°C | 0% | 0hPa | 0V | 00:00:00 | 00:00:00 | 00:00:00 | |
| OE3OSB-13 | 2026-09-01 11:52:12 | 48.23013 | 16.60019 | 79° | 89km/h | 7488m | 2.8m/s | -23.3°C | 21.6% | 399.1hPa | 0V | 00:00:00 | 00:00:00 | 00:00:00 | |
| OE3JTB-15 | 2026-09-01 11:52:08 | 48.22990 | 16.59848 | 77° | 86km/h | 7468m | 5.1m/s | 0°C | 0% | 0hPa | 0V | 00:00:00 | 00:00:00 | 00:00:00 | |
| PETON7-10 | 2026-09-01 11:52:05 | 48.22990 | 16.59848 | 77° | 84km/h | 7468m | 5.1m/s | 0°C | 0% | 0hPa | 0V | 00:00:00 | 00:00:00 | 00:00:00 | |
| PETON7-10 | 2026-09-01 11:51:49 | 48.22959 | 16.59347 | 81° | 86km/h | 7385m | 10.6m/s | 0°C | 0% | 0hPa | 0V | 00:00:00 | 00:00:00 | 00:00:00 | |
| OE3JTB-15 | 2026-09-01 11:51:38 | 48.22927 | 16.58896 | 88° | 88km/h | 7298m | 7.2m/s | 0°C | 0% | 0hPa | 0V | 00:00:00 | 00:00:00 | 00:00:00 | |
| PETON7-10 | 2026-09-01 11:51:34 | 48.22925 | 16.58862 | 81° | 86km/h | 7291m | 5.3m/s | 0°C | 0% | 0hPa | 0V | 00:00:00 | 00:00:00 | 00:00:00 | |
| PG1ADW-2 | 2026-09-01 11:51:19 | 48.22900 | 16.58381 | 89° | 80km/h | 7210m | 5.0m/s | 0°C | 0% | 0hPa | 0V | 00:00:00 | 00:00:00 | 00:00:00 | |
| PETON7-10 | 2026-09-01 11:51:18 | 48.22898 | 16.58349 | 83° | 82km/h | 7206m | 2.1m/s | 0°C | 0% | 0hPa | 0V | 00:00:00 | 00:00:00 | 00:00:00 | |
| OE3OSB-13 | 2026-09-01 11:51:09 | 48.22885 | 16.58035 | 89° | 80km/h | 7147m | 6.5m/s | -20.6°C | 27.6% | 418.3hPa | 0V | 00:00:00 | 00:00:00 | 00:00:00 | |
| OE3JTB-15 | 2026-09-01 11:51:08 | 48.22879 | 16.57939 | 83° | 88km/h | 7128m | 9.0m/s | 0°C | 0% | 0hPa | 0V | 00:00:00 | 00:00:00 | 00:00:00 | |
| PETON7-10 | 2026-09-01 11:51:03 | 48.22878 | 16.57882 | 92° | 84km/h | 7113m | 5.0m/s | 0°C | 0% | 0hPa | 0V | 00:00:00 | 00:00:00 | 00:00:00 | |
| PG1ADW-2 | 2026-09-01 11:50:53 | 48.22854 | 16.57530 | 90° | 91km/h | 7054m | 6.7m/s | 0°C | 0% | 0hPa | 0V | 00:00:00 | 00:00:00 | 00:00:00 | |
| PETON7-10 | 2026-09-01 11:50:47 | 48.22848 | 16.57367 | 78° | 86km/h | 7024m | 5.5m/s | 0°C | 0% | 0hPa | 0V | 00:00:00 | 00:00:00 | 00:00:00 | |
| OE3OSB-13 | 2026-09-01 11:50:38 | 48.22809 | 16.57054 | 88° | 80km/h | 6965m | 6.5m/s | -19.2°C | 19.5% | 428.8hPa | 0V | 00:00:00 | 00:00:00 | 00:00:00 | |
| OE3JTB-15 | 2026-09-01 11:50:36 | 48.22804 | 16.56925 | 89° | 88km/h | 6939m | 7.0m/s | 0°C | 0% | 0hPa | 0V | 00:00:00 | 00:00:00 | 00:00:00 | |
| PETON7-10 | 2026-09-01 11:50:30 | 48.22801 | 16.56822 | 85° | 84km/h | 6920m | 5.5m/s | 0°C | 0% | 0hPa | 0V | 00:00:00 | 00:00:00 | 00:00:00 | |
| PETON7-10 | 2026-09-01 11:50:15 | 48.22754 | 16.56354 | 84° | 84km/h | 6830m | 7.0m/s | 0°C | 0% | 0hPa | 0V | 00:00:00 | 00:00:00 | 00:00:00 | |
| PG1ADW-2 | 2026-09-01 11:50:10 | 48.22743 | 16.56195 | 83° | 88km/h | 6793m | 7.5m/s | 0°C | 0% | 0hPa | 0V | 00:00:00 | 00:00:00 | 00:00:00 | |
| OE3OSB-13 | 2026-09-01 11:50:07 | 48.22728 | 16.56060 | 77° | 80km/h | 6771m | 5.3m/s | -17.8°C | 21.9% | 440.3hPa | 0V | 00:00:00 | 00:00:00 | 00:00:00 | |
| PETON7-10 | 2026-09-01 11:50:00 | 48.22717 | 16.55886 | 87° | 88km/h | 6733m | 8.6m/s | 0°C | 0% | 0hPa | 0V | 00:00:00 | 00:00:00 | 00:00:00 | |
| PG1ADW-2 | 2026-09-01 11:49:50 | 48.22703 | 16.55546 | 86° | 84km/h | 6668m | 5.1m/s | 0°C | 0% | 0hPa | 0V | 00:00:00 | 00:00:00 | 00:00:00 | |
| PETON7-10 | 2026-09-01 11:49:44 | 48.22688 | 16.55367 | 85° | 82km/h | 6634m | 5.4m/s | 0°C | 0% | 0hPa | 0V | 00:00:00 | 00:00:00 | 00:00:00 | |
| OE3OSB-13 | 2026-09-01 11:49:36 | 48.22689 | 16.55078 | 94° | 86km/h | 6574m | 7.2m/s | -16.2°C | 20.8% | 452.2hPa | 0V | 00:00:00 | 00:00:00 | 00:00:00 | |
| PETON7-10 | 2026-09-01 11:49:28 | 48.22691 | 16.54864 | 89° | 82km/h | 6528m | 6.2m/s | 0°C | 0% | 0hPa | 0V | 00:00:00 | 00:00:00 | 00:00:00 | |
| PETON7-10 | 2026-09-01 11:49:13 | 48.22694 | 16.54395 | 87° | 73km/h | 6445m | 5.6m/s | 0°C | 0% | 0hPa | 0V | 00:00:00 | 00:00:00 | 00:00:00 | |
| PG1ADW-2 | 2026-09-01 11:49:10 | 48.22690 | 16.54306 | 90° | 73km/h | 6422m | 6.0m/s | 0°C | 0% | 0hPa | 0V | 00:00:00 | 00:00:00 | 00:00:00 | |
| OE3OSB-13 | 2026-09-01 11:49:05 | 48.22696 | 16.54133 | 90° | 64km/h | 6383m | 4.4m/s | -14.7°C | 18.0% | 463.7hPa | 0V | 00:00:00 | 00:00:00 | 00:00:00 | |
| OE3JTB-15 | 2026-09-01 11:49:01 | 48.22688 | 16.53973 | 93° | 75km/h | 6351m | 5.5m/s | 0°C | 0% | 0hPa | 0V | 00:00:00 | 00:00:00 | 00:00:00 | |
| PETON7-10 | 2026-09-01 11:48:58 | 48.22688 | 16.53973 | 93° | 75km/h | 6351m | 5.5m/s | 0°C | 0% | 0hPa | 0V | 00:00:00 | 00:00:00 | 00:00:00 | |
| PG1ADW-2 | 2026-09-01 11:48:48 | 48.22681 | 16.53676 | 88° | 69km/h | 6291m | 8.4m/s | 0°C | 0% | 0hPa | 0V | 00:00:00 | 00:00:00 | 00:00:00 | |
| PETON7-10 | 2026-09-01 11:48:43 | 48.22686 | 16.53538 | 94° | 73km/h | 6255m | 7.4m/s | 0°C | 0% | 0hPa | 0V | 00:00:00 | 00:00:00 | 00:00:00 | |
| OE3OSB-13 | 2026-09-01 11:48:34 | 48.22699 | 16.53264 | 85° | 78km/h | 6202m | 4.2m/s | -13.2°C | 16.5% | 475.3hPa | 0V | 00:00:00 | 00:00:00 | 00:00:00 | |
| OE3JTB-15 | 2026-09-01 11:48:32 | 48.22701 | 16.53148 | 91° | 71km/h | 6179m | 7.0m/s | 0°C | 0% | 0hPa | 0V | 00:00:00 | 00:00:00 | 00:00:00 | |
| PETON7-10 | 2026-09-01 11:48:27 | 48.22698 | 16.53091 | 84° | 71km/h | 6166m | 2.2m/s | 0°C | 0% | 0hPa | 0V | 00:00:00 | 00:00:00 | 00:00:00 | |
| PETON7-10 | 2026-09-01 11:48:12 | 48.22682 | 16.52688 | 88° | 68km/h | 6094m | 6.1m/s | 0°C | 0% | 0hPa | 0V | 00:00:00 | 00:00:00 | 00:00:00 | |
| OE3OSB-13 | 2026-09-01 11:48:03 | 48.22666 | 16.52429 | 86° | 73km/h | 6038m | 6.1m/s | -12.0°C | 14.0% | 485.6hPa | 0V | 00:00:00 | 00:00:00 | 00:00:00 | |
| PG1ADW-2 | 2026-09-01 11:47:58 | 48.22669 | 16.52324 | 93° | 71km/h | 6018m | 3.4m/s | 0°C | 0% | 0hPa | 0V | 00:00:00 | 00:00:00 | 00:00:00 | |
| PETON7-10 | 2026-09-01 11:47:57 | 48.22671 | 16.52299 | 99° | 75km/h | 6014m | 3.4m/s | 0°C | 0% | 0hPa | 0V | 00:00:00 | 00:00:00 | 00:00:00 | |
| PETON7-10 | 2026-09-01 11:47:40 | 48.22668 | 16.51814 | 93° | 75km/h | 5929m | 3.1m/s | 0°C | 0% | 0hPa | 0V | 00:00:00 | 00:00:00 | 00:00:00 | |
| OE3OSB-13 | 2026-09-01 11:47:32 | 48.22673 | 16.51540 | 93° | 71km/h | 5877m | 6.1m/s | -11.6°C | 22.4% | 496.0hPa | 0V | 00:00:00 | 00:00:00 | 00:00:00 | |
| OE3JTB-15 | 2026-09-01 11:47:30 | 48.22683 | 16.51454 | 95° | 73km/h | 5862m | 2.7m/s | 0°C | 0% | 0hPa | 0V | 00:00:00 | 00:00:00 | 00:00:00 | |
| PETON7-10 | 2026-09-01 11:47:25 | 48.22684 | 16.51403 | 89° | 73km/h | 5854m | 5.0m/s | 0°C | 0% | 0hPa | 0V | 00:00:00 | 00:00:00 | 00:00:00 | |
| S52SK | 2026-09-01 11:47:19 | 48.22680 | 16.51237 | 88° | 75km/h | 5819m | 6.5m/s | 0°C | 0% | 0hPa | 0V | 00:00:00 | 00:00:00 | 00:00:00 | |
| S52SK | 2026-09-01 11:47:15 | 48.22677 | 16.51098 | 96° | 82km/h | 5793m | 6.8m/s | 0°C | 0% | 0hPa | 0V | 00:00:00 | 00:00:00 | 00:00:00 | |
| PETON7-10 | 2026-09-01 11:47:10 | 48.22682 | 16.50982 | 91° | 75km/h | 5773m | 5.6m/s | 0°C | 0% | 0hPa | 0V | 00:00:00 | 00:00:00 | 00:00:00 | |
| S52SK | 2026-09-01 11:47:06 | 48.22684 | 16.50866 | 92° | 89km/h | 5750m | 2.0m/s | 0°C | 0% | 0hPa | 0V | 00:00:00 | 00:00:00 | 00:00:00 | |
| OE3OSB-13 | 2026-09-01 11:47:04 | 48.22688 | 16.50669 | 95° | 68km/h | 5713m | 7.5m/s | -10.3°C | 28.0% | 506.8hPa | 0V | 00:00:00 | 00:00:00 | 00:00:00 | |
| S52SK | 2026-09-01 11:46:59 | 48.22688 | 16.50669 | 97° | 69km/h | 5713m | 7.5m/s | 0°C | 0% | 0hPa | 0V | 00:00:00 | 00:00:00 | 00:00:00 | |
| PETON7-10 | 2026-09-01 11:46:55 | 48.22692 | 16.50555 | 85° | 77km/h | 5693m | 5.4m/s | 0°C | 0% | 0hPa | 0V | 00:00:00 | 00:00:00 | 00:00:00 | |
| S52SK | 2026-09-01 11:46:53 | 48.22691 | 16.50500 | 93° | 73km/h | 5682m | 5.5m/s | 0°C | 0% | 0hPa | 0V | 00:00:00 | 00:00:00 | 00:00:00 | |
| S52SK | 2026-09-01 11:46:46 | 48.22693 | 16.50292 | 89° | 86km/h | 5649m | 3.5m/s | 0°C | 0% | 0hPa | 0V | 00:00:00 | 00:00:00 | 00:00:00 | |
| PETON7-10 | 2026-09-01 11:46:40 | 48.22692 | 16.50127 | 102° | 73km/h | 5621m | 4.1m/s | 0°C | 0% | 0hPa | 0V | 00:00:00 | 00:00:00 | 00:00:00 | |
| OE3OSB-13 | 2026-09-01 11:46:29 | 48.22718 | 16.49787 | 104° | 64km/h | 5543m | 4.8m/s | -9.2°C | 23.5% | 518.2hPa | 0V | 00:00:00 | 00:00:00 | 00:00:00 | |
| PETON7-10 | 2026-09-01 11:46:25 | 48.22729 | 16.49703 | 100° | 75km/h | 5528m | 4.6m/s | 0°C | 0% | 0hPa | 0V | 00:00:00 | 00:00:00 | 00:00:00 | |
| OE3JTB-15 | 2026-09-01 11:46:24 | 48.22739 | 16.49578 | 99° | 75km/h | 5510m | 5.1m/s | 0°C | 0% | 0hPa | 0V | 00:00:00 | 00:00:00 | 00:00:00 | |
| PETON7-10 | 2026-09-01 11:46:10 | 48.22781 | 16.49278 | 114° | 78km/h | 5455m | 4.9m/s | 0°C | 0% | 0hPa | 0V | 00:00:00 | 00:00:00 | 00:00:00 | |
| OE3OSB-13 | 2026-09-01 11:45:59 | 48.22826 | 16.48902 | 98° | 80km/h | 5381m | 3.8m/s | -8.5°C | 19.2% | 529.1hPa | 0V | 00:00:00 | 00:00:00 | 00:00:00 | |
| OE3JTB-15 | 2026-09-01 11:45:55 | 48.22849 | 16.48772 | 105° | 75km/h | 5358m | 5.9m/s | 0°C | 0% | 0hPa | 0V | 00:00:00 | 00:00:00 | 00:00:00 | |
| S52SK | 2026-09-01 11:45:52 | 48.22849 | 16.48772 | 106° | 77km/h | 5358m | 6.0m/s | 0°C | 0% | 0hPa | 0V | 00:00:00 | 00:00:00 | 00:00:00 | |
| S52SK | 2026-09-01 11:45:46 | 48.22882 | 16.48601 | 114° | 80km/h | 5325m | 3.8m/s | 0°C | 0% | 0hPa | 0V | 00:00:00 | 00:00:00 | 00:00:00 | |
| PETON7-10 | 2026-09-01 11:45:40 | 48.22908 | 16.48429 | 102° | 73km/h | 5297m | 3.6m/s | 0°C | 0% | 0hPa | 0V | 00:00:00 | 00:00:00 | 00:00:00 | |
| PG1ADW-2 | 2026-09-01 11:45:35 | 48.22924 | 16.48286 | 100° | 71km/h | 5273m | 2.3m/s | 0°C | 0% | 0hPa | 0V | 00:00:00 | 00:00:00 | 00:00:00 | |
| OE3JTB-15 | 2026-09-01 11:45:27 | 48.22982 | 16.47996 | 109° | 71km/h | 5215m | 6.5m/s | 0°C | 0% | 0hPa | 0V | 00:00:00 | 00:00:00 | 00:00:00 | |
| PETON7-10 | 2026-09-01 11:45:24 | 48.22987 | 16.47969 | 106° | 75km/h | 5209m | 3.7m/s | 0°C | 0% | 0hPa | 0V | 00:00:00 | 00:00:00 | 00:00:00 | |
| PG1ADW-2 | 2026-09-01 11:45:15 | 48.23026 | 16.47772 | 95° | 73km/h | 5168m | 5.5m/s | 0°C | 0% | 0hPa | 0V | 00:00:00 | 00:00:00 | 00:00:00 | |
| PETON7-10 | 2026-09-01 11:45:08 | 48.23052 | 16.47575 | 105° | 69km/h | 5128m | 3.2m/s | 0°C | 0% | 0hPa | 0V | 00:00:00 | 00:00:00 | 00:00:00 | |
| OE3OSB-13 | 2026-09-01 11:44:56 | 48.23084 | 16.47241 | 98° | 73km/h | 5058m | 4.4m/s | -6.8°C | 5.4% | 551.9hPa | 0V | 00:00:00 | 00:00:00 | 00:00:00 | |
| PG1ADW-2 | 2026-09-01 11:44:54 | 48.23086 | 16.47213 | 97° | 68km/h | 5055m | 3.0m/s | 0°C | 0% | 0hPa | 0V | 00:00:00 | 00:00:00 | 00:00:00 | |
| PETON7-10 | 2026-09-01 11:44:53 | 48.23089 | 16.47186 | 100° | 68km/h | 5051m | 4.4m/s | 0°C | 0% | 0hPa | 0V | 00:00:00 | 00:00:00 | 00:00:00 | |
| S52SK | 2026-09-01 11:44:49 | 48.23097 | 16.47053 | 97° | 68km/h | 5024m | 4.8m/s | 0°C | 0% | 0hPa | 0V | 00:00:00 | 00:00:00 | 00:00:00 | |
| PETON7-10 | 2026-09-01 11:44:38 | 48.23132 | 16.46808 | 109° | 62km/h | 4978m | 3.8m/s | 0°C | 0% | 0hPa | 0V | 00:00:00 | 00:00:00 | 00:00:00 | |
| OE3OSB-13 | 2026-09-01 11:44:26 | 48.23178 | 16.46486 | 98° | 68km/h | 4908m | 4.5m/s | -6.1°C | 5.2% | 563.1hPa | 0V | 00:00:00 | 00:00:00 | 00:00:00 | |
| PETON7-10 | 2026-09-01 11:44:22 | 48.23183 | 16.46440 | 103° | 64km/h | 4898m | 3.4m/s | 0°C | 0% | 0hPa | 0V | 00:00:00 | 00:00:00 | 00:00:00 | |
| PETON7-10 | 2026-09-01 11:44:05 | 48.23224 | 16.46015 | 105° | 64km/h | 4803m | 4.4m/s | 0°C | 0% | 0hPa | 0V | 00:00:00 | 00:00:00 | 00:00:00 | |
| OE3OSB-13 | 2026-09-01 11:43:54 | 48.23251 | 16.45748 | 98° | 66km/h | 4740m | 4.8m/s | -5.4°C | 5.6% | 574.9hPa | 0V | 00:00:00 | 00:00:00 | 00:00:00 | |
| S52SK | 2026-09-01 11:43:53 | 48.23251 | 16.45748 | 100° | 68km/h | 4741m | 4.8m/s | 0°C | 0% | 0hPa | 0V | 00:00:00 | 00:00:00 | 00:00:00 | |
| PETON7-10 | 2026-09-01 11:43:48 | 48.23275 | 16.45638 | 114° | 64km/h | 4716m | 1.0m/s | 0°C | 0% | 0hPa | 0V | 00:00:00 | 00:00:00 | 00:00:00 | |
| PETON7-10 | 2026-09-01 11:43:33 | 48.23300 | 16.45279 | 85° | 57km/h | 4635m | 3.5m/s | 0°C | 0% | 0hPa | 0V | 00:00:00 | 00:00:00 | 00:00:00 | |
| OE3JTB-15 | 2026-09-01 11:43:27 | 48.23290 | 16.45151 | 86° | 51km/h | 4597m | 5.9m/s | 0°C | 0% | 0hPa | 0V | 00:00:00 | 00:00:00 | 00:00:00 | |
| OE3OSB-13 | 2026-09-01 11:43:23 | 48.23277 | 16.45044 | 78° | 60km/h | 4572m | 4.5m/s | -5.4°C | 11.7% | 587.6hPa | 0V | 00:00:00 | 00:00:00 | 00:00:00 | |
| PETON7-10 | 2026-09-01 11:43:17 | 48.23264 | 16.44940 | 82° | 57km/h | 4542m | 5.0m/s | 0°C | 0% | 0hPa | 0V | 00:00:00 | 00:00:00 | 00:00:00 | |
| PG1ADW-2 | 2026-09-01 11:43:07 | 48.23247 | 16.44743 | 65° | 53km/h | 4486m | 4.6m/s | 0°C | 0% | 0hPa | 0V | 00:00:00 | 00:00:00 | 00:00:00 | |
| S52SK | 2026-09-01 11:43:05 | 48.23236 | 16.44706 | 73° | 57km/h | 4475m | 4.7m/s | 0°C | 0% | 0hPa | 0V | 00:00:00 | 00:00:00 | 00:00:00 | |
| PETON7-10 | 2026-09-01 11:43:02 | 48.23222 | 16.44645 | 73° | 51km/h | 4456m | 5.0m/s | 0°C | 0% | 0hPa | 0V | 00:00:00 | 00:00:00 | 00:00:00 | |
| OE3OSB-13 | 2026-09-01 11:42:52 | 48.23189 | 16.44429 | 84° | 49km/h | 4399m | 3.6m/s | -4.7°C | 15.7% | 600.8hPa | 0V | 00:00:00 | 00:00:00 | 00:00:00 | |
| PETON7-10 | 2026-09-01 11:42:47 | 48.23188 | 16.44355 | 99° | 53km/h | 4376m | 4.2m/s | 0°C | 0% | 0hPa | 0V | 00:00:00 | 00:00:00 | 00:00:00 | |
| PETON7-10 | 2026-09-01 11:42:32 | 48.23151 | 16.44066 | 70° | 51km/h | 4304m | 3.0m/s | 0°C | 0% | 0hPa | 0V | 00:00:00 | 00:00:00 | 00:00:00 | |
| OE3JTB-15 | 2026-09-01 11:42:30 | 48.23145 | 16.44015 | 90° | 47km/h | 4285m | 5.3m/s | 0°C | 0% | 0hPa | 0V | 00:00:00 | 00:00:00 | 00:00:00 | |
| OE3OSB-13 | 2026-09-01 11:42:21 | 48.23134 | 16.43841 | 77° | 44km/h | 4232m | 4.3m/s | -3.7°C | 17.9% | 613.8hPa | 0V | 00:00:00 | 00:00:00 | 00:00:00 | |
| PETON7-10 | 2026-09-01 11:42:18 | 48.23120 | 16.43789 | 74° | 46km/h | 4216m | 3.6m/s | 0°C | 0% | 0hPa | 0V | 00:00:00 | 00:00:00 | 00:00:00 | |
| S52SK | 2026-09-01 11:42:11 | 48.23108 | 16.43668 | 80° | 55km/h | 4184m | 4.7m/s | 0°C | 0% | 0hPa | 0V | 00:00:00 | 00:00:00 | 00:00:00 | |
| S52SK | 2026-09-01 11:42:05 | 48.23098 | 16.43585 | 91° | 42km/h | 4151m | 4.3m/s | 0°C | 0% | 0hPa | 0V | 00:00:00 | 00:00:00 | 00:00:00 | |
| PETON7-10 | 2026-09-01 11:42:02 | 48.23093 | 16.43532 | 82° | 44km/h | 4135m | 5.8m/s | 0°C | 0% | 0hPa | 0V | 00:00:00 | 00:00:00 | 00:00:00 | |
| OE3OSB-13 | 2026-09-01 11:41:50 | 48.23073 | 16.43320 | 92° | 46km/h | 4059m | 3.4m/s | -2.3°C | 17.8% | 627.7hPa | 0V | 00:00:00 | 00:00:00 | 00:00:00 | |
| PETON7-10 | 2026-09-01 11:41:47 | 48.23074 | 16.43280 | 86° | 44km/h | 4050m | 5.2m/s | 0°C | 0% | 0hPa | 0V | 00:00:00 | 00:00:00 | 00:00:00 | |
| PETON7-10 | 2026-09-01 11:41:31 | 48.23062 | 16.43011 | 106° | 44km/h | 3956m | 6.0m/s | 0°C | 0% | 0hPa | 0V | 00:00:00 | 00:00:00 | 00:00:00 | |
| OE3OSB-13 | 2026-09-01 11:41:19 | 48.23071 | 16.42787 | 84° | 44km/h | 3872m | 5.1m/s | -1.6°C | 24.3% | 642.7hPa | 0V | 00:00:00 | 00:00:00 | 00:00:00 | |
| OE3JTB-15 | 2026-09-01 11:41:18 | 48.23071 | 16.42786 | 85° | 51km/h | 3873m | 5.1m/s | 0°C | 0% | 0hPa | 0V | 00:00:00 | 00:00:00 | 00:00:00 | |
| PETON7-10 | 2026-09-01 11:41:13 | 48.23081 | 16.42712 | 108° | 51km/h | 3848m | 3.0m/s | 0°C | 0% | 0hPa | 0V | 00:00:00 | 00:00:00 | 00:00:00 | |
| S52SK | 2026-09-01 11:41:11 | 48.23086 | 16.42683 | 102° | 47km/h | 3839m | 4.6m/s | 0°C | 0% | 0hPa | 0V | 00:00:00 | 00:00:00 | 00:00:00 | |
| OE3OSB-13 | 2026-09-01 11:40:48 | 48.23125 | 16.42200 | 103° | 66km/h | 3698m | 5.0m/s | -0.7°C | 27.5% | 656.8hPa | 0V | 00:00:00 | 00:00:00 | 00:00:00 | |
| OE3JTB-15 | 2026-09-01 11:40:47 | 48.23124 | 16.42199 | 104° | 57km/h | 3699m | 5.0m/s | 0°C | 0% | 0hPa | 0V | 00:00:00 | 00:00:00 | 00:00:00 | |
| PETON7-10 | 2026-09-01 11:40:43 | 48.23132 | 16.42115 | 84° | 57km/h | 3676m | 7.3m/s | 0°C | 0% | 0hPa | 0V | 00:00:00 | 00:00:00 | 00:00:00 | |
| PETON7-10 | 2026-09-01 11:40:28 | 48.23160 | 16.41800 | 98° | 51km/h | 3590m | 6.8m/s | 0°C | 0% | 0hPa | 0V | 00:00:00 | 00:00:00 | 00:00:00 | |
| OE3JTB-15 | 2026-09-01 11:40:19 | 48.23173 | 16.41594 | 88° | 47km/h | 3523m | 7.3m/s | 0°C | 0% | 0hPa | 0V | 00:00:00 | 00:00:00 | 00:00:00 | |
| OE3OSB-13 | 2026-09-01 11:40:17 | 48.23175 | 16.41553 | 96° | 49km/h | 3510m | 5.0m/s | 0.1°C | 32.8% | 672.9hPa | 0V | 00:00:00 | 00:00:00 | 00:00:00 | |
| PETON7-10 | 2026-09-01 11:40:13 | 48.23173 | 16.41499 | 84° | 49km/h | 3490m | 6.3m/s | 0°C | 0% | 0hPa | 0V | 00:00:00 | 00:00:00 | 00:00:00 | |
| OE3OSB-13 | 2026-09-01 11:39:46 | 48.23203 | 16.41004 | 108° | 37km/h | 3321m | 5.3m/s | -0.0°C | 39.6% | 688.5hPa | 0V | 00:00:00 | 00:00:00 | 00:00:00 | |
| PETON7-10 | 2026-09-01 11:39:42 | 48.23213 | 16.40955 | 99° | 40km/h | 3302m | 4.6m/s | 0°C | 0% | 0hPa | 0V | 00:00:00 | 00:00:00 | 00:00:00 | |
| PETON7-10 | 2026-09-01 11:39:26 | 48.23240 | 16.40724 | 118° | 35km/h | 3203m | 4.0m/s | 0°C | 0% | 0hPa | 0V | 00:00:00 | 00:00:00 | 00:00:00 | |
| OE3JTB-15 | 2026-09-01 11:39:20 | 48.23258 | 16.40648 | 108° | 33km/h | 3170m | 6.0m/s | 0°C | 0% | 0hPa | 0V | 00:00:00 | 00:00:00 | 00:00:00 | |
| OE3OSB-13 | 2026-09-01 11:39:15 | 48.23270 | 16.40560 | 102° | 38km/h | 3133m | 5.3m/s | -0.2°C | 64.1% | 705.5hPa | 0V | 00:00:00 | 00:00:00 | 00:00:00 | |
| PETON7-10 | 2026-09-01 11:39:11 | 48.23273 | 16.40534 | 104° | 31km/h | 3121m | 5.4m/s | 0°C | 0% | 0hPa | 0V | 00:00:00 | 00:00:00 | 00:00:00 | |
| OE3OSB-13 | 2026-09-01 11:38:43 | 48.23320 | 16.40207 | 104° | 37km/h | 2953m | 5.5m/s | 0.8°C | 72.6% | 721.8hPa | 0V | 00:00:00 | 00:00:00 | 00:00:00 | |
| PETON7-10 | 2026-09-01 11:38:41 | 48.23321 | 16.40192 | 94° | 35km/h | 2947m | 4.0m/s | 0°C | 0% | 0hPa | 0V | 00:00:00 | 00:00:00 | 00:00:00 | |
| PETON7-10 | 2026-09-01 11:38:26 | 48.23358 | 16.40013 | 123° | 38km/h | 2863m | 5.2m/s | 0°C | 0% | 0hPa | 0V | 00:00:00 | 00:00:00 | 00:00:00 | |
| OE3JTB-15 | 2026-09-01 11:38:22 | 48.23374 | 16.39960 | 90° | 37km/h | 2838m | 3.6m/s | 0°C | 0% | 0hPa | 0V | 00:00:00 | 00:00:00 | 00:00:00 | |
| OE3OSB-13 | 2026-09-01 11:38:12 | 48.23410 | 16.39813 | 103° | 31km/h | 2774m | 3.4m/s | 2.1°C | 78.0% | 737.9hPa | 0V | 00:00:00 | 00:00:00 | 00:00:00 | |
| PETON7-10 | 2026-09-01 11:38:11 | 48.23410 | 16.39813 | 104° | 35km/h | 2774m | 3.4m/s | 0°C | 0% | 0hPa | 0V | 00:00:00 | 00:00:00 | 00:00:00 | |
| PETON7-10 | 2026-09-01 11:37:56 | 48.23462 | 16.39614 | 83° | 29km/h | 2694m | 5.0m/s | 0°C | 0% | 0hPa | 0V | 00:00:00 | 00:00:00 | 00:00:00 | |
| OE3JTB-15 | 2026-09-01 11:37:53 | 48.23458 | 16.39577 | 89° | 33km/h | 2684m | 3.5m/s | 0°C | 0% | 0hPa | 0V | 00:00:00 | 00:00:00 | 00:00:00 | |
| PETON7-10 | 2026-09-01 11:37:41 | 48.23484 | 16.39444 | 99° | 35km/h | 2616m | 4.2m/s | 0°C | 0% | 0hPa | 0V | 00:00:00 | 00:00:00 | 00:00:00 | |
| PETON7-10 | 2026-09-01 11:37:26 | 48.23535 | 16.39264 | 137° | 37km/h | 2531m | 6.3m/s | 0°C | 0% | 0hPa | 0V | 00:00:00 | 00:00:00 | 00:00:00 | |
| OE3JTB-15 | 2026-09-01 11:37:24 | 48.23547 | 16.39240 | 115° | 35km/h | 2521m | 3.4m/s | 0°C | 0% | 0hPa | 0V | 00:00:00 | 00:00:00 | 00:00:00 | |
| PETON7-10 | 2026-09-01 11:37:11 | 48.23603 | 16.39085 | 115° | 33km/h | 2437m | 4.5m/s | 0°C | 0% | 0hPa | 0V | 00:00:00 | 00:00:00 | 00:00:00 | |
| OE3OSB-13 | 2026-09-01 11:37:10 | 48.23610 | 16.39064 | 124° | 27km/h | 2426m | 5.2m/s | 4.6°C | 77.7% | 770.7hPa | 0V | 00:00:00 | 00:00:00 | 00:00:00 | |
| PETON7-10 | 2026-09-01 11:36:56 | 48.23676 | 16.38931 | 134° | 37km/h | 2358m | 4.2m/s | 0°C | 0% | 0hPa | 0V | 00:00:00 | 00:00:00 | 00:00:00 | |
| OE3JTB-15 | 2026-09-01 11:36:55 | 48.23687 | 16.38918 | 141° | 33km/h | 2349m | 4.8m/s | 0°C | 0% | 0hPa | 0V | 00:00:00 | 00:00:00 | 00:00:00 | |
| PETON7-10 | 2026-09-01 11:36:40 | 48.23764 | 16.38757 | 112° | 29km/h | 2267m | 6.1m/s | 0°C | 0% | 0hPa | 0V | 00:00:00 | 00:00:00 | 00:00:00 | |
| OE3OSB-13 | 2026-09-01 11:36:39 | 48.23770 | 16.38736 | 115° | 24km/h | 2254m | 5.9m/s | 6.1°C | 74.4% | 787.2hPa | 0V | 00:00:00 | 00:00:00 | 00:00:00 | |
| OE3JTB-15 | 2026-09-01 11:36:26 | 48.23832 | 16.38609 | 130° | 29km/h | 2173m | 5.6m/s | 0°C | 0% | 0hPa | 0V | 00:00:00 | 00:00:00 | 00:00:00 | |
| PETON7-10 | 2026-09-01 11:36:24 | 48.23832 | 16.38609 | 130° | 31km/h | 2173m | 5.6m/s | 0°C | 0% | 0hPa | 0V | 00:00:00 | 00:00:00 | 00:00:00 | |
| PETON7-10 | 2026-09-01 11:36:08 | 48.23903 | 16.38460 | 133° | 27km/h | 2073m | 5.3m/s | 0°C | 0% | 0hPa | 0V | 00:00:00 | 00:00:00 | 00:00:00 | |
| OE3JTB-15 | 2026-09-01 11:35:57 | 48.23953 | 16.38338 | 104° | 24km/h | 1992m | 5.8m/s | 0°C | 0% | 0hPa | 0V | 00:00:00 | 00:00:00 | 00:00:00 | |
| PETON7-10 | 2026-09-01 11:35:52 | 48.23957 | 16.38323 | 112° | 27km/h | 1979m | 5.2m/s | 0°C | 0% | 0hPa | 0V | 00:00:00 | 00:00:00 | 00:00:00 | |
| OE3OSB-13 | 2026-09-01 11:35:37 | 48.24025 | 16.38201 | 120° | 33km/h | 1879m | 5.3m/s | 9.1°C | 74.2% | 823.6hPa | 0V | 00:00:00 | 00:00:00 | 00:00:00 | |
| PETON7-10 | 2026-09-01 11:35:35 | 48.24029 | 16.38190 | 108° | 18km/h | 1875m | 3.2m/s | 0°C | 0% | 0hPa | 0V | 00:00:00 | 00:00:00 | 00:00:00 | |
| OE3JTB-15 | 2026-09-01 11:35:26 | 48.24053 | 16.38124 | 110° | 22km/h | 1807m | 4.4m/s | 0°C | 0% | 0hPa | 0V | 00:00:00 | 00:00:00 | 00:00:00 | |
| PETON7-10 | 2026-09-01 11:35:20 | 48.24064 | 16.38102 | 141° | 22km/h | 1791m | 5.7m/s | 0°C | 0% | 0hPa | 0V | 00:00:00 | 00:00:00 | 00:00:00 | |
| OE3OSB-13 | 2026-09-01 11:35:06 | 48.24117 | 16.38013 | 131° | 26km/h | 1697m | 7.5m/s | 10.9°C | 70.4% | 842.4hPa | 0V | 00:00:00 | 00:00:00 | 00:00:00 | |
| PETON7-10 | 2026-09-01 11:35:05 | 48.24117 | 16.38013 | 132° | 24km/h | 1697m | 7.5m/s | 0°C | 0% | 0hPa | 0V | 00:00:00 | 00:00:00 | 00:00:00 | |
| OE3JTB-15 | 2026-09-01 11:34:57 | 48.24144 | 16.37960 | 151° | 24km/h | 1617m | 8.6m/s | 0°C | 0% | 0hPa | 0V | 00:00:00 | 00:00:00 | 00:00:00 | |
| PETON7-10 | 2026-09-01 11:34:50 | 48.24162 | 16.37926 | 116° | 18km/h | 1589m | 6.7m/s | 0°C | 0% | 0hPa | 0V | 00:00:00 | 00:00:00 | 00:00:00 | |
| PETON7-10 | 2026-09-01 11:34:35 | 48.24187 | 16.37837 | 129° | 27km/h | 1488m | 4.1m/s | 0°C | 0% | 0hPa | 0V | 00:00:00 | 00:00:00 | 00:00:00 | |
| OE3OSB-13 | 2026-09-01 11:34:35 | 48.24192 | 16.37828 | 135° | 29km/h | 1482m | 5.5m/s | 12.8°C | 65.1% | 864.1hPa | 0V | 00:00:00 | 00:00:00 | 00:00:00 | |
| OE3JTB-15 | 2026-09-01 11:34:28 | 48.24222 | 16.37769 | 129° | 18km/h | 1435m | 6.9m/s | 0°C | 0% | 0hPa | 0V | 00:00:00 | 00:00:00 | 00:00:00 | |
| PETON7-10 | 2026-09-01 11:34:19 | 48.24236 | 16.37715 | 134° | 18km/h | 1387m | 5.1m/s | 0°C | 0% | 0hPa | 0V | 00:00:00 | 00:00:00 | 00:00:00 | |
| PETON7-10 | 2026-09-01 11:34:04 | 48.24268 | 16.37635 | 135° | 16km/h | 1302m | 4.9m/s | 0°C | 0% | 0hPa | 0V | 00:00:00 | 00:00:00 | 00:00:00 | |
| OE3OSB-13 | 2026-09-01 11:34:04 | 48.24271 | 16.37629 | 128° | 16km/h | 1293m | 5.0m/s | 14.6°C | 60.1% | 883.6hPa | 0V | 00:00:00 | 00:00:00 | 00:00:00 | |
| OE3JTB-15 | 2026-09-01 11:33:59 | 48.24284 | 16.37599 | 113° | 18km/h | 1261m | 2.8m/s | 0°C | 0% | 0hPa | 0V | 00:00:00 | 00:00:00 | 00:00:00 | |
| PETON7-10 | 2026-09-01 11:33:49 | 48.24288 | 16.37568 | 83° | 22km/h | 1225m | 2.4m/s | 0°C | 0% | 0hPa | 0V | 00:00:00 | 00:00:00 | 00:00:00 | |
| PETON7-10 | 2026-09-01 11:33:34 | 48.24346 | 16.37484 | 124° | 18km/h | 1160m | 5.7m/s | 0°C | 0% | 0hPa | 0V | 00:00:00 | 00:00:00 | 00:00:00 | |
| OE3OSB-13 | 2026-09-01 11:33:33 | 48.24352 | 16.37479 | 152° | 18km/h | 1148m | 4.7m/s | 16.0°C | 56.5% | 899.1hPa | 0V | 00:00:00 | 00:00:00 | 00:00:00 | |
| OE3JTB-15 | 2026-09-01 11:33:30 | 48.24364 | 16.37461 | 111° | 22km/h | 1131m | 4.2m/s | 0°C | 0% | 0hPa | 0V | 00:00:00 | 00:00:00 | 00:00:00 | |
| PETON7-10 | 2026-09-01 11:33:19 | 48.24393 | 16.37396 | 115° | 22km/h | 1079m | 3.7m/s | 0°C | 0% | 0hPa | 0V | 00:00:00 | 00:00:00 | 00:00:00 | |
| PETON7-10 | 2026-09-01 11:33:04 | 48.24430 | 16.37275 | 118° | 27km/h | 990m | 4.2m/s | 0°C | 0% | 0hPa | 0V | 00:00:00 | 00:00:00 | 00:00:00 | |
| OE3OSB-13 | 2026-09-01 11:33:02 | 48.24436 | 16.37249 | 123° | 22km/h | 972m | 5.2m/s | 17.6°C | 51.8% | 917.9hPa | 0V | 00:00:00 | 00:00:00 | 00:00:00 | |
| OE3JTB-15 | 2026-09-01 11:33:01 | 48.24441 | 16.37242 | 136° | 27km/h | 967m | 5.0m/s | 0°C | 0% | 0hPa | 0V | 00:00:00 | 00:00:00 | 00:00:00 | |
| PETON7-10 | 2026-09-01 11:32:49 | 48.24475 | 16.37146 | 107° | 26km/h | 906m | 4.9m/s | 0°C | 0% | 0hPa | 0V | 00:00:00 | 00:00:00 | 00:00:00 | |
| PETON7-10 | 2026-09-01 11:32:34 | 48.24517 | 16.37011 | 114° | 27km/h | 818m | 5.6m/s | 0°C | 0% | 0hPa | 0V | 00:00:00 | 00:00:00 | 00:00:00 | |
| OE3JTB-15 | 2026-09-01 11:32:31 | 48.24527 | 16.36983 | 138° | 29km/h | 803m | 4.6m/s | 0°C | 0% | 0hPa | 0V | 00:00:00 | 00:00:00 | 00:00:00 | |
| OE3OSB-13 | 2026-09-01 11:32:31 | 48.24533 | 16.36976 | 138° | 26km/h | 797m | 6.1m/s | 19.3°C | 47.7% | 937.3hPa | 0V | 00:00:00 | 00:00:00 | 00:00:00 | |
| OE3JTB-15 | 2026-09-01 11:32:01 | 48.24633 | 16.36705 | 131° | 27km/h | 653m | 4.8m/s | 0°C | 0% | 0hPa | 0V | 00:00:00 | 00:00:00 | 00:00:00 | |
| OE3OSB-13 | 2026-09-01 11:32:00 | 48.24642 | 16.36690 | 127° | 29km/h | 641m | 5.0m/s | 20.7°C | 44.1% | 954.1hPa | 0V | 00:00:00 | 00:00:00 | 00:00:00 | |
| OE3JTB-15 | 2026-09-01 11:31:03 | 48.24785 | 16.36115 | 148° | 33km/h | 418m | 2.7m/s | 0°C | 0% | 0hPa | 0V | 00:00:00 | 00:00:00 | 00:00:00 |